<?xml version="1.0" encoding="UTF-8" standalone="no" ?><gpx xmlns="http://www.topografix.com/GPX/1/1" xmlns:gpxx="http://www.garmin.com/xmlschemas/GpxExtensions/v3" xmlns:wptx1="http://www.garmin.com/xmlschemas/WaypointExtension/v1" xmlns:gpxtpx="http://www.garmin.com/xmlschemas/TrackPointExtension/v1" creator="GuideVTT.com" version="1.1" xmlns:xsi="http://www.w3.org/2001/XMLSchema-instance" xsi:schemaLocation="http://www.topografix.com/GPX/1/1 http://www.topografix.com/GPX/1/1/gpx.xsd http://www.garmin.com/xmlschemas/GpxExtensions/v3 http://www8.garmin.com/xmlschemas/GpxExtensionsv3.xsd http://www.garmin.com/xmlschemas/WaypointExtension/v1 http://www8.garmin.com/xmlschemas/WaypointExtensionv1.xsd http://www.garmin.com/xmlschemas/TrackPointExtension/v1 http://www.garmin.com/xmlschemas/TrackPointExtensionv1.xsd">
<metadata><link href="http://www.garmin.com"><text>Garmin International</text></link><time>2013-06-22T15:13:50Z</time></metadata>
<trk><name>lac_bienne2.gpx</name><extensions><gpxx:TrackExtension><gpxx:DisplayColor>Cyan</gpxx:DisplayColor></gpxx:TrackExtension></extensions><trkseg>
<trkpt lat="47.06978559" lon="6.69453621"><ele>817.240234</ele><time>2009-06-14T16:29:44Z</time></trkpt>
<trkpt lat="47.06997871" lon="6.69522285"><ele>776.384521</ele><time>2009-06-14T16:29:44Z</time></trkpt>
<trkpt lat="47.07032204" lon="6.69393539"><ele>790.32373</ele><time>2009-06-14T16:29:44Z</time></trkpt>
<trkpt lat="47.07010746" lon="6.69224024"><ele>795.61084</ele><time>2009-06-14T16:29:44Z</time></trkpt>
<trkpt lat="47.06772566" lon="6.68872118"><ele>777.345947</ele><time>2009-06-14T16:29:44Z</time></trkpt>
<trkpt lat="47.06703901" lon="6.68681145"><ele>775.903809</ele><time>2009-06-14T16:29:44Z</time></trkpt>
<trkpt lat="47.06695318" lon="6.68580294"><ele>776.384521</ele><time>2009-06-14T16:29:44Z</time></trkpt>
<trkpt lat="47.06671715" lon="6.68550253"><ele>774.942627</ele><time>2009-06-14T16:29:44Z</time></trkpt>
<trkpt lat="47.06583738" lon="6.68537378"><ele>765.32959</ele><time>2009-06-14T16:29:44Z</time></trkpt>
<trkpt lat="47.06504345" lon="6.68400049"><ele>761.484375</ele><time>2009-06-14T16:29:45Z</time></trkpt>
<trkpt lat="47.06470013" lon="6.68166161"><ele>756.197021</ele><time>2009-06-14T16:29:45Z</time></trkpt>
<trkpt lat="47.06470013" lon="6.68065310"><ele>755.716309</ele><time>2009-06-14T16:29:45Z</time></trkpt>
<trkpt lat="47.06555843" lon="6.67805672"><ele>754.274414</ele><time>2009-06-14T16:29:45Z</time></trkpt>
<trkpt lat="47.06560135" lon="6.67696238"><ele>753.312988</ele><time>2009-06-14T16:29:45Z</time></trkpt>
<trkpt lat="47.06534386" lon="6.67569637"><ele>754.274414</ele><time>2009-06-14T16:29:45Z</time></trkpt>
<trkpt lat="47.06476450" lon="6.67477369"><ele>753.793701</ele><time>2009-06-14T16:29:45Z</time></trkpt>
<trkpt lat="47.06403494" lon="6.67400122"><ele>751.871094</ele><time>2009-06-14T16:29:45Z</time></trkpt>
<trkpt lat="47.06336975" lon="6.67290688"><ele>753.793701</ele><time>2009-06-14T16:29:45Z</time></trkpt>
<trkpt lat="47.06264019" lon="6.67207003"><ele>752.832275</ele><time>2009-06-14T16:29:45Z</time></trkpt>
<trkpt lat="47.06139565" lon="6.67121172"><ele>751.390381</ele><time>2009-06-14T16:29:45Z</time></trkpt>
<trkpt lat="47.06000090" lon="6.67099714"><ele>750.909668</ele><time>2009-06-14T16:29:45Z</time></trkpt>
<trkpt lat="47.05918550" lon="6.67013884"><ele>752.832275</ele><time>2009-06-14T16:29:45Z</time></trkpt>
<trkpt lat="47.05794096" lon="6.66981697"><ele>750.909668</ele><time>2009-06-14T16:29:45Z</time></trkpt>
<trkpt lat="47.05665350" lon="6.67041779"><ele>747.064453</ele><time>2009-06-14T16:29:45Z</time></trkpt>
<trkpt lat="47.05631018" lon="6.67028904"><ele>746.103271</ele><time>2009-06-14T16:29:45Z</time></trkpt>
<trkpt lat="47.05555916" lon="6.66867971"><ele>752.351563</ele><time>2009-06-14T16:29:45Z</time></trkpt>
<trkpt lat="47.05390692" lon="6.66741371"><ele>753.793701</ele><time>2009-06-14T16:29:45Z</time></trkpt>
<trkpt lat="47.05298424" lon="6.66604042"><ele>759.561768</ele><time>2009-06-14T16:29:45Z</time></trkpt>
<trkpt lat="47.05257654" lon="6.66436672"><ele>756.197021</ele><time>2009-06-14T16:29:45Z</time></trkpt>
<trkpt lat="47.05249071" lon="6.66305780"><ele>756.677734</ele><time>2009-06-14T16:29:45Z</time></trkpt>
<trkpt lat="47.05283403" lon="6.66196346"><ele>755.716309</ele><time>2009-06-14T16:29:45Z</time></trkpt>
<trkpt lat="47.05440044" lon="6.65968895"><ele>755.716309</ele><time>2009-06-14T16:29:45Z</time></trkpt>
<trkpt lat="47.05467939" lon="6.65842295"><ele>755.235596</ele><time>2009-06-14T16:29:45Z</time></trkpt>
<trkpt lat="47.05416441" lon="6.65550470"><ele>755.716309</ele><time>2009-06-14T16:29:46Z</time></trkpt>
<trkpt lat="47.05379963" lon="6.65391684"><ele>757.63916</ele><time>2009-06-14T16:29:46Z</time></trkpt>
<trkpt lat="47.05040932" lon="6.64503336"><ele>762.445557</ele><time>2009-06-14T16:29:46Z</time></trkpt>
<trkpt lat="47.04952955" lon="6.64338112"><ele>761.003662</ele><time>2009-06-14T16:29:46Z</time></trkpt>
<trkpt lat="47.04875708" lon="6.64153576"><ele>760.522949</ele><time>2009-06-14T16:29:46Z</time></trkpt>
<trkpt lat="47.04777002" lon="6.63986206"><ele>758.600342</ele><time>2009-06-14T16:29:46Z</time></trkpt>
<trkpt lat="47.04746962" lon="6.63902521"><ele>757.158447</ele><time>2009-06-14T16:29:46Z</time></trkpt>
<trkpt lat="47.04757690" lon="6.63956165"><ele>750.909668</ele><time>2009-06-14T16:29:46Z</time></trkpt>
<trkpt lat="47.04740524" lon="6.63988352"><ele>756.197021</ele><time>2009-06-14T16:29:46Z</time></trkpt>
<trkpt lat="47.04736233" lon="6.64108515"><ele>752.351563</ele><time>2009-06-14T16:29:46Z</time></trkpt>
<trkpt lat="47.04637527" lon="6.64181471"><ele>754.274414</ele><time>2009-06-14T16:29:46Z</time></trkpt>
<trkpt lat="47.04549551" lon="6.64286613"><ele>760.522949</ele><time>2009-06-14T16:29:46Z</time></trkpt>
<trkpt lat="47.04487324" lon="6.64301634"><ele>760.522949</ele><time>2009-06-14T16:29:46Z</time></trkpt>
<trkpt lat="47.04386473" lon="6.64447546"><ele>763.406982</ele><time>2009-06-14T16:29:46Z</time></trkpt>
<trkpt lat="47.04309225" lon="6.64492607"><ele>773.500732</ele><time>2009-06-14T16:29:46Z</time></trkpt>
<trkpt lat="47.04358578" lon="6.64471149"><ele>773.981201</ele><time>2009-06-14T16:29:46Z</time></trkpt>
<trkpt lat="47.04558134" lon="6.64280176"><ele>768.213379</ele><time>2009-06-14T16:29:46Z</time></trkpt>
<trkpt lat="47.04646111" lon="6.64151430"><ele>763.887451</ele><time>2009-06-14T16:29:46Z</time></trkpt>
<trkpt lat="47.04581738" lon="6.63986206"><ele>762.92627</ele><time>2009-06-14T16:29:46Z</time></trkpt>
<trkpt lat="47.04472303" lon="6.63820982"><ele>766.771484</ele><time>2009-06-14T16:29:46Z</time></trkpt>
<trkpt lat="47.04405785" lon="6.63366079"><ele>761.484375</ele><time>2009-06-14T16:29:46Z</time></trkpt>
<trkpt lat="47.04431534" lon="6.63303852"><ele>759.561768</ele><time>2009-06-14T16:29:46Z</time></trkpt>
<trkpt lat="47.04474449" lon="6.63273811"><ele>757.63916</ele><time>2009-06-14T16:29:46Z</time></trkpt>
<trkpt lat="47.04543114" lon="6.63112879"><ele>756.677734</ele><time>2009-06-14T16:29:46Z</time></trkpt>
<trkpt lat="47.04575300" lon="6.62812471"><ele>752.832275</ele><time>2009-06-14T16:29:47Z</time></trkpt>
<trkpt lat="47.04669714" lon="6.62709475"><ele>746.103271</ele><time>2009-06-14T16:29:47Z</time></trkpt>
<trkpt lat="47.04691172" lon="6.62662268"><ele>745.622559</ele><time>2009-06-14T16:29:47Z</time></trkpt>
<trkpt lat="47.04691172" lon="6.62619352"><ele>746.583984</ele><time>2009-06-14T16:29:47Z</time></trkpt>
<trkpt lat="47.04641819" lon="6.62445545"><ele>752.351563</ele><time>2009-06-14T16:29:47Z</time></trkpt>
<trkpt lat="47.04635382" lon="6.62318945"><ele>754.274414</ele><time>2009-06-14T16:29:47Z</time></trkpt>
<trkpt lat="47.04652548" lon="6.62185907"><ele>753.312988</ele><time>2009-06-14T16:29:47Z</time></trkpt>
<trkpt lat="47.04697609" lon="6.62024975"><ele>752.832275</ele><time>2009-06-14T16:29:47Z</time></trkpt>
<trkpt lat="47.04643965" lon="6.61943436"><ele>753.793701</ele><time>2009-06-14T16:29:47Z</time></trkpt>
<trkpt lat="47.04656839" lon="6.61864042"><ele>754.274414</ele><time>2009-06-14T16:29:47Z</time></trkpt>
<trkpt lat="47.04648256" lon="6.61823273"><ele>754.754883</ele><time>2009-06-14T16:29:47Z</time></trkpt>
<trkpt lat="47.04616070" lon="6.61797523"><ele>754.274414</ele><time>2009-06-14T16:29:47Z</time></trkpt>
<trkpt lat="47.04601049" lon="6.61769629"><ele>754.754883</ele><time>2009-06-14T16:29:47Z</time></trkpt>
<trkpt lat="47.04579592" lon="6.61675215"><ele>754.754883</ele><time>2009-06-14T16:29:47Z</time></trkpt>
<trkpt lat="47.04384327" lon="6.61261082"><ele>760.042236</ele><time>2009-06-14T16:29:47Z</time></trkpt>
<trkpt lat="47.04302788" lon="6.61033630"><ele>762.92627</ele><time>2009-06-14T16:29:47Z</time></trkpt>
<trkpt lat="47.04159021" lon="6.60834074"><ele>774.942627</ele><time>2009-06-14T16:29:47Z</time></trkpt>
<trkpt lat="47.04156876" lon="6.60726786"><ele>777.826416</ele><time>2009-06-14T16:29:47Z</time></trkpt>
<trkpt lat="47.04425097" lon="6.60724640"><ele>778.307129</ele><time>2009-06-14T16:29:47Z</time></trkpt>
<trkpt lat="47.04457283" lon="6.60707474"><ele>776.865234</ele><time>2009-06-14T16:29:47Z</time></trkpt>
<trkpt lat="47.04564571" lon="6.60623789"><ele>771.577881</ele><time>2009-06-14T16:29:47Z</time></trkpt>
<trkpt lat="47.04571009" lon="6.60565853"><ele>769.655518</ele><time>2009-06-14T16:29:47Z</time></trkpt>
<trkpt lat="47.04536676" lon="6.60505772"><ele>766.771484</ele><time>2009-06-14T16:29:47Z</time></trkpt>
<trkpt lat="47.04549551" lon="6.60439253"><ele>763.406982</ele><time>2009-06-14T16:29:47Z</time></trkpt>
<trkpt lat="47.04875708" lon="6.60113096"><ele>756.677734</ele><time>2009-06-14T16:29:48Z</time></trkpt>
<trkpt lat="47.04963684" lon="6.60035849"><ele>755.716309</ele><time>2009-06-14T16:29:48Z</time></trkpt>
<trkpt lat="47.05291986" lon="6.59919977"><ele>757.158447</ele><time>2009-06-14T16:29:48Z</time></trkpt>
<trkpt lat="47.05126762" lon="6.59851313"><ele>755.235596</ele><time>2009-06-14T16:29:48Z</time></trkpt>
<trkpt lat="47.05049515" lon="6.59797668"><ele>755.235596</ele><time>2009-06-14T16:29:48Z</time></trkpt>
<trkpt lat="47.04989433" lon="6.59713984"><ele>755.235596</ele><time>2009-06-14T16:29:48Z</time></trkpt>
<trkpt lat="47.04955101" lon="6.59544468"><ele>754.754883</ele><time>2009-06-14T16:29:48Z</time></trkpt>
<trkpt lat="47.04783440" lon="6.59379244"><ele>755.235596</ele><time>2009-06-14T16:29:48Z</time></trkpt>
<trkpt lat="47.04742670" lon="6.59291267"><ele>754.754883</ele><time>2009-06-14T16:29:48Z</time></trkpt>
<trkpt lat="47.04721212" lon="6.59291267"><ele>754.754883</ele><time>2009-06-14T16:29:48Z</time></trkpt>
<trkpt lat="47.04637527" lon="6.59424305"><ele>755.716309</ele><time>2009-06-14T16:29:48Z</time></trkpt>
<trkpt lat="47.04528093" lon="6.59334183"><ele>755.235596</ele><time>2009-06-14T16:29:48Z</time></trkpt>
<trkpt lat="47.04448700" lon="6.59364223"><ele>755.235596</ele><time>2009-06-14T16:29:48Z</time></trkpt>
<trkpt lat="47.04362869" lon="6.59351349"><ele>755.716309</ele><time>2009-06-14T16:29:48Z</time></trkpt>
<trkpt lat="47.04283476" lon="6.59304142"><ele>754.754883</ele><time>2009-06-14T16:29:48Z</time></trkpt>
<trkpt lat="47.04238415" lon="6.59224749"><ele>754.754883</ele><time>2009-06-14T16:29:48Z</time></trkpt>
<trkpt lat="47.04148293" lon="6.59203291"><ele>755.235596</ele><time>2009-06-14T16:29:48Z</time></trkpt>
<trkpt lat="47.04073191" lon="6.59246206"><ele>755.716309</ele><time>2009-06-14T16:29:48Z</time></trkpt>
<trkpt lat="47.04038858" lon="6.59342766"><ele>758.600342</ele><time>2009-06-14T16:29:48Z</time></trkpt>
<trkpt lat="47.04038858" lon="6.59589529"><ele>765.32959</ele><time>2009-06-14T16:29:48Z</time></trkpt>
<trkpt lat="47.04004526" lon="6.59731150"><ele>770.135986</ele><time>2009-06-14T16:29:48Z</time></trkpt>
<trkpt lat="47.04013109" lon="6.59834146"><ele>774.461914</ele><time>2009-06-14T16:29:48Z</time></trkpt>
<trkpt lat="47.03506708" lon="6.60252571"><ele>808.10791</ele><time>2009-06-14T16:29:48Z</time></trkpt>
<trkpt lat="47.03489542" lon="6.60250425"><ele>810.510986</ele><time>2009-06-14T16:29:48Z</time></trkpt>
<trkpt lat="47.03506708" lon="6.60664558"><ele>813.875488</ele><time>2009-06-14T16:29:49Z</time></trkpt>
<trkpt lat="47.03521729" lon="6.60705328"><ele>813.39502</ele><time>2009-06-14T16:29:49Z</time></trkpt>
<trkpt lat="47.03556061" lon="6.60737514"><ele>812.914307</ele><time>2009-06-14T16:29:49Z</time></trkpt>
<trkpt lat="47.03624725" lon="6.60861969"><ele>812.433594</ele><time>2009-06-14T16:29:49Z</time></trkpt>
<trkpt lat="47.03974485" lon="6.60716057"><ele>788.881836</ele><time>2009-06-14T16:29:49Z</time></trkpt>
<trkpt lat="47.04425097" lon="6.60726786"><ele>780.229736</ele><time>2009-06-14T16:29:49Z</time></trkpt>
<trkpt lat="47.04566717" lon="6.60623789"><ele>773.981201</ele><time>2009-06-14T16:29:49Z</time></trkpt>
<trkpt lat="47.04571009" lon="6.60570145"><ele>772.058594</ele><time>2009-06-14T16:29:49Z</time></trkpt>
<trkpt lat="47.04538822" lon="6.60512209"><ele>768.213379</ele><time>2009-06-14T16:29:49Z</time></trkpt>
<trkpt lat="47.04545259" lon="6.60449982"><ele>764.368164</ele><time>2009-06-14T16:29:49Z</time></trkpt>
<trkpt lat="47.04573154" lon="6.60413504"><ele>762.445557</ele><time>2009-06-14T16:29:49Z</time></trkpt>
<trkpt lat="47.04901457" lon="6.60093784"><ele>756.197021</ele><time>2009-06-14T16:29:49Z</time></trkpt>
<trkpt lat="47.04987288" lon="6.60027266"><ele>756.197021</ele><time>2009-06-14T16:29:49Z</time></trkpt>
<trkpt lat="47.05302715" lon="6.59930706"><ele>758.119873</ele><time>2009-06-14T16:29:49Z</time></trkpt>
<trkpt lat="47.05388546" lon="6.59999371"><ele>758.600342</ele><time>2009-06-14T16:29:49Z</time></trkpt>
<trkpt lat="47.05397129" lon="6.60095930"><ele>758.119873</ele><time>2009-06-14T16:29:49Z</time></trkpt>
<trkpt lat="47.05482960" lon="6.60447836"><ele>758.600342</ele><time>2009-06-14T16:29:49Z</time></trkpt>
<trkpt lat="47.05444336" lon="6.60484314"><ele>757.63916</ele><time>2009-06-14T16:29:49Z</time></trkpt>
<trkpt lat="47.05433607" lon="6.60634518"><ele>757.158447</ele><time>2009-06-14T16:29:49Z</time></trkpt>
<trkpt lat="47.05427170" lon="6.60789013"><ele>756.677734</ele><time>2009-06-14T16:29:49Z</time></trkpt>
<trkpt lat="47.05463648" lon="6.60876989"><ele>757.158447</ele><time>2009-06-14T16:29:49Z</time></trkpt>
<trkpt lat="47.05459356" lon="6.60945654"><ele>757.63916</ele><time>2009-06-14T16:29:49Z</time></trkpt>
<trkpt lat="47.05390692" lon="6.61130190"><ele>761.965088</ele><time>2009-06-14T16:29:49Z</time></trkpt>
<trkpt lat="47.05420732" lon="6.61181688"><ele>763.887451</ele><time>2009-06-14T16:29:49Z</time></trkpt>
<trkpt lat="47.05472231" lon="6.61192417"><ele>766.771484</ele><time>2009-06-14T16:29:50Z</time></trkpt>
<trkpt lat="47.05573082" lon="6.61374807"><ele>768.213379</ele><time>2009-06-14T16:29:50Z</time></trkpt>
<trkpt lat="47.05693245" lon="6.61748171"><ele>757.63916</ele><time>2009-06-14T16:29:50Z</time></trkpt>
<trkpt lat="47.05680370" lon="6.61803961"><ele>761.003662</ele><time>2009-06-14T16:29:50Z</time></trkpt>
<trkpt lat="47.05620289" lon="6.61874771"><ele>764.848877</ele><time>2009-06-14T16:29:50Z</time></trkpt>
<trkpt lat="47.05564499" lon="6.62039995"><ele>771.577881</ele><time>2009-06-14T16:29:50Z</time></trkpt>
<trkpt lat="47.05575228" lon="6.62130117"><ele>773.500732</ele><time>2009-06-14T16:29:50Z</time></trkpt>
<trkpt lat="47.05686808" lon="6.62226677"><ele>779.749023</ele><time>2009-06-14T16:29:50Z</time></trkpt>
<trkpt lat="47.05802679" lon="6.62411213"><ele>782.633057</ele><time>2009-06-14T16:29:50Z</time></trkpt>
<trkpt lat="47.05697536" lon="6.62617207"><ele>792.727051</ele><time>2009-06-14T16:29:50Z</time></trkpt>
<trkpt lat="47.05643892" lon="6.62810326"><ele>805.70459</ele><time>2009-06-14T16:29:50Z</time></trkpt>
<trkpt lat="47.05622435" lon="6.62945509"><ele>820.124268</ele><time>2009-06-14T16:29:50Z</time></trkpt>
<trkpt lat="47.05545187" lon="6.62969112"><ele>825.89209</ele><time>2009-06-14T16:29:50Z</time></trkpt>
<trkpt lat="47.05414295" lon="6.62932634"><ele>834.543945</ele><time>2009-06-14T16:29:50Z</time></trkpt>
<trkpt lat="47.05328465" lon="6.62979841"><ele>845.118164</ele><time>2009-06-14T16:29:50Z</time></trkpt>
<trkpt lat="47.05210447" lon="6.63009882"><ele>853.770264</ele><time>2009-06-14T16:29:50Z</time></trkpt>
<trkpt lat="47.05201864" lon="6.63042068"><ele>854.731445</ele><time>2009-06-14T16:29:50Z</time></trkpt>
<trkpt lat="47.05219030" lon="6.63080692"><ele>858.57666</ele><time>2009-06-14T16:29:50Z</time></trkpt>
<trkpt lat="47.05420732" lon="6.63198709"><ele>881.16748</ele><time>2009-06-14T16:29:50Z</time></trkpt>
<trkpt lat="47.05444336" lon="6.63237333"><ele>880.206055</ele><time>2009-06-14T16:29:50Z</time></trkpt>
<trkpt lat="47.05394983" lon="6.63265228"><ele>885.974121</ele><time>2009-06-14T16:29:50Z</time></trkpt>
<trkpt lat="47.05240488" lon="6.63293123"><ele>909.526123</ele><time>2009-06-14T16:29:50Z</time></trkpt>
<trkpt lat="47.05191135" lon="6.63323164"><ele>915.293945</ele><time>2009-06-14T16:29:50Z</time></trkpt>
<trkpt lat="47.05156803" lon="6.63464785"><ele>917.216797</ele><time>2009-06-14T16:29:50Z</time></trkpt>
<trkpt lat="47.05178261" lon="6.63636446"><ele>916.736084</ele><time>2009-06-14T16:29:50Z</time></trkpt>
<trkpt lat="47.05319881" lon="6.63881063"><ele>921.54248</ele><time>2009-06-14T16:29:51Z</time></trkpt>
<trkpt lat="47.05373526" lon="6.64003372"><ele>922.023193</ele><time>2009-06-14T16:29:51Z</time></trkpt>
<trkpt lat="47.05414295" lon="6.64046288"><ele>922.023193</ele><time>2009-06-14T16:29:51Z</time></trkpt>
<trkpt lat="47.05461502" lon="6.64132118"><ele>920.581299</ele><time>2009-06-14T16:29:51Z</time></trkpt>
<trkpt lat="47.05489397" lon="6.64241552"><ele>921.062012</ele><time>2009-06-14T16:29:51Z</time></trkpt>
<trkpt lat="47.05555916" lon="6.64374590"><ele>922.023193</ele><time>2009-06-14T16:29:51Z</time></trkpt>
<trkpt lat="47.05609560" lon="6.64396048"><ele>924.426514</ele><time>2009-06-14T16:29:51Z</time></trkpt>
<trkpt lat="47.05628872" lon="6.64357424"><ele>925.387695</ele><time>2009-06-14T16:29:51Z</time></trkpt>
<trkpt lat="47.05723286" lon="6.64378881"><ele>930.675049</ele><time>2009-06-14T16:29:51Z</time></trkpt>
<trkpt lat="47.05826283" lon="6.64329529"><ele>938.365479</ele><time>2009-06-14T16:29:51Z</time></trkpt>
<trkpt lat="47.05843449" lon="6.64297342"><ele>936.92334</ele><time>2009-06-14T16:29:51Z</time></trkpt>
<trkpt lat="47.05819845" lon="6.64224386"><ele>942.691406</ele><time>2009-06-14T16:29:51Z</time></trkpt>
<trkpt lat="47.05828428" lon="6.64117098"><ele>953.746582</ele><time>2009-06-14T16:29:51Z</time></trkpt>
<trkpt lat="47.05832720" lon="6.64097786"><ele>953.746582</ele><time>2009-06-14T16:29:51Z</time></trkpt>
<trkpt lat="47.05858469" lon="6.64078474"><ele>955.188477</ele><time>2009-06-14T16:29:51Z</time></trkpt>
<trkpt lat="47.06034422" lon="6.64095640"><ele>961.917725</ele><time>2009-06-14T16:29:51Z</time></trkpt>
<trkpt lat="47.06180334" lon="6.64069891"><ele>967.204834</ele><time>2009-06-14T16:29:51Z</time></trkpt>
<trkpt lat="47.06328392" lon="6.64127827"><ele>965.762939</ele><time>2009-06-14T16:29:51Z</time></trkpt>
<trkpt lat="47.06397057" lon="6.64164305"><ele>964.801514</ele><time>2009-06-14T16:29:51Z</time></trkpt>
<trkpt lat="47.06414223" lon="6.64224386"><ele>963.840088</ele><time>2009-06-14T16:29:51Z</time></trkpt>
<trkpt lat="47.06450701" lon="6.64267302"><ele>960.475586</ele><time>2009-06-14T16:29:51Z</time></trkpt>
<trkpt lat="47.06592321" lon="6.64363861"><ele>954.227295</ele><time>2009-06-14T16:29:51Z</time></trkpt>
<trkpt lat="47.06555843" lon="6.64374590"><ele>956.149658</ele><time>2009-06-14T16:29:51Z</time></trkpt>
<trkpt lat="47.06549406" lon="6.64406776"><ele>958.552979</ele><time>2009-06-14T16:29:51Z</time></trkpt>
<trkpt lat="47.06652403" lon="6.64516211"><ele>969.608154</ele><time>2009-06-14T16:29:52Z</time></trkpt>
<trkpt lat="47.06781149" lon="6.64614916"><ele>981.144043</ele><time>2009-06-14T16:29:52Z</time></trkpt>
<trkpt lat="47.06946373" lon="6.64664268"><ele>996.044189</ele><time>2009-06-14T16:29:52Z</time></trkpt>
<trkpt lat="47.07021475" lon="6.64720058"><ele>1002.773193</ele><time>2009-06-14T16:29:52Z</time></trkpt>
<trkpt lat="47.07229614" lon="6.64960384"><ele>1024.883545</ele><time>2009-06-14T16:29:52Z</time></trkpt>
<trkpt lat="47.07349777" lon="6.65140629"><ele>1032.573975</ele><time>2009-06-14T16:29:52Z</time></trkpt>
<trkpt lat="47.07379818" lon="6.65215731"><ele>1036.419189</ele><time>2009-06-14T16:29:52Z</time></trkpt>
<trkpt lat="47.07379818" lon="6.65232897"><ele>1039.302979</ele><time>2009-06-14T16:29:52Z</time></trkpt>
<trkpt lat="47.07319736" lon="6.65265083"><ele>1035.457764</ele><time>2009-06-14T16:29:52Z</time></trkpt>
<trkpt lat="47.07199574" lon="6.65447474"><ele>1029.689941</ele><time>2009-06-14T16:29:52Z</time></trkpt>
<trkpt lat="47.07180262" lon="6.65498972"><ele>1026.325439</ele><time>2009-06-14T16:29:52Z</time></trkpt>
<trkpt lat="47.07143784" lon="6.65513992"><ele>1021.999512</ele><time>2009-06-14T16:29:52Z</time></trkpt>
<trkpt lat="47.07034349" lon="6.65443182"><ele>1011.425049</ele><time>2009-06-14T16:29:52Z</time></trkpt>
<trkpt lat="47.07021475" lon="6.65479660"><ele>1009.98291</ele><time>2009-06-14T16:29:52Z</time></trkpt>
<trkpt lat="47.07113743" lon="6.65874481"><ele>1000.370117</ele><time>2009-06-14T16:29:52Z</time></trkpt>
<trkpt lat="47.07208157" lon="6.66011810"><ele>990.756836</ele><time>2009-06-14T16:29:52Z</time></trkpt>
<trkpt lat="47.07236052" lon="6.66108370"><ele>985.950439</ele><time>2009-06-14T16:29:52Z</time></trkpt>
<trkpt lat="47.07223177" lon="6.66391611"><ele>975.375732</ele><time>2009-06-14T16:29:52Z</time></trkpt>
<trkpt lat="47.07236052" lon="6.66451693"><ele>972.491943</ele><time>2009-06-14T16:29:52Z</time></trkpt>
<trkpt lat="47.07354069" lon="6.66646957"><ele>968.646729</ele><time>2009-06-14T16:29:52Z</time></trkpt>
<trkpt lat="47.07386255" lon="6.66747808"><ele>965.282227</ele><time>2009-06-14T16:29:52Z</time></trkpt>
<trkpt lat="47.07375526" lon="6.66829348"><ele>964.320801</ele><time>2009-06-14T16:29:52Z</time></trkpt>
<trkpt lat="47.07321882" lon="6.66870117"><ele>961.437012</ele><time>2009-06-14T16:29:52Z</time></trkpt>
<trkpt lat="47.07300425" lon="6.66921616"><ele>958.552979</ele><time>2009-06-14T16:29:52Z</time></trkpt>
<trkpt lat="47.07278967" lon="6.67035341"><ele>954.227295</ele><time>2009-06-14T16:29:53Z</time></trkpt>
<trkpt lat="47.07356215" lon="6.67445183"><ele>945.094482</ele><time>2009-06-14T16:29:53Z</time></trkpt>
<trkpt lat="47.07433462" lon="6.67586803"><ele>938.365479</ele><time>2009-06-14T16:29:53Z</time></trkpt>
<trkpt lat="47.07480669" lon="6.67797089"><ele>933.558838</ele><time>2009-06-14T16:29:53Z</time></trkpt>
<trkpt lat="47.07512856" lon="6.67846441"><ele>929.713623</ele><time>2009-06-14T16:29:53Z</time></trkpt>
<trkpt lat="47.07553625" lon="6.68065310"><ele>926.349121</ele><time>2009-06-14T16:29:53Z</time></trkpt>
<trkpt lat="47.07530022" lon="6.68084621"><ele>924.426514</ele><time>2009-06-14T16:29:53Z</time></trkpt>
<trkpt lat="47.07472086" lon="6.68030977"><ele>919.139404</ele><time>2009-06-14T16:29:53Z</time></trkpt>
<trkpt lat="47.07326174" lon="6.68043852"><ele>908.564697</ele><time>2009-06-14T16:29:53Z</time></trkpt>
<trkpt lat="47.07244635" lon="6.68116808"><ele>897.509766</ele><time>2009-06-14T16:29:53Z</time></trkpt>
<trkpt lat="47.07100868" lon="6.68138266"><ele>884.532227</ele><time>2009-06-14T16:29:53Z</time></trkpt>
<trkpt lat="47.07034349" lon="6.68121099"><ele>879.725342</ele><time>2009-06-14T16:29:53Z</time></trkpt>
<trkpt lat="47.06982851" lon="6.68045998"><ele>874.438232</ele><time>2009-06-14T16:29:53Z</time></trkpt>
<trkpt lat="47.06980705" lon="6.68086767"><ele>872.034912</ele><time>2009-06-14T16:29:53Z</time></trkpt>
<trkpt lat="47.07006454" lon="6.68155432"><ele>870.593018</ele><time>2009-06-14T16:29:53Z</time></trkpt>
<trkpt lat="47.07077265" lon="6.68236971"><ele>868.67041</ele><time>2009-06-14T16:29:53Z</time></trkpt>
<trkpt lat="47.07068682" lon="6.68339968"><ele>864.825195</ele><time>2009-06-14T16:29:53Z</time></trkpt>
<trkpt lat="47.07079411" lon="6.68462276"><ele>862.902588</ele><time>2009-06-14T16:29:53Z</time></trkpt>
<trkpt lat="47.07057953" lon="6.68545961"><ele>857.134766</ele><time>2009-06-14T16:29:53Z</time></trkpt>
<trkpt lat="47.07030058" lon="6.68560982"><ele>852.328125</ele><time>2009-06-14T16:29:53Z</time></trkpt>
<trkpt lat="47.07008600" lon="6.68496609"><ele>848.002197</ele><time>2009-06-14T16:29:53Z</time></trkpt>
<trkpt lat="47.06980705" lon="6.68498755"><ele>845.118164</ele><time>2009-06-14T16:29:53Z</time></trkpt>
<trkpt lat="47.06974268" lon="6.68552399"><ele>839.831055</ele><time>2009-06-14T16:29:53Z</time></trkpt>
<trkpt lat="47.06942081" lon="6.68565273"><ele>832.140625</ele><time>2009-06-14T16:29:54Z</time></trkpt>
<trkpt lat="47.06890583" lon="6.68466568"><ele>824.450195</ele><time>2009-06-14T16:29:54Z</time></trkpt>
<trkpt lat="47.06864834" lon="6.68490171"><ele>820.124268</ele><time>2009-06-14T16:29:54Z</time></trkpt>
<trkpt lat="47.06836939" lon="6.68636084"><ele>808.588379</ele><time>2009-06-14T16:29:54Z</time></trkpt>
<trkpt lat="47.06776857" lon="6.68702602"><ele>797.533447</ele><time>2009-06-14T16:29:54Z</time></trkpt>
<trkpt lat="47.06723213" lon="6.68691874"><ele>787.920166</ele><time>2009-06-14T16:29:54Z</time></trkpt>
<trkpt lat="47.06716776" lon="6.68724060"><ele>785.516846</ele><time>2009-06-14T16:29:54Z</time></trkpt>
<trkpt lat="47.06770420" lon="6.68878555"><ele>784.074951</ele><time>2009-06-14T16:29:54Z</time></trkpt>
<trkpt lat="47.07002163" lon="6.69228315"><ele>798.494629</ele><time>2009-06-14T16:29:54Z</time></trkpt>
<trkpt lat="47.07027912" lon="6.69359207"><ele>799.936768</ele><time>2009-06-14T16:29:54Z</time></trkpt>
<trkpt lat="47.07021475" lon="6.69430017"><ele>798.01416</ele><time>2009-06-14T16:29:54Z</time></trkpt>
<trkpt lat="47.07000017" lon="6.69509411"><ele>785.516846</ele><time>2009-06-14T16:29:54Z</time></trkpt>
<trkpt lat="47.06995726" lon="6.69490099"><ele>786.95874</ele><time>2009-06-14T16:29:54Z</time></trkpt>
<trkpt lat="47.04231977" lon="7.07886457"><ele>449.538818</ele><time>2009-06-14T16:29:54Z</time></trkpt>
<trkpt lat="47.04227686" lon="7.07918644"><ele>440.406372</ele><time>2009-06-14T16:29:54Z</time></trkpt>
<trkpt lat="47.04225540" lon="7.07895041"><ele>438.003052</ele><time>2009-06-14T16:29:54Z</time></trkpt>
<trkpt lat="47.04238415" lon="7.07916498"><ele>436.080444</ele><time>2009-06-14T16:29:54Z</time></trkpt>
<trkpt lat="47.04242706" lon="7.07892895"><ele>433.196533</ele><time>2009-06-14T16:29:54Z</time></trkpt>
<trkpt lat="47.04231977" lon="7.07762003"><ele>436.561157</ele><time>2009-06-14T16:29:54Z</time></trkpt>
<trkpt lat="47.04206228" lon="7.07678318"><ele>438.003052</ele><time>2009-06-14T16:29:54Z</time></trkpt>
<trkpt lat="47.04096794" lon="7.07493782"><ele>438.964355</ele><time>2009-06-14T16:29:54Z</time></trkpt>
<trkpt lat="47.04004526" lon="7.07302809"><ele>439.444946</ele><time>2009-06-14T16:29:54Z</time></trkpt>
<trkpt lat="47.04049587" lon="7.07234144"><ele>436.080444</ele><time>2009-06-14T16:29:54Z</time></trkpt>
<trkpt lat="47.04197645" lon="7.07129002"><ele>436.080444</ele><time>2009-06-14T16:29:55Z</time></trkpt>
<trkpt lat="47.04341412" lon="7.06968069"><ele>436.080444</ele><time>2009-06-14T16:29:55Z</time></trkpt>
<trkpt lat="47.04358578" lon="7.06959486"><ele>437.041748</ele><time>2009-06-14T16:29:55Z</time></trkpt>
<trkpt lat="47.04738379" lon="7.06440210"><ele>436.561157</ele><time>2009-06-14T16:29:55Z</time></trkpt>
<trkpt lat="47.04779148" lon="7.06446648"><ele>435.599731</ele><time>2009-06-14T16:29:55Z</time></trkpt>
<trkpt lat="47.04862833" lon="7.06506729"><ele>435.599731</ele><time>2009-06-14T16:29:55Z</time></trkpt>
<trkpt lat="47.04950809" lon="7.06513166"><ele>436.080444</ele><time>2009-06-14T16:29:55Z</time></trkpt>
<trkpt lat="47.05004454" lon="7.06468105"><ele>438.003052</ele><time>2009-06-14T16:29:55Z</time></trkpt>
<trkpt lat="47.05105305" lon="7.06453085"><ele>438.003052</ele><time>2009-06-14T16:29:55Z</time></trkpt>
<trkpt lat="47.05201864" lon="7.06405878"><ele>438.483765</ele><time>2009-06-14T16:29:55Z</time></trkpt>
<trkpt lat="47.05229759" lon="7.06405878"><ele>437.522339</ele><time>2009-06-14T16:29:55Z</time></trkpt>
<trkpt lat="47.05266237" lon="7.06457376"><ele>436.080444</ele><time>2009-06-14T16:29:55Z</time></trkpt>
<trkpt lat="47.05382109" lon="7.06457376"><ele>433.196533</ele><time>2009-06-14T16:29:55Z</time></trkpt>
<trkpt lat="47.05403566" lon="7.06631184"><ele>430.793335</ele><time>2009-06-14T16:29:55Z</time></trkpt>
<trkpt lat="47.05442190" lon="7.06744909"><ele>431.273926</ele><time>2009-06-14T16:29:55Z</time></trkpt>
<trkpt lat="47.05433607" lon="7.06770658"><ele>431.754517</ele><time>2009-06-14T16:29:55Z</time></trkpt>
<trkpt lat="47.05120325" lon="7.07210541"><ele>434.157837</ele><time>2009-06-14T16:29:55Z</time></trkpt>
<trkpt lat="47.05034494" lon="7.07358599"><ele>434.63855</ele><time>2009-06-14T16:29:55Z</time></trkpt>
<trkpt lat="47.05032349" lon="7.07384348"><ele>434.157837</ele><time>2009-06-14T16:29:55Z</time></trkpt>
<trkpt lat="47.05075264" lon="7.07491636"><ele>432.235229</ele><time>2009-06-14T16:29:55Z</time></trkpt>
<trkpt lat="47.05105305" lon="7.07530260"><ele>431.273926</ele><time>2009-06-14T16:29:55Z</time></trkpt>
<trkpt lat="47.05131054" lon="7.07521677"><ele>432.235229</ele><time>2009-06-14T16:29:55Z</time></trkpt>
<trkpt lat="47.05197573" lon="7.07427263"><ele>433.196533</ele><time>2009-06-14T16:29:55Z</time></trkpt>
<trkpt lat="47.05433607" lon="7.07221270"><ele>432.715942</ele><time>2009-06-14T16:29:55Z</time></trkpt>
<trkpt lat="47.05530167" lon="7.07279205"><ele>430.793335</ele><time>2009-06-14T16:29:56Z</time></trkpt>
<trkpt lat="47.05611706" lon="7.07412243"><ele>430.793335</ele><time>2009-06-14T16:29:56Z</time></trkpt>
<trkpt lat="47.05676079" lon="7.07350016"><ele>432.715942</ele><time>2009-06-14T16:29:56Z</time></trkpt>
<trkpt lat="47.05680370" lon="7.07309246"><ele>432.715942</ele><time>2009-06-14T16:29:56Z</time></trkpt>
<trkpt lat="47.05669641" lon="7.07294226"><ele>432.235229</ele><time>2009-06-14T16:29:56Z</time></trkpt>
<trkpt lat="47.05716848" lon="7.07262039"><ele>433.196533</ele><time>2009-06-14T16:29:56Z</time></trkpt>
<trkpt lat="47.05759764" lon="7.07380056"><ele>433.196533</ele><time>2009-06-14T16:29:56Z</time></trkpt>
<trkpt lat="47.05811262" lon="7.07440138"><ele>433.196533</ele><time>2009-06-14T16:29:56Z</time></trkpt>
<trkpt lat="47.05914259" lon="7.07910061"><ele>436.080444</ele><time>2009-06-14T16:29:56Z</time></trkpt>
<trkpt lat="47.06064463" lon="7.08309174"><ele>430.793335</ele><time>2009-06-14T16:29:56Z</time></trkpt>
<trkpt lat="47.06062317" lon="7.08414316"><ele>430.312622</ele><time>2009-06-14T16:29:56Z</time></trkpt>
<trkpt lat="47.06118107" lon="7.08633184"><ele>433.677124</ele><time>2009-06-14T16:29:56Z</time></trkpt>
<trkpt lat="47.06124544" lon="7.08680391"><ele>433.677124</ele><time>2009-06-14T16:29:56Z</time></trkpt>
<trkpt lat="47.06100941" lon="7.08699703"><ele>434.63855</ele><time>2009-06-14T16:29:56Z</time></trkpt>
<trkpt lat="47.06115961" lon="7.08779097"><ele>434.157837</ele><time>2009-06-14T16:29:56Z</time></trkpt>
<trkpt lat="47.06051588" lon="7.08856344"><ele>437.041748</ele><time>2009-06-14T16:29:56Z</time></trkpt>
<trkpt lat="47.06047297" lon="7.08916426"><ele>436.561157</ele><time>2009-06-14T16:29:56Z</time></trkpt>
<trkpt lat="47.06070900" lon="7.09075212"><ele>434.157837</ele><time>2009-06-14T16:29:56Z</time></trkpt>
<trkpt lat="47.06137419" lon="7.09317684"><ele>433.677124</ele><time>2009-06-14T16:29:56Z</time></trkpt>
<trkpt lat="47.06173897" lon="7.09343433"><ele>435.119141</ele><time>2009-06-14T16:29:56Z</time></trkpt>
<trkpt lat="47.06184626" lon="7.09364891"><ele>435.119141</ele><time>2009-06-14T16:29:56Z</time></trkpt>
<trkpt lat="47.06405640" lon="7.09980726"><ele>434.157837</ele><time>2009-06-14T16:29:56Z</time></trkpt>
<trkpt lat="47.06536531" lon="7.10304737"><ele>435.599731</ele><time>2009-06-14T16:29:56Z</time></trkpt>
<trkpt lat="47.06575155" lon="7.10433483"><ele>433.677124</ele><time>2009-06-14T16:29:56Z</time></trkpt>
<trkpt lat="47.06557989" lon="7.10532188"><ele>435.599731</ele><time>2009-06-14T16:29:57Z</time></trkpt>
<trkpt lat="47.06573009" lon="7.10602999"><ele>435.119141</ele><time>2009-06-14T16:29:57Z</time></trkpt>
<trkpt lat="47.06658840" lon="7.10751057"><ele>432.715942</ele><time>2009-06-14T16:29:57Z</time></trkpt>
<trkpt lat="47.06673861" lon="7.10740328"><ele>434.157837</ele><time>2009-06-14T16:29:57Z</time></trkpt>
<trkpt lat="47.06654549" lon="7.10705996"><ele>435.599731</ele><time>2009-06-14T16:29:57Z</time></trkpt>
<trkpt lat="47.06615925" lon="7.10753202"><ele>433.677124</ele><time>2009-06-14T16:29:57Z</time></trkpt>
<trkpt lat="47.06639528" lon="7.10849762"><ele>434.157837</ele><time>2009-06-14T16:29:57Z</time></trkpt>
<trkpt lat="47.06633091" lon="7.10899115"><ele>434.157837</ele><time>2009-06-14T16:29:57Z</time></trkpt>
<trkpt lat="47.06654549" lon="7.10927010"><ele>433.196533</ele><time>2009-06-14T16:29:57Z</time></trkpt>
<trkpt lat="47.06635237" lon="7.10907698"><ele>433.196533</ele><time>2009-06-14T16:29:57Z</time></trkpt>
<trkpt lat="47.06643820" lon="7.10819721"><ele>436.080444</ele><time>2009-06-14T16:29:57Z</time></trkpt>
<trkpt lat="47.06622362" lon="7.10772514"><ele>435.599731</ele><time>2009-06-14T16:29:57Z</time></trkpt>
<trkpt lat="47.06628799" lon="7.10742474"><ele>437.041748</ele><time>2009-06-14T16:29:57Z</time></trkpt>
<trkpt lat="47.06665277" lon="7.10701704"><ele>438.964355</ele><time>2009-06-14T16:29:57Z</time></trkpt>
<trkpt lat="47.06830502" lon="7.10976362"><ele>434.157837</ele><time>2009-06-14T16:29:57Z</time></trkpt>
<trkpt lat="47.06890583" lon="7.11051464"><ele>432.715942</ele><time>2009-06-14T16:29:57Z</time></trkpt>
<trkpt lat="47.07113743" lon="7.11238146"><ele>435.119141</ele><time>2009-06-14T16:29:57Z</time></trkpt>
<trkpt lat="47.07396984" lon="7.11375475"><ele>436.561157</ele><time>2009-06-14T16:29:57Z</time></trkpt>
<trkpt lat="47.07508564" lon="7.11472034"><ele>435.599731</ele><time>2009-06-14T16:29:57Z</time></trkpt>
<trkpt lat="47.07609415" lon="7.11626530"><ele>435.119141</ele><time>2009-06-14T16:29:57Z</time></trkpt>
<trkpt lat="47.08137274" lon="7.12903261"><ele>433.196533</ele><time>2009-06-14T16:29:57Z</time></trkpt>
<trkpt lat="47.08160877" lon="7.12894678"><ele>431.754517</ele><time>2009-06-14T16:29:57Z</time></trkpt>
<trkpt lat="47.08175898" lon="7.12956905"><ele>434.157837</ele><time>2009-06-14T16:29:57Z</time></trkpt>
<trkpt lat="47.08356142" lon="7.13386059"><ele>437.522339</ele><time>2009-06-14T16:29:57Z</time></trkpt>
<trkpt lat="47.08401203" lon="7.13540554"><ele>437.041748</ele><time>2009-06-14T16:29:58Z</time></trkpt>
<trkpt lat="47.08671570" lon="7.14139223"><ele>438.003052</ele><time>2009-06-14T16:29:58Z</time></trkpt>
<trkpt lat="47.08781004" lon="7.14424610"><ele>440.886963</ele><time>2009-06-14T16:29:58Z</time></trkpt>
<trkpt lat="47.08845377" lon="7.14549065"><ele>440.886963</ele><time>2009-06-14T16:29:58Z</time></trkpt>
<trkpt lat="47.08836794" lon="7.14589834"><ele>439.925659</ele><time>2009-06-14T16:29:58Z</time></trkpt>
<trkpt lat="47.09008455" lon="7.14802265"><ele>438.964355</ele><time>2009-06-14T16:29:58Z</time></trkpt>
<trkpt lat="47.09102869" lon="7.14988947"><ele>438.483765</ele><time>2009-06-14T16:29:58Z</time></trkpt>
<trkpt lat="47.09235907" lon="7.15424538"><ele>437.041748</ele><time>2009-06-14T16:29:58Z</time></trkpt>
<trkpt lat="47.09401131" lon="7.15797901"><ele>434.63855</ele><time>2009-06-14T16:29:58Z</time></trkpt>
<trkpt lat="47.09386110" lon="7.15808630"><ele>435.119141</ele><time>2009-06-14T16:29:58Z</time></trkpt>
<trkpt lat="47.09362507" lon="7.15778589"><ele>437.041748</ele><time>2009-06-14T16:29:58Z</time></trkpt>
<trkpt lat="47.09377527" lon="7.15806484"><ele>435.599731</ele><time>2009-06-14T16:29:58Z</time></trkpt>
<trkpt lat="47.09409714" lon="7.15812922"><ele>436.080444</ele><time>2009-06-14T16:29:58Z</time></trkpt>
<trkpt lat="47.09426880" lon="7.15855837"><ele>436.561157</ele><time>2009-06-14T16:29:58Z</time></trkpt>
<trkpt lat="47.09525585" lon="7.16212034"><ele>438.964355</ele><time>2009-06-14T16:29:58Z</time></trkpt>
<trkpt lat="47.09617853" lon="7.16480255"><ele>436.080444</ele><time>2009-06-14T16:29:58Z</time></trkpt>
<trkpt lat="47.10025549" lon="7.17375040"><ele>440.406372</ele><time>2009-06-14T16:29:58Z</time></trkpt>
<trkpt lat="47.10143566" lon="7.17576742"><ele>440.406372</ele><time>2009-06-14T16:29:58Z</time></trkpt>
<trkpt lat="47.10253000" lon="7.17703342"><ele>441.367554</ele><time>2009-06-14T16:29:58Z</time></trkpt>
<trkpt lat="47.10409641" lon="7.17823505"><ele>442.80957</ele><time>2009-06-14T16:29:58Z</time></trkpt>
<trkpt lat="47.10714340" lon="7.18173265"><ele>440.886963</ele><time>2009-06-14T16:29:58Z</time></trkpt>
<trkpt lat="47.10810900" lon="7.18299866"><ele>439.925659</ele><time>2009-06-14T16:29:58Z</time></trkpt>
<trkpt lat="47.10903168" lon="7.18465090"><ele>440.406372</ele><time>2009-06-14T16:29:58Z</time></trkpt>
<trkpt lat="47.11049080" lon="7.18862057"><ele>440.406372</ele><time>2009-06-14T16:29:58Z</time></trkpt>
<trkpt lat="47.11267948" lon="7.19374895"><ele>436.080444</ele><time>2009-06-14T16:29:59Z</time></trkpt>
<trkpt lat="47.11392403" lon="7.19595909"><ele>437.522339</ele><time>2009-06-14T16:29:59Z</time></trkpt>
<trkpt lat="47.11707830" lon="7.20065832"><ele>438.483765</ele><time>2009-06-14T16:29:59Z</time></trkpt>
<trkpt lat="47.11802244" lon="7.20228910"><ele>439.444946</ele><time>2009-06-14T16:29:59Z</time></trkpt>
<trkpt lat="47.11896658" lon="7.20428467"><ele>439.444946</ele><time>2009-06-14T16:29:59Z</time></trkpt>
<trkpt lat="47.11939573" lon="7.20430613"><ele>439.444946</ele><time>2009-06-14T16:29:59Z</time></trkpt>
<trkpt lat="47.11971760" lon="7.20518589"><ele>440.406372</ele><time>2009-06-14T16:29:59Z</time></trkpt>
<trkpt lat="47.12033987" lon="7.20623732"><ele>439.925659</ele><time>2009-06-14T16:29:59Z</time></trkpt>
<trkpt lat="47.12102652" lon="7.20716000"><ele>440.406372</ele><time>2009-06-14T16:29:59Z</time></trkpt>
<trkpt lat="47.12244272" lon="7.20851183"><ele>442.328979</ele><time>2009-06-14T16:29:59Z</time></trkpt>
<trkpt lat="47.12546825" lon="7.21261024"><ele>445.693604</ele><time>2009-06-14T16:29:59Z</time></trkpt>
<trkpt lat="47.12624073" lon="7.21349001"><ele>446.174316</ele><time>2009-06-14T16:29:59Z</time></trkpt>
<trkpt lat="47.12767839" lon="7.21576452"><ele>445.693604</ele><time>2009-06-14T16:29:59Z</time></trkpt>
<trkpt lat="47.13053226" lon="7.21962690"><ele>446.654907</ele><time>2009-06-14T16:29:59Z</time></trkpt>
<trkpt lat="47.13201284" lon="7.22278118"><ele>444.251709</ele><time>2009-06-14T16:29:59Z</time></trkpt>
<trkpt lat="47.13458776" lon="7.22960472"><ele>440.406372</ele><time>2009-06-14T16:29:59Z</time></trkpt>
<trkpt lat="47.13518858" lon="7.23160028"><ele>438.003052</ele><time>2009-06-14T16:29:59Z</time></trkpt>
<trkpt lat="47.13523149" lon="7.23312378"><ele>436.561157</ele><time>2009-06-14T16:29:59Z</time></trkpt>
<trkpt lat="47.13512421" lon="7.23359585"><ele>438.483765</ele><time>2009-06-14T16:29:59Z</time></trkpt>
<trkpt lat="47.13475943" lon="7.23381042"><ele>442.328979</ele><time>2009-06-14T16:29:59Z</time></trkpt>
<trkpt lat="47.13465214" lon="7.23323107"><ele>438.483765</ele><time>2009-06-14T16:29:59Z</time></trkpt>
<trkpt lat="47.13332176" lon="7.23239422"><ele>434.157837</ele><time>2009-06-14T16:29:59Z</time></trkpt>
<trkpt lat="47.13239908" lon="7.23351002"><ele>434.157837</ele><time>2009-06-14T16:29:59Z</time></trkpt>
<trkpt lat="47.13239908" lon="7.23415375"><ele>433.196533</ele><time>2009-06-14T16:29:59Z</time></trkpt>
<trkpt lat="47.13259220" lon="7.23464727"><ele>433.677124</ele><time>2009-06-14T16:30:00Z</time></trkpt>
<trkpt lat="47.13250637" lon="7.23486185"><ele>434.157837</ele><time>2009-06-14T16:30:00Z</time></trkpt>
<trkpt lat="47.13089705" lon="7.23636389"><ele>434.157837</ele><time>2009-06-14T16:30:00Z</time></trkpt>
<trkpt lat="47.13040352" lon="7.23653555"><ele>434.63855</ele><time>2009-06-14T16:30:00Z</time></trkpt>
<trkpt lat="47.12973833" lon="7.23627806"><ele>433.196533</ele><time>2009-06-14T16:30:00Z</time></trkpt>
<trkpt lat="47.12830067" lon="7.23844528"><ele>435.119141</ele><time>2009-06-14T16:30:00Z</time></trkpt>
<trkpt lat="47.12707758" lon="7.23692179"><ele>433.196533</ele><time>2009-06-14T16:30:00Z</time></trkpt>
<trkpt lat="47.12645531" lon="7.23653555"><ele>434.157837</ele><time>2009-06-14T16:30:00Z</time></trkpt>
<trkpt lat="47.12289333" lon="7.23720074"><ele>439.444946</ele><time>2009-06-14T16:30:00Z</time></trkpt>
<trkpt lat="47.12167025" lon="7.23696470"><ele>438.964355</ele><time>2009-06-14T16:30:00Z</time></trkpt>
<trkpt lat="47.12100506" lon="7.23634243"><ele>432.235229</ele><time>2009-06-14T16:30:00Z</time></trkpt>
<trkpt lat="47.12102652" lon="7.23606348"><ele>431.754517</ele><time>2009-06-14T16:30:00Z</time></trkpt>
<trkpt lat="47.12160587" lon="7.23496914"><ele>431.754517</ele><time>2009-06-14T16:30:00Z</time></trkpt>
<trkpt lat="47.12207794" lon="7.23436832"><ele>431.754517</ele><time>2009-06-14T16:30:00Z</time></trkpt>
<trkpt lat="47.12265730" lon="7.23451853"><ele>434.157837</ele><time>2009-06-14T16:30:00Z</time></trkpt>
<trkpt lat="47.12332249" lon="7.23106384"><ele>431.273926</ele><time>2009-06-14T16:30:00Z</time></trkpt>
<trkpt lat="47.12265730" lon="7.23082781"><ele>434.63855</ele><time>2009-06-14T16:30:00Z</time></trkpt>
<trkpt lat="47.12199211" lon="7.23026991"><ele>434.63855</ele><time>2009-06-14T16:30:00Z</time></trkpt>
<trkpt lat="47.12100506" lon="7.22857475"><ele>435.119141</ele><time>2009-06-14T16:30:00Z</time></trkpt>
<trkpt lat="47.12003946" lon="7.22853184"><ele>433.677124</ele><time>2009-06-14T16:30:00Z</time></trkpt>
<trkpt lat="47.11909533" lon="7.22696543"><ele>432.235229</ele><time>2009-06-14T16:30:00Z</time></trkpt>
<trkpt lat="47.11714268" lon="7.22522736"><ele>434.63855</ele><time>2009-06-14T16:30:00Z</time></trkpt>
<trkpt lat="47.11669207" lon="7.22537756"><ele>435.119141</ele><time>2009-06-14T16:30:00Z</time></trkpt>
<trkpt lat="47.11606979" lon="7.22514153"><ele>435.119141</ele><time>2009-06-14T16:30:00Z</time></trkpt>
<trkpt lat="47.11549044" lon="7.22409010"><ele>435.119141</ele><time>2009-06-14T16:30:01Z</time></trkpt>
<trkpt lat="47.11484671" lon="7.22239494"><ele>433.196533</ele><time>2009-06-14T16:30:01Z</time></trkpt>
<trkpt lat="47.11448193" lon="7.22237349"><ele>433.677124</ele><time>2009-06-14T16:30:01Z</time></trkpt>
<trkpt lat="47.11370945" lon="7.22160101"><ele>434.157837</ele><time>2009-06-14T16:30:01Z</time></trkpt>
<trkpt lat="47.11287260" lon="7.22121477"><ele>434.63855</ele><time>2009-06-14T16:30:01Z</time></trkpt>
<trkpt lat="47.11201429" lon="7.22170830"><ele>436.080444</ele><time>2009-06-14T16:30:01Z</time></trkpt>
<trkpt lat="47.10973978" lon="7.21960545"><ele>435.599731</ele><time>2009-06-14T16:30:01Z</time></trkpt>
<trkpt lat="47.10832357" lon="7.21889734"><ele>436.080444</ele><time>2009-06-14T16:30:01Z</time></trkpt>
<trkpt lat="47.10722923" lon="7.21866131"><ele>435.599731</ele><time>2009-06-14T16:30:01Z</time></trkpt>
<trkpt lat="47.10688591" lon="7.21795321"><ele>436.080444</ele><time>2009-06-14T16:30:01Z</time></trkpt>
<trkpt lat="47.10611343" lon="7.21735239"><ele>437.522339</ele><time>2009-06-14T16:30:01Z</time></trkpt>
<trkpt lat="47.10461140" lon="7.21703053"><ele>441.367554</ele><time>2009-06-14T16:30:01Z</time></trkpt>
<trkpt lat="47.10401058" lon="7.21664429"><ele>445.212891</ele><time>2009-06-14T16:30:01Z</time></trkpt>
<trkpt lat="47.10375309" lon="7.21640825"><ele>442.80957</ele><time>2009-06-14T16:30:01Z</time></trkpt>
<trkpt lat="47.10300207" lon="7.21503496"><ele>435.599731</ele><time>2009-06-14T16:30:01Z</time></trkpt>
<trkpt lat="47.10225105" lon="7.21428394"><ele>437.041748</ele><time>2009-06-14T16:30:01Z</time></trkpt>
<trkpt lat="47.09843159" lon="7.21121550"><ele>452.422729</ele><time>2009-06-14T16:30:01Z</time></trkpt>
<trkpt lat="47.09667206" lon="7.20943451"><ele>453.864746</ele><time>2009-06-14T16:30:01Z</time></trkpt>
<trkpt lat="47.09529877" lon="7.20853329"><ele>450.980713</ele><time>2009-06-14T16:30:01Z</time></trkpt>
<trkpt lat="47.09508419" lon="7.20868349"><ele>451.942139</ele><time>2009-06-14T16:30:01Z</time></trkpt>
<trkpt lat="47.09420443" lon="7.21022844"><ele>458.671143</ele><time>2009-06-14T16:30:01Z</time></trkpt>
<trkpt lat="47.09291697" lon="7.21170902"><ele>458.671143</ele><time>2009-06-14T16:30:01Z</time></trkpt>
<trkpt lat="47.08871126" lon="7.21381187"><ele>464.439087</ele><time>2009-06-14T16:30:01Z</time></trkpt>
<trkpt lat="47.08695173" lon="7.21072197"><ele>455.787354</ele><time>2009-06-14T16:30:01Z</time></trkpt>
<trkpt lat="47.08559990" lon="7.20885515"><ele>451.461426</ele><time>2009-06-14T16:30:02Z</time></trkpt>
<trkpt lat="47.08474159" lon="7.20806122"><ele>454.345337</ele><time>2009-06-14T16:30:02Z</time></trkpt>
<trkpt lat="47.08416224" lon="7.20679522"><ele>449.538818</ele><time>2009-06-14T16:30:02Z</time></trkpt>
<trkpt lat="47.08308935" lon="7.20552921"><ele>452.422729</ele><time>2009-06-14T16:30:02Z</time></trkpt>
<trkpt lat="47.08379745" lon="7.20497131"><ele>444.7323</ele><time>2009-06-14T16:30:02Z</time></trkpt>
<trkpt lat="47.08409786" lon="7.20437050"><ele>438.003052</ele><time>2009-06-14T16:30:02Z</time></trkpt>
<trkpt lat="47.08409786" lon="7.20344782"><ele>428.870728</ele><time>2009-06-14T16:30:02Z</time></trkpt>
<trkpt lat="47.08392620" lon="7.20308304"><ele>428.390015</ele><time>2009-06-14T16:30:02Z</time></trkpt>
<trkpt lat="47.08126545" lon="7.20074415"><ele>431.273926</ele><time>2009-06-14T16:30:02Z</time></trkpt>
<trkpt lat="47.07748890" lon="7.19632387"><ele>434.157837</ele><time>2009-06-14T16:30:02Z</time></trkpt>
<trkpt lat="47.07686663" lon="7.19576597"><ele>433.677124</ele><time>2009-06-14T16:30:02Z</time></trkpt>
<trkpt lat="47.07697392" lon="7.19540119"><ele>434.157837</ele><time>2009-06-14T16:30:02Z</time></trkpt>
<trkpt lat="47.07688808" lon="7.19522953"><ele>434.63855</ele><time>2009-06-14T16:30:02Z</time></trkpt>
<trkpt lat="47.07551479" lon="7.19362020"><ele>428.390015</ele><time>2009-06-14T16:30:02Z</time></trkpt>
<trkpt lat="47.07523584" lon="7.19379187"><ele>429.351318</ele><time>2009-06-14T16:30:02Z</time></trkpt>
<trkpt lat="47.07502127" lon="7.19422102"><ele>428.870728</ele><time>2009-06-14T16:30:02Z</time></trkpt>
<trkpt lat="47.07476377" lon="7.19426394"><ele>429.351318</ele><time>2009-06-14T16:30:02Z</time></trkpt>
<trkpt lat="47.07345486" lon="7.19334126"><ele>428.390015</ele><time>2009-06-14T16:30:02Z</time></trkpt>
<trkpt lat="47.07156658" lon="7.19259024"><ele>430.312622</ele><time>2009-06-14T16:30:02Z</time></trkpt>
<trkpt lat="47.06931353" lon="7.19110966"><ele>429.351318</ele><time>2009-06-14T16:30:02Z</time></trkpt>
<trkpt lat="47.06815481" lon="7.18995094"><ele>425.505981</ele><time>2009-06-14T16:30:02Z</time></trkpt>
<trkpt lat="47.06624508" lon="7.18881369"><ele>430.793335</ele><time>2009-06-14T16:30:03Z</time></trkpt>
<trkpt lat="47.06500053" lon="7.18741894"><ele>428.390015</ele><time>2009-06-14T16:30:03Z</time></trkpt>
<trkpt lat="47.06394911" lon="7.18615294"><ele>428.390015</ele><time>2009-06-14T16:30:03Z</time></trkpt>
<trkpt lat="47.06360579" lon="7.18538046"><ele>433.196533</ele><time>2009-06-14T16:30:03Z</time></trkpt>
<trkpt lat="47.06244707" lon="7.18402863"><ele>431.273926</ele><time>2009-06-14T16:30:03Z</time></trkpt>
<trkpt lat="47.06253290" lon="7.18362093"><ele>431.273926</ele><time>2009-06-14T16:30:03Z</time></trkpt>
<trkpt lat="47.06283331" lon="7.18319178"><ele>432.235229</ele><time>2009-06-14T16:30:03Z</time></trkpt>
<trkpt lat="47.06276894" lon="7.18284845"><ele>433.196533</ele><time>2009-06-14T16:30:03Z</time></trkpt>
<trkpt lat="47.06090212" lon="7.18147516"><ele>429.831909</ele><time>2009-06-14T16:30:03Z</time></trkpt>
<trkpt lat="47.06049442" lon="7.18085289"><ele>434.157837</ele><time>2009-06-14T16:30:03Z</time></trkpt>
<trkpt lat="47.06045151" lon="7.18001604"><ele>433.677124</ele><time>2009-06-14T16:30:03Z</time></trkpt>
<trkpt lat="47.06060171" lon="7.17954397"><ele>436.561157</ele><time>2009-06-14T16:30:03Z</time></trkpt>
<trkpt lat="47.06090212" lon="7.17939377"><ele>437.522339</ele><time>2009-06-14T16:30:03Z</time></trkpt>
<trkpt lat="47.06085920" lon="7.17922211"><ele>439.444946</ele><time>2009-06-14T16:30:03Z</time></trkpt>
<trkpt lat="47.06107378" lon="7.17909336"><ele>439.444946</ele><time>2009-06-14T16:30:03Z</time></trkpt>
<trkpt lat="47.06109524" lon="7.17851400"><ele>439.444946</ele><time>2009-06-14T16:30:03Z</time></trkpt>
<trkpt lat="47.05997944" lon="7.17851400"><ele>442.80957</ele><time>2009-06-14T16:30:03Z</time></trkpt>
<trkpt lat="47.05955029" lon="7.17776299"><ele>442.80957</ele><time>2009-06-14T16:30:03Z</time></trkpt>
<trkpt lat="47.05935717" lon="7.17774153"><ele>442.80957</ele><time>2009-06-14T16:30:03Z</time></trkpt>
<trkpt lat="47.05948591" lon="7.17739820"><ele>438.483765</ele><time>2009-06-14T16:30:03Z</time></trkpt>
<trkpt lat="47.05931425" lon="7.17729092"><ele>436.561157</ele><time>2009-06-14T16:30:03Z</time></trkpt>
<trkpt lat="47.05849886" lon="7.17759132"><ele>436.080444</ele><time>2009-06-14T16:30:03Z</time></trkpt>
<trkpt lat="47.05802679" lon="7.17752695"><ele>435.599731</ele><time>2009-06-14T16:30:03Z</time></trkpt>
<trkpt lat="47.05701828" lon="7.17619658"><ele>429.831909</ele><time>2009-06-14T16:30:03Z</time></trkpt>
<trkpt lat="47.05568790" lon="7.17473745"><ele>425.505981</ele><time>2009-06-14T16:30:04Z</time></trkpt>
<trkpt lat="47.05279112" lon="7.16945887"><ele>424.544678</ele><time>2009-06-14T16:30:04Z</time></trkpt>
<trkpt lat="47.05199718" lon="7.16832161"><ele>424.063965</ele><time>2009-06-14T16:30:04Z</time></trkpt>
<trkpt lat="47.05171824" lon="7.16750622"><ele>424.544678</ele><time>2009-06-14T16:30:04Z</time></trkpt>
<trkpt lat="47.05008745" lon="7.16546774"><ele>426.467285</ele><time>2009-06-14T16:30:04Z</time></trkpt>
<trkpt lat="47.04940081" lon="7.16443777"><ele>428.870728</ele><time>2009-06-14T16:30:04Z</time></trkpt>
<trkpt lat="47.04907894" lon="7.16287136"><ele>426.467285</ele><time>2009-06-14T16:30:04Z</time></trkpt>
<trkpt lat="47.04882145" lon="7.16248512"><ele>426.467285</ele><time>2009-06-14T16:30:04Z</time></trkpt>
<trkpt lat="47.04824209" lon="7.16207743"><ele>427.90918</ele><time>2009-06-14T16:30:04Z</time></trkpt>
<trkpt lat="47.04740524" lon="7.16018915"><ele>430.312622</ele><time>2009-06-14T16:30:04Z</time></trkpt>
<trkpt lat="47.04686880" lon="7.15793610"><ele>431.273926</ele><time>2009-06-14T16:30:04Z</time></trkpt>
<trkpt lat="47.04637527" lon="7.15495348"><ele>427.90918</ele><time>2009-06-14T16:30:04Z</time></trkpt>
<trkpt lat="47.04643965" lon="7.15392351"><ele>427.428589</ele><time>2009-06-14T16:30:04Z</time></trkpt>
<trkpt lat="47.04684734" lon="7.15207815"><ele>432.235229</ele><time>2009-06-14T16:30:04Z</time></trkpt>
<trkpt lat="47.04676151" lon="7.15162754"><ele>434.157837</ele><time>2009-06-14T16:30:04Z</time></trkpt>
<trkpt lat="47.04686880" lon="7.15100527"><ele>432.715942</ele><time>2009-06-14T16:30:04Z</time></trkpt>
<trkpt lat="47.04620361" lon="7.14894533"><ele>431.273926</ele><time>2009-06-14T16:30:04Z</time></trkpt>
<trkpt lat="47.04450846" lon="7.14495420"><ele>428.870728</ele><time>2009-06-14T16:30:04Z</time></trkpt>
<trkpt lat="47.03927279" lon="7.12890387"><ele>431.273926</ele><time>2009-06-14T16:30:04Z</time></trkpt>
<trkpt lat="47.03895092" lon="7.12532043"><ele>432.235229</ele><time>2009-06-14T16:30:04Z</time></trkpt>
<trkpt lat="47.03719139" lon="7.12115765"><ele>431.754517</ele><time>2009-06-14T16:30:04Z</time></trkpt>
<trkpt lat="47.03648329" lon="7.11665154"><ele>431.754517</ele><time>2009-06-14T16:30:04Z</time></trkpt>
<trkpt lat="47.03607559" lon="7.11291790"><ele>428.870728</ele><time>2009-06-14T16:30:04Z</time></trkpt>
<trkpt lat="47.03624725" lon="7.11053610"><ele>428.390015</ele><time>2009-06-14T16:30:04Z</time></trkpt>
<trkpt lat="47.03592539" lon="7.10954905"><ele>432.715942</ele><time>2009-06-14T16:30:05Z</time></trkpt>
<trkpt lat="47.03781366" lon="7.10553646"><ele>428.870728</ele><time>2009-06-14T16:30:05Z</time></trkpt>
<trkpt lat="47.03877926" lon="7.10390568"><ele>430.312622</ele><time>2009-06-14T16:30:05Z</time></trkpt>
<trkpt lat="47.04056025" lon="7.10193157"><ele>429.351318</ele><time>2009-06-14T16:30:05Z</time></trkpt>
<trkpt lat="47.04195499" lon="7.10088015"><ele>432.235229</ele><time>2009-06-14T16:30:05Z</time></trkpt>
<trkpt lat="47.04476595" lon="7.09899187"><ele>433.196533</ele><time>2009-06-14T16:30:05Z</time></trkpt>
<trkpt lat="47.04633236" lon="7.09851980"><ele>435.119141</ele><time>2009-06-14T16:30:05Z</time></trkpt>
<trkpt lat="47.04656839" lon="7.09817648"><ele>434.157837</ele><time>2009-06-14T16:30:05Z</time></trkpt>
<trkpt lat="47.04691172" lon="7.09832668"><ele>431.754517</ele><time>2009-06-14T16:30:05Z</time></trkpt>
<trkpt lat="47.04680443" lon="7.09783316"><ele>429.831909</ele><time>2009-06-14T16:30:05Z</time></trkpt>
<trkpt lat="47.04684734" lon="7.09828377"><ele>430.793335</ele><time>2009-06-14T16:30:05Z</time></trkpt>
<trkpt lat="47.04674006" lon="7.09834814"><ele>432.715942</ele><time>2009-06-14T16:30:05Z</time></trkpt>
<trkpt lat="47.04521656" lon="7.09875584"><ele>433.196533</ele><time>2009-06-14T16:30:05Z</time></trkpt>
<trkpt lat="47.04468012" lon="7.09751129"><ele>429.351318</ele><time>2009-06-14T16:30:05Z</time></trkpt>
<trkpt lat="47.04459429" lon="7.09710360"><ele>429.351318</ele><time>2009-06-14T16:30:05Z</time></trkpt>
<trkpt lat="47.04495907" lon="7.09680319"><ele>430.312622</ele><time>2009-06-14T16:30:05Z</time></trkpt>
<trkpt lat="47.04519510" lon="7.09641695"><ele>430.312622</ele><time>2009-06-14T16:30:05Z</time></trkpt>
<trkpt lat="47.04532385" lon="7.09540844"><ele>429.351318</ele><time>2009-06-14T16:30:05Z</time></trkpt>
<trkpt lat="47.04515219" lon="7.09427118"><ele>430.312622</ele><time>2009-06-14T16:30:05Z</time></trkpt>
<trkpt lat="47.04437971" lon="7.09264040"><ele>427.90918</ele><time>2009-06-14T16:30:05Z</time></trkpt>
<trkpt lat="47.04401493" lon="7.09124565"><ele>429.351318</ele><time>2009-06-14T16:30:05Z</time></trkpt>
<trkpt lat="47.04425097" lon="7.08813429"><ele>426.947998</ele><time>2009-06-14T16:30:05Z</time></trkpt>
<trkpt lat="47.04414368" lon="7.08661079"><ele>429.351318</ele><time>2009-06-14T16:30:05Z</time></trkpt>
<trkpt lat="47.04328537" lon="7.08236217"><ele>426.947998</ele><time>2009-06-14T16:30:05Z</time></trkpt>
<trkpt lat="47.04223394" lon="7.07880020"><ele>426.947998</ele><time>2009-06-14T16:30:06Z</time></trkpt>
<trkpt lat="47.03242779" lon="6.86355829"><ele>865.786621</ele><time>2009-06-14T16:30:06Z</time></trkpt>
<trkpt lat="47.03240633" lon="6.86375141"><ele>852.808838</ele><time>2009-06-14T16:30:06Z</time></trkpt>
<trkpt lat="47.03232050" lon="6.86355829"><ele>851.847412</ele><time>2009-06-14T16:30:06Z</time></trkpt>
<trkpt lat="47.03197718" lon="6.86516762"><ele>846.07959</ele><time>2009-06-14T16:30:06Z</time></trkpt>
<trkpt lat="47.03210592" lon="6.86555386"><ele>845.598877</ele><time>2009-06-14T16:30:06Z</time></trkpt>
<trkpt lat="47.03594685" lon="6.87274218"><ele>829.737305</ele><time>2009-06-14T16:30:06Z</time></trkpt>
<trkpt lat="47.03723431" lon="6.87480211"><ele>830.218018</ele><time>2009-06-14T16:30:06Z</time></trkpt>
<trkpt lat="47.03749180" lon="6.87542439"><ele>828.29541</ele><time>2009-06-14T16:30:06Z</time></trkpt>
<trkpt lat="47.03880072" lon="6.87722683"><ele>827.814697</ele><time>2009-06-14T16:30:06Z</time></trkpt>
<trkpt lat="47.03950882" lon="6.87892199"><ele>822.046875</ele><time>2009-06-14T16:30:06Z</time></trkpt>
<trkpt lat="47.04025984" lon="6.88029528"><ele>823.008301</ele><time>2009-06-14T16:30:06Z</time></trkpt>
<trkpt lat="47.04017401" lon="6.88083172"><ele>821.085693</ele><time>2009-06-14T16:30:06Z</time></trkpt>
<trkpt lat="47.04208374" lon="6.88398600"><ele>817.240234</ele><time>2009-06-14T16:30:06Z</time></trkpt>
<trkpt lat="47.04375744" lon="6.88641071"><ele>818.201416</ele><time>2009-06-14T16:30:06Z</time></trkpt>
<trkpt lat="47.04307079" lon="6.88776255"><ele>810.030273</ele><time>2009-06-14T16:30:06Z</time></trkpt>
<trkpt lat="47.04392910" lon="6.88905001"><ele>805.223877</ele><time>2009-06-14T16:30:06Z</time></trkpt>
<trkpt lat="47.04399347" lon="6.88952208"><ele>802.820557</ele><time>2009-06-14T16:30:06Z</time></trkpt>
<trkpt lat="47.04356432" lon="6.89274073"><ele>788.401123</ele><time>2009-06-14T16:30:06Z</time></trkpt>
<trkpt lat="47.04349995" lon="6.89492941"><ele>779.749023</ele><time>2009-06-14T16:30:06Z</time></trkpt>
<trkpt lat="47.04397202" lon="6.89761162"><ele>777.345947</ele><time>2009-06-14T16:30:06Z</time></trkpt>
<trkpt lat="47.04448700" lon="6.89831972"><ele>777.345947</ele><time>2009-06-14T16:30:06Z</time></trkpt>
<trkpt lat="47.04444408" lon="6.89864159"><ele>775.903809</ele><time>2009-06-14T16:30:06Z</time></trkpt>
<trkpt lat="47.04395056" lon="6.89992905"><ele>771.097412</ele><time>2009-06-14T16:30:07Z</time></trkpt>
<trkpt lat="47.04343557" lon="6.90085173"><ele>766.771484</ele><time>2009-06-14T16:30:07Z</time></trkpt>
<trkpt lat="47.04294205" lon="6.90110922"><ele>767.732666</ele><time>2009-06-14T16:30:07Z</time></trkpt>
<trkpt lat="47.04204082" lon="6.90025091"><ele>764.848877</ele><time>2009-06-14T16:30:07Z</time></trkpt>
<trkpt lat="47.04159021" lon="6.90037966"><ele>762.445557</ele><time>2009-06-14T16:30:07Z</time></trkpt>
<trkpt lat="47.04066753" lon="6.90188169"><ele>755.716309</ele><time>2009-06-14T16:30:07Z</time></trkpt>
<trkpt lat="47.04013109" lon="6.90243959"><ele>751.871094</ele><time>2009-06-14T16:30:07Z</time></trkpt>
<trkpt lat="47.03918695" lon="6.90280437"><ele>747.064453</ele><time>2009-06-14T16:30:07Z</time></trkpt>
<trkpt lat="47.03980923" lon="6.90269709"><ele>750.909668</ele><time>2009-06-14T16:30:07Z</time></trkpt>
<trkpt lat="47.04047441" lon="6.90222502"><ele>754.754883</ele><time>2009-06-14T16:30:07Z</time></trkpt>
<trkpt lat="47.04171896" lon="6.90033674"><ele>759.561768</ele><time>2009-06-14T16:30:07Z</time></trkpt>
<trkpt lat="47.04214811" lon="6.90035820"><ele>762.92627</ele><time>2009-06-14T16:30:07Z</time></trkpt>
<trkpt lat="47.04294205" lon="6.90115213"><ele>765.32959</ele><time>2009-06-14T16:30:07Z</time></trkpt>
<trkpt lat="47.04292059" lon="6.90136671"><ele>764.848877</ele><time>2009-06-14T16:30:07Z</time></trkpt>
<trkpt lat="47.04210520" lon="6.90271854"><ele>761.484375</ele><time>2009-06-14T16:30:07Z</time></trkpt>
<trkpt lat="47.04174042" lon="6.90424204"><ele>756.677734</ele><time>2009-06-14T16:30:07Z</time></trkpt>
<trkpt lat="47.04113960" lon="6.90529346"><ele>750.429199</ele><time>2009-06-14T16:30:07Z</time></trkpt>
<trkpt lat="47.03980923" lon="6.90640926"><ele>744.661133</ele><time>2009-06-14T16:30:07Z</time></trkpt>
<trkpt lat="47.03873634" lon="6.90765381"><ele>737.932129</ele><time>2009-06-14T16:30:07Z</time></trkpt>
<trkpt lat="47.03774929" lon="6.90913439"><ele>732.164307</ele><time>2009-06-14T16:30:07Z</time></trkpt>
<trkpt lat="47.03744888" lon="6.90967083"><ele>729.760986</ele><time>2009-06-14T16:30:07Z</time></trkpt>
<trkpt lat="47.03605413" lon="6.91351175"><ele>719.186523</ele><time>2009-06-14T16:30:07Z</time></trkpt>
<trkpt lat="47.03515291" lon="6.91501379"><ele>704.286377</ele><time>2009-06-14T16:30:07Z</time></trkpt>
<trkpt lat="47.03530312" lon="6.91597939"><ele>701.883057</ele><time>2009-06-14T16:30:07Z</time></trkpt>
<trkpt lat="47.03573227" lon="6.91698790"><ele>708.612061</ele><time>2009-06-14T16:30:08Z</time></trkpt>
<trkpt lat="47.03716993" lon="6.91803932"><ele>722.551025</ele><time>2009-06-14T16:30:08Z</time></trkpt>
<trkpt lat="47.03753471" lon="6.91896200"><ele>723.99292</ele><time>2009-06-14T16:30:08Z</time></trkpt>
<trkpt lat="47.03792095" lon="6.92033529"><ele>725.915771</ele><time>2009-06-14T16:30:08Z</time></trkpt>
<trkpt lat="47.03734159" lon="6.92149401"><ele>724.473877</ele><time>2009-06-14T16:30:08Z</time></trkpt>
<trkpt lat="47.03732014" lon="6.92207336"><ele>723.512451</ele><time>2009-06-14T16:30:08Z</time></trkpt>
<trkpt lat="47.03740597" lon="6.92265272"><ele>722.551025</ele><time>2009-06-14T16:30:08Z</time></trkpt>
<trkpt lat="47.03822136" lon="6.92497015"><ele>718.225098</ele><time>2009-06-14T16:30:08Z</time></trkpt>
<trkpt lat="47.03884363" lon="6.92632198"><ele>713.89917</ele><time>2009-06-14T16:30:08Z</time></trkpt>
<trkpt lat="47.03993797" lon="6.92752361"><ele>713.418701</ele><time>2009-06-14T16:30:08Z</time></trkpt>
<trkpt lat="47.04075336" lon="6.92883253"><ele>709.573486</ele><time>2009-06-14T16:30:08Z</time></trkpt>
<trkpt lat="47.04068899" lon="6.92973375"><ele>708.131592</ele><time>2009-06-14T16:30:08Z</time></trkpt>
<trkpt lat="47.04049587" lon="6.93024874"><ele>709.092773</ele><time>2009-06-14T16:30:08Z</time></trkpt>
<trkpt lat="47.04036713" lon="6.93029165"><ele>710.053955</ele><time>2009-06-14T16:30:08Z</time></trkpt>
<trkpt lat="47.03766346" lon="6.92945480"><ele>731.203125</ele><time>2009-06-14T16:30:08Z</time></trkpt>
<trkpt lat="47.03740597" lon="6.92964792"><ele>734.086914</ele><time>2009-06-14T16:30:08Z</time></trkpt>
<trkpt lat="47.03727722" lon="6.92994833"><ele>736.490234</ele><time>2009-06-14T16:30:08Z</time></trkpt>
<trkpt lat="47.03729868" lon="6.92981958"><ele>736.009521</ele><time>2009-06-14T16:30:08Z</time></trkpt>
<trkpt lat="47.03714848" lon="6.93093538"><ele>740.815918</ele><time>2009-06-14T16:30:08Z</time></trkpt>
<trkpt lat="47.03729868" lon="6.93190098"><ele>743.699951</ele><time>2009-06-14T16:30:08Z</time></trkpt>
<trkpt lat="47.03757763" lon="6.93290949"><ele>748.506348</ele><time>2009-06-14T16:30:08Z</time></trkpt>
<trkpt lat="47.03841448" lon="6.93432570"><ele>753.793701</ele><time>2009-06-14T16:30:08Z</time></trkpt>
<trkpt lat="47.03850031" lon="6.93462610"><ele>754.754883</ele><time>2009-06-14T16:30:08Z</time></trkpt>
<trkpt lat="47.03839302" lon="6.93531275"><ele>760.042236</ele><time>2009-06-14T16:30:08Z</time></trkpt>
<trkpt lat="47.03858614" lon="6.93526983"><ele>758.119873</ele><time>2009-06-14T16:30:09Z</time></trkpt>
<trkpt lat="47.03858614" lon="6.93499088"><ele>756.677734</ele><time>2009-06-14T16:30:09Z</time></trkpt>
<trkpt lat="47.03841448" lon="6.93492651"><ele>757.158447</ele><time>2009-06-14T16:30:09Z</time></trkpt>
<trkpt lat="47.03826427" lon="6.93584919"><ele>763.406982</ele><time>2009-06-14T16:30:09Z</time></trkpt>
<trkpt lat="47.03847885" lon="6.93835974"><ele>779.268311</ele><time>2009-06-14T16:30:09Z</time></trkpt>
<trkpt lat="47.03811407" lon="6.94024801"><ele>795.61084</ele><time>2009-06-14T16:30:09Z</time></trkpt>
<trkpt lat="47.03684807" lon="6.94247961"><ele>820.124268</ele><time>2009-06-14T16:30:09Z</time></trkpt>
<trkpt lat="47.03620434" lon="6.94181442"><ele>825.411377</ele><time>2009-06-14T16:30:09Z</time></trkpt>
<trkpt lat="47.03384399" lon="6.93878889"><ele>821.566162</ele><time>2009-06-14T16:30:09Z</time></trkpt>
<trkpt lat="47.03083992" lon="6.93357468"><ele>811.953125</ele><time>2009-06-14T16:30:09Z</time></trkpt>
<trkpt lat="47.02927351" lon="6.93112850"><ele>811.472412</ele><time>2009-06-14T16:30:09Z</time></trkpt>
<trkpt lat="47.02931643" lon="6.93104267"><ele>815.317627</ele><time>2009-06-14T16:30:09Z</time></trkpt>
<trkpt lat="47.02538967" lon="6.92542076"><ele>788.401123</ele><time>2009-06-14T16:30:09Z</time></trkpt>
<trkpt lat="47.02485323" lon="6.92415476"><ele>785.036377</ele><time>2009-06-14T16:30:09Z</time></trkpt>
<trkpt lat="47.02384472" lon="6.92286730"><ele>781.671631</ele><time>2009-06-14T16:30:09Z</time></trkpt>
<trkpt lat="47.02292204" lon="6.92102194"><ele>785.036377</ele><time>2009-06-14T16:30:09Z</time></trkpt>
<trkpt lat="47.02163458" lon="6.91943407"><ele>786.478271</ele><time>2009-06-14T16:30:09Z</time></trkpt>
<trkpt lat="47.02234268" lon="6.91992760"><ele>778.787842</ele><time>2009-06-14T16:30:09Z</time></trkpt>
<trkpt lat="47.02296495" lon="6.91994905"><ele>770.616699</ele><time>2009-06-14T16:30:09Z</time></trkpt>
<trkpt lat="47.02281475" lon="6.91973448"><ele>767.252197</ele><time>2009-06-14T16:30:09Z</time></trkpt>
<trkpt lat="47.02302933" lon="6.91984177"><ele>764.368164</ele><time>2009-06-14T16:30:09Z</time></trkpt>
<trkpt lat="47.02212811" lon="6.91868305"><ele>760.042236</ele><time>2009-06-14T16:30:09Z</time></trkpt>
<trkpt lat="47.02081919" lon="6.91778183"><ele>757.158447</ele><time>2009-06-14T16:30:09Z</time></trkpt>
<trkpt lat="47.01878071" lon="6.91595793"><ele>753.312988</ele><time>2009-06-14T16:30:09Z</time></trkpt>
<trkpt lat="47.01770782" lon="6.91374779"><ele>743.219238</ele><time>2009-06-14T16:30:09Z</time></trkpt>
<trkpt lat="47.01734304" lon="6.91147327"><ele>732.164307</ele><time>2009-06-14T16:30:10Z</time></trkpt>
<trkpt lat="47.01719284" lon="6.91215992"><ele>724.95459</ele><time>2009-06-14T16:30:10Z</time></trkpt>
<trkpt lat="47.01736450" lon="6.91280365"><ele>725.915771</ele><time>2009-06-14T16:30:10Z</time></trkpt>
<trkpt lat="47.01749325" lon="6.91237450"><ele>723.99292</ele><time>2009-06-14T16:30:10Z</time></trkpt>
<trkpt lat="47.01622725" lon="6.90844774"><ele>701.402344</ele><time>2009-06-14T16:30:10Z</time></trkpt>
<trkpt lat="47.01654911" lon="6.90720320"><ele>664.872559</ele><time>2009-06-14T16:30:10Z</time></trkpt>
<trkpt lat="47.01627016" lon="6.90685987"><ele>661.98877</ele><time>2009-06-14T16:30:10Z</time></trkpt>
<trkpt lat="47.01648474" lon="6.90728903"><ele>660.546631</ele><time>2009-06-14T16:30:10Z</time></trkpt>
<trkpt lat="47.01607704" lon="6.90816879"><ele>655.259277</ele><time>2009-06-14T16:30:10Z</time></trkpt>
<trkpt lat="47.01594830" lon="6.90823317"><ele>655.73999</ele><time>2009-06-14T16:30:10Z</time></trkpt>
<trkpt lat="47.01644182" lon="6.90724611"><ele>652.375244</ele><time>2009-06-14T16:30:10Z</time></trkpt>
<trkpt lat="47.01642036" lon="6.90705299"><ele>653.817383</ele><time>2009-06-14T16:30:10Z</time></trkpt>
<trkpt lat="47.01601267" lon="6.90677404"><ele>655.259277</ele><time>2009-06-14T16:30:10Z</time></trkpt>
<trkpt lat="47.01528311" lon="6.90713882"><ele>658.623779</ele><time>2009-06-14T16:30:10Z</time></trkpt>
<trkpt lat="47.01511145" lon="6.90696716"><ele>658.143311</ele><time>2009-06-14T16:30:10Z</time></trkpt>
<trkpt lat="47.01614141" lon="6.90681696"><ele>656.701172</ele><time>2009-06-14T16:30:10Z</time></trkpt>
<trkpt lat="47.01631308" lon="6.90709591"><ele>654.778564</ele><time>2009-06-14T16:30:10Z</time></trkpt>
<trkpt lat="47.01609850" lon="6.90776110"><ele>650.93335</ele><time>2009-06-14T16:30:10Z</time></trkpt>
<trkpt lat="47.01706409" lon="6.90855503"><ele>648.049561</ele><time>2009-06-14T16:30:10Z</time></trkpt>
<trkpt lat="47.01717138" lon="6.90844774"><ele>649.972168</ele><time>2009-06-14T16:30:10Z</time></trkpt>
<trkpt lat="47.01719284" lon="6.90812588"><ele>649.010742</ele><time>2009-06-14T16:30:10Z</time></trkpt>
<trkpt lat="47.01680660" lon="6.90780401"><ele>649.491455</ele><time>2009-06-14T16:30:10Z</time></trkpt>
<trkpt lat="47.01648474" lon="6.90713882"><ele>651.894775</ele><time>2009-06-14T16:30:10Z</time></trkpt>
<trkpt lat="47.01609850" lon="6.90666676"><ele>651.894775</ele><time>2009-06-14T16:30:11Z</time></trkpt>
<trkpt lat="47.01639891" lon="6.90602303"><ele>653.817383</ele><time>2009-06-14T16:30:11Z</time></trkpt>
<trkpt lat="47.01631308" lon="6.90578699"><ele>654.778564</ele><time>2009-06-14T16:30:11Z</time></trkpt>
<trkpt lat="47.01601267" lon="6.90557241"><ele>658.623779</ele><time>2009-06-14T16:30:11Z</time></trkpt>
<trkpt lat="47.01654911" lon="6.90490723"><ele>661.98877</ele><time>2009-06-14T16:30:11Z</time></trkpt>
<trkpt lat="47.01652765" lon="6.90445662"><ele>663.911133</ele><time>2009-06-14T16:30:11Z</time></trkpt>
<trkpt lat="47.01629162" lon="6.90443516"><ele>665.833984</ele><time>2009-06-14T16:30:11Z</time></trkpt>
<trkpt lat="47.01627016" lon="6.90413475"><ele>673.043701</ele><time>2009-06-14T16:30:11Z</time></trkpt>
<trkpt lat="47.01588392" lon="6.90366268"><ele>676.408203</ele><time>2009-06-14T16:30:11Z</time></trkpt>
<trkpt lat="47.01468229" lon="6.90353394"><ele>696.115234</ele><time>2009-06-14T16:30:11Z</time></trkpt>
<trkpt lat="47.01401711" lon="6.90278292"><ele>699.479736</ele><time>2009-06-14T16:30:11Z</time></trkpt>
<trkpt lat="47.01472521" lon="6.90351248"><ele>697.557129</ele><time>2009-06-14T16:30:11Z</time></trkpt>
<trkpt lat="47.01504707" lon="6.90357685"><ele>697.557129</ele><time>2009-06-14T16:30:11Z</time></trkpt>
<trkpt lat="47.01459646" lon="6.90342665"><ele>698.037842</ele><time>2009-06-14T16:30:11Z</time></trkpt>
<trkpt lat="47.01429605" lon="6.90306187"><ele>700.921631</ele><time>2009-06-14T16:30:11Z</time></trkpt>
<trkpt lat="47.01330900" lon="6.90243959"><ele>707.170166</ele><time>2009-06-14T16:30:11Z</time></trkpt>
<trkpt lat="47.01174259" lon="6.90237522"><ele>711.015381</ele><time>2009-06-14T16:30:11Z</time></trkpt>
<trkpt lat="47.01092720" lon="6.90203190"><ele>716.30249</ele><time>2009-06-14T16:30:11Z</time></trkpt>
<trkpt lat="47.01049805" lon="6.90136671"><ele>721.5896</ele><time>2009-06-14T16:30:11Z</time></trkpt>
<trkpt lat="47.00936079" lon="6.89868450"><ele>737.932129</ele><time>2009-06-14T16:30:11Z</time></trkpt>
<trkpt lat="47.00773001" lon="6.89754725"><ele>742.73877</ele><time>2009-06-14T16:30:11Z</time></trkpt>
<trkpt lat="47.00710773" lon="6.89671040"><ele>749.948486</ele><time>2009-06-14T16:30:11Z</time></trkpt>
<trkpt lat="47.00631380" lon="6.89398527"><ele>759.561768</ele><time>2009-06-14T16:30:11Z</time></trkpt>
<trkpt lat="47.00622797" lon="6.89299822"><ele>761.484375</ele><time>2009-06-14T16:30:11Z</time></trkpt>
<trkpt lat="47.00603485" lon="6.89310551"><ele>763.887451</ele><time>2009-06-14T16:30:12Z</time></trkpt>
<trkpt lat="47.00624943" lon="6.89295530"><ele>793.688232</ele><time>2009-06-14T16:30:12Z</time></trkpt>
<trkpt lat="47.00579882" lon="6.88990831"><ele>789.843018</ele><time>2009-06-14T16:30:12Z</time></trkpt>
<trkpt lat="47.00551987" lon="6.88872814"><ele>788.881836</ele><time>2009-06-14T16:30:12Z</time></trkpt>
<trkpt lat="47.00504780" lon="6.88786983"><ele>784.074951</ele><time>2009-06-14T16:30:12Z</time></trkpt>
<trkpt lat="47.00532675" lon="6.88501596"><ele>784.074951</ele><time>2009-06-14T16:30:12Z</time></trkpt>
<trkpt lat="47.00524092" lon="6.88291311"><ele>782.152344</ele><time>2009-06-14T16:30:12Z</time></trkpt>
<trkpt lat="47.00431824" lon="6.87930822"><ele>782.152344</ele><time>2009-06-14T16:30:12Z</time></trkpt>
<trkpt lat="47.00333118" lon="6.87757015"><ele>783.594238</ele><time>2009-06-14T16:30:12Z</time></trkpt>
<trkpt lat="47.00307369" lon="6.87660456"><ele>787.439453</ele><time>2009-06-14T16:30:12Z</time></trkpt>
<trkpt lat="47.00146437" lon="6.87503815"><ele>808.588379</ele><time>2009-06-14T16:30:12Z</time></trkpt>
<trkpt lat="47.00118542" lon="6.87493086"><ele>807.627197</ele><time>2009-06-14T16:30:12Z</time></trkpt>
<trkpt lat="47.00077772" lon="6.87527418"><ele>803.781982</ele><time>2009-06-14T16:30:12Z</time></trkpt>
<trkpt lat="47.00047731" lon="6.87501669"><ele>800.897949</ele><time>2009-06-14T16:30:12Z</time></trkpt>
<trkpt lat="46.99994087" lon="6.87338591"><ele>798.975342</ele><time>2009-06-14T16:30:12Z</time></trkpt>
<trkpt lat="46.99878216" lon="6.87261343"><ele>807.146484</ele><time>2009-06-14T16:30:12Z</time></trkpt>
<trkpt lat="46.99770927" lon="6.86935186"><ele>809.549805</ele><time>2009-06-14T16:30:12Z</time></trkpt>
<trkpt lat="46.99715137" lon="6.86591864"><ele>809.069092</ele><time>2009-06-14T16:30:12Z</time></trkpt>
<trkpt lat="46.99695826" lon="6.86383724"><ele>806.185059</ele><time>2009-06-14T16:30:12Z</time></trkpt>
<trkpt lat="46.99648619" lon="6.86360121"><ele>805.223877</ele><time>2009-06-14T16:30:12Z</time></trkpt>
<trkpt lat="46.99597120" lon="6.86098337"><ele>794.649414</ele><time>2009-06-14T16:30:12Z</time></trkpt>
<trkpt lat="46.99590683" lon="6.85888052"><ele>775.423096</ele><time>2009-06-14T16:30:12Z</time></trkpt>
<trkpt lat="46.99612141" lon="6.85750723"><ele>775.903809</ele><time>2009-06-14T16:30:12Z</time></trkpt>
<trkpt lat="46.99599266" lon="6.85639143"><ele>773.981201</ele><time>2009-06-14T16:30:12Z</time></trkpt>
<trkpt lat="46.99560642" lon="6.85549021"><ele>771.097412</ele><time>2009-06-14T16:30:13Z</time></trkpt>
<trkpt lat="46.99575663" lon="6.85508251"><ele>776.384521</ele><time>2009-06-14T16:30:13Z</time></trkpt>
<trkpt lat="46.99558496" lon="6.85523272"><ele>775.423096</ele><time>2009-06-14T16:30:13Z</time></trkpt>
<trkpt lat="46.99558496" lon="6.85553312"><ele>776.384521</ele><time>2009-06-14T16:30:13Z</time></trkpt>
<trkpt lat="46.99590683" lon="6.85621977"><ele>778.307129</ele><time>2009-06-14T16:30:13Z</time></trkpt>
<trkpt lat="46.99605703" lon="6.85750723"><ele>782.633057</ele><time>2009-06-14T16:30:13Z</time></trkpt>
<trkpt lat="46.99659348" lon="6.85752869"><ele>784.555664</ele><time>2009-06-14T16:30:13Z</time></trkpt>
<trkpt lat="46.99706554" lon="6.85785055"><ele>784.074951</ele><time>2009-06-14T16:30:13Z</time></trkpt>
<trkpt lat="46.99852467" lon="6.85984612"><ele>780.710449</ele><time>2009-06-14T16:30:13Z</time></trkpt>
<trkpt lat="46.99891090" lon="6.86074734"><ele>784.555664</ele><time>2009-06-14T16:30:13Z</time></trkpt>
<trkpt lat="46.99929714" lon="6.86220646"><ele>786.478271</ele><time>2009-06-14T16:30:13Z</time></trkpt>
<trkpt lat="46.99942589" lon="6.86227083"><ele>790.32373</ele><time>2009-06-14T16:30:13Z</time></trkpt>
<trkpt lat="46.99966192" lon="6.86306477"><ele>790.32373</ele><time>2009-06-14T16:30:13Z</time></trkpt>
<trkpt lat="47.00009108" lon="6.86375141"><ele>789.362305</ele><time>2009-06-14T16:30:13Z</time></trkpt>
<trkpt lat="47.00152874" lon="6.86409473"><ele>784.555664</ele><time>2009-06-14T16:30:13Z</time></trkpt>
<trkpt lat="47.00487614" lon="6.86398745"><ele>797.533447</ele><time>2009-06-14T16:30:13Z</time></trkpt>
<trkpt lat="47.00536966" lon="6.86420202"><ele>799.456055</ele><time>2009-06-14T16:30:13Z</time></trkpt>
<trkpt lat="47.00639963" lon="6.86276436"><ele>800.41748</ele><time>2009-06-14T16:30:13Z</time></trkpt>
<trkpt lat="47.00682878" lon="6.86235666"><ele>800.897949</ele><time>2009-06-14T16:30:13Z</time></trkpt>
<trkpt lat="47.00764418" lon="6.86091900"><ele>805.70459</ele><time>2009-06-14T16:30:13Z</time></trkpt>
<trkpt lat="47.00736523" lon="6.86074734"><ele>804.743164</ele><time>2009-06-14T16:30:13Z</time></trkpt>
<trkpt lat="47.00721502" lon="6.86046839"><ele>804.262695</ele><time>2009-06-14T16:30:13Z</time></trkpt>
<trkpt lat="47.00708628" lon="6.85918093"><ele>801.859375</ele><time>2009-06-14T16:30:13Z</time></trkpt>
<trkpt lat="47.00721502" lon="6.85830116"><ele>803.781982</ele><time>2009-06-14T16:30:13Z</time></trkpt>
<trkpt lat="47.00766563" lon="6.85742140"><ele>806.665771</ele><time>2009-06-14T16:30:14Z</time></trkpt>
<trkpt lat="47.00751543" lon="6.85336590"><ele>811.953125</ele><time>2009-06-14T16:30:14Z</time></trkpt>
<trkpt lat="47.00768709" lon="6.85240030"><ele>817.240234</ele><time>2009-06-14T16:30:14Z</time></trkpt>
<trkpt lat="47.00796604" lon="6.85203552"><ele>819.162842</ele><time>2009-06-14T16:30:14Z</time></trkpt>
<trkpt lat="47.00813770" lon="6.85212135"><ele>819.643555</ele><time>2009-06-14T16:30:14Z</time></trkpt>
<trkpt lat="47.01013327" lon="6.85538292"><ele>817.240234</ele><time>2009-06-14T16:30:14Z</time></trkpt>
<trkpt lat="47.01157093" lon="6.85675621"><ele>817.720703</ele><time>2009-06-14T16:30:14Z</time></trkpt>
<trkpt lat="47.01345921" lon="6.85259342"><ele>848.963379</ele><time>2009-06-14T16:30:14Z</time></trkpt>
<trkpt lat="47.01676369" lon="6.85375214"><ele>853.770264</ele><time>2009-06-14T16:30:14Z</time></trkpt>
<trkpt lat="47.01639891" lon="6.85514688"><ele>847.521484</ele><time>2009-06-14T16:30:14Z</time></trkpt>
<trkpt lat="47.01856613" lon="6.85739994"><ele>841.272949</ele><time>2009-06-14T16:30:14Z</time></trkpt>
<trkpt lat="47.01901674" lon="6.85793638"><ele>840.792236</ele><time>2009-06-14T16:30:14Z</time></trkpt>
<trkpt lat="47.01948881" lon="6.85877323"><ele>839.831055</ele><time>2009-06-14T16:30:14Z</time></trkpt>
<trkpt lat="47.02399492" lon="6.86130524"><ele>840.311768</ele><time>2009-06-14T16:30:14Z</time></trkpt>
<trkpt lat="47.02837229" lon="6.86501741"><ele>836.466553</ele><time>2009-06-14T16:30:14Z</time></trkpt>
<trkpt lat="47.02903748" lon="6.86613321"><ele>832.621338</ele><time>2009-06-14T16:30:14Z</time></trkpt>
<trkpt lat="47.03053951" lon="6.86737776"><ele>833.58252</ele><time>2009-06-14T16:30:14Z</time></trkpt>
<trkpt lat="47.03247070" lon="6.86632633"><ele>850.405518</ele><time>2009-06-14T16:30:14Z</time></trkpt>
<trkpt lat="47.03244925" lon="6.86600447"><ele>850.885986</ele><time>2009-06-14T16:30:14Z</time></trkpt>
<trkpt lat="47.03202009" lon="6.86536074"><ele>846.560303</ele><time>2009-06-14T16:30:14Z</time></trkpt>
<trkpt lat="47.03225613" lon="6.86368704"><ele>856.17334</ele><time>2009-06-14T16:30:14Z</time></trkpt>
<trkpt lat="47.03240633" lon="6.86360121"><ele>860.97998</ele><time>2009-06-14T16:30:14Z</time></trkpt>
<trkpt lat="47.07060099" lon="6.69616699"><ele>777.826416</ele><time>2009-06-14T16:30:14Z</time></trkpt>
<trkpt lat="47.07019329" lon="6.69470787"><ele>781.671631</ele><time>2009-06-14T16:30:14Z</time></trkpt>
<trkpt lat="47.06993580" lon="6.69517994"><ele>780.229736</ele><time>2009-06-14T16:30:15Z</time></trkpt>
<trkpt lat="47.06974268" lon="6.69494390"><ele>784.555664</ele><time>2009-06-14T16:30:15Z</time></trkpt>
<trkpt lat="47.05749035" lon="6.74551964"><ele>941.72998</ele><time>2009-06-14T16:30:15Z</time></trkpt>
<trkpt lat="47.05669641" lon="6.74367428"><ele>943.171875</ele><time>2009-06-14T16:30:15Z</time></trkpt>
<trkpt lat="47.05600977" lon="6.74144268"><ele>940.768555</ele><time>2009-06-14T16:30:15Z</time></trkpt>
<trkpt lat="47.05609560" lon="6.73893213"><ele>954.227295</ele><time>2009-06-14T16:30:15Z</time></trkpt>
<trkpt lat="47.05665350" lon="6.74182892"><ele>961.917725</ele><time>2009-06-14T16:30:15Z</time></trkpt>
<trkpt lat="47.05669641" lon="6.74137831"><ele>968.166016</ele><time>2009-06-14T16:30:15Z</time></trkpt>
<trkpt lat="47.05658913" lon="6.74058437"><ele>969.848389</ele><time>2009-06-14T16:30:15Z</time></trkpt>
<trkpt lat="47.05676079" lon="6.74013376"><ele>975.616211</ele><time>2009-06-14T16:30:15Z</time></trkpt>
<trkpt lat="47.05708265" lon="6.73998356"><ele>987.1521</ele><time>2009-06-14T16:30:15Z</time></trkpt>
<trkpt lat="47.05708265" lon="6.73951149"><ele>987.632813</ele><time>2009-06-14T16:30:15Z</time></trkpt>
<trkpt lat="47.05680370" lon="6.73880339"><ele>982.105225</ele><time>2009-06-14T16:30:15Z</time></trkpt>
<trkpt lat="47.05680370" lon="6.73835278"><ele>986.190674</ele><time>2009-06-14T16:30:15Z</time></trkpt>
<trkpt lat="47.05688953" lon="6.73734426"><ele>991.718262</ele><time>2009-06-14T16:30:15Z</time></trkpt>
<trkpt lat="47.05706120" lon="6.73680782"><ele>998.927979</ele><time>2009-06-14T16:30:15Z</time></trkpt>
<trkpt lat="47.05714703" lon="6.73597097"><ele>1005.657227</ele><time>2009-06-14T16:30:15Z</time></trkpt>
<trkpt lat="47.05770493" lon="6.73655033"><ele>1009.502441</ele><time>2009-06-14T16:30:15Z</time></trkpt>
<trkpt lat="47.05800533" lon="6.73852444"><ele>1012.386475</ele><time>2009-06-14T16:30:15Z</time></trkpt>
<trkpt lat="47.05847740" lon="6.74041271"><ele>1018.394775</ele><time>2009-06-14T16:30:15Z</time></trkpt>
<trkpt lat="47.05862761" lon="6.74227953"><ele>1020.317383</ele><time>2009-06-14T16:30:15Z</time></trkpt>
<trkpt lat="47.05931425" lon="6.74384594"><ele>1023.201172</ele><time>2009-06-14T16:30:15Z</time></trkpt>
<trkpt lat="47.06038713" lon="6.74528360"><ele>1030.651367</ele><time>2009-06-14T16:30:15Z</time></trkpt>
<trkpt lat="47.06126690" lon="6.74697876"><ele>1028.007813</ele><time>2009-06-14T16:30:16Z</time></trkpt>
<trkpt lat="47.06180334" lon="6.74815893"><ele>1027.046387</ele><time>2009-06-14T16:30:16Z</time></trkpt>
<trkpt lat="47.06186771" lon="6.74860954"><ele>1025.844727</ele><time>2009-06-14T16:30:16Z</time></trkpt>
<trkpt lat="47.06253290" lon="6.74959660"><ele>1030.891602</ele><time>2009-06-14T16:30:16Z</time></trkpt>
<trkpt lat="47.06349850" lon="6.75161362"><ele>1031.853027</ele><time>2009-06-14T16:30:16Z</time></trkpt>
<trkpt lat="47.06418514" lon="6.75234318"><ele>1029.689941</ele><time>2009-06-14T16:30:16Z</time></trkpt>
<trkpt lat="47.06472158" lon="6.75324440"><ele>1033.054443</ele><time>2009-06-14T16:30:16Z</time></trkpt>
<trkpt lat="47.06630945" lon="6.75478935"><ele>1048.676025</ele><time>2009-06-14T16:30:16Z</time></trkpt>
<trkpt lat="47.06774712" lon="6.75654888"><ele>1059.250244</ele><time>2009-06-14T16:30:16Z</time></trkpt>
<trkpt lat="47.06851959" lon="6.75622702"><ele>1071.026367</ele><time>2009-06-14T16:30:16Z</time></trkpt>
<trkpt lat="47.06922770" lon="6.75560474"><ele>1081.841309</ele><time>2009-06-14T16:30:16Z</time></trkpt>
<trkpt lat="47.06995726" lon="6.75508976"><ele>1091.213867</ele><time>2009-06-14T16:30:16Z</time></trkpt>
<trkpt lat="47.06972122" lon="6.75451040"><ele>1090.252686</ele><time>2009-06-14T16:30:16Z</time></trkpt>
<trkpt lat="47.06984997" lon="6.75365210"><ele>1090.973633</ele><time>2009-06-14T16:30:16Z</time></trkpt>
<trkpt lat="47.07002163" lon="6.75311565"><ele>1094.578369</ele><time>2009-06-14T16:30:16Z</time></trkpt>
<trkpt lat="47.07148075" lon="6.75421000"><ele>1103.470459</ele><time>2009-06-14T16:30:16Z</time></trkpt>
<trkpt lat="47.07236052" lon="6.75300837"><ele>1117.890381</ele><time>2009-06-14T16:30:16Z</time></trkpt>
<trkpt lat="47.07225323" lon="6.75204277"><ele>1126.541992</ele><time>2009-06-14T16:30:16Z</time></trkpt>
<trkpt lat="47.07180262" lon="6.75039053"><ele>1126.061523</ele><time>2009-06-14T16:30:16Z</time></trkpt>
<trkpt lat="47.07201719" lon="6.74972534"><ele>1131.108398</ele><time>2009-06-14T16:30:16Z</time></trkpt>
<trkpt lat="47.07266092" lon="6.74886703"><ele>1144.326416</ele><time>2009-06-14T16:30:16Z</time></trkpt>
<trkpt lat="47.07229614" lon="6.74749374"><ele>1144.326416</ele><time>2009-06-14T16:30:16Z</time></trkpt>
<trkpt lat="47.07223177" lon="6.74624920"><ele>1152.497559</ele><time>2009-06-14T16:30:16Z</time></trkpt>
<trkpt lat="47.07214594" lon="6.74491882"><ele>1156.583008</ele><time>2009-06-14T16:30:16Z</time></trkpt>
<trkpt lat="47.07212448" lon="6.74406052"><ele>1156.583008</ele><time>2009-06-14T16:30:17Z</time></trkpt>
<trkpt lat="47.07248926" lon="6.74384594"><ele>1160.187988</ele><time>2009-06-14T16:30:17Z</time></trkpt>
<trkpt lat="47.07311153" lon="6.74403906"><ele>1167.157471</ele><time>2009-06-14T16:30:17Z</time></trkpt>
<trkpt lat="47.07384109" lon="6.74397469"><ele>1167.157471</ele><time>2009-06-14T16:30:17Z</time></trkpt>
<trkpt lat="47.07414150" lon="6.74350262"><ele>1167.397705</ele><time>2009-06-14T16:30:17Z</time></trkpt>
<trkpt lat="47.07381964" lon="6.74146414"><ele>1159.467041</ele><time>2009-06-14T16:30:17Z</time></trkpt>
<trkpt lat="47.07403421" lon="6.74015522"><ele>1152.497559</ele><time>2009-06-14T16:30:17Z</time></trkpt>
<trkpt lat="47.07457066" lon="6.73983335"><ele>1151.536133</ele><time>2009-06-14T16:30:17Z</time></trkpt>
<trkpt lat="47.07461357" lon="6.73895359"><ele>1149.373291</ele><time>2009-06-14T16:30:17Z</time></trkpt>
<trkpt lat="47.07519293" lon="6.73876047"><ele>1152.25708</ele><time>2009-06-14T16:30:17Z</time></trkpt>
<trkpt lat="47.07521439" lon="6.73946857"><ele>1152.25708</ele><time>2009-06-14T16:30:17Z</time></trkpt>
<trkpt lat="47.07575083" lon="6.74006939"><ele>1156.823486</ele><time>2009-06-14T16:30:17Z</time></trkpt>
<trkpt lat="47.07669497" lon="6.74006939"><ele>1162.591309</ele><time>2009-06-14T16:30:17Z</time></trkpt>
<trkpt lat="47.07729578" lon="6.74084187"><ele>1170.521973</ele><time>2009-06-14T16:30:17Z</time></trkpt>
<trkpt lat="47.07854033" lon="6.74139977"><ele>1181.09668</ele><time>2009-06-14T16:30:17Z</time></trkpt>
<trkpt lat="47.07886219" lon="6.74193621"><ele>1178.933594</ele><time>2009-06-14T16:30:17Z</time></trkpt>
<trkpt lat="47.07959175" lon="6.74251556"><ele>1176.530273</ele><time>2009-06-14T16:30:17Z</time></trkpt>
<trkpt lat="47.08012819" lon="6.74296618"><ele>1177.731934</ele><time>2009-06-14T16:30:17Z</time></trkpt>
<trkpt lat="47.08075047" lon="6.74337387"><ele>1178.452881</ele><time>2009-06-14T16:30:17Z</time></trkpt>
<trkpt lat="47.08102942" lon="6.74382448"><ele>1181.817627</ele><time>2009-06-14T16:30:17Z</time></trkpt>
<trkpt lat="47.08152294" lon="6.74406052"><ele>1181.336914</ele><time>2009-06-14T16:30:17Z</time></trkpt>
<trkpt lat="47.08201647" lon="6.74360991"><ele>1179.414307</ele><time>2009-06-14T16:30:17Z</time></trkpt>
<trkpt lat="47.08233833" lon="6.74367428"><ele>1179.173828</ele><time>2009-06-14T16:30:17Z</time></trkpt>
<trkpt lat="47.08244562" lon="6.74459696"><ele>1184.461182</ele><time>2009-06-14T16:30:17Z</time></trkpt>
<trkpt lat="47.08276749" lon="6.74588442"><ele>1189.267578</ele><time>2009-06-14T16:30:18Z</time></trkpt>
<trkpt lat="47.08321810" lon="6.74762249"><ele>1199.121094</ele><time>2009-06-14T16:30:18Z</time></trkpt>
<trkpt lat="47.08341122" lon="6.74858809"><ele>1201.52417</ele><time>2009-06-14T16:30:18Z</time></trkpt>
<trkpt lat="47.08341122" lon="6.75049782"><ele>1213.300537</ele><time>2009-06-14T16:30:18Z</time></trkpt>
<trkpt lat="47.08323956" lon="6.75103426"><ele>1218.347412</ele><time>2009-06-14T16:30:18Z</time></trkpt>
<trkpt lat="47.08328247" lon="6.75161362"><ele>1219.549072</ele><time>2009-06-14T16:30:18Z</time></trkpt>
<trkpt lat="47.08323956" lon="6.75268650"><ele>1221.231201</ele><time>2009-06-14T16:30:18Z</time></trkpt>
<trkpt lat="47.08392620" lon="6.75367355"><ele>1223.634521</ele><time>2009-06-14T16:30:18Z</time></trkpt>
<trkpt lat="47.08450556" lon="6.75483227"><ele>1230.123291</ele><time>2009-06-14T16:30:18Z</time></trkpt>
<trkpt lat="47.08469868" lon="6.75496101"><ele>1229.883057</ele><time>2009-06-14T16:30:18Z</time></trkpt>
<trkpt lat="47.08523512" lon="6.75436020"><ele>1228.681396</ele><time>2009-06-14T16:30:18Z</time></trkpt>
<trkpt lat="47.08536386" lon="6.75369501"><ele>1226.037842</ele><time>2009-06-14T16:30:18Z</time></trkpt>
<trkpt lat="47.08564281" lon="6.75311565"><ele>1222.913574</ele><time>2009-06-14T16:30:18Z</time></trkpt>
<trkpt lat="47.08639383" lon="6.75324440"><ele>1224.595703</ele><time>2009-06-14T16:30:18Z</time></trkpt>
<trkpt lat="47.08701611" lon="6.75363064"><ele>1230.363525</ele><time>2009-06-14T16:30:18Z</time></trkpt>
<trkpt lat="47.08733797" lon="6.75348043"><ele>1230.363525</ele><time>2009-06-14T16:30:18Z</time></trkpt>
<trkpt lat="47.08783150" lon="6.75275087"><ele>1227.479736</ele><time>2009-06-14T16:30:18Z</time></trkpt>
<trkpt lat="47.08847523" lon="6.75285816"><ele>1228.921631</ele><time>2009-06-14T16:30:18Z</time></trkpt>
<trkpt lat="47.08877563" lon="6.75255775"><ele>1228.681396</ele><time>2009-06-14T16:30:18Z</time></trkpt>
<trkpt lat="47.08926916" lon="6.75189257"><ele>1221.711914</ele><time>2009-06-14T16:30:18Z</time></trkpt>
<trkpt lat="47.08986998" lon="6.75270796"><ele>1214.982666</ele><time>2009-06-14T16:30:18Z</time></trkpt>
<trkpt lat="47.09004164" lon="6.75311565"><ele>1214.502197</ele><time>2009-06-14T16:30:18Z</time></trkpt>
<trkpt lat="47.09044933" lon="6.75352335"><ele>1203.206543</ele><time>2009-06-14T16:30:18Z</time></trkpt>
<trkpt lat="47.09081411" lon="6.75470352"><ele>1207.772949</ele><time>2009-06-14T16:30:18Z</time></trkpt>
<trkpt lat="47.09109306" lon="6.75448895"><ele>1206.331055</ele><time>2009-06-14T16:30:18Z</time></trkpt>
<trkpt lat="47.09115744" lon="6.75369501"><ele>1193.112793</ele><time>2009-06-14T16:30:19Z</time></trkpt>
<trkpt lat="47.09171534" lon="6.75324440"><ele>1180.615967</ele><time>2009-06-14T16:30:19Z</time></trkpt>
<trkpt lat="47.09274530" lon="6.75373793"><ele>1176.530273</ele><time>2009-06-14T16:30:19Z</time></trkpt>
<trkpt lat="47.09319592" lon="6.75446749"><ele>1182.057861</ele><time>2009-06-14T16:30:19Z</time></trkpt>
<trkpt lat="47.09405422" lon="6.75478935"><ele>1174.367432</ele><time>2009-06-14T16:30:19Z</time></trkpt>
<trkpt lat="47.09478378" lon="6.75530434"><ele>1175.088379</ele><time>2009-06-14T16:30:19Z</time></trkpt>
<trkpt lat="47.09540606" lon="6.75654888"><ele>1177.491699</ele><time>2009-06-14T16:30:19Z</time></trkpt>
<trkpt lat="47.09542751" lon="6.75734282"><ele>1184.461182</ele><time>2009-06-14T16:30:19Z</time></trkpt>
<trkpt lat="47.09596395" lon="6.75764322"><ele>1179.89502</ele><time>2009-06-14T16:30:19Z</time></trkpt>
<trkpt lat="47.09641457" lon="6.75890923"><ele>1186.143311</ele><time>2009-06-14T16:30:19Z</time></trkpt>
<trkpt lat="47.09669352" lon="6.76015377"><ele>1187.585449</ele><time>2009-06-14T16:30:19Z</time></trkpt>
<trkpt lat="47.09710121" lon="6.76105499"><ele>1185.903076</ele><time>2009-06-14T16:30:19Z</time></trkpt>
<trkpt lat="47.09763765" lon="6.76210642"><ele>1182.057861</ele><time>2009-06-14T16:30:19Z</time></trkpt>
<trkpt lat="47.09742308" lon="6.76296473"><ele>1192.151611</ele><time>2009-06-14T16:30:19Z</time></trkpt>
<trkpt lat="47.09759474" lon="6.76324368"><ele>1192.151611</ele><time>2009-06-14T16:30:19Z</time></trkpt>
<trkpt lat="47.09787369" lon="6.76322222"><ele>1189.508057</ele><time>2009-06-14T16:30:19Z</time></trkpt>
<trkpt lat="47.09823847" lon="6.76296473"><ele>1181.577148</ele><time>2009-06-14T16:30:19Z</time></trkpt>
<trkpt lat="47.09868908" lon="6.76294327"><ele>1173.165771</ele><time>2009-06-14T16:30:19Z</time></trkpt>
<trkpt lat="47.09931135" lon="6.76335096"><ele>1164.513916</ele><time>2009-06-14T16:30:19Z</time></trkpt>
<trkpt lat="47.10004091" lon="6.76418781"><ele>1151.295898</ele><time>2009-06-14T16:30:19Z</time></trkpt>
<trkpt lat="47.10040569" lon="6.76431656"><ele>1144.326416</ele><time>2009-06-14T16:30:19Z</time></trkpt>
<trkpt lat="47.10044861" lon="6.76326513"><ele>1135.434082</ele><time>2009-06-14T16:30:19Z</time></trkpt>
<trkpt lat="47.09948301" lon="6.76169872"><ele>1136.395508</ele><time>2009-06-14T16:30:19Z</time></trkpt>
<trkpt lat="47.09881783" lon="6.76169872"><ele>1151.295898</ele><time>2009-06-14T16:30:20Z</time></trkpt>
<trkpt lat="47.09858179" lon="6.76156998"><ele>1155.621826</ele><time>2009-06-14T16:30:20Z</time></trkpt>
<trkpt lat="47.09853888" lon="6.76099062"><ele>1149.854004</ele><time>2009-06-14T16:30:20Z</time></trkpt>
<trkpt lat="47.09785223" lon="6.75908089"><ele>1149.613525</ele><time>2009-06-14T16:30:20Z</time></trkpt>
<trkpt lat="47.09776640" lon="6.75841570"><ele>1152.497559</ele><time>2009-06-14T16:30:20Z</time></trkpt>
<trkpt lat="47.09798098" lon="6.75768614"><ele>1144.56665</ele><time>2009-06-14T16:30:20Z</time></trkpt>
<trkpt lat="47.09793806" lon="6.75684929"><ele>1138.798828</ele><time>2009-06-14T16:30:20Z</time></trkpt>
<trkpt lat="47.09761620" lon="6.75618410"><ele>1136.155029</ele><time>2009-06-14T16:30:20Z</time></trkpt>
<trkpt lat="47.09680080" lon="6.75566912"><ele>1139.76001</ele><time>2009-06-14T16:30:20Z</time></trkpt>
<trkpt lat="47.09757328" lon="6.75560474"><ele>1129.185547</ele><time>2009-06-14T16:30:20Z</time></trkpt>
<trkpt lat="47.09810972" lon="6.75551891"><ele>1116.928955</ele><time>2009-06-14T16:30:20Z</time></trkpt>
<trkpt lat="47.09860325" lon="6.75558329"><ele>1107.315674</ele><time>2009-06-14T16:30:20Z</time></trkpt>
<trkpt lat="47.09922552" lon="6.75517559"><ele>1085.446045</ele><time>2009-06-14T16:30:20Z</time></trkpt>
<trkpt lat="47.10008383" lon="6.75431728"><ele>1068.382813</ele><time>2009-06-14T16:30:20Z</time></trkpt>
<trkpt lat="47.10117817" lon="6.75599098"><ele>1067.9021</ele><time>2009-06-14T16:30:20Z</time></trkpt>
<trkpt lat="47.10190773" lon="6.75792217"><ele>1071.987549</ele><time>2009-06-14T16:30:20Z</time></trkpt>
<trkpt lat="47.10240126" lon="6.75848007"><ele>1069.824707</ele><time>2009-06-14T16:30:20Z</time></trkpt>
<trkpt lat="47.10306644" lon="6.76000357"><ele>1072.948975</ele><time>2009-06-14T16:30:20Z</time></trkpt>
<trkpt lat="47.10345268" lon="6.76105499"><ele>1079.918701</ele><time>2009-06-14T16:30:20Z</time></trkpt>
<trkpt lat="47.10386038" lon="6.76242828"><ele>1080.39917</ele><time>2009-06-14T16:30:20Z</time></trkpt>
<trkpt lat="47.10467577" lon="6.76438093"><ele>1082.80249</ele><time>2009-06-14T16:30:20Z</time></trkpt>
<trkpt lat="47.10495472" lon="6.76603317"><ele>1085.926758</ele><time>2009-06-14T16:30:20Z</time></trkpt>
<trkpt lat="47.10523367" lon="6.76772833"><ele>1084.965576</ele><time>2009-06-14T16:30:20Z</time></trkpt>
<trkpt lat="47.10529804" lon="6.76835060"><ele>1083.042725</ele><time>2009-06-14T16:30:20Z</time></trkpt>
<trkpt lat="47.10619926" lon="6.76957369"><ele>1067.661621</ele><time>2009-06-14T16:30:21Z</time></trkpt>
<trkpt lat="47.10643530" lon="6.77021742"><ele>1063.576172</ele><time>2009-06-14T16:30:21Z</time></trkpt>
<trkpt lat="47.10690737" lon="6.76826477"><ele>1059.971191</ele><time>2009-06-14T16:30:21Z</time></trkpt>
<trkpt lat="47.10703611" lon="6.76693439"><ele>1063.335938</ele><time>2009-06-14T16:30:21Z</time></trkpt>
<trkpt lat="47.10712194" lon="6.76601171"><ele>1057.327637</ele><time>2009-06-14T16:30:21Z</time></trkpt>
<trkpt lat="47.10664988" lon="6.76450968"><ele>1048.676025</ele><time>2009-06-14T16:30:21Z</time></trkpt>
<trkpt lat="47.10688591" lon="6.76423073"><ele>1043.148193</ele><time>2009-06-14T16:30:21Z</time></trkpt>
<trkpt lat="47.10725069" lon="6.76502466"><ele>1046.032471</ele><time>2009-06-14T16:30:21Z</time></trkpt>
<trkpt lat="47.10793734" lon="6.76566839"><ele>1038.582031</ele><time>2009-06-14T16:30:21Z</time></trkpt>
<trkpt lat="47.10838795" lon="6.76678419"><ele>1034.256104</ele><time>2009-06-14T16:30:21Z</time></trkpt>
<trkpt lat="47.10892439" lon="6.76774979"><ele>1025.364014</ele><time>2009-06-14T16:30:21Z</time></trkpt>
<trkpt lat="47.10961103" lon="6.76895142"><ele>1018.154297</ele><time>2009-06-14T16:30:21Z</time></trkpt>
<trkpt lat="47.11023331" lon="6.76946640"><ele>1012.867188</ele><time>2009-06-14T16:30:21Z</time></trkpt>
<trkpt lat="47.11072683" lon="6.77023888"><ele>1011.425049</ele><time>2009-06-14T16:30:21Z</time></trkpt>
<trkpt lat="47.11091995" lon="6.77090406"><ele>1009.261963</ele><time>2009-06-14T16:30:21Z</time></trkpt>
<trkpt lat="47.11143494" lon="6.77169800"><ele>999.648926</ele><time>2009-06-14T16:30:21Z</time></trkpt>
<trkpt lat="47.11164951" lon="6.77135468"><ele>996.284424</ele><time>2009-06-14T16:30:21Z</time></trkpt>
<trkpt lat="47.11145639" lon="6.77056074"><ele>998.927979</ele><time>2009-06-14T16:30:21Z</time></trkpt>
<trkpt lat="47.11169243" lon="6.76978827"><ele>991.237549</ele><time>2009-06-14T16:30:21Z</time></trkpt>
<trkpt lat="47.11149931" lon="6.76839352"><ele>985.229492</ele><time>2009-06-14T16:30:21Z</time></trkpt>
<trkpt lat="47.11122036" lon="6.76693439"><ele>981.624512</ele><time>2009-06-14T16:30:21Z</time></trkpt>
<trkpt lat="47.11094141" lon="6.76564693"><ele>975.616211</ele><time>2009-06-14T16:30:21Z</time></trkpt>
<trkpt lat="47.11074829" lon="6.76403761"><ele>962.398193</ele><time>2009-06-14T16:30:21Z</time></trkpt>
<trkpt lat="47.11042643" lon="6.76262140"><ele>955.909424</ele><time>2009-06-14T16:30:21Z</time></trkpt>
<trkpt lat="47.11014748" lon="6.76122665"><ele>951.823975</ele><time>2009-06-14T16:30:22Z</time></trkpt>
<trkpt lat="47.10978270" lon="6.75972462"><ele>945.094482</ele><time>2009-06-14T16:30:22Z</time></trkpt>
<trkpt lat="47.10922480" lon="6.75768614"><ele>928.992676</ele><time>2009-06-14T16:30:22Z</time></trkpt>
<trkpt lat="47.10849524" lon="6.75616264"><ele>927.310547</ele><time>2009-06-14T16:30:22Z</time></trkpt>
<trkpt lat="47.10817337" lon="6.75511122"><ele>918.418457</ele><time>2009-06-14T16:30:22Z</time></trkpt>
<trkpt lat="47.10767984" lon="6.75408125"><ele>920.821533</ele><time>2009-06-14T16:30:22Z</time></trkpt>
<trkpt lat="47.10735798" lon="6.75270796"><ele>913.611572</ele><time>2009-06-14T16:30:22Z</time></trkpt>
<trkpt lat="47.10701466" lon="6.75105572"><ele>908.084229</ele><time>2009-06-14T16:30:22Z</time></trkpt>
<trkpt lat="47.10671425" lon="6.74948931"><ele>896.548584</ele><time>2009-06-14T16:30:22Z</time></trkpt>
<trkpt lat="47.10607052" lon="6.74777269"><ele>886.695068</ele><time>2009-06-14T16:30:22Z</time></trkpt>
<trkpt lat="47.10551262" lon="6.74674273"><ele>876.120605</ele><time>2009-06-14T16:30:22Z</time></trkpt>
<trkpt lat="47.10489035" lon="6.74601316"><ele>871.554199</ele><time>2009-06-14T16:30:22Z</time></trkpt>
<trkpt lat="47.10416079" lon="6.74569130"><ele>867.708984</ele><time>2009-06-14T16:30:22Z</time></trkpt>
<trkpt lat="47.10358143" lon="6.74616337"><ele>864.825195</ele><time>2009-06-14T16:30:22Z</time></trkpt>
<trkpt lat="47.10319519" lon="6.74708605"><ele>882.609375</ele><time>2009-06-14T16:30:22Z</time></trkpt>
<trkpt lat="47.10274458" lon="6.74753666"><ele>870.833252</ele><time>2009-06-14T16:30:22Z</time></trkpt>
<trkpt lat="47.10227251" lon="6.74813747"><ele>863.86377</ele><time>2009-06-14T16:30:22Z</time></trkpt>
<trkpt lat="47.10192919" lon="6.74888849"><ele>873.236572</ele><time>2009-06-14T16:30:22Z</time></trkpt>
<trkpt lat="47.10130692" lon="6.74942493"><ele>866.988037</ele><time>2009-06-14T16:30:22Z</time></trkpt>
<trkpt lat="47.10057735" lon="6.74955368"><ele>848.242432</ele><time>2009-06-14T16:30:22Z</time></trkpt>
<trkpt lat="47.09986925" lon="6.75017595"><ele>849.684326</ele><time>2009-06-14T16:30:22Z</time></trkpt>
<trkpt lat="47.09928989" lon="6.75056219"><ele>853.289551</ele><time>2009-06-14T16:30:22Z</time></trkpt>
<trkpt lat="47.09871054" lon="6.75049782"><ele>850.405518</ele><time>2009-06-14T16:30:22Z</time></trkpt>
<trkpt lat="47.09838867" lon="6.75017595"><ele>838.148682</ele><time>2009-06-14T16:30:22Z</time></trkpt>
<trkpt lat="47.09748745" lon="6.75011158"><ele>844.637451</ele><time>2009-06-14T16:30:23Z</time></trkpt>
<trkpt lat="47.09712267" lon="6.74993992"><ele>839.110107</ele><time>2009-06-14T16:30:23Z</time></trkpt>
<trkpt lat="47.09667206" lon="6.74987555"><ele>841.272949</ele><time>2009-06-14T16:30:23Z</time></trkpt>
<trkpt lat="47.09589958" lon="6.74916744"><ele>821.085693</ele><time>2009-06-14T16:30:23Z</time></trkpt>
<trkpt lat="47.09514856" lon="6.74888849"><ele>832.621338</ele><time>2009-06-14T16:30:23Z</time></trkpt>
<trkpt lat="47.09467649" lon="6.74826622"><ele>818.922363</ele><time>2009-06-14T16:30:23Z</time></trkpt>
<trkpt lat="47.09409714" lon="6.74798727"><ele>816.519287</ele><time>2009-06-14T16:30:23Z</time></trkpt>
<trkpt lat="47.09330320" lon="6.74807310"><ele>819.643555</ele><time>2009-06-14T16:30:23Z</time></trkpt>
<trkpt lat="47.09278822" lon="6.74813747"><ele>825.89209</ele><time>2009-06-14T16:30:23Z</time></trkpt>
<trkpt lat="47.09253073" lon="6.74768686"><ele>808.588379</ele><time>2009-06-14T16:30:23Z</time></trkpt>
<trkpt lat="47.09216595" lon="6.74736500"><ele>817.240234</ele><time>2009-06-14T16:30:23Z</time></trkpt>
<trkpt lat="47.09216595" lon="6.74702168"><ele>807.627197</ele><time>2009-06-14T16:30:23Z</time></trkpt>
<trkpt lat="47.09188700" lon="6.74665689"><ele>811.712646</ele><time>2009-06-14T16:30:23Z</time></trkpt>
<trkpt lat="47.09171534" lon="6.74605608"><ele>794.168945</ele><time>2009-06-14T16:30:23Z</time></trkpt>
<trkpt lat="47.09111452" lon="6.74573421"><ele>811.231934</ele><time>2009-06-14T16:30:23Z</time></trkpt>
<trkpt lat="47.09057808" lon="6.74442530"><ele>790.563965</ele><time>2009-06-14T16:30:23Z</time></trkpt>
<trkpt lat="47.09029913" lon="6.74442530"><ele>804.50293</ele><time>2009-06-14T16:30:23Z</time></trkpt>
<trkpt lat="47.09010601" lon="6.74384594"><ele>798.975342</ele><time>2009-06-14T16:30:23Z</time></trkpt>
<trkpt lat="47.08993435" lon="6.74330950"><ele>797.052734</ele><time>2009-06-14T16:30:23Z</time></trkpt>
<trkpt lat="47.08993435" lon="6.74290180"><ele>788.160645</ele><time>2009-06-14T16:30:23Z</time></trkpt>
<trkpt lat="47.08956957" lon="6.74253702"><ele>804.262695</ele><time>2009-06-14T16:30:23Z</time></trkpt>
<trkpt lat="47.08948374" lon="6.74185038"><ele>792.967285</ele><time>2009-06-14T16:30:23Z</time></trkpt>
<trkpt lat="47.08916187" lon="6.74129248"><ele>798.254395</ele><time>2009-06-14T16:30:23Z</time></trkpt>
<trkpt lat="47.08875418" lon="6.74049854"><ele>811.953125</ele><time>2009-06-14T16:30:23Z</time></trkpt>
<trkpt lat="47.08856106" lon="6.73897505"><ele>806.90625</ele><time>2009-06-14T16:30:24Z</time></trkpt>
<trkpt lat="47.08864689" lon="6.73824549"><ele>789.602783</ele><time>2009-06-14T16:30:24Z</time></trkpt>
<trkpt lat="47.08817482" lon="6.73721552"><ele>811.472412</ele><time>2009-06-14T16:30:24Z</time></trkpt>
<trkpt lat="47.08828211" lon="6.73640013"><ele>805.944824</ele><time>2009-06-14T16:30:24Z</time></trkpt>
<trkpt lat="47.08826065" lon="6.73547745"><ele>803.061035</ele><time>2009-06-14T16:30:24Z</time></trkpt>
<trkpt lat="47.08785295" lon="6.73485518"><ele>831.419678</ele><time>2009-06-14T16:30:24Z</time></trkpt>
<trkpt lat="47.08789587" lon="6.73410416"><ele>829.256592</ele><time>2009-06-14T16:30:24Z</time></trkpt>
<trkpt lat="47.08826065" lon="6.73371792"><ele>796.572266</ele><time>2009-06-14T16:30:24Z</time></trkpt>
<trkpt lat="47.08817482" lon="6.73292398"><ele>804.022217</ele><time>2009-06-14T16:30:24Z</time></trkpt>
<trkpt lat="47.08811045" lon="6.73152924"><ele>804.022217</ele><time>2009-06-14T16:30:24Z</time></trkpt>
<trkpt lat="47.08806753" lon="6.73037052"><ele>818.201416</ele><time>2009-06-14T16:30:24Z</time></trkpt>
<trkpt lat="47.08804607" lon="6.72938347"><ele>827.574463</ele><time>2009-06-14T16:30:24Z</time></trkpt>
<trkpt lat="47.08823919" lon="6.72863245"><ele>824.209961</ele><time>2009-06-14T16:30:24Z</time></trkpt>
<trkpt lat="47.08834648" lon="6.72831059"><ele>821.566162</ele><time>2009-06-14T16:30:24Z</time></trkpt>
<trkpt lat="47.08875418" lon="6.72770977"><ele>812.674072</ele><time>2009-06-14T16:30:24Z</time></trkpt>
<trkpt lat="47.08879709" lon="6.72687292"><ele>824.69043</ele><time>2009-06-14T16:30:24Z</time></trkpt>
<trkpt lat="47.08911896" lon="6.72625065"><ele>811.231934</ele><time>2009-06-14T16:30:24Z</time></trkpt>
<trkpt lat="47.08941936" lon="6.72560692"><ele>796.331787</ele><time>2009-06-14T16:30:24Z</time></trkpt>
<trkpt lat="47.08892584" lon="6.72455549"><ele>796.8125</ele><time>2009-06-14T16:30:24Z</time></trkpt>
<trkpt lat="47.08836794" lon="6.72343969"><ele>800.41748</ele><time>2009-06-14T16:30:24Z</time></trkpt>
<trkpt lat="47.08783150" lon="6.72213078"><ele>813.635254</ele><time>2009-06-14T16:30:24Z</time></trkpt>
<trkpt lat="47.08800316" lon="6.72120810"><ele>795.851074</ele><time>2009-06-14T16:30:24Z</time></trkpt>
<trkpt lat="47.08793879" lon="6.71996355"><ele>791.284912</ele><time>2009-06-14T16:30:24Z</time></trkpt>
<trkpt lat="47.08781004" lon="6.71871901"><ele>785.036377</ele><time>2009-06-14T16:30:24Z</time></trkpt>
<trkpt lat="47.08753109" lon="6.71779633"><ele>788.401123</ele><time>2009-06-14T16:30:25Z</time></trkpt>
<trkpt lat="47.08733797" lon="6.71620846"><ele>781.671631</ele><time>2009-06-14T16:30:25Z</time></trkpt>
<trkpt lat="47.08710194" lon="6.71528578"><ele>773.740967</ele><time>2009-06-14T16:30:25Z</time></trkpt>
<trkpt lat="47.08660841" lon="6.71464205"><ele>768.213379</ele><time>2009-06-14T16:30:25Z</time></trkpt>
<trkpt lat="47.08607197" lon="6.71404123"><ele>767.973145</ele><time>2009-06-14T16:30:25Z</time></trkpt>
<trkpt lat="47.08583593" lon="6.71320438"><ele>762.92627</ele><time>2009-06-14T16:30:25Z</time></trkpt>
<trkpt lat="47.08575010" lon="6.71241045"><ele>764.608643</ele><time>2009-06-14T16:30:25Z</time></trkpt>
<trkpt lat="47.08519220" lon="6.71155214"><ele>769.655518</ele><time>2009-06-14T16:30:25Z</time></trkpt>
<trkpt lat="47.08444118" lon="6.71077967"><ele>774.942627</ele><time>2009-06-14T16:30:25Z</time></trkpt>
<trkpt lat="47.08416224" lon="6.71000719"><ele>767.252197</ele><time>2009-06-14T16:30:25Z</time></trkpt>
<trkpt lat="47.08429098" lon="6.70925617"><ele>757.63916</ele><time>2009-06-14T16:30:25Z</time></trkpt>
<trkpt lat="47.08409786" lon="6.70867682"><ele>756.197021</ele><time>2009-06-14T16:30:25Z</time></trkpt>
<trkpt lat="47.08343267" lon="6.70880556"><ele>759.802002</ele><time>2009-06-14T16:30:25Z</time></trkpt>
<trkpt lat="47.08321810" lon="6.70955658"><ele>777.345947</ele><time>2009-06-14T16:30:25Z</time></trkpt>
<trkpt lat="47.08313227" lon="6.71080112"><ele>798.735107</ele><time>2009-06-14T16:30:25Z</time></trkpt>
<trkpt lat="47.08285332" lon="6.71095133"><ele>809.309326</ele><time>2009-06-14T16:30:25Z</time></trkpt>
<trkpt lat="47.08248854" lon="6.71009302"><ele>803.541504</ele><time>2009-06-14T16:30:25Z</time></trkpt>
<trkpt lat="47.08240271" lon="6.70910597"><ele>799.456055</ele><time>2009-06-14T16:30:25Z</time></trkpt>
<trkpt lat="47.08233833" lon="6.70850515"><ele>800.897949</ele><time>2009-06-14T16:30:25Z</time></trkpt>
<trkpt lat="47.08201647" lon="6.70760393"><ele>794.649414</ele><time>2009-06-14T16:30:25Z</time></trkpt>
<trkpt lat="47.08184481" lon="6.70674562"><ele>796.8125</ele><time>2009-06-14T16:30:25Z</time></trkpt>
<trkpt lat="47.08180189" lon="6.70595169"><ele>784.074951</ele><time>2009-06-14T16:30:25Z</time></trkpt>
<trkpt lat="47.08156586" lon="6.70560837"><ele>782.152344</ele><time>2009-06-14T16:30:25Z</time></trkpt>
<trkpt lat="47.08130836" lon="6.70610189"><ele>785.276611</ele><time>2009-06-14T16:30:26Z</time></trkpt>
<trkpt lat="47.08126545" lon="6.70721769"><ele>805.464111</ele><time>2009-06-14T16:30:26Z</time></trkpt>
<trkpt lat="47.08085775" lon="6.70839787"><ele>840.311768</ele><time>2009-06-14T16:30:26Z</time></trkpt>
<trkpt lat="47.08023548" lon="6.70912743"><ele>840.311768</ele><time>2009-06-14T16:30:26Z</time></trkpt>
<trkpt lat="47.07965612" lon="6.70953512"><ele>843.436035</ele><time>2009-06-14T16:30:26Z</time></trkpt>
<trkpt lat="47.07866907" lon="6.70972824"><ele>849.684326</ele><time>2009-06-14T16:30:26Z</time></trkpt>
<trkpt lat="47.07757473" lon="6.70897722"><ele>841.272949</ele><time>2009-06-14T16:30:26Z</time></trkpt>
<trkpt lat="47.07695246" lon="6.70824766"><ele>839.110107</ele><time>2009-06-14T16:30:26Z</time></trkpt>
<trkpt lat="47.07630873" lon="6.70773268"><ele>827.334229</ele><time>2009-06-14T16:30:26Z</time></trkpt>
<trkpt lat="47.07551479" lon="6.70826912"><ele>833.101807</ele><time>2009-06-14T16:30:26Z</time></trkpt>
<trkpt lat="47.07510710" lon="6.70899868"><ele>841.993896</ele><time>2009-06-14T16:30:26Z</time></trkpt>
<trkpt lat="47.07489252" lon="6.70998573"><ele>862.181641</ele><time>2009-06-14T16:30:26Z</time></trkpt>
<trkpt lat="47.07457066" lon="6.71039343"><ele>873.95752</ele><time>2009-06-14T16:30:26Z</time></trkpt>
<trkpt lat="47.07416296" lon="6.70914888"><ele>856.654053</ele><time>2009-06-14T16:30:26Z</time></trkpt>
<trkpt lat="47.07375526" lon="6.70848370"><ele>852.568604</ele><time>2009-06-14T16:30:26Z</time></trkpt>
<trkpt lat="47.07302570" lon="6.70777559"><ele>854.971924</ele><time>2009-06-14T16:30:26Z</time></trkpt>
<trkpt lat="47.07231760" lon="6.70713186"><ele>854.491211</ele><time>2009-06-14T16:30:26Z</time></trkpt>
<trkpt lat="47.07163095" lon="6.70588732"><ele>843.916504</ele><time>2009-06-14T16:30:26Z</time></trkpt>
<trkpt lat="47.07107306" lon="6.70505047"><ele>833.58252</ele><time>2009-06-14T16:30:26Z</time></trkpt>
<trkpt lat="47.07038641" lon="6.70438528"><ele>822.767822</ele><time>2009-06-14T16:30:26Z</time></trkpt>
<trkpt lat="47.07017183" lon="6.70412779"><ele>821.325928</ele><time>2009-06-14T16:30:26Z</time></trkpt>
<trkpt lat="47.07004309" lon="6.70354843"><ele>809.790039</ele><time>2009-06-14T16:30:26Z</time></trkpt>
<trkpt lat="47.06927061" lon="6.70320511"><ele>817.961182</ele><time>2009-06-14T16:30:26Z</time></trkpt>
<trkpt lat="47.06815481" lon="6.70395613"><ele>835.264893</ele><time>2009-06-14T16:30:26Z</time></trkpt>
<trkpt lat="47.06813335" lon="6.70429945"><ele>839.350342</ele><time>2009-06-14T16:30:27Z</time></trkpt>
<trkpt lat="47.06783295" lon="6.70494318"><ele>845.839111</ele><time>2009-06-14T16:30:27Z</time></trkpt>
<trkpt lat="47.06785440" lon="6.70569420"><ele>853.529785</ele><time>2009-06-14T16:30:27Z</time></trkpt>
<trkpt lat="47.06757545" lon="6.70704603"><ele>869.631836</ele><time>2009-06-14T16:30:27Z</time></trkpt>
<trkpt lat="47.06768274" lon="6.70783997"><ele>879.244629</ele><time>2009-06-14T16:30:27Z</time></trkpt>
<trkpt lat="47.06826210" lon="6.70816183"><ele>886.695068</ele><time>2009-06-14T16:30:27Z</time></trkpt>
<trkpt lat="47.06890583" lon="6.70856953"><ele>897.269531</ele><time>2009-06-14T16:30:27Z</time></trkpt>
<trkpt lat="47.06858397" lon="6.70882702"><ele>903.758301</ele><time>2009-06-14T16:30:27Z</time></trkpt>
<trkpt lat="47.06804752" lon="6.70923471"><ele>912.409912</ele><time>2009-06-14T16:30:27Z</time></trkpt>
<trkpt lat="47.06725359" lon="6.71060801"><ele>928.271729</ele><time>2009-06-14T16:30:27Z</time></trkpt>
<trkpt lat="47.06585884" lon="6.71221733"><ele>939.086426</ele><time>2009-06-14T16:30:27Z</time></trkpt>
<trkpt lat="47.06635237" lon="6.71273232"><ele>956.630371</ele><time>2009-06-14T16:30:27Z</time></trkpt>
<trkpt lat="47.06673861" lon="6.71371937"><ele>971.290283</ele><time>2009-06-14T16:30:27Z</time></trkpt>
<trkpt lat="47.06650257" lon="6.71399832"><ele>970.569336</ele><time>2009-06-14T16:30:27Z</time></trkpt>
<trkpt lat="47.06592321" lon="6.71371937"><ele>965.762939</ele><time>2009-06-14T16:30:27Z</time></trkpt>
<trkpt lat="47.06510782" lon="6.71401978"><ele>971.290283</ele><time>2009-06-14T16:30:27Z</time></trkpt>
<trkpt lat="47.06448555" lon="6.71449184"><ele>982.105225</ele><time>2009-06-14T16:30:27Z</time></trkpt>
<trkpt lat="47.06433535" lon="6.71535015"><ele>995.803711</ele><time>2009-06-14T16:30:27Z</time></trkpt>
<trkpt lat="47.06394911" lon="6.71513557"><ele>994.361816</ele><time>2009-06-14T16:30:27Z</time></trkpt>
<trkpt lat="47.06379890" lon="6.71440601"><ele>985.229492</ele><time>2009-06-14T16:30:27Z</time></trkpt>
<trkpt lat="47.06313372" lon="6.71442747"><ele>986.911621</ele><time>2009-06-14T16:30:27Z</time></trkpt>
<trkpt lat="47.06259727" lon="6.71449184"><ele>984.027832</ele><time>2009-06-14T16:30:27Z</time></trkpt>
<trkpt lat="47.06238270" lon="6.71556473"><ele>990.035889</ele><time>2009-06-14T16:30:28Z</time></trkpt>
<trkpt lat="47.06126690" lon="6.71616554"><ele>978.740479</ele><time>2009-06-14T16:30:28Z</time></trkpt>
<trkpt lat="47.06036568" lon="6.71828985"><ele>983.787598</ele><time>2009-06-14T16:30:28Z</time></trkpt>
<trkpt lat="47.06006527" lon="6.71962023"><ele>982.105225</ele><time>2009-06-14T16:30:28Z</time></trkpt>
<trkpt lat="47.05961466" lon="6.72047853"><ele>972.972656</ele><time>2009-06-14T16:30:28Z</time></trkpt>
<trkpt lat="47.05918550" lon="6.72232389"><ele>962.638672</ele><time>2009-06-14T16:30:28Z</time></trkpt>
<trkpt lat="47.05914259" lon="6.72328949"><ele>964.561279</ele><time>2009-06-14T16:30:28Z</time></trkpt>
<trkpt lat="47.05869198" lon="6.72369719"><ele>962.398193</ele><time>2009-06-14T16:30:28Z</time></trkpt>
<trkpt lat="47.05888510" lon="6.72461987"><ele>969.127441</ele><time>2009-06-14T16:30:28Z</time></trkpt>
<trkpt lat="47.05901384" lon="6.72560692"><ele>970.088623</ele><time>2009-06-14T16:30:28Z</time></trkpt>
<trkpt lat="47.05952883" lon="6.72751665"><ele>954.467529</ele><time>2009-06-14T16:30:28Z</time></trkpt>
<trkpt lat="47.05976486" lon="6.72863245"><ele>953.025635</ele><time>2009-06-14T16:30:28Z</time></trkpt>
<trkpt lat="47.06045151" lon="6.73039198"><ele>959.754639</ele><time>2009-06-14T16:30:28Z</time></trkpt>
<trkpt lat="47.06085920" lon="6.73255920"><ele>965.522461</ele><time>2009-06-14T16:30:28Z</time></trkpt>
<trkpt lat="47.06130981" lon="6.73427582"><ele>972.01123</ele><time>2009-06-14T16:30:28Z</time></trkpt>
<trkpt lat="47.06169605" lon="6.73545599"><ele>970.569336</ele><time>2009-06-14T16:30:28Z</time></trkpt>
<trkpt lat="47.06210375" lon="6.73676491"><ele>988.593994</ele><time>2009-06-14T16:30:28Z</time></trkpt>
<trkpt lat="47.06274748" lon="6.73788071"><ele>992.198975</ele><time>2009-06-14T16:30:28Z</time></trkpt>
<trkpt lat="47.06255436" lon="6.73820257"><ele>1004.455566</ele><time>2009-06-14T16:30:28Z</time></trkpt>
<trkpt lat="47.06201792" lon="6.73755884"><ele>1009.261963</ele><time>2009-06-14T16:30:28Z</time></trkpt>
<trkpt lat="47.06120253" lon="6.73670053"><ele>1021.278564</ele><time>2009-06-14T16:30:28Z</time></trkpt>
<trkpt lat="47.06047297" lon="6.73586369"><ele>1030.410889</ele><time>2009-06-14T16:30:28Z</time></trkpt>
<trkpt lat="47.05993652" lon="6.73547745"><ele>1034.496582</ele><time>2009-06-14T16:30:28Z</time></trkpt>
<trkpt lat="47.05940008" lon="6.73515558"><ele>1030.651367</ele><time>2009-06-14T16:30:28Z</time></trkpt>
<trkpt lat="47.05901384" lon="6.73468351"><ele>1030.170654</ele><time>2009-06-14T16:30:29Z</time></trkpt>
<trkpt lat="47.05858469" lon="6.73423290"><ele>1034.015869</ele><time>2009-06-14T16:30:29Z</time></trkpt>
<trkpt lat="47.05749035" lon="6.73438311"><ele>1030.891602</ele><time>2009-06-14T16:30:29Z</time></trkpt>
<trkpt lat="47.05718994" lon="6.73597097"><ele>1006.137695</ele><time>2009-06-14T16:30:29Z</time></trkpt>
<trkpt lat="47.06995726" lon="6.69500828"><ele>816.777344</ele><time>2009-06-13T14:56:05Z</time></trkpt>
<trkpt lat="47.06978559" lon="6.69453621"><ele>817.258057</ele><time>2009-06-13T14:56:08Z</time></trkpt>
<trkpt lat="47.06982851" lon="6.69468641"><ele>790.821533</ele><time>2009-06-13T14:57:37Z</time></trkpt>
<trkpt lat="47.06989288" lon="6.69494390"><ele>773.998535</ele><time>2009-06-13T14:59:15Z</time></trkpt>
<trkpt lat="47.06989288" lon="6.69494390"><ele>779.766357</ele><time>2009-06-13T15:01:19Z</time></trkpt>
<trkpt lat="47.06989288" lon="6.69494390"><ele>782.650635</ele><time>2009-06-13T15:02:00Z</time></trkpt>
<trkpt lat="47.06989288" lon="6.69487953"><ele>787.457031</ele><time>2009-06-13T15:03:39Z</time></trkpt>
<trkpt lat="47.06989288" lon="6.69487953"><ele>787.457031</ele><time>2009-06-13T15:03:40Z</time></trkpt>
<trkpt lat="47.06993580" lon="6.69487953"><ele>786.015137</ele><time>2009-06-13T15:03:44Z</time></trkpt>
<trkpt lat="47.06993580" lon="6.69487953"><ele>785.053955</ele><time>2009-06-13T15:03:45Z</time></trkpt>
<trkpt lat="47.06995726" lon="6.69490099"><ele>784.092529</ele><time>2009-06-13T15:03:48Z</time></trkpt>
<trkpt lat="47.06995726" lon="6.69492245"><ele>774.959961</ele><time>2009-06-13T15:04:36Z</time></trkpt>
<trkpt lat="47.06995726" lon="6.69498682"><ele>772.556641</ele><time>2009-06-13T15:04:56Z</time></trkpt>
<trkpt lat="47.06995726" lon="6.69500828"><ele>769.672852</ele><time>2009-06-13T15:05:11Z</time></trkpt>
<trkpt lat="47.06997871" lon="6.69500828"><ele>771.595215</ele><time>2009-06-13T15:05:15Z</time></trkpt>
<trkpt lat="47.07000017" lon="6.69502974"><ele>772.556641</ele><time>2009-06-13T15:05:20Z</time></trkpt>
<trkpt lat="47.06997871" lon="6.69511557"><ele>773.037354</ele><time>2009-06-13T15:05:25Z</time></trkpt>
<trkpt lat="47.06997871" lon="6.69515848"><ele>773.037354</ele><time>2009-06-13T15:05:27Z</time></trkpt>
<trkpt lat="47.06997871" lon="6.69517994"><ele>773.518066</ele><time>2009-06-13T15:05:31Z</time></trkpt>
<trkpt lat="47.06997871" lon="6.69520140"><ele>773.998535</ele><time>2009-06-13T15:05:47Z</time></trkpt>
<trkpt lat="47.06997871" lon="6.69522285"><ele>776.401855</ele><time>2009-06-13T15:06:10Z</time></trkpt>
<trkpt lat="47.06997871" lon="6.69520140"><ele>778.324463</ele><time>2009-06-13T15:06:28Z</time></trkpt>
<trkpt lat="47.06997871" lon="6.69509411"><ele>779.766357</ele><time>2009-06-13T15:06:33Z</time></trkpt>
<trkpt lat="47.06997871" lon="6.69509411"><ele>780.247314</ele><time>2009-06-13T15:06:34Z</time></trkpt>
<trkpt lat="47.07000017" lon="6.69502974"><ele>781.20874</ele><time>2009-06-13T15:06:37Z</time></trkpt>
<trkpt lat="47.07004309" lon="6.69483662"><ele>784.092529</ele><time>2009-06-13T15:06:46Z</time></trkpt>
<trkpt lat="47.07006454" lon="6.69479370"><ele>784.092529</ele><time>2009-06-13T15:06:48Z</time></trkpt>
<trkpt lat="47.07008600" lon="6.69475079"><ele>785.053955</ele><time>2009-06-13T15:06:50Z</time></trkpt>
<trkpt lat="47.07010746" lon="6.69466496"><ele>785.534424</ele><time>2009-06-13T15:06:54Z</time></trkpt>
<trkpt lat="47.07019329" lon="6.69455767"><ele>786.976318</ele><time>2009-06-13T15:07:00Z</time></trkpt>
<trkpt lat="47.07019329" lon="6.69447184"><ele>787.937744</ele><time>2009-06-13T15:07:03Z</time></trkpt>
<trkpt lat="47.07021475" lon="6.69440746"><ele>788.418457</ele><time>2009-06-13T15:07:06Z</time></trkpt>
<trkpt lat="47.07023621" lon="6.69427872"><ele>789.379639</ele><time>2009-06-13T15:07:11Z</time></trkpt>
<trkpt lat="47.07023621" lon="6.69419289"><ele>790.341064</ele><time>2009-06-13T15:07:14Z</time></trkpt>
<trkpt lat="47.07025766" lon="6.69410706"><ele>790.341064</ele><time>2009-06-13T15:07:19Z</time></trkpt>
<trkpt lat="47.07030058" lon="6.69399977"><ele>790.821533</ele><time>2009-06-13T15:07:23Z</time></trkpt>
<trkpt lat="47.07032204" lon="6.69393539"><ele>790.341064</ele><time>2009-06-13T15:07:26Z</time></trkpt>
<trkpt lat="47.07032204" lon="6.69391394"><ele>790.821533</ele><time>2009-06-13T15:07:43Z</time></trkpt>
<trkpt lat="47.07030058" lon="6.69389248"><ele>791.782959</ele><time>2009-06-13T15:07:52Z</time></trkpt>
<trkpt lat="47.07030058" lon="6.69374228"><ele>792.744385</ele><time>2009-06-13T15:07:58Z</time></trkpt>
<trkpt lat="47.07032204" lon="6.69357061"><ele>794.186279</ele><time>2009-06-13T15:08:03Z</time></trkpt>
<trkpt lat="47.07030058" lon="6.69354916"><ele>794.186279</ele><time>2009-06-13T15:08:04Z</time></trkpt>
<trkpt lat="47.07027912" lon="6.69342041"><ele>794.666748</ele><time>2009-06-13T15:08:07Z</time></trkpt>
<trkpt lat="47.07023621" lon="6.69320583"><ele>794.186279</ele><time>2009-06-13T15:08:12Z</time></trkpt>
<trkpt lat="47.07023621" lon="6.69312000"><ele>794.186279</ele><time>2009-06-13T15:08:14Z</time></trkpt>
<trkpt lat="47.07021475" lon="6.69294834"><ele>794.186279</ele><time>2009-06-13T15:08:17Z</time></trkpt>
<trkpt lat="47.07010746" lon="6.69224024"><ele>795.628174</ele><time>2009-06-13T15:08:30Z</time></trkpt>
<trkpt lat="47.06963539" lon="6.69148922"><ele>793.705566</ele><time>2009-06-13T15:08:47Z</time></trkpt>
<trkpt lat="47.06916332" lon="6.69084549"><ele>790.821533</ele><time>2009-06-13T15:08:57Z</time></trkpt>
<trkpt lat="47.06845522" lon="6.68979406"><ele>785.053955</ele><time>2009-06-13T15:09:10Z</time></trkpt>
<trkpt lat="47.06772566" lon="6.68872118"><ele>777.363281</ele><time>2009-06-13T15:09:24Z</time></trkpt>
<trkpt lat="47.06761837" lon="6.68846369"><ele>776.401855</ele><time>2009-06-13T15:09:27Z</time></trkpt>
<trkpt lat="47.06721067" lon="6.68728352"><ele>775.44043</ele><time>2009-06-13T15:09:41Z</time></trkpt>
<trkpt lat="47.06712484" lon="6.68700457"><ele>775.44043</ele><time>2009-06-13T15:09:46Z</time></trkpt>
<trkpt lat="47.06710339" lon="6.68698311"><ele>775.44043</ele><time>2009-06-13T15:09:49Z</time></trkpt>
<trkpt lat="47.06710339" lon="6.68698311"><ele>775.921143</ele><time>2009-06-13T15:09:52Z</time></trkpt>
<trkpt lat="47.06706047" lon="6.68687582"><ele>775.921143</ele><time>2009-06-13T15:09:55Z</time></trkpt>
<trkpt lat="47.06703901" lon="6.68681145"><ele>775.921143</ele><time>2009-06-13T15:09:56Z</time></trkpt>
<trkpt lat="47.06695318" lon="6.68616772"><ele>776.401855</ele><time>2009-06-13T15:10:03Z</time></trkpt>
<trkpt lat="47.06693172" lon="6.68606043"><ele>776.401855</ele><time>2009-06-13T15:10:04Z</time></trkpt>
<trkpt lat="47.06695318" lon="6.68580294"><ele>776.401855</ele><time>2009-06-13T15:10:07Z</time></trkpt>
<trkpt lat="47.06671715" lon="6.68550253"><ele>774.959961</ele><time>2009-06-13T15:10:13Z</time></trkpt>
<trkpt lat="47.06665277" lon="6.68550253"><ele>773.998535</ele><time>2009-06-13T15:10:14Z</time></trkpt>
<trkpt lat="47.06583738" lon="6.68537378"><ele>765.346924</ele><time>2009-06-13T15:10:25Z</time></trkpt>
<trkpt lat="47.06557989" lon="6.68507338"><ele>763.424072</ele><time>2009-06-13T15:10:29Z</time></trkpt>
<trkpt lat="47.06542969" lon="6.68481588"><ele>762.943359</ele><time>2009-06-13T15:10:32Z</time></trkpt>
<trkpt lat="47.06504345" lon="6.68400049"><ele>761.501465</ele><time>2009-06-13T15:10:42Z</time></trkpt>
<trkpt lat="47.06487179" lon="6.68290615"><ele>758.617432</ele><time>2009-06-13T15:10:55Z</time></trkpt>
<trkpt lat="47.06470013" lon="6.68166161"><ele>756.214111</ele><time>2009-06-13T15:11:11Z</time></trkpt>
<trkpt lat="47.06470013" lon="6.68065310"><ele>755.733643</ele><time>2009-06-13T15:11:24Z</time></trkpt>
<trkpt lat="47.06504345" lon="6.67953730"><ele>754.772217</ele><time>2009-06-13T15:11:41Z</time></trkpt>
<trkpt lat="47.06555843" lon="6.67805672"><ele>754.291748</ele><time>2009-06-13T15:12:02Z</time></trkpt>
<trkpt lat="47.06555843" lon="6.67799234"><ele>754.291748</ele><time>2009-06-13T15:12:03Z</time></trkpt>
<trkpt lat="47.06560135" lon="6.67696238"><ele>753.330322</ele><time>2009-06-13T15:12:16Z</time></trkpt>
<trkpt lat="47.06534386" lon="6.67569637"><ele>754.291748</ele><time>2009-06-13T15:12:33Z</time></trkpt>
<trkpt lat="47.06476450" lon="6.67477369"><ele>753.811035</ele><time>2009-06-13T15:12:51Z</time></trkpt>
<trkpt lat="47.06403494" lon="6.67400122"><ele>751.888428</ele><time>2009-06-13T15:13:09Z</time></trkpt>
<trkpt lat="47.06336975" lon="6.67290688"><ele>753.811035</ele><time>2009-06-13T15:13:28Z</time></trkpt>
<trkpt lat="47.06264019" lon="6.67207003"><ele>752.849609</ele><time>2009-06-13T15:13:46Z</time></trkpt>
<trkpt lat="47.06255436" lon="6.67198420"><ele>752.368896</ele><time>2009-06-13T15:13:48Z</time></trkpt>
<trkpt lat="47.06221104" lon="6.67179108"><ele>752.368896</ele><time>2009-06-13T15:13:55Z</time></trkpt>
<trkpt lat="47.06188917" lon="6.67164087"><ele>751.407715</ele><time>2009-06-13T15:14:02Z</time></trkpt>
<trkpt lat="47.06171751" lon="6.67153358"><ele>751.407715</ele><time>2009-06-13T15:14:06Z</time></trkpt>
<trkpt lat="47.06161022" lon="6.67140484"><ele>751.407715</ele><time>2009-06-13T15:14:09Z</time></trkpt>
<trkpt lat="47.06139565" lon="6.67121172"><ele>751.407715</ele><time>2009-06-13T15:14:14Z</time></trkpt>
<trkpt lat="47.06124544" lon="6.67116880"><ele>751.888428</ele><time>2009-06-13T15:14:17Z</time></trkpt>
<trkpt lat="47.06015110" lon="6.67104006"><ele>750.927002</ele><time>2009-06-13T15:14:38Z</time></trkpt>
<trkpt lat="47.06000090" lon="6.67099714"><ele>750.927002</ele><time>2009-06-13T15:14:41Z</time></trkpt>
<trkpt lat="47.05987215" lon="6.67086840"><ele>750.927002</ele><time>2009-06-13T15:14:44Z</time></trkpt>
<trkpt lat="47.05948591" lon="6.67046070"><ele>749.485107</ele><time>2009-06-13T15:14:55Z</time></trkpt>
<trkpt lat="47.05940008" lon="6.67037487"><ele>750.446533</ele><time>2009-06-13T15:14:58Z</time></trkpt>
<trkpt lat="47.05935717" lon="6.67033195"><ele>750.927002</ele><time>2009-06-13T15:15:00Z</time></trkpt>
<trkpt lat="47.05929279" lon="6.67022467"><ele>751.407715</ele><time>2009-06-13T15:15:03Z</time></trkpt>
<trkpt lat="47.05918550" lon="6.67013884"><ele>752.849609</ele><time>2009-06-13T15:15:07Z</time></trkpt>
<trkpt lat="47.05914259" lon="6.67011738"><ele>752.849609</ele><time>2009-06-13T15:15:08Z</time></trkpt>
<trkpt lat="47.05903530" lon="6.67009592"><ele>752.368896</ele><time>2009-06-13T15:15:11Z</time></trkpt>
<trkpt lat="47.05828428" lon="6.66990280"><ele>750.446533</ele><time>2009-06-13T15:15:25Z</time></trkpt>
<trkpt lat="47.05794096" lon="6.66981697"><ele>750.927002</ele><time>2009-06-13T15:15:31Z</time></trkpt>
<trkpt lat="47.05772638" lon="6.66985989"><ele>750.927002</ele><time>2009-06-13T15:15:35Z</time></trkpt>
<trkpt lat="47.05742598" lon="6.66996717"><ele>749.485107</ele><time>2009-06-13T15:15:41Z</time></trkpt>
<trkpt lat="47.05665350" lon="6.67041779"><ele>747.081543</ele><time>2009-06-13T15:15:57Z</time></trkpt>
<trkpt lat="47.05631018" lon="6.67028904"><ele>746.120361</ele><time>2009-06-13T15:16:04Z</time></trkpt>
<trkpt lat="47.05626726" lon="6.67024612"><ele>746.120361</ele><time>2009-06-13T15:16:05Z</time></trkpt>
<trkpt lat="47.05618143" lon="6.67007446"><ele>746.601074</ele><time>2009-06-13T15:16:08Z</time></trkpt>
<trkpt lat="47.05555916" lon="6.66867971"><ele>752.368896</ele><time>2009-06-13T15:16:31Z</time></trkpt>
<trkpt lat="47.05551624" lon="6.66863680"><ele>751.888428</ele><time>2009-06-13T15:16:32Z</time></trkpt>
<trkpt lat="47.05470085" lon="6.66795015"><ele>752.849609</ele><time>2009-06-13T15:16:49Z</time></trkpt>
<trkpt lat="47.05390692" lon="6.66741371"><ele>753.811035</ele><time>2009-06-13T15:17:05Z</time></trkpt>
<trkpt lat="47.05345631" lon="6.66672707"><ele>757.175537</ele><time>2009-06-13T15:17:20Z</time></trkpt>
<trkpt lat="47.05319881" lon="6.66644812"><ele>758.617432</ele><time>2009-06-13T15:17:28Z</time></trkpt>
<trkpt lat="47.05313444" lon="6.66629791"><ele>758.617432</ele><time>2009-06-13T15:17:31Z</time></trkpt>
<trkpt lat="47.05309153" lon="6.66625500"><ele>759.098145</ele><time>2009-06-13T15:17:32Z</time></trkpt>
<trkpt lat="47.05298424" lon="6.66604042"><ele>759.578857</ele><time>2009-06-13T15:17:36Z</time></trkpt>
<trkpt lat="47.05289841" lon="6.66576147"><ele>759.098145</ele><time>2009-06-13T15:17:40Z</time></trkpt>
<trkpt lat="47.05257654" lon="6.66436672"><ele>756.214111</ele><time>2009-06-13T15:17:55Z</time></trkpt>
<trkpt lat="47.05249071" lon="6.66305780"><ele>756.694824</ele><time>2009-06-13T15:18:09Z</time></trkpt>
<trkpt lat="47.05283403" lon="6.66196346"><ele>755.733643</ele><time>2009-06-13T15:18:23Z</time></trkpt>
<trkpt lat="47.05352068" lon="6.66101933"><ele>754.291748</ele><time>2009-06-13T15:18:39Z</time></trkpt>
<trkpt lat="47.05440044" lon="6.65968895"><ele>755.733643</ele><time>2009-06-13T15:19:00Z</time></trkpt>
<trkpt lat="47.05467939" lon="6.65842295"><ele>755.25293</ele><time>2009-06-13T15:19:16Z</time></trkpt>
<trkpt lat="47.05448627" lon="6.65715694"><ele>755.733643</ele><time>2009-06-13T15:19:32Z</time></trkpt>
<trkpt lat="47.05416441" lon="6.65550470"><ele>755.733643</ele><time>2009-06-13T15:19:53Z</time></trkpt>
<trkpt lat="47.05379963" lon="6.65391684"><ele>757.65625</ele><time>2009-06-13T15:20:14Z</time></trkpt>
<trkpt lat="47.05328465" lon="6.65250063"><ele>760.059326</ele><time>2009-06-13T15:20:33Z</time></trkpt>
<trkpt lat="47.05251217" lon="6.65050507"><ele>763.904541</ele><time>2009-06-13T15:20:59Z</time></trkpt>
<trkpt lat="47.05176115" lon="6.64850950"><ele>763.904541</ele><time>2009-06-13T15:21:24Z</time></trkpt>
<trkpt lat="47.05109596" lon="6.64672852"><ele>763.424072</ele><time>2009-06-13T15:21:48Z</time></trkpt>
<trkpt lat="47.05040932" lon="6.64503336"><ele>762.462646</ele><time>2009-06-13T15:22:11Z</time></trkpt>
<trkpt lat="47.04952955" lon="6.64338112"><ele>761.020752</ele><time>2009-06-13T15:22:33Z</time></trkpt>
<trkpt lat="47.04875708" lon="6.64153576"><ele>760.540039</ele><time>2009-06-13T15:22:55Z</time></trkpt>
<trkpt lat="47.04802752" lon="6.64031267"><ele>759.098145</ele><time>2009-06-13T15:23:14Z</time></trkpt>
<trkpt lat="47.04777002" lon="6.63986206"><ele>758.617432</ele><time>2009-06-13T15:23:22Z</time></trkpt>
<trkpt lat="47.04766273" lon="6.63954020"><ele>758.617432</ele><time>2009-06-13T15:23:29Z</time></trkpt>
<trkpt lat="47.04759836" lon="6.63932562"><ele>758.136963</ele><time>2009-06-13T15:23:34Z</time></trkpt>
<trkpt lat="47.04746962" lon="6.63904667"><ele>757.65625</ele><time>2009-06-13T15:23:41Z</time></trkpt>
<trkpt lat="47.04746962" lon="6.63902521"><ele>757.175537</ele><time>2009-06-13T15:23:51Z</time></trkpt>
<trkpt lat="47.04746962" lon="6.63902521"><ele>757.175537</ele><time>2009-06-13T15:23:53Z</time></trkpt>
<trkpt lat="47.04746962" lon="6.63908958"><ele>756.214111</ele><time>2009-06-13T15:23:57Z</time></trkpt>
<trkpt lat="47.04749107" lon="6.63913250"><ele>755.733643</ele><time>2009-06-13T15:23:58Z</time></trkpt>
<trkpt lat="47.04757690" lon="6.63956165"><ele>750.927002</ele><time>2009-06-13T15:24:09Z</time></trkpt>
<trkpt lat="47.04749107" lon="6.63975477"><ele>752.849609</ele><time>2009-06-13T15:24:17Z</time></trkpt>
<trkpt lat="47.04749107" lon="6.63975477"><ele>754.772217</ele><time>2009-06-13T15:24:22Z</time></trkpt>
<trkpt lat="47.04746962" lon="6.63977623"><ele>755.25293</ele><time>2009-06-13T15:24:26Z</time></trkpt>
<trkpt lat="47.04746962" lon="6.63977623"><ele>756.694824</ele><time>2009-06-13T15:24:30Z</time></trkpt>
<trkpt lat="47.04746962" lon="6.63979769"><ele>755.25293</ele><time>2009-06-13T15:24:45Z</time></trkpt>
<trkpt lat="47.04746962" lon="6.63979769"><ele>755.25293</ele><time>2009-06-13T15:24:48Z</time></trkpt>
<trkpt lat="47.04744816" lon="6.63984060"><ele>756.214111</ele><time>2009-06-13T15:24:57Z</time></trkpt>
<trkpt lat="47.04744816" lon="6.63984060"><ele>756.214111</ele><time>2009-06-13T15:24:59Z</time></trkpt>
<trkpt lat="47.04744816" lon="6.63981915"><ele>755.733643</ele><time>2009-06-13T15:25:02Z</time></trkpt>
<trkpt lat="47.04742670" lon="6.63984060"><ele>755.733643</ele><time>2009-06-13T15:25:03Z</time></trkpt>
<trkpt lat="47.04742670" lon="6.63986206"><ele>756.214111</ele><time>2009-06-13T15:25:08Z</time></trkpt>
<trkpt lat="47.04742670" lon="6.63986206"><ele>755.733643</ele><time>2009-06-13T15:25:10Z</time></trkpt>
<trkpt lat="47.04740524" lon="6.63988352"><ele>756.214111</ele><time>2009-06-13T15:25:12Z</time></trkpt>
<trkpt lat="47.04742670" lon="6.63992643"><ele>755.733643</ele><time>2009-06-13T15:25:15Z</time></trkpt>
<trkpt lat="47.04742670" lon="6.63994789"><ele>755.733643</ele><time>2009-06-13T15:25:17Z</time></trkpt>
<trkpt lat="47.04742670" lon="6.63994789"><ele>757.65625</ele><time>2009-06-13T15:25:28Z</time></trkpt>
<trkpt lat="47.04740524" lon="6.64044142"><ele>756.694824</ele><time>2009-06-13T15:25:42Z</time></trkpt>
<trkpt lat="47.04740524" lon="6.64069891"><ele>756.214111</ele><time>2009-06-13T15:25:48Z</time></trkpt>
<trkpt lat="47.04740524" lon="6.64087057"><ele>754.772217</ele><time>2009-06-13T15:25:53Z</time></trkpt>
<trkpt lat="47.04738379" lon="6.64102077"><ele>752.849609</ele><time>2009-06-13T15:25:58Z</time></trkpt>
<trkpt lat="47.04736233" lon="6.64108515"><ele>752.368896</ele><time>2009-06-13T15:26:00Z</time></trkpt>
<trkpt lat="47.04723358" lon="6.64119244"><ele>751.888428</ele><time>2009-06-13T15:26:05Z</time></trkpt>
<trkpt lat="47.04693317" lon="6.64136410"><ele>752.849609</ele><time>2009-06-13T15:26:15Z</time></trkpt>
<trkpt lat="47.04667568" lon="6.64153576"><ele>754.291748</ele><time>2009-06-13T15:26:25Z</time></trkpt>
<trkpt lat="47.04661131" lon="6.64162159"><ele>754.772217</ele><time>2009-06-13T15:26:28Z</time></trkpt>
<trkpt lat="47.04656839" lon="6.64170742"><ele>754.291748</ele><time>2009-06-13T15:26:31Z</time></trkpt>
<trkpt lat="47.04637527" lon="6.64181471"><ele>754.291748</ele><time>2009-06-13T15:26:40Z</time></trkpt>
<trkpt lat="47.04631090" lon="6.64190054"><ele>753.811035</ele><time>2009-06-13T15:26:43Z</time></trkpt>
<trkpt lat="47.04579592" lon="6.64247990"><ele>757.65625</ele><time>2009-06-13T15:27:03Z</time></trkpt>
<trkpt lat="47.04571009" lon="6.64265156"><ele>759.578857</ele><time>2009-06-13T15:27:08Z</time></trkpt>
<trkpt lat="47.04549551" lon="6.64286613"><ele>760.540039</ele><time>2009-06-13T15:27:16Z</time></trkpt>
<trkpt lat="47.04547405" lon="6.64286613"><ele>761.020752</ele><time>2009-06-13T15:27:17Z</time></trkpt>
<trkpt lat="47.04519510" lon="6.64286613"><ele>761.501465</ele><time>2009-06-13T15:27:26Z</time></trkpt>
<trkpt lat="47.04504490" lon="6.64290905"><ele>761.020752</ele><time>2009-06-13T15:27:31Z</time></trkpt>
<trkpt lat="47.04487324" lon="6.64301634"><ele>760.540039</ele><time>2009-06-13T15:27:37Z</time></trkpt>
<trkpt lat="47.04435825" lon="6.64372444"><ele>764.866211</ele><time>2009-06-13T15:28:00Z</time></trkpt>
<trkpt lat="47.04401493" lon="6.64423943"><ele>765.346924</ele><time>2009-06-13T15:28:20Z</time></trkpt>
<trkpt lat="47.04395056" lon="6.64434671"><ele>763.904541</ele><time>2009-06-13T15:28:24Z</time></trkpt>
<trkpt lat="47.04386473" lon="6.64447546"><ele>763.424072</ele><time>2009-06-13T15:28:29Z</time></trkpt>
<trkpt lat="47.04377890" lon="6.64451838"><ele>763.424072</ele><time>2009-06-13T15:28:32Z</time></trkpt>
<trkpt lat="47.04369307" lon="6.64458275"><ele>764.385498</ele><time>2009-06-13T15:28:35Z</time></trkpt>
<trkpt lat="47.04362869" lon="6.64464712"><ele>765.827637</ele><time>2009-06-13T15:28:38Z</time></trkpt>
<trkpt lat="47.04354286" lon="6.64471149"><ele>767.75</ele><time>2009-06-13T15:28:42Z</time></trkpt>
<trkpt lat="47.04345703" lon="6.64475441"><ele>768.711426</ele><time>2009-06-13T15:28:45Z</time></trkpt>
<trkpt lat="47.04339266" lon="6.64477587"><ele>769.192139</ele><time>2009-06-13T15:28:48Z</time></trkpt>
<trkpt lat="47.04326391" lon="6.64484024"><ele>770.634033</ele><time>2009-06-13T15:28:53Z</time></trkpt>
<trkpt lat="47.04313517" lon="6.64490461"><ele>772.556641</ele><time>2009-06-13T15:28:58Z</time></trkpt>
<trkpt lat="47.04309225" lon="6.64492607"><ele>773.518066</ele><time>2009-06-13T15:29:01Z</time></trkpt>
<trkpt lat="47.04317808" lon="6.64490461"><ele>774.479248</ele><time>2009-06-13T15:29:08Z</time></trkpt>
<trkpt lat="47.04324245" lon="6.64486170"><ele>774.479248</ele><time>2009-06-13T15:29:10Z</time></trkpt>
<trkpt lat="47.04337120" lon="6.64479733"><ele>774.959961</ele><time>2009-06-13T15:29:13Z</time></trkpt>
<trkpt lat="47.04352140" lon="6.64475441"><ele>774.479248</ele><time>2009-06-13T15:29:16Z</time></trkpt>
<trkpt lat="47.04358578" lon="6.64471149"><ele>773.998535</ele><time>2009-06-13T15:29:17Z</time></trkpt>
<trkpt lat="47.04457283" lon="6.64381027"><ele>771.114746</ele><time>2009-06-13T15:29:35Z</time></trkpt>
<trkpt lat="47.04545259" lon="6.64280176"><ele>768.230713</ele><time>2009-06-13T15:29:51Z</time></trkpt>
<trkpt lat="47.04558134" lon="6.64280176"><ele>768.230713</ele><time>2009-06-13T15:29:53Z</time></trkpt>
<trkpt lat="47.04579592" lon="6.64250135"><ele>766.788818</ele><time>2009-06-13T15:29:59Z</time></trkpt>
<trkpt lat="47.04583883" lon="6.64239407"><ele>766.308105</ele><time>2009-06-13T15:30:01Z</time></trkpt>
<trkpt lat="47.04633236" lon="6.64179325"><ele>764.385498</ele><time>2009-06-13T15:30:13Z</time></trkpt>
<trkpt lat="47.04646111" lon="6.64151430"><ele>763.904541</ele><time>2009-06-13T15:30:17Z</time></trkpt>
<trkpt lat="47.04635382" lon="6.64102077"><ele>763.424072</ele><time>2009-06-13T15:30:23Z</time></trkpt>
<trkpt lat="47.04581738" lon="6.63986206"><ele>762.943359</ele><time>2009-06-13T15:30:38Z</time></trkpt>
<trkpt lat="47.04498053" lon="6.63859606"><ele>766.308105</ele><time>2009-06-13T15:31:01Z</time></trkpt>
<trkpt lat="47.04472303" lon="6.63820982"><ele>766.788818</ele><time>2009-06-13T15:31:09Z</time></trkpt>
<trkpt lat="47.04463720" lon="6.63790941"><ele>766.308105</ele><time>2009-06-13T15:31:13Z</time></trkpt>
<trkpt lat="47.04463720" lon="6.63752317"><ele>765.827637</ele><time>2009-06-13T15:31:18Z</time></trkpt>
<trkpt lat="47.04452991" lon="6.63642883"><ele>764.385498</ele><time>2009-06-13T15:31:33Z</time></trkpt>
<trkpt lat="47.04437971" lon="6.63602114"><ele>762.462646</ele><time>2009-06-13T15:31:39Z</time></trkpt>
<trkpt lat="47.04437971" lon="6.63574219"><ele>762.462646</ele><time>2009-06-13T15:31:43Z</time></trkpt>
<trkpt lat="47.04437971" lon="6.63546324"><ele>761.501465</ele><time>2009-06-13T15:31:47Z</time></trkpt>
<trkpt lat="47.04433680" lon="6.63527012"><ele>761.020752</ele><time>2009-06-13T15:31:50Z</time></trkpt>
<trkpt lat="47.04427242" lon="6.63499117"><ele>760.540039</ele><time>2009-06-13T15:31:54Z</time></trkpt>
<trkpt lat="47.04405785" lon="6.63366079"><ele>761.501465</ele><time>2009-06-13T15:32:12Z</time></trkpt>
<trkpt lat="47.04431534" lon="6.63303852"><ele>759.578857</ele><time>2009-06-13T15:32:22Z</time></trkpt>
<trkpt lat="47.04435825" lon="6.63299561"><ele>759.098145</ele><time>2009-06-13T15:32:23Z</time></trkpt>
<trkpt lat="47.04474449" lon="6.63273811"><ele>757.65625</ele><time>2009-06-13T15:32:31Z</time></trkpt>
<trkpt lat="47.04489470" lon="6.63243771"><ele>757.175537</ele><time>2009-06-13T15:32:36Z</time></trkpt>
<trkpt lat="47.04495907" lon="6.63222313"><ele>756.694824</ele><time>2009-06-13T15:32:39Z</time></trkpt>
<trkpt lat="47.04543114" lon="6.63112879"><ele>756.694824</ele><time>2009-06-13T15:32:56Z</time></trkpt>
<trkpt lat="47.04547405" lon="6.63078547"><ele>757.65625</ele><time>2009-06-13T15:33:01Z</time></trkpt>
<trkpt lat="47.04547405" lon="6.63046360"><ele>757.175537</ele><time>2009-06-13T15:33:05Z</time></trkpt>
<trkpt lat="47.04551697" lon="6.63020611"><ele>757.175537</ele><time>2009-06-13T15:33:08Z</time></trkpt>
<trkpt lat="47.04562426" lon="6.62981987"><ele>755.25293</ele><time>2009-06-13T15:33:13Z</time></trkpt>
<trkpt lat="47.04564571" lon="6.62949800"><ele>754.291748</ele><time>2009-06-13T15:33:17Z</time></trkpt>
<trkpt lat="47.04571009" lon="6.62831783"><ele>753.811035</ele><time>2009-06-13T15:33:34Z</time></trkpt>
<trkpt lat="47.04575300" lon="6.62812471"><ele>752.849609</ele><time>2009-06-13T15:33:37Z</time></trkpt>
<trkpt lat="47.04609632" lon="6.62773848"><ele>749.96582</ele><time>2009-06-13T15:33:45Z</time></trkpt>
<trkpt lat="47.04669714" lon="6.62709475"><ele>746.120361</ele><time>2009-06-13T15:34:00Z</time></trkpt>
<trkpt lat="47.04684734" lon="6.62683725"><ele>745.639648</ele><time>2009-06-13T15:34:05Z</time></trkpt>
<trkpt lat="47.04691172" lon="6.62662268"><ele>745.639648</ele><time>2009-06-13T15:34:08Z</time></trkpt>
<trkpt lat="47.04691172" lon="6.62619352"><ele>746.601074</ele><time>2009-06-13T15:34:14Z</time></trkpt>
<trkpt lat="47.04689026" lon="6.62612915"><ele>747.081543</ele><time>2009-06-13T15:34:15Z</time></trkpt>
<trkpt lat="47.04656839" lon="6.62509918"><ele>749.485107</ele><time>2009-06-13T15:34:32Z</time></trkpt>
<trkpt lat="47.04650402" lon="6.62492752"><ele>749.96582</ele><time>2009-06-13T15:34:35Z</time></trkpt>
<trkpt lat="47.04641819" lon="6.62445545"><ele>752.368896</ele><time>2009-06-13T15:34:42Z</time></trkpt>
<trkpt lat="47.04635382" lon="6.62318945"><ele>754.291748</ele><time>2009-06-13T15:35:00Z</time></trkpt>
<trkpt lat="47.04652548" lon="6.62185907"><ele>753.330322</ele><time>2009-06-13T15:35:19Z</time></trkpt>
<trkpt lat="47.04691172" lon="6.62057161"><ele>752.849609</ele><time>2009-06-13T15:35:39Z</time></trkpt>
<trkpt lat="47.04697609" lon="6.62024975"><ele>752.849609</ele><time>2009-06-13T15:35:44Z</time></trkpt>
<trkpt lat="47.04676151" lon="6.61979914"><ele>752.849609</ele><time>2009-06-13T15:35:53Z</time></trkpt>
<trkpt lat="47.04671860" lon="6.61977768"><ele>752.849609</ele><time>2009-06-13T15:35:54Z</time></trkpt>
<trkpt lat="47.04661131" lon="6.61973476"><ele>753.330322</ele><time>2009-06-13T15:35:57Z</time></trkpt>
<trkpt lat="47.04643965" lon="6.61943436"><ele>753.811035</ele><time>2009-06-13T15:36:04Z</time></trkpt>
<trkpt lat="47.04639673" lon="6.61924124"><ele>753.811035</ele><time>2009-06-13T15:36:07Z</time></trkpt>
<trkpt lat="47.04641819" lon="6.61902666"><ele>753.811035</ele><time>2009-06-13T15:36:10Z</time></trkpt>
<trkpt lat="47.04643965" lon="6.61896229"><ele>754.291748</ele><time>2009-06-13T15:36:11Z</time></trkpt>
<trkpt lat="47.04650402" lon="6.61881208"><ele>754.291748</ele><time>2009-06-13T15:36:14Z</time></trkpt>
<trkpt lat="47.04656839" lon="6.61864042"><ele>754.291748</ele><time>2009-06-13T15:36:17Z</time></trkpt>
<trkpt lat="47.04650402" lon="6.61829710"><ele>754.772217</ele><time>2009-06-13T15:36:23Z</time></trkpt>
<trkpt lat="47.04648256" lon="6.61823273"><ele>754.772217</ele><time>2009-06-13T15:36:24Z</time></trkpt>
<trkpt lat="47.04633236" lon="6.61810398"><ele>754.291748</ele><time>2009-06-13T15:36:28Z</time></trkpt>
<trkpt lat="47.04616070" lon="6.61797523"><ele>754.291748</ele><time>2009-06-13T15:36:32Z</time></trkpt>
<trkpt lat="47.04601049" lon="6.61769629"><ele>754.772217</ele><time>2009-06-13T15:36:37Z</time></trkpt>
<trkpt lat="47.04598904" lon="6.61756754"><ele>755.25293</ele><time>2009-06-13T15:36:39Z</time></trkpt>
<trkpt lat="47.04579592" lon="6.61675215"><ele>754.772217</ele><time>2009-06-13T15:36:53Z</time></trkpt>
<trkpt lat="47.04538822" lon="6.61582947"><ele>755.733643</ele><time>2009-06-13T15:37:10Z</time></trkpt>
<trkpt lat="47.04491615" lon="6.61490679"><ele>757.65625</ele><time>2009-06-13T15:37:30Z</time></trkpt>
<trkpt lat="47.04465866" lon="6.61441326"><ele>757.65625</ele><time>2009-06-13T15:37:40Z</time></trkpt>
<trkpt lat="47.04422951" lon="6.61349058"><ele>758.617432</ele><time>2009-06-13T15:37:56Z</time></trkpt>
<trkpt lat="47.04384327" lon="6.61261082"><ele>760.059326</ele><time>2009-06-13T15:38:12Z</time></trkpt>
<trkpt lat="47.04347849" lon="6.61153793"><ele>761.982178</ele><time>2009-06-13T15:38:31Z</time></trkpt>
<trkpt lat="47.04343557" lon="6.61134481"><ele>761.982178</ele><time>2009-06-13T15:38:34Z</time></trkpt>
<trkpt lat="47.04302788" lon="6.61033630"><ele>762.943359</ele><time>2009-06-13T15:38:53Z</time></trkpt>
<trkpt lat="47.04246998" lon="6.60958529"><ele>766.788818</ele><time>2009-06-13T15:39:12Z</time></trkpt>
<trkpt lat="47.04219103" lon="6.60924196"><ele>769.672852</ele><time>2009-06-13T15:39:21Z</time></trkpt>
<trkpt lat="47.04176188" lon="6.60864115"><ele>773.037354</ele><time>2009-06-13T15:39:36Z</time></trkpt>
<trkpt lat="47.04159021" lon="6.60834074"><ele>774.959961</ele><time>2009-06-13T15:39:43Z</time></trkpt>
<trkpt lat="47.04156876" lon="6.60806179"><ele>775.44043</ele><time>2009-06-13T15:39:48Z</time></trkpt>
<trkpt lat="47.04156876" lon="6.60799742"><ele>775.921143</ele><time>2009-06-13T15:39:49Z</time></trkpt>
<trkpt lat="47.04156876" lon="6.60726786"><ele>777.84375</ele><time>2009-06-13T15:40:03Z</time></trkpt>
<trkpt lat="47.04167604" lon="6.60713911"><ele>778.805176</ele><time>2009-06-13T15:40:08Z</time></trkpt>
<trkpt lat="47.04242706" lon="6.60713911"><ele>779.766357</ele><time>2009-06-13T15:40:25Z</time></trkpt>
<trkpt lat="47.04347849" lon="6.60716057"><ele>779.285645</ele><time>2009-06-13T15:40:46Z</time></trkpt>
<trkpt lat="47.04425097" lon="6.60724640"><ele>778.324463</ele><time>2009-06-13T15:41:02Z</time></trkpt>
<trkpt lat="47.04457283" lon="6.60707474"><ele>776.882568</ele><time>2009-06-13T15:41:08Z</time></trkpt>
<trkpt lat="47.04553843" lon="6.60634518"><ele>772.556641</ele><time>2009-06-13T15:41:23Z</time></trkpt>
<trkpt lat="47.04564571" lon="6.60623789"><ele>771.595215</ele><time>2009-06-13T15:41:25Z</time></trkpt>
<trkpt lat="47.04571009" lon="6.60565853"><ele>769.672852</ele><time>2009-06-13T15:41:31Z</time></trkpt>
<trkpt lat="47.04549551" lon="6.60531521"><ele>768.230713</ele><time>2009-06-13T15:41:35Z</time></trkpt>
<trkpt lat="47.04536676" lon="6.60505772"><ele>766.788818</ele><time>2009-06-13T15:41:38Z</time></trkpt>
<trkpt lat="47.04549551" lon="6.60439253"><ele>763.424072</ele><time>2009-06-13T15:41:44Z</time></trkpt>
<trkpt lat="47.04575300" lon="6.60404921"><ele>761.020752</ele><time>2009-06-13T15:41:48Z</time></trkpt>
<trkpt lat="47.04693317" lon="6.60291195"><ele>757.175537</ele><time>2009-06-13T15:42:02Z</time></trkpt>
<trkpt lat="47.04777002" lon="6.60211802"><ele>757.175537</ele><time>2009-06-13T15:42:14Z</time></trkpt>
<trkpt lat="47.04875708" lon="6.60113096"><ele>756.694824</ele><time>2009-06-13T15:42:32Z</time></trkpt>
<trkpt lat="47.04963684" lon="6.60035849"><ele>755.733643</ele><time>2009-06-13T15:42:49Z</time></trkpt>
<trkpt lat="47.05060244" lon="6.60001516"><ele>755.25293</ele><time>2009-06-13T15:43:07Z</time></trkpt>
<trkpt lat="47.05165386" lon="6.59967184"><ele>756.214111</ele><time>2009-06-13T15:43:27Z</time></trkpt>
<trkpt lat="47.05246925" lon="6.59941435"><ele>755.733643</ele><time>2009-06-13T15:43:45Z</time></trkpt>
<trkpt lat="47.05264091" lon="6.59932852"><ele>755.733643</ele><time>2009-06-13T15:43:49Z</time></trkpt>
<trkpt lat="47.05281258" lon="6.59924269"><ele>756.694824</ele><time>2009-06-13T15:43:53Z</time></trkpt>
<trkpt lat="47.05287695" lon="6.59924269"><ele>757.175537</ele><time>2009-06-13T15:43:55Z</time></trkpt>
<trkpt lat="47.05291986" lon="6.59919977"><ele>757.175537</ele><time>2009-06-13T15:43:57Z</time></trkpt>
<trkpt lat="47.05272675" lon="6.59904957"><ele>756.214111</ele><time>2009-06-13T15:44:03Z</time></trkpt>
<trkpt lat="47.05255508" lon="6.59898520"><ele>756.214111</ele><time>2009-06-13T15:44:07Z</time></trkpt>
<trkpt lat="47.05236197" lon="6.59892082"><ele>755.733643</ele><time>2009-06-13T15:44:11Z</time></trkpt>
<trkpt lat="47.05195427" lon="6.59879208"><ele>755.25293</ele><time>2009-06-13T15:44:21Z</time></trkpt>
<trkpt lat="47.05186844" lon="6.59874916"><ele>755.733643</ele><time>2009-06-13T15:44:24Z</time></trkpt>
<trkpt lat="47.05184698" lon="6.59872770"><ele>755.733643</ele><time>2009-06-13T15:44:25Z</time></trkpt>
<trkpt lat="47.05126762" lon="6.59851313"><ele>755.25293</ele><time>2009-06-13T15:44:38Z</time></trkpt>
<trkpt lat="47.05049515" lon="6.59797668"><ele>755.25293</ele><time>2009-06-13T15:44:55Z</time></trkpt>
<trkpt lat="47.04989433" lon="6.59713984"><ele>755.25293</ele><time>2009-06-13T15:45:10Z</time></trkpt>
<trkpt lat="47.04967976" lon="6.59610987"><ele>754.772217</ele><time>2009-06-13T15:45:23Z</time></trkpt>
<trkpt lat="47.04959393" lon="6.59559488"><ele>754.291748</ele><time>2009-06-13T15:45:29Z</time></trkpt>
<trkpt lat="47.04955101" lon="6.59544468"><ele>754.772217</ele><time>2009-06-13T15:45:31Z</time></trkpt>
<trkpt lat="47.04942226" lon="6.59525156"><ele>754.772217</ele><time>2009-06-13T15:45:34Z</time></trkpt>
<trkpt lat="47.04869270" lon="6.59454346"><ele>754.772217</ele><time>2009-06-13T15:45:49Z</time></trkpt>
<trkpt lat="47.04783440" lon="6.59379244"><ele>755.25293</ele><time>2009-06-13T15:46:06Z</time></trkpt>
<trkpt lat="47.04766273" lon="6.59355640"><ele>755.25293</ele><time>2009-06-13T15:46:10Z</time></trkpt>
<trkpt lat="47.04751253" lon="6.59321308"><ele>755.25293</ele><time>2009-06-13T15:46:15Z</time></trkpt>
<trkpt lat="47.04742670" lon="6.59291267"><ele>754.772217</ele><time>2009-06-13T15:46:19Z</time></trkpt>
<trkpt lat="47.04721212" lon="6.59291267"><ele>754.772217</ele><time>2009-06-13T15:46:25Z</time></trkpt>
<trkpt lat="47.04714775" lon="6.59301996"><ele>754.772217</ele><time>2009-06-13T15:46:27Z</time></trkpt>
<trkpt lat="47.04658985" lon="6.59400702"><ele>755.733643</ele><time>2009-06-13T15:46:44Z</time></trkpt>
<trkpt lat="47.04637527" lon="6.59424305"><ele>755.733643</ele><time>2009-06-13T15:46:49Z</time></trkpt>
<trkpt lat="47.04616070" lon="6.59409285"><ele>755.733643</ele><time>2009-06-13T15:46:54Z</time></trkpt>
<trkpt lat="47.04609632" lon="6.59400702"><ele>756.214111</ele><time>2009-06-13T15:46:56Z</time></trkpt>
<trkpt lat="47.04532385" lon="6.59336329"><ele>755.25293</ele><time>2009-06-13T15:47:14Z</time></trkpt>
<trkpt lat="47.04528093" lon="6.59334183"><ele>755.25293</ele><time>2009-06-13T15:47:15Z</time></trkpt>
<trkpt lat="47.04500198" lon="6.59340620"><ele>755.25293</ele><time>2009-06-13T15:47:21Z</time></trkpt>
<trkpt lat="47.04468012" lon="6.59357786"><ele>755.25293</ele><time>2009-06-13T15:47:28Z</time></trkpt>
<trkpt lat="47.04448700" lon="6.59364223"><ele>755.25293</ele><time>2009-06-13T15:47:32Z</time></trkpt>
<trkpt lat="47.04362869" lon="6.59351349"><ele>755.733643</ele><time>2009-06-13T15:47:49Z</time></trkpt>
<trkpt lat="47.04313517" lon="6.59327745"><ele>755.25293</ele><time>2009-06-13T15:48:01Z</time></trkpt>
<trkpt lat="47.04283476" lon="6.59304142"><ele>754.772217</ele><time>2009-06-13T15:48:08Z</time></trkpt>
<trkpt lat="47.04272747" lon="6.59286976"><ele>754.772217</ele><time>2009-06-13T15:48:11Z</time></trkpt>
<trkpt lat="47.04246998" lon="6.59237623"><ele>754.772217</ele><time>2009-06-13T15:48:21Z</time></trkpt>
<trkpt lat="47.04238415" lon="6.59224749"><ele>754.772217</ele><time>2009-06-13T15:48:24Z</time></trkpt>
<trkpt lat="47.04193354" lon="6.59201145"><ele>754.772217</ele><time>2009-06-13T15:48:35Z</time></trkpt>
<trkpt lat="47.04148293" lon="6.59203291"><ele>755.25293</ele><time>2009-06-13T15:48:46Z</time></trkpt>
<trkpt lat="47.04137564" lon="6.59209728"><ele>755.25293</ele><time>2009-06-13T15:48:49Z</time></trkpt>
<trkpt lat="47.04088211" lon="6.59231186"><ele>755.733643</ele><time>2009-06-13T15:49:02Z</time></trkpt>
<trkpt lat="47.04073191" lon="6.59246206"><ele>755.733643</ele><time>2009-06-13T15:49:07Z</time></trkpt>
<trkpt lat="47.04060316" lon="6.59269810"><ele>756.214111</ele><time>2009-06-13T15:49:12Z</time></trkpt>
<trkpt lat="47.04053879" lon="6.59284830"><ele>756.694824</ele><time>2009-06-13T15:49:15Z</time></trkpt>
<trkpt lat="47.04049587" lon="6.59295559"><ele>756.694824</ele><time>2009-06-13T15:49:17Z</time></trkpt>
<trkpt lat="47.04047441" lon="6.59317017"><ele>757.175537</ele><time>2009-06-13T15:49:21Z</time></trkpt>
<trkpt lat="47.04045296" lon="6.59332037"><ele>757.175537</ele><time>2009-06-13T15:49:24Z</time></trkpt>
<trkpt lat="47.04038858" lon="6.59344912"><ele>757.65625</ele><time>2009-06-13T15:49:30Z</time></trkpt>
<trkpt lat="47.04038858" lon="6.59344912"><ele>757.65625</ele><time>2009-06-13T15:49:34Z</time></trkpt>
<trkpt lat="47.04038858" lon="6.59344912"><ele>759.098145</ele><time>2009-06-13T15:49:53Z</time></trkpt>
<trkpt lat="47.04038858" lon="6.59342766"><ele>758.617432</ele><time>2009-06-13T15:50:16Z</time></trkpt>
<trkpt lat="47.04038858" lon="6.59344912"><ele>758.617432</ele><time>2009-06-13T15:50:23Z</time></trkpt>
<trkpt lat="47.04043150" lon="6.59359932"><ele>758.617432</ele><time>2009-06-13T15:50:31Z</time></trkpt>
<trkpt lat="47.04043150" lon="6.59366369"><ele>758.617432</ele><time>2009-06-13T15:50:33Z</time></trkpt>
<trkpt lat="47.04043150" lon="6.59383535"><ele>758.617432</ele><time>2009-06-13T15:50:37Z</time></trkpt>
<trkpt lat="47.04045296" lon="6.59445763"><ele>760.059326</ele><time>2009-06-13T15:50:51Z</time></trkpt>
<trkpt lat="47.04045296" lon="6.59467220"><ele>761.020752</ele><time>2009-06-13T15:50:56Z</time></trkpt>
<trkpt lat="47.04041004" lon="6.59555197"><ele>765.346924</ele><time>2009-06-13T15:51:17Z</time></trkpt>
<trkpt lat="47.04038858" lon="6.59589529"><ele>765.346924</ele><time>2009-06-13T15:51:24Z</time></trkpt>
<trkpt lat="47.04032421" lon="6.59638882"><ele>767.269531</ele><time>2009-06-13T15:51:35Z</time></trkpt>
<trkpt lat="47.04030275" lon="6.59649611"><ele>767.269531</ele><time>2009-06-13T15:51:38Z</time></trkpt>
<trkpt lat="47.04015255" lon="6.59698963"><ele>768.711426</ele><time>2009-06-13T15:51:49Z</time></trkpt>
<trkpt lat="47.04008818" lon="6.59713984"><ele>769.672852</ele><time>2009-06-13T15:51:53Z</time></trkpt>
<trkpt lat="47.04004526" lon="6.59731150"><ele>770.15332</ele><time>2009-06-13T15:51:58Z</time></trkpt>
<trkpt lat="47.04008818" lon="6.59763336"><ele>771.595215</ele><time>2009-06-13T15:52:07Z</time></trkpt>
<trkpt lat="47.04010963" lon="6.59776211"><ele>772.556641</ele><time>2009-06-13T15:52:11Z</time></trkpt>
<trkpt lat="47.04013109" lon="6.59786940"><ele>773.037354</ele><time>2009-06-13T15:52:14Z</time></trkpt>
<trkpt lat="47.04015255" lon="6.59793377"><ele>773.518066</ele><time>2009-06-13T15:52:16Z</time></trkpt>
<trkpt lat="47.04017401" lon="6.59799814"><ele>773.998535</ele><time>2009-06-13T15:52:18Z</time></trkpt>
<trkpt lat="47.04017401" lon="6.59816980"><ele>774.479248</ele><time>2009-06-13T15:52:23Z</time></trkpt>
<trkpt lat="47.04013109" lon="6.59834146"><ele>774.479248</ele><time>2009-06-13T15:52:28Z</time></trkpt>
<trkpt lat="47.04002380" lon="6.59849167"><ele>776.401855</ele><time>2009-06-13T15:52:35Z</time></trkpt>
<trkpt lat="47.03993797" lon="6.59859896"><ele>777.363281</ele><time>2009-06-13T15:52:40Z</time></trkpt>
<trkpt lat="47.03970194" lon="6.59879208"><ele>780.728027</ele><time>2009-06-13T15:52:52Z</time></trkpt>
<trkpt lat="47.03935862" lon="6.59904957"><ele>784.573242</ele><time>2009-06-13T15:53:09Z</time></trkpt>
<trkpt lat="47.03925133" lon="6.59911394"><ele>785.534424</ele><time>2009-06-13T15:53:15Z</time></trkpt>
<trkpt lat="47.03916550" lon="6.59917831"><ele>786.015137</ele><time>2009-06-13T15:53:19Z</time></trkpt>
<trkpt lat="47.03890800" lon="6.59934998"><ele>788.89917</ele><time>2009-06-13T15:53:32Z</time></trkpt>
<trkpt lat="47.03884363" lon="6.59939289"><ele>788.89917</ele><time>2009-06-13T15:53:35Z</time></trkpt>
<trkpt lat="47.03877926" lon="6.59939289"><ele>789.379639</ele><time>2009-06-13T15:53:38Z</time></trkpt>
<trkpt lat="47.03867197" lon="6.59943581"><ele>789.860352</ele><time>2009-06-13T15:53:42Z</time></trkpt>
<trkpt lat="47.03804970" lon="6.59992933"><ele>792.744385</ele><time>2009-06-13T15:54:05Z</time></trkpt>
<trkpt lat="47.03772783" lon="6.60022974"><ele>794.666748</ele><time>2009-06-13T15:54:17Z</time></trkpt>
<trkpt lat="47.03766346" lon="6.60029411"><ele>794.666748</ele><time>2009-06-13T15:54:20Z</time></trkpt>
<trkpt lat="47.03747034" lon="6.60048723"><ele>795.147461</ele><time>2009-06-13T15:54:27Z</time></trkpt>
<trkpt lat="47.03684807" lon="6.60098076"><ele>797.070313</ele><time>2009-06-13T15:54:46Z</time></trkpt>
<trkpt lat="47.03665495" lon="6.60113096"><ele>797.551025</ele><time>2009-06-13T15:54:52Z</time></trkpt>
<trkpt lat="47.03644037" lon="6.60128117"><ele>798.512207</ele><time>2009-06-13T15:54:59Z</time></trkpt>
<trkpt lat="47.03637600" lon="6.60132408"><ele>798.99292</ele><time>2009-06-13T15:55:01Z</time></trkpt>
<trkpt lat="47.03629017" lon="6.60140991"><ele>799.473633</ele><time>2009-06-13T15:55:04Z</time></trkpt>
<trkpt lat="47.03624725" lon="6.60143137"><ele>799.473633</ele><time>2009-06-13T15:55:05Z</time></trkpt>
<trkpt lat="47.03566790" lon="6.60194635"><ele>802.838135</ele><time>2009-06-13T15:55:25Z</time></trkpt>
<trkpt lat="47.03547478" lon="6.60216093"><ele>804.760742</ele><time>2009-06-13T15:55:33Z</time></trkpt>
<trkpt lat="47.03543186" lon="6.60220385"><ele>805.241455</ele><time>2009-06-13T15:55:35Z</time></trkpt>
<trkpt lat="47.03534603" lon="6.60226822"><ele>806.202637</ele><time>2009-06-13T15:55:38Z</time></trkpt>
<trkpt lat="47.03506708" lon="6.60252571"><ele>808.125488</ele><time>2009-06-13T15:55:49Z</time></trkpt>
<trkpt lat="47.03495979" lon="6.60256863"><ele>809.567383</ele><time>2009-06-13T15:55:54Z</time></trkpt>
<trkpt lat="47.03491688" lon="6.60250425"><ele>810.047852</ele><time>2009-06-13T15:55:57Z</time></trkpt>
<trkpt lat="47.03489542" lon="6.60250425"><ele>810.528564</ele><time>2009-06-13T15:55:59Z</time></trkpt>
<trkpt lat="47.03489542" lon="6.60261154"><ele>811.009277</ele><time>2009-06-13T15:56:02Z</time></trkpt>
<trkpt lat="47.03489542" lon="6.60267591"><ele>811.48999</ele><time>2009-06-13T15:56:04Z</time></trkpt>
<trkpt lat="47.03489542" lon="6.60297632"><ele>811.48999</ele><time>2009-06-13T15:56:11Z</time></trkpt>
<trkpt lat="47.03493834" lon="6.60329819"><ele>812.451416</ele><time>2009-06-13T15:56:18Z</time></trkpt>
<trkpt lat="47.03495979" lon="6.60445690"><ele>813.893311</ele><time>2009-06-13T15:56:41Z</time></trkpt>
<trkpt lat="47.03495979" lon="6.60460711"><ele>813.893311</ele><time>2009-06-13T15:56:44Z</time></trkpt>
<trkpt lat="47.03493834" lon="6.60552979"><ele>815.335449</ele><time>2009-06-13T15:57:02Z</time></trkpt>
<trkpt lat="47.03506708" lon="6.60664558"><ele>813.893311</ele><time>2009-06-13T15:57:18Z</time></trkpt>
<trkpt lat="47.03513145" lon="6.60686016"><ele>813.893311</ele><time>2009-06-13T15:57:21Z</time></trkpt>
<trkpt lat="47.03521729" lon="6.60705328"><ele>813.412842</ele><time>2009-06-13T15:57:24Z</time></trkpt>
<trkpt lat="47.03526020" lon="6.60711765"><ele>813.412842</ele><time>2009-06-13T15:57:25Z</time></trkpt>
<trkpt lat="47.03556061" lon="6.60737514"><ele>812.932129</ele><time>2009-06-13T15:57:31Z</time></trkpt>
<trkpt lat="47.03579664" lon="6.60780430"><ele>813.412842</ele><time>2009-06-13T15:57:38Z</time></trkpt>
<trkpt lat="47.03603268" lon="6.60834074"><ele>813.412842</ele><time>2009-06-13T15:57:48Z</time></trkpt>
<trkpt lat="47.03609705" lon="6.60849094"><ele>812.932129</ele><time>2009-06-13T15:57:52Z</time></trkpt>
<trkpt lat="47.03611851" lon="6.60853386"><ele>813.412842</ele><time>2009-06-13T15:57:54Z</time></trkpt>
<trkpt lat="47.03624725" lon="6.60861969"><ele>812.451416</ele><time>2009-06-13T15:58:03Z</time></trkpt>
<trkpt lat="47.03641891" lon="6.60855532"><ele>811.48999</ele><time>2009-06-13T15:58:08Z</time></trkpt>
<trkpt lat="47.03654766" lon="6.60849094"><ele>810.047852</ele><time>2009-06-13T15:58:11Z</time></trkpt>
<trkpt lat="47.03671932" lon="6.60840511"><ele>808.605957</ele><time>2009-06-13T15:58:14Z</time></trkpt>
<trkpt lat="47.03759909" lon="6.60797596"><ele>801.39624</ele><time>2009-06-13T15:58:25Z</time></trkpt>
<trkpt lat="47.03882217" lon="6.60741806"><ele>793.224854</ele><time>2009-06-13T15:58:40Z</time></trkpt>
<trkpt lat="47.03974485" lon="6.60716057"><ele>788.89917</ele><time>2009-06-13T15:58:52Z</time></trkpt>
<trkpt lat="47.04010963" lon="6.60718203"><ele>787.937744</ele><time>2009-06-13T15:58:59Z</time></trkpt>
<trkpt lat="47.04015255" lon="6.60718203"><ele>787.457031</ele><time>2009-06-13T15:59:01Z</time></trkpt>
<trkpt lat="47.04015255" lon="6.60718203"><ele>788.418457</ele><time>2009-06-13T15:59:04Z</time></trkpt>
<trkpt lat="47.04019547" lon="6.60720348"><ele>788.418457</ele><time>2009-06-13T15:59:08Z</time></trkpt>
<trkpt lat="47.04019547" lon="6.60720348"><ele>787.457031</ele><time>2009-06-13T15:59:21Z</time></trkpt>
<trkpt lat="47.04021692" lon="6.60718203"><ele>788.89917</ele><time>2009-06-13T15:59:29Z</time></trkpt>
<trkpt lat="47.04036713" lon="6.60716057"><ele>788.89917</ele><time>2009-06-13T15:59:35Z</time></trkpt>
<trkpt lat="47.04111814" lon="6.60716057"><ele>784.573242</ele><time>2009-06-13T15:59:51Z</time></trkpt>
<trkpt lat="47.04231977" lon="6.60716057"><ele>781.20874</ele><time>2009-06-13T16:00:09Z</time></trkpt>
<trkpt lat="47.04337120" lon="6.60718203"><ele>780.728027</ele><time>2009-06-13T16:00:26Z</time></trkpt>
<trkpt lat="47.04425097" lon="6.60726786"><ele>780.247314</ele><time>2009-06-13T16:00:42Z</time></trkpt>
<trkpt lat="47.04452991" lon="6.60711765"><ele>779.285645</ele><time>2009-06-13T16:00:47Z</time></trkpt>
<trkpt lat="47.04551697" lon="6.60638809"><ele>774.959961</ele><time>2009-06-13T16:01:03Z</time></trkpt>
<trkpt lat="47.04566717" lon="6.60623789"><ele>773.998535</ele><time>2009-06-13T16:01:06Z</time></trkpt>
<trkpt lat="47.04571009" lon="6.60570145"><ele>772.075928</ele><time>2009-06-13T16:01:12Z</time></trkpt>
<trkpt lat="47.04553843" lon="6.60535812"><ele>770.15332</ele><time>2009-06-13T16:01:16Z</time></trkpt>
<trkpt lat="47.04538822" lon="6.60512209"><ele>768.230713</ele><time>2009-06-13T16:01:19Z</time></trkpt>
<trkpt lat="47.04545259" lon="6.60449982"><ele>764.385498</ele><time>2009-06-13T16:01:25Z</time></trkpt>
<trkpt lat="47.04573154" lon="6.60413504"><ele>762.462646</ele><time>2009-06-13T16:01:29Z</time></trkpt>
<trkpt lat="47.04691172" lon="6.60297632"><ele>757.65625</ele><time>2009-06-13T16:01:44Z</time></trkpt>
<trkpt lat="47.04781294" lon="6.60209656"><ele>757.65625</ele><time>2009-06-13T16:01:58Z</time></trkpt>
<trkpt lat="47.04901457" lon="6.60093784"><ele>756.214111</ele><time>2009-06-13T16:02:20Z</time></trkpt>
<trkpt lat="47.04987288" lon="6.60027266"><ele>756.214111</ele><time>2009-06-13T16:02:37Z</time></trkpt>
<trkpt lat="47.05105305" lon="6.59988642"><ele>756.694824</ele><time>2009-06-13T16:02:58Z</time></trkpt>
<trkpt lat="47.05210447" lon="6.59954309"><ele>757.175537</ele><time>2009-06-13T16:03:17Z</time></trkpt>
<trkpt lat="47.05302715" lon="6.59930706"><ele>758.136963</ele><time>2009-06-13T16:03:34Z</time></trkpt>
<trkpt lat="47.05317736" lon="6.59934998"><ele>758.617432</ele><time>2009-06-13T16:03:37Z</time></trkpt>
<trkpt lat="47.05322027" lon="6.59939289"><ele>758.617432</ele><time>2009-06-13T16:03:38Z</time></trkpt>
<trkpt lat="47.05386400" lon="6.59997225"><ele>758.617432</ele><time>2009-06-13T16:03:55Z</time></trkpt>
<trkpt lat="47.05388546" lon="6.59999371"><ele>758.617432</ele><time>2009-06-13T16:03:56Z</time></trkpt>
<trkpt lat="47.05388546" lon="6.60020828"><ele>759.098145</ele><time>2009-06-13T16:04:00Z</time></trkpt>
<trkpt lat="47.05388546" lon="6.60053015"><ele>759.098145</ele><time>2009-06-13T16:04:05Z</time></trkpt>
<trkpt lat="47.05397129" lon="6.60095930"><ele>758.136963</ele><time>2009-06-13T16:04:11Z</time></trkpt>
<trkpt lat="47.05399275" lon="6.60102367"><ele>758.136963</ele><time>2009-06-13T16:04:12Z</time></trkpt>
<trkpt lat="47.05407858" lon="6.60123825"><ele>757.65625</ele><time>2009-06-13T16:04:15Z</time></trkpt>
<trkpt lat="47.05410004" lon="6.60147429"><ele>757.175537</ele><time>2009-06-13T16:04:18Z</time></trkpt>
<trkpt lat="47.05444336" lon="6.60289049"><ele>757.175537</ele><time>2009-06-13T16:04:36Z</time></trkpt>
<trkpt lat="47.05480814" lon="6.60434961"><ele>758.136963</ele><time>2009-06-13T16:04:55Z</time></trkpt>
<trkpt lat="47.05482960" lon="6.60447836"><ele>758.617432</ele><time>2009-06-13T16:04:57Z</time></trkpt>
<trkpt lat="47.05459356" lon="6.60477877"><ele>758.136963</ele><time>2009-06-13T16:05:04Z</time></trkpt>
<trkpt lat="47.05455065" lon="6.60480022"><ele>757.65625</ele><time>2009-06-13T16:05:05Z</time></trkpt>
<trkpt lat="47.05444336" lon="6.60484314"><ele>757.65625</ele><time>2009-06-13T16:05:07Z</time></trkpt>
<trkpt lat="47.05442190" lon="6.60512209"><ele>757.175537</ele><time>2009-06-13T16:05:11Z</time></trkpt>
<trkpt lat="47.05433607" lon="6.60634518"><ele>757.175537</ele><time>2009-06-13T16:05:27Z</time></trkpt>
<trkpt lat="47.05427170" lon="6.60789013"><ele>756.694824</ele><time>2009-06-13T16:05:46Z</time></trkpt>
<trkpt lat="47.05429316" lon="6.60797596"><ele>756.694824</ele><time>2009-06-13T16:05:47Z</time></trkpt>
<trkpt lat="47.05444336" lon="6.60827637"><ele>756.694824</ele><time>2009-06-13T16:05:52Z</time></trkpt>
<trkpt lat="47.05457211" lon="6.60846949"><ele>756.694824</ele><time>2009-06-13T16:05:56Z</time></trkpt>
<trkpt lat="47.05463648" lon="6.60876989"><ele>757.175537</ele><time>2009-06-13T16:06:03Z</time></trkpt>
<trkpt lat="47.05463648" lon="6.60902739"><ele>757.175537</ele><time>2009-06-13T16:06:07Z</time></trkpt>
<trkpt lat="47.05461502" lon="6.60924196"><ele>757.65625</ele><time>2009-06-13T16:06:10Z</time></trkpt>
<trkpt lat="47.05459356" lon="6.60945654"><ele>757.65625</ele><time>2009-06-13T16:06:13Z</time></trkpt>
<trkpt lat="47.05455065" lon="6.60964966"><ele>758.136963</ele><time>2009-06-13T16:06:16Z</time></trkpt>
<trkpt lat="47.05414295" lon="6.61061525"><ele>761.020752</ele><time>2009-06-13T16:06:33Z</time></trkpt>
<trkpt lat="47.05407858" lon="6.61076546"><ele>761.501465</ele><time>2009-06-13T16:06:36Z</time></trkpt>
<trkpt lat="47.05397129" lon="6.61104441"><ele>761.501465</ele><time>2009-06-13T16:06:42Z</time></trkpt>
<trkpt lat="47.05390692" lon="6.61123753"><ele>761.501465</ele><time>2009-06-13T16:06:46Z</time></trkpt>
<trkpt lat="47.05390692" lon="6.61130190"><ele>761.982178</ele><time>2009-06-13T16:06:47Z</time></trkpt>
<trkpt lat="47.05401421" lon="6.61158085"><ele>762.943359</ele><time>2009-06-13T16:06:53Z</time></trkpt>
<trkpt lat="47.05405712" lon="6.61164522"><ele>763.424072</ele><time>2009-06-13T16:06:55Z</time></trkpt>
<trkpt lat="47.05420732" lon="6.61181688"><ele>763.904541</ele><time>2009-06-13T16:07:01Z</time></trkpt>
<trkpt lat="47.05433607" lon="6.61183834"><ele>764.866211</ele><time>2009-06-13T16:07:05Z</time></trkpt>
<trkpt lat="47.05459356" lon="6.61179543"><ele>765.827637</ele><time>2009-06-13T16:07:13Z</time></trkpt>
<trkpt lat="47.05472231" lon="6.61192417"><ele>766.788818</ele><time>2009-06-13T16:07:18Z</time></trkpt>
<trkpt lat="47.05491543" lon="6.61233187"><ele>770.15332</ele><time>2009-06-13T16:07:28Z</time></trkpt>
<trkpt lat="47.05497980" lon="6.61243916"><ele>770.634033</ele><time>2009-06-13T16:07:31Z</time></trkpt>
<trkpt lat="47.05543041" lon="6.61314726"><ele>770.634033</ele><time>2009-06-13T16:07:47Z</time></trkpt>
<trkpt lat="47.05573082" lon="6.61374807"><ele>768.230713</ele><time>2009-06-13T16:07:56Z</time></trkpt>
<trkpt lat="47.05605268" lon="6.61494970"><ele>761.982178</ele><time>2009-06-13T16:08:08Z</time></trkpt>
<trkpt lat="47.05611706" lon="6.61509991"><ele>761.020752</ele><time>2009-06-13T16:08:10Z</time></trkpt>
<trkpt lat="47.05624580" lon="6.61527157"><ele>759.098145</ele><time>2009-06-13T16:08:13Z</time></trkpt>
<trkpt lat="47.05628872" lon="6.61533594"><ele>758.617432</ele><time>2009-06-13T16:08:14Z</time></trkpt>
<trkpt lat="47.05637455" lon="6.61557198"><ele>757.65625</ele><time>2009-06-13T16:08:17Z</time></trkpt>
<trkpt lat="47.05678225" lon="6.61690235"><ele>757.175537</ele><time>2009-06-13T16:08:33Z</time></trkpt>
<trkpt lat="47.05693245" lon="6.61748171"><ele>757.65625</ele><time>2009-06-13T16:08:41Z</time></trkpt>
<trkpt lat="47.05680370" lon="6.61803961"><ele>761.020752</ele><time>2009-06-13T16:08:51Z</time></trkpt>
<trkpt lat="47.05678225" lon="6.61806107"><ele>761.020752</ele><time>2009-06-13T16:08:52Z</time></trkpt>
<trkpt lat="47.05671787" lon="6.61812544"><ele>761.501465</ele><time>2009-06-13T16:08:54Z</time></trkpt>
<trkpt lat="47.05665350" lon="6.61818981"><ele>761.982178</ele><time>2009-06-13T16:08:56Z</time></trkpt>
<trkpt lat="47.05654621" lon="6.61827564"><ele>762.462646</ele><time>2009-06-13T16:08:59Z</time></trkpt>
<trkpt lat="47.05637455" lon="6.61844730"><ele>763.424072</ele><time>2009-06-13T16:09:05Z</time></trkpt>
<trkpt lat="47.05631018" lon="6.61857605"><ele>763.904541</ele><time>2009-06-13T16:09:08Z</time></trkpt>
<trkpt lat="47.05620289" lon="6.61874771"><ele>764.866211</ele><time>2009-06-13T16:09:12Z</time></trkpt>
<trkpt lat="47.05590248" lon="6.61960602"><ele>768.230713</ele><time>2009-06-13T16:09:31Z</time></trkpt>
<trkpt lat="47.05564499" lon="6.62039995"><ele>771.595215</ele><time>2009-06-13T16:09:48Z</time></trkpt>
<trkpt lat="47.05564499" lon="6.62050724"><ele>772.075928</ele><time>2009-06-13T16:09:50Z</time></trkpt>
<trkpt lat="47.05562353" lon="6.62059307"><ele>772.075928</ele><time>2009-06-13T16:09:52Z</time></trkpt>
<trkpt lat="47.05566645" lon="6.62102222"><ele>772.556641</ele><time>2009-06-13T16:10:00Z</time></trkpt>
<trkpt lat="47.05575228" lon="6.62130117"><ele>773.518066</ele><time>2009-06-13T16:10:06Z</time></trkpt>
<trkpt lat="47.05592394" lon="6.62155867"><ele>774.479248</ele><time>2009-06-13T16:10:14Z</time></trkpt>
<trkpt lat="47.05611706" lon="6.62173033"><ele>775.44043</ele><time>2009-06-13T16:10:21Z</time></trkpt>
<trkpt lat="47.05633163" lon="6.62188053"><ele>776.882568</ele><time>2009-06-13T16:10:28Z</time></trkpt>
<trkpt lat="47.05641747" lon="6.62194490"><ele>777.84375</ele><time>2009-06-13T16:10:31Z</time></trkpt>
<trkpt lat="47.05648184" lon="6.62198782"><ele>777.84375</ele><time>2009-06-13T16:10:33Z</time></trkpt>
<trkpt lat="47.05656767" lon="6.62205219"><ele>778.324463</ele><time>2009-06-13T16:10:36Z</time></trkpt>
<trkpt lat="47.05665350" lon="6.62211657"><ele>778.805176</ele><time>2009-06-13T16:10:39Z</time></trkpt>
<trkpt lat="47.05686808" lon="6.62226677"><ele>779.766357</ele><time>2009-06-13T16:10:46Z</time></trkpt>
<trkpt lat="47.05731869" lon="6.62291050"><ele>780.247314</ele><time>2009-06-13T16:11:03Z</time></trkpt>
<trkpt lat="47.05761909" lon="6.62344694"><ele>781.20874</ele><time>2009-06-13T16:11:16Z</time></trkpt>
<trkpt lat="47.05802679" lon="6.62411213"><ele>782.650635</ele><time>2009-06-13T16:11:33Z</time></trkpt>
<trkpt lat="47.05789804" lon="6.62439108"><ele>784.573242</ele><time>2009-06-13T16:11:41Z</time></trkpt>
<trkpt lat="47.05776930" lon="6.62454128"><ele>785.053955</ele><time>2009-06-13T16:11:46Z</time></trkpt>
<trkpt lat="47.05766201" lon="6.62469149"><ele>786.015137</ele><time>2009-06-13T16:11:52Z</time></trkpt>
<trkpt lat="47.05755472" lon="6.62488461"><ele>787.457031</ele><time>2009-06-13T16:11:59Z</time></trkpt>
<trkpt lat="47.05753326" lon="6.62490606"><ele>787.457031</ele><time>2009-06-13T16:12:00Z</time></trkpt>
<trkpt lat="47.05731869" lon="6.62533522"><ele>789.379639</ele><time>2009-06-13T16:12:11Z</time></trkpt>
<trkpt lat="47.05697536" lon="6.62617207"><ele>792.744385</ele><time>2009-06-13T16:12:32Z</time></trkpt>
<trkpt lat="47.05695391" lon="6.62625790"><ele>793.224854</ele><time>2009-06-13T16:12:34Z</time></trkpt>
<trkpt lat="47.05691099" lon="6.62636518"><ele>793.705566</ele><time>2009-06-13T16:12:37Z</time></trkpt>
<trkpt lat="47.05686808" lon="6.62651539"><ele>794.666748</ele><time>2009-06-13T16:12:41Z</time></trkpt>
<trkpt lat="47.05684662" lon="6.62660122"><ele>794.666748</ele><time>2009-06-13T16:12:43Z</time></trkpt>
<trkpt lat="47.05673933" lon="6.62690163"><ele>796.589844</ele><time>2009-06-13T16:12:51Z</time></trkpt>
<trkpt lat="47.05663204" lon="6.62743807"><ele>800.915527</ele><time>2009-06-13T16:13:05Z</time></trkpt>
<trkpt lat="47.05658913" lon="6.62754536"><ele>801.876953</ele><time>2009-06-13T16:13:08Z</time></trkpt>
<trkpt lat="47.05656767" lon="6.62765265"><ele>802.357422</ele><time>2009-06-13T16:13:11Z</time></trkpt>
<trkpt lat="47.05654621" lon="6.62775993"><ele>803.318848</ele><time>2009-06-13T16:13:14Z</time></trkpt>
<trkpt lat="47.05652475" lon="6.62784576"><ele>803.799561</ele><time>2009-06-13T16:13:16Z</time></trkpt>
<trkpt lat="47.05650330" lon="6.62795305"><ele>804.280273</ele><time>2009-06-13T16:13:19Z</time></trkpt>
<trkpt lat="47.05643892" lon="6.62810326"><ele>805.722168</ele><time>2009-06-13T16:13:24Z</time></trkpt>
<trkpt lat="47.05637455" lon="6.62840366"><ele>808.125488</ele><time>2009-06-13T16:13:34Z</time></trkpt>
<trkpt lat="47.05635309" lon="6.62848949"><ele>809.08667</ele><time>2009-06-13T16:13:37Z</time></trkpt>
<trkpt lat="47.05633163" lon="6.62878990"><ele>812.451416</ele><time>2009-06-13T16:13:48Z</time></trkpt>
<trkpt lat="47.05633163" lon="6.62896156"><ele>814.374023</ele><time>2009-06-13T16:13:54Z</time></trkpt>
<trkpt lat="47.05633163" lon="6.62902594"><ele>814.854736</ele><time>2009-06-13T16:13:57Z</time></trkpt>
<trkpt lat="47.05633163" lon="6.62909031"><ele>815.335449</ele><time>2009-06-13T16:13:59Z</time></trkpt>
<trkpt lat="47.05633163" lon="6.62919760"><ele>816.296631</ele><time>2009-06-13T16:14:03Z</time></trkpt>
<trkpt lat="47.05633163" lon="6.62926197"><ele>817.258057</ele><time>2009-06-13T16:14:06Z</time></trkpt>
<trkpt lat="47.05626726" lon="6.62936926"><ele>818.699951</ele><time>2009-06-13T16:14:11Z</time></trkpt>
<trkpt lat="47.05626726" lon="6.62939072"><ele>819.180664</ele><time>2009-06-13T16:14:12Z</time></trkpt>
<trkpt lat="47.05622435" lon="6.62945509"><ele>820.141846</ele><time>2009-06-13T16:14:16Z</time></trkpt>
<trkpt lat="47.05620289" lon="6.62947655"><ele>820.622559</ele><time>2009-06-13T16:14:17Z</time></trkpt>
<trkpt lat="47.05611706" lon="6.62951946"><ele>821.103271</ele><time>2009-06-13T16:14:21Z</time></trkpt>
<trkpt lat="47.05609560" lon="6.62951946"><ele>821.103271</ele><time>2009-06-13T16:14:22Z</time></trkpt>
<trkpt lat="47.05603123" lon="6.62956238"><ele>821.58374</ele><time>2009-06-13T16:14:25Z</time></trkpt>
<trkpt lat="47.05600977" lon="6.62958384"><ele>822.064453</ele><time>2009-06-13T16:14:27Z</time></trkpt>
<trkpt lat="47.05594540" lon="6.62958384"><ele>822.064453</ele><time>2009-06-13T16:14:30Z</time></trkpt>
<trkpt lat="47.05585957" lon="6.62962675"><ele>822.545166</ele><time>2009-06-13T16:14:34Z</time></trkpt>
<trkpt lat="47.05583811" lon="6.62962675"><ele>822.545166</ele><time>2009-06-13T16:14:35Z</time></trkpt>
<trkpt lat="47.05579519" lon="6.62964821"><ele>823.025879</ele><time>2009-06-13T16:14:38Z</time></trkpt>
<trkpt lat="47.05573082" lon="6.62966967"><ele>823.506592</ele><time>2009-06-13T16:14:41Z</time></trkpt>
<trkpt lat="47.05568790" lon="6.62966967"><ele>823.987061</ele><time>2009-06-13T16:14:43Z</time></trkpt>
<trkpt lat="47.05566645" lon="6.62969112"><ele>823.987061</ele><time>2009-06-13T16:14:45Z</time></trkpt>
<trkpt lat="47.05558062" lon="6.62969112"><ele>824.948486</ele><time>2009-06-13T16:14:49Z</time></trkpt>
<trkpt lat="47.05555916" lon="6.62969112"><ele>824.948486</ele><time>2009-06-13T16:14:50Z</time></trkpt>
<trkpt lat="47.05545187" lon="6.62969112"><ele>825.909668</ele><time>2009-06-13T16:14:56Z</time></trkpt>
<trkpt lat="47.05532312" lon="6.62966967"><ele>826.390381</ele><time>2009-06-13T16:15:02Z</time></trkpt>
<trkpt lat="47.05523729" lon="6.62964821"><ele>826.871094</ele><time>2009-06-13T16:15:05Z</time></trkpt>
<trkpt lat="47.05513000" lon="6.62960529"><ele>827.832275</ele><time>2009-06-13T16:15:09Z</time></trkpt>
<trkpt lat="47.05461502" lon="6.62939072"><ele>831.677734</ele><time>2009-06-13T16:15:28Z</time></trkpt>
<trkpt lat="47.05455065" lon="6.62936926"><ele>832.158447</ele><time>2009-06-13T16:15:31Z</time></trkpt>
<trkpt lat="47.05444336" lon="6.62932634"><ele>832.158447</ele><time>2009-06-13T16:15:36Z</time></trkpt>
<trkpt lat="47.05437899" lon="6.62930489"><ele>832.158447</ele><time>2009-06-13T16:15:39Z</time></trkpt>
<trkpt lat="47.05431461" lon="6.62930489"><ele>832.158447</ele><time>2009-06-13T16:15:42Z</time></trkpt>
<trkpt lat="47.05414295" lon="6.62932634"><ele>834.561768</ele><time>2009-06-13T16:15:52Z</time></trkpt>
<trkpt lat="47.05384254" lon="6.62951946"><ele>838.406982</ele><time>2009-06-13T16:16:10Z</time></trkpt>
<trkpt lat="47.05371380" lon="6.62960529"><ele>839.848877</ele><time>2009-06-13T16:16:17Z</time></trkpt>
<trkpt lat="47.05328465" lon="6.62979841"><ele>845.13623</ele><time>2009-06-13T16:16:39Z</time></trkpt>
<trkpt lat="47.05287695" lon="6.62981987"><ele>849.462158</ele><time>2009-06-13T16:16:58Z</time></trkpt>
<trkpt lat="47.05276966" lon="6.62984133"><ele>849.462158</ele><time>2009-06-13T16:17:02Z</time></trkpt>
<trkpt lat="47.05257654" lon="6.62990570"><ele>849.942871</ele><time>2009-06-13T16:17:13Z</time></trkpt>
<trkpt lat="47.05253363" lon="6.62992716"><ele>850.904053</ele><time>2009-06-13T16:17:15Z</time></trkpt>
<trkpt lat="47.05246925" lon="6.62994862"><ele>852.345947</ele><time>2009-06-13T16:17:18Z</time></trkpt>
<trkpt lat="47.05214739" lon="6.63005590"><ele>853.307373</ele><time>2009-06-13T16:17:36Z</time></trkpt>
<trkpt lat="47.05210447" lon="6.63009882"><ele>853.788086</ele><time>2009-06-13T16:17:39Z</time></trkpt>
<trkpt lat="47.05206156" lon="6.63020611"><ele>855.22998</ele><time>2009-06-13T16:17:43Z</time></trkpt>
<trkpt lat="47.05204010" lon="6.63031340"><ele>854.749268</ele><time>2009-06-13T16:17:47Z</time></trkpt>
<trkpt lat="47.05204010" lon="6.63035631"><ele>854.749268</ele><time>2009-06-13T16:17:49Z</time></trkpt>
<trkpt lat="47.05201864" lon="6.63042068"><ele>854.749268</ele><time>2009-06-13T16:17:52Z</time></trkpt>
<trkpt lat="47.05204010" lon="6.63044214"><ele>855.22998</ele><time>2009-06-13T16:17:53Z</time></trkpt>
<trkpt lat="47.05204010" lon="6.63052797"><ele>855.710693</ele><time>2009-06-13T16:17:56Z</time></trkpt>
<trkpt lat="47.05210447" lon="6.63069963"><ele>857.152588</ele><time>2009-06-13T16:18:04Z</time></trkpt>
<trkpt lat="47.05212593" lon="6.63074255"><ele>856.671875</ele><time>2009-06-13T16:18:06Z</time></trkpt>
<trkpt lat="47.05214739" lon="6.63076401"><ele>858.114014</ele><time>2009-06-13T16:18:08Z</time></trkpt>
<trkpt lat="47.05219030" lon="6.63080692"><ele>858.594482</ele><time>2009-06-13T16:18:11Z</time></trkpt>
<trkpt lat="47.05223322" lon="6.63080692"><ele>860.036621</ele><time>2009-06-13T16:18:13Z</time></trkpt>
<trkpt lat="47.05229759" lon="6.63082838"><ele>861.959473</ele><time>2009-06-13T16:18:18Z</time></trkpt>
<trkpt lat="47.05236197" lon="6.63091421"><ele>861.959473</ele><time>2009-06-13T16:18:23Z</time></trkpt>
<trkpt lat="47.05242634" lon="6.63097858"><ele>862.920654</ele><time>2009-06-13T16:18:28Z</time></trkpt>
<trkpt lat="47.05246925" lon="6.63102150"><ele>862.439941</ele><time>2009-06-13T16:18:31Z</time></trkpt>
<trkpt lat="47.05255508" lon="6.63106441"><ele>865.804688</ele><time>2009-06-13T16:18:37Z</time></trkpt>
<trkpt lat="47.05261946" lon="6.63112879"><ele>868.207764</ele><time>2009-06-13T16:18:42Z</time></trkpt>
<trkpt lat="47.05268383" lon="6.63117170"><ele>868.688477</ele><time>2009-06-13T16:18:45Z</time></trkpt>
<trkpt lat="47.05272675" lon="6.63119316"><ele>868.688477</ele><time>2009-06-13T16:18:48Z</time></trkpt>
<trkpt lat="47.05279112" lon="6.63125753"><ele>870.130371</ele><time>2009-06-13T16:18:53Z</time></trkpt>
<trkpt lat="47.05317736" lon="6.63149357"><ele>875.898193</ele><time>2009-06-13T16:19:20Z</time></trkpt>
<trkpt lat="47.05343485" lon="6.63160086"><ele>878.301758</ele><time>2009-06-13T16:19:35Z</time></trkpt>
<trkpt lat="47.05354214" lon="6.63166523"><ele>876.37915</ele><time>2009-06-13T16:19:42Z</time></trkpt>
<trkpt lat="47.05362797" lon="6.63172960"><ele>876.859863</ele><time>2009-06-13T16:19:48Z</time></trkpt>
<trkpt lat="47.05373526" lon="6.63175106"><ele>876.859863</ele><time>2009-06-13T16:19:54Z</time></trkpt>
<trkpt lat="47.05375671" lon="6.63179398"><ele>879.743652</ele><time>2009-06-13T16:19:57Z</time></trkpt>
<trkpt lat="47.05386400" lon="6.63185835"><ele>881.185791</ele><time>2009-06-13T16:20:03Z</time></trkpt>
<trkpt lat="47.05420732" lon="6.63198709"><ele>881.185791</ele><time>2009-06-13T16:20:21Z</time></trkpt>
<trkpt lat="47.05427170" lon="6.63205147"><ele>880.224365</ele><time>2009-06-13T16:20:25Z</time></trkpt>
<trkpt lat="47.05433607" lon="6.63213730"><ele>879.743652</ele><time>2009-06-13T16:20:30Z</time></trkpt>
<trkpt lat="47.05435753" lon="6.63215876"><ele>879.743652</ele><time>2009-06-13T16:20:31Z</time></trkpt>
<trkpt lat="47.05440044" lon="6.63220167"><ele>879.262939</ele><time>2009-06-13T16:20:34Z</time></trkpt>
<trkpt lat="47.05442190" lon="6.63224459"><ele>879.262939</ele><time>2009-06-13T16:20:36Z</time></trkpt>
<trkpt lat="47.05444336" lon="6.63235188"><ele>879.743652</ele><time>2009-06-13T16:20:40Z</time></trkpt>
<trkpt lat="47.05444336" lon="6.63237333"><ele>880.224365</ele><time>2009-06-13T16:20:41Z</time></trkpt>
<trkpt lat="47.05440044" lon="6.63243771"><ele>881.66626</ele><time>2009-06-13T16:20:44Z</time></trkpt>
<trkpt lat="47.05437899" lon="6.63248062"><ele>882.146973</ele><time>2009-06-13T16:20:47Z</time></trkpt>
<trkpt lat="47.05433607" lon="6.63250208"><ele>882.146973</ele><time>2009-06-13T16:20:50Z</time></trkpt>
<trkpt lat="47.05431461" lon="6.63252354"><ele>883.108154</ele><time>2009-06-13T16:20:52Z</time></trkpt>
<trkpt lat="47.05427170" lon="6.63254499"><ele>884.06958</ele><time>2009-06-13T16:20:54Z</time></trkpt>
<trkpt lat="47.05425024" lon="6.63254499"><ele>884.06958</ele><time>2009-06-13T16:20:57Z</time></trkpt>
<trkpt lat="47.05403566" lon="6.63260937"><ele>886.953369</ele><time>2009-06-13T16:21:12Z</time></trkpt>
<trkpt lat="47.05399275" lon="6.63260937"><ele>886.4729</ele><time>2009-06-13T16:21:15Z</time></trkpt>
<trkpt lat="47.05394983" lon="6.63265228"><ele>885.992188</ele><time>2009-06-13T16:21:18Z</time></trkpt>
<trkpt lat="47.05373526" lon="6.63269520"><ele>892.240967</ele><time>2009-06-13T16:21:34Z</time></trkpt>
<trkpt lat="47.05358505" lon="6.63269520"><ele>900.412109</ele><time>2009-06-13T16:21:44Z</time></trkpt>
<trkpt lat="47.05304861" lon="6.63280249"><ele>906.6604</ele><time>2009-06-13T16:22:17Z</time></trkpt>
<trkpt lat="47.05272675" lon="6.63288832"><ele>906.6604</ele><time>2009-06-13T16:22:41Z</time></trkpt>
<trkpt lat="47.05240488" lon="6.63293123"><ele>909.544678</ele><time>2009-06-13T16:22:59Z</time></trkpt>
<trkpt lat="47.05216885" lon="6.63301706"><ele>912.428467</ele><time>2009-06-13T16:23:14Z</time></trkpt>
<trkpt lat="47.05201864" lon="6.63308144"><ele>914.831787</ele><time>2009-06-13T16:23:21Z</time></trkpt>
<trkpt lat="47.05197573" lon="6.63314581"><ele>914.831787</ele><time>2009-06-13T16:23:24Z</time></trkpt>
<trkpt lat="47.05191135" lon="6.63323164"><ele>915.3125</ele><time>2009-06-13T16:23:28Z</time></trkpt>
<trkpt lat="47.05184698" lon="6.63344622"><ele>917.235107</ele><time>2009-06-13T16:23:36Z</time></trkpt>
<trkpt lat="47.05176115" lon="6.63383245"><ele>917.715576</ele><time>2009-06-13T16:23:50Z</time></trkpt>
<trkpt lat="47.05173969" lon="6.63389683"><ele>917.715576</ele><time>2009-06-13T16:23:53Z</time></trkpt>
<trkpt lat="47.05156803" lon="6.63464785"><ele>917.235107</ele><time>2009-06-13T16:24:18Z</time></trkpt>
<trkpt lat="47.05156803" lon="6.63511992"><ele>916.754395</ele><time>2009-06-13T16:24:32Z</time></trkpt>
<trkpt lat="47.05156803" lon="6.63522720"><ele>916.754395</ele><time>2009-06-13T16:24:35Z</time></trkpt>
<trkpt lat="47.05161095" lon="6.63544178"><ele>916.754395</ele><time>2009-06-13T16:24:41Z</time></trkpt>
<trkpt lat="47.05165386" lon="6.63565636"><ele>916.754395</ele><time>2009-06-13T16:24:47Z</time></trkpt>
<trkpt lat="47.05178261" lon="6.63636446"><ele>916.754395</ele><time>2009-06-13T16:25:04Z</time></trkpt>
<trkpt lat="47.05182552" lon="6.63645029"><ele>916.754395</ele><time>2009-06-13T16:25:06Z</time></trkpt>
<trkpt lat="47.05227613" lon="6.63717985"><ele>916.273682</ele><time>2009-06-13T16:25:29Z</time></trkpt>
<trkpt lat="47.05240488" lon="6.63745880"><ele>916.273682</ele><time>2009-06-13T16:25:37Z</time></trkpt>
<trkpt lat="47.05253363" lon="6.63771629"><ele>916.754395</ele><time>2009-06-13T16:25:44Z</time></trkpt>
<trkpt lat="47.05259800" lon="6.63782358"><ele>917.715576</ele><time>2009-06-13T16:25:47Z</time></trkpt>
<trkpt lat="47.05287695" lon="6.63825274"><ele>919.638428</ele><time>2009-06-13T16:25:59Z</time></trkpt>
<trkpt lat="47.05289841" lon="6.63831711"><ele>920.118896</ele><time>2009-06-13T16:26:01Z</time></trkpt>
<trkpt lat="47.05319881" lon="6.63881063"><ele>921.560791</ele><time>2009-06-13T16:26:15Z</time></trkpt>
<trkpt lat="47.05373526" lon="6.64003372"><ele>922.041504</ele><time>2009-06-13T16:26:38Z</time></trkpt>
<trkpt lat="47.05390692" lon="6.64018393"><ele>922.522217</ele><time>2009-06-13T16:26:42Z</time></trkpt>
<trkpt lat="47.05414295" lon="6.64046288"><ele>922.041504</ele><time>2009-06-13T16:26:47Z</time></trkpt>
<trkpt lat="47.05461502" lon="6.64132118"><ele>920.599609</ele><time>2009-06-13T16:27:01Z</time></trkpt>
<trkpt lat="47.05489397" lon="6.64241552"><ele>921.080322</ele><time>2009-06-13T16:27:15Z</time></trkpt>
<trkpt lat="47.05555916" lon="6.64374590"><ele>922.041504</ele><time>2009-06-13T16:27:34Z</time></trkpt>
<trkpt lat="47.05570936" lon="6.64385319"><ele>922.041504</ele><time>2009-06-13T16:27:39Z</time></trkpt>
<trkpt lat="47.05575228" lon="6.64385319"><ele>922.522217</ele><time>2009-06-13T16:27:41Z</time></trkpt>
<trkpt lat="47.05609560" lon="6.64396048"><ele>924.445068</ele><time>2009-06-13T16:28:00Z</time></trkpt>
<trkpt lat="47.05611706" lon="6.64387465"><ele>923.483643</ele><time>2009-06-13T16:28:04Z</time></trkpt>
<trkpt lat="47.05611706" lon="6.64385319"><ele>923.483643</ele><time>2009-06-13T16:28:05Z</time></trkpt>
<trkpt lat="47.05613852" lon="6.64378881"><ele>923.483643</ele><time>2009-06-13T16:28:07Z</time></trkpt>
<trkpt lat="47.05618143" lon="6.64366007"><ele>923.964111</ele><time>2009-06-13T16:28:12Z</time></trkpt>
<trkpt lat="47.05620289" lon="6.64363861"><ele>923.964111</ele><time>2009-06-13T16:28:13Z</time></trkpt>
<trkpt lat="47.05626726" lon="6.64359570"><ele>925.40625</ele><time>2009-06-13T16:28:17Z</time></trkpt>
<trkpt lat="47.05628872" lon="6.64357424"><ele>925.40625</ele><time>2009-06-13T16:28:18Z</time></trkpt>
<trkpt lat="47.05633163" lon="6.64357424"><ele>925.886963</ele><time>2009-06-13T16:28:21Z</time></trkpt>
<trkpt lat="47.05635309" lon="6.64357424"><ele>925.886963</ele><time>2009-06-13T16:28:22Z</time></trkpt>
<trkpt lat="47.05643892" lon="6.64357424"><ele>926.367676</ele><time>2009-06-13T16:28:27Z</time></trkpt>
<trkpt lat="47.05648184" lon="6.64357424"><ele>926.367676</ele><time>2009-06-13T16:28:29Z</time></trkpt>
<trkpt lat="47.05650330" lon="6.64359570"><ele>926.367676</ele><time>2009-06-13T16:28:31Z</time></trkpt>
<trkpt lat="47.05661058" lon="6.64361715"><ele>926.848389</ele><time>2009-06-13T16:28:37Z</time></trkpt>
<trkpt lat="47.05667496" lon="6.64366007"><ele>926.848389</ele><time>2009-06-13T16:28:41Z</time></trkpt>
<trkpt lat="47.05673933" lon="6.64368153"><ele>927.329102</ele><time>2009-06-13T16:28:45Z</time></trkpt>
<trkpt lat="47.05680370" lon="6.64370298"><ele>927.329102</ele><time>2009-06-13T16:28:49Z</time></trkpt>
<trkpt lat="47.05684662" lon="6.64370298"><ele>927.80957</ele><time>2009-06-13T16:28:52Z</time></trkpt>
<trkpt lat="47.05688953" lon="6.64372444"><ele>927.80957</ele><time>2009-06-13T16:28:54Z</time></trkpt>
<trkpt lat="47.05723286" lon="6.64378881"><ele>930.693604</ele><time>2009-06-13T16:29:13Z</time></trkpt>
<trkpt lat="47.05727577" lon="6.64374590"><ele>931.174316</ele><time>2009-06-13T16:29:16Z</time></trkpt>
<trkpt lat="47.05740452" lon="6.64370298"><ele>932.135498</ele><time>2009-06-13T16:29:23Z</time></trkpt>
<trkpt lat="47.05744743" lon="6.64368153"><ele>932.616211</ele><time>2009-06-13T16:29:26Z</time></trkpt>
<trkpt lat="47.05755472" lon="6.64361715"><ele>934.058105</ele><time>2009-06-13T16:29:32Z</time></trkpt>
<trkpt lat="47.05766201" lon="6.64353132"><ele>936.941895</ele><time>2009-06-13T16:29:39Z</time></trkpt>
<trkpt lat="47.05770493" lon="6.64353132"><ele>937.422607</ele><time>2009-06-13T16:29:41Z</time></trkpt>
<trkpt lat="47.05776930" lon="6.64348841"><ele>937.422607</ele><time>2009-06-13T16:29:45Z</time></trkpt>
<trkpt lat="47.05779076" lon="6.64346695"><ele>937.422607</ele><time>2009-06-13T16:29:47Z</time></trkpt>
<trkpt lat="47.05787659" lon="6.64344549"><ele>937.422607</ele><time>2009-06-13T16:29:51Z</time></trkpt>
<trkpt lat="47.05794096" lon="6.64342403"><ele>937.90332</ele><time>2009-06-13T16:29:55Z</time></trkpt>
<trkpt lat="47.05796242" lon="6.64342403"><ele>937.90332</ele><time>2009-06-13T16:29:56Z</time></trkpt>
<trkpt lat="47.05804825" lon="6.64338112"><ele>937.90332</ele><time>2009-06-13T16:30:01Z</time></trkpt>
<trkpt lat="47.05809116" lon="6.64335966"><ele>937.90332</ele><time>2009-06-13T16:30:04Z</time></trkpt>
<trkpt lat="47.05813408" lon="6.64335966"><ele>937.90332</ele><time>2009-06-13T16:30:06Z</time></trkpt>
<trkpt lat="47.05817699" lon="6.64333820"><ele>937.90332</ele><time>2009-06-13T16:30:08Z</time></trkpt>
<trkpt lat="47.05819845" lon="6.64331675"><ele>937.90332</ele><time>2009-06-13T16:30:10Z</time></trkpt>
<trkpt lat="47.05826283" lon="6.64329529"><ele>938.384033</ele><time>2009-06-13T16:30:14Z</time></trkpt>
<trkpt lat="47.05832720" lon="6.64323092"><ele>938.384033</ele><time>2009-06-13T16:30:18Z</time></trkpt>
<trkpt lat="47.05837011" lon="6.64318800"><ele>938.384033</ele><time>2009-06-13T16:30:20Z</time></trkpt>
<trkpt lat="47.05839157" lon="6.64312363"><ele>937.90332</ele><time>2009-06-13T16:30:23Z</time></trkpt>
<trkpt lat="47.05841303" lon="6.64305925"><ele>937.422607</ele><time>2009-06-13T16:30:26Z</time></trkpt>
<trkpt lat="47.05843449" lon="6.64297342"><ele>936.941895</ele><time>2009-06-13T16:30:30Z</time></trkpt>
<trkpt lat="47.05843449" lon="6.64288759"><ele>937.422607</ele><time>2009-06-13T16:30:33Z</time></trkpt>
<trkpt lat="47.05839157" lon="6.64282322"><ele>938.384033</ele><time>2009-06-13T16:30:36Z</time></trkpt>
<trkpt lat="47.05839157" lon="6.64280176"><ele>938.384033</ele><time>2009-06-13T16:30:37Z</time></trkpt>
<trkpt lat="47.05832720" lon="6.64267302"><ele>940.306885</ele><time>2009-06-13T16:30:44Z</time></trkpt>
<trkpt lat="47.05832720" lon="6.64265156"><ele>940.306885</ele><time>2009-06-13T16:30:45Z</time></trkpt>
<trkpt lat="47.05830574" lon="6.64256573"><ele>940.787354</ele><time>2009-06-13T16:30:49Z</time></trkpt>
<trkpt lat="47.05826283" lon="6.64250135"><ele>941.748779</ele><time>2009-06-13T16:30:52Z</time></trkpt>
<trkpt lat="47.05824137" lon="6.64247990"><ele>942.229492</ele><time>2009-06-13T16:30:53Z</time></trkpt>
<trkpt lat="47.05824137" lon="6.64239407"><ele>940.787354</ele><time>2009-06-13T16:30:57Z</time></trkpt>
<trkpt lat="47.05821991" lon="6.64237261"><ele>941.268066</ele><time>2009-06-13T16:30:58Z</time></trkpt>
<trkpt lat="47.05819845" lon="6.64224386"><ele>942.710205</ele><time>2009-06-13T16:31:04Z</time></trkpt>
<trkpt lat="47.05819845" lon="6.64220095"><ele>943.190674</ele><time>2009-06-13T16:31:05Z</time></trkpt>
<trkpt lat="47.05819845" lon="6.64215803"><ele>943.671387</ele><time>2009-06-13T16:31:07Z</time></trkpt>
<trkpt lat="47.05819845" lon="6.64207220"><ele>944.632568</ele><time>2009-06-13T16:31:10Z</time></trkpt>
<trkpt lat="47.05821991" lon="6.64200783"><ele>945.593994</ele><time>2009-06-13T16:31:13Z</time></trkpt>
<trkpt lat="47.05821991" lon="6.64194345"><ele>946.074707</ele><time>2009-06-13T16:31:15Z</time></trkpt>
<trkpt lat="47.05821991" lon="6.64181471"><ele>947.035889</ele><time>2009-06-13T16:31:20Z</time></trkpt>
<trkpt lat="47.05821991" lon="6.64177179"><ele>947.516602</ele><time>2009-06-13T16:31:22Z</time></trkpt>
<trkpt lat="47.05824137" lon="6.64162159"><ele>948.958496</ele><time>2009-06-13T16:31:27Z</time></trkpt>
<trkpt lat="47.05824137" lon="6.64160013"><ele>948.958496</ele><time>2009-06-13T16:31:28Z</time></trkpt>
<trkpt lat="47.05826283" lon="6.64151430"><ele>949.439209</ele><time>2009-06-13T16:31:31Z</time></trkpt>
<trkpt lat="47.05826283" lon="6.64138556"><ele>950.400635</ele><time>2009-06-13T16:31:36Z</time></trkpt>
<trkpt lat="47.05826283" lon="6.64134264"><ele>950.881104</ele><time>2009-06-13T16:31:38Z</time></trkpt>
<trkpt lat="47.05828428" lon="6.64121389"><ele>953.284424</ele><time>2009-06-13T16:31:42Z</time></trkpt>
<trkpt lat="47.05828428" lon="6.64117098"><ele>953.765137</ele><time>2009-06-13T16:31:44Z</time></trkpt>
<trkpt lat="47.05832720" lon="6.64097786"><ele>953.765137</ele><time>2009-06-13T16:31:51Z</time></trkpt>
<trkpt lat="47.05843449" lon="6.64084911"><ele>954.726318</ele><time>2009-06-13T16:31:57Z</time></trkpt>
<trkpt lat="47.05847740" lon="6.64082766"><ele>954.726318</ele><time>2009-06-13T16:31:58Z</time></trkpt>
<trkpt lat="47.05856323" lon="6.64080620"><ele>955.207031</ele><time>2009-06-13T16:32:01Z</time></trkpt>
<trkpt lat="47.05858469" lon="6.64078474"><ele>955.207031</ele><time>2009-06-13T16:32:02Z</time></trkpt>
<trkpt lat="47.05867052" lon="6.64076328"><ele>955.687744</ele><time>2009-06-13T16:32:05Z</time></trkpt>
<trkpt lat="47.05875635" lon="6.64078474"><ele>955.687744</ele><time>2009-06-13T16:32:07Z</time></trkpt>
<trkpt lat="47.05935717" lon="6.64087057"><ele>957.610596</ele><time>2009-06-13T16:32:26Z</time></trkpt>
<trkpt lat="47.05942154" lon="6.64087057"><ele>958.091309</ele><time>2009-06-13T16:32:28Z</time></trkpt>
<trkpt lat="47.05963612" lon="6.64089203"><ele>958.571777</ele><time>2009-06-13T16:32:35Z</time></trkpt>
<trkpt lat="47.05974340" lon="6.64089203"><ele>958.571777</ele><time>2009-06-13T16:32:38Z</time></trkpt>
<trkpt lat="47.05997944" lon="6.64093494"><ele>959.05249</ele><time>2009-06-13T16:32:46Z</time></trkpt>
<trkpt lat="47.06034422" lon="6.64095640"><ele>961.936523</ele><time>2009-06-13T16:32:59Z</time></trkpt>
<trkpt lat="47.06081629" lon="6.64087057"><ele>964.820313</ele><time>2009-06-13T16:33:19Z</time></trkpt>
<trkpt lat="47.06139565" lon="6.64074183"><ele>964.820313</ele><time>2009-06-13T16:33:40Z</time></trkpt>
<trkpt lat="47.06152439" lon="6.64072037"><ele>964.3396</ele><time>2009-06-13T16:33:43Z</time></trkpt>
<trkpt lat="47.06180334" lon="6.64069891"><ele>967.223633</ele><time>2009-06-13T16:33:50Z</time></trkpt>
<trkpt lat="47.06212521" lon="6.64076328"><ele>966.74292</ele><time>2009-06-13T16:33:57Z</time></trkpt>
<trkpt lat="47.06328392" lon="6.64127827"><ele>965.781738</ele><time>2009-06-13T16:34:20Z</time></trkpt>
<trkpt lat="47.06397057" lon="6.64164305"><ele>964.820313</ele><time>2009-06-13T16:34:32Z</time></trkpt>
<trkpt lat="47.06405640" lon="6.64183617"><ele>964.820313</ele><time>2009-06-13T16:34:34Z</time></trkpt>
<trkpt lat="47.06407785" lon="6.64209366"><ele>964.3396</ele><time>2009-06-13T16:34:37Z</time></trkpt>
<trkpt lat="47.06414223" lon="6.64224386"><ele>963.858887</ele><time>2009-06-13T16:34:39Z</time></trkpt>
<trkpt lat="47.06450701" lon="6.64267302"><ele>960.494385</ele><time>2009-06-13T16:34:49Z</time></trkpt>
<trkpt lat="47.06504345" lon="6.64310217"><ele>957.610596</ele><time>2009-06-13T16:35:03Z</time></trkpt>
<trkpt lat="47.06540823" lon="6.64335966"><ele>955.687744</ele><time>2009-06-13T16:35:14Z</time></trkpt>
<trkpt lat="47.06553698" lon="6.64344549"><ele>955.687744</ele><time>2009-06-13T16:35:19Z</time></trkpt>
<trkpt lat="47.06577301" lon="6.64357424"><ele>954.24585</ele><time>2009-06-13T16:35:30Z</time></trkpt>
<trkpt lat="47.06588030" lon="6.64359570"><ele>953.765137</ele><time>2009-06-13T16:35:35Z</time></trkpt>
<trkpt lat="47.06590176" lon="6.64361715"><ele>953.765137</ele><time>2009-06-13T16:35:36Z</time></trkpt>
<trkpt lat="47.06592321" lon="6.64363861"><ele>954.24585</ele><time>2009-06-13T16:35:38Z</time></trkpt>
<trkpt lat="47.06590176" lon="6.64366007"><ele>954.24585</ele><time>2009-06-13T16:35:43Z</time></trkpt>
<trkpt lat="47.06588030" lon="6.64366007"><ele>954.24585</ele><time>2009-06-13T16:35:44Z</time></trkpt>
<trkpt lat="47.06579447" lon="6.64366007"><ele>954.24585</ele><time>2009-06-13T16:35:48Z</time></trkpt>
<trkpt lat="47.06575155" lon="6.64366007"><ele>954.726318</ele><time>2009-06-13T16:35:51Z</time></trkpt>
<trkpt lat="47.06568718" lon="6.64366007"><ele>954.726318</ele><time>2009-06-13T16:35:54Z</time></trkpt>
<trkpt lat="47.06555843" lon="6.64374590"><ele>956.168457</ele><time>2009-06-13T16:36:02Z</time></trkpt>
<trkpt lat="47.06549406" lon="6.64406776"><ele>958.571777</ele><time>2009-06-13T16:36:17Z</time></trkpt>
<trkpt lat="47.06553698" lon="6.64413214"><ele>959.533203</ele><time>2009-06-13T16:36:21Z</time></trkpt>
<trkpt lat="47.06555843" lon="6.64415359"><ele>959.533203</ele><time>2009-06-13T16:36:22Z</time></trkpt>
<trkpt lat="47.06560135" lon="6.64419651"><ele>960.013672</ele><time>2009-06-13T16:36:25Z</time></trkpt>
<trkpt lat="47.06560135" lon="6.64421797"><ele>960.494385</ele><time>2009-06-13T16:36:26Z</time></trkpt>
<trkpt lat="47.06566572" lon="6.64428234"><ele>960.494385</ele><time>2009-06-13T16:36:31Z</time></trkpt>
<trkpt lat="47.06568718" lon="6.64432526"><ele>960.975098</ele><time>2009-06-13T16:36:33Z</time></trkpt>
<trkpt lat="47.06573009" lon="6.64434671"><ele>961.455811</ele><time>2009-06-13T16:36:35Z</time></trkpt>
<trkpt lat="47.06577301" lon="6.64438963"><ele>961.936523</ele><time>2009-06-13T16:36:38Z</time></trkpt>
<trkpt lat="47.06577301" lon="6.64438963"><ele>961.936523</ele><time>2009-06-13T16:36:39Z</time></trkpt>
<trkpt lat="47.06585884" lon="6.64447546"><ele>962.416992</ele><time>2009-06-13T16:36:45Z</time></trkpt>
<trkpt lat="47.06588030" lon="6.64449692"><ele>962.897705</ele><time>2009-06-13T16:36:47Z</time></trkpt>
<trkpt lat="47.06592321" lon="6.64453983"><ele>962.897705</ele><time>2009-06-13T16:36:50Z</time></trkpt>
<trkpt lat="47.06596613" lon="6.64460421"><ele>963.378418</ele><time>2009-06-13T16:36:54Z</time></trkpt>
<trkpt lat="47.06613779" lon="6.64475441"><ele>965.301025</ele><time>2009-06-13T16:37:06Z</time></trkpt>
<trkpt lat="47.06618071" lon="6.64479733"><ele>965.781738</ele><time>2009-06-13T16:37:09Z</time></trkpt>
<trkpt lat="47.06618071" lon="6.64481878"><ele>966.262207</ele><time>2009-06-13T16:37:10Z</time></trkpt>
<trkpt lat="47.06622362" lon="6.64484024"><ele>967.223633</ele><time>2009-06-13T16:37:12Z</time></trkpt>
<trkpt lat="47.06626654" lon="6.64488316"><ele>967.704102</ele><time>2009-06-13T16:37:16Z</time></trkpt>
<trkpt lat="47.06637383" lon="6.64499044"><ele>969.14624</ele><time>2009-06-13T16:37:23Z</time></trkpt>
<trkpt lat="47.06648111" lon="6.64511919"><ele>969.14624</ele><time>2009-06-13T16:37:31Z</time></trkpt>
<trkpt lat="47.06652403" lon="6.64516211"><ele>969.626953</ele><time>2009-06-13T16:37:34Z</time></trkpt>
<trkpt lat="47.06671715" lon="6.64526939"><ele>969.626953</ele><time>2009-06-13T16:37:46Z</time></trkpt>
<trkpt lat="47.06676006" lon="6.64529085"><ele>970.588135</ele><time>2009-06-13T16:37:48Z</time></trkpt>
<trkpt lat="47.06680298" lon="6.64533377"><ele>970.588135</ele><time>2009-06-13T16:37:51Z</time></trkpt>
<trkpt lat="47.06691027" lon="6.64539814"><ele>972.030273</ele><time>2009-06-13T16:37:57Z</time></trkpt>
<trkpt lat="47.06710339" lon="6.64556980"><ele>974.433594</ele><time>2009-06-13T16:38:09Z</time></trkpt>
<trkpt lat="47.06714630" lon="6.64561272"><ele>974.914307</ele><time>2009-06-13T16:38:12Z</time></trkpt>
<trkpt lat="47.06729650" lon="6.64576292"><ele>976.836914</ele><time>2009-06-13T16:38:22Z</time></trkpt>
<trkpt lat="47.06755400" lon="6.64597750"><ele>978.759521</ele><time>2009-06-13T16:38:38Z</time></trkpt>
<trkpt lat="47.06759691" lon="6.64602041"><ele>978.759521</ele><time>2009-06-13T16:38:41Z</time></trkpt>
<trkpt lat="47.06766129" lon="6.64604187"><ele>979.720703</ele><time>2009-06-13T16:38:44Z</time></trkpt>
<trkpt lat="47.06766129" lon="6.64606333"><ele>979.720703</ele><time>2009-06-13T16:38:45Z</time></trkpt>
<trkpt lat="47.06781149" lon="6.64614916"><ele>981.162842</ele><time>2009-06-13T16:38:53Z</time></trkpt>
<trkpt lat="47.06785440" lon="6.64617062"><ele>981.643311</ele><time>2009-06-13T16:38:56Z</time></trkpt>
<trkpt lat="47.06804752" lon="6.64625645"><ele>984.046631</ele><time>2009-06-13T16:39:06Z</time></trkpt>
<trkpt lat="47.06819773" lon="6.64627790"><ele>985.488525</ele><time>2009-06-13T16:39:14Z</time></trkpt>
<trkpt lat="47.06824064" lon="6.64627790"><ele>985.969238</ele><time>2009-06-13T16:39:16Z</time></trkpt>
<trkpt lat="47.06828356" lon="6.64629936"><ele>985.969238</ele><time>2009-06-13T16:39:18Z</time></trkpt>
<trkpt lat="47.06836939" lon="6.64629936"><ele>986.93042</ele><time>2009-06-13T16:39:22Z</time></trkpt>
<trkpt lat="47.06843376" lon="6.64632082"><ele>987.891846</ele><time>2009-06-13T16:39:25Z</time></trkpt>
<trkpt lat="47.06849813" lon="6.64632082"><ele>988.853516</ele><time>2009-06-13T16:39:28Z</time></trkpt>
<trkpt lat="47.06862688" lon="6.64636374"><ele>990.29541</ele><time>2009-06-13T16:39:34Z</time></trkpt>
<trkpt lat="47.06871271" lon="6.64640665"><ele>991.737305</ele><time>2009-06-13T16:39:39Z</time></trkpt>
<trkpt lat="47.06894875" lon="6.64651394"><ele>993.659912</ele><time>2009-06-13T16:39:53Z</time></trkpt>
<trkpt lat="47.06901312" lon="6.64653540"><ele>993.659912</ele><time>2009-06-13T16:39:57Z</time></trkpt>
<trkpt lat="47.06905603" lon="6.64653540"><ele>993.659912</ele><time>2009-06-13T16:39:59Z</time></trkpt>
<trkpt lat="47.06914186" lon="6.64655685"><ele>994.140625</ele><time>2009-06-13T16:40:03Z</time></trkpt>
<trkpt lat="47.06922770" lon="6.64657831"><ele>994.621094</ele><time>2009-06-13T16:40:08Z</time></trkpt>
<trkpt lat="47.06927061" lon="6.64659977"><ele>994.621094</ele><time>2009-06-13T16:40:10Z</time></trkpt>
<trkpt lat="47.06946373" lon="6.64664268"><ele>996.063232</ele><time>2009-06-13T16:40:21Z</time></trkpt>
<trkpt lat="47.06957102" lon="6.64670706"><ele>997.505127</ele><time>2009-06-13T16:40:27Z</time></trkpt>
<trkpt lat="47.06972122" lon="6.64679289"><ele>999.427734</ele><time>2009-06-13T16:40:36Z</time></trkpt>
<trkpt lat="47.07008600" lon="6.64709330"><ele>1002.792236</ele><time>2009-06-13T16:40:57Z</time></trkpt>
<trkpt lat="47.07012892" lon="6.64711475"><ele>1002.792236</ele><time>2009-06-13T16:40:59Z</time></trkpt>
<trkpt lat="47.07017183" lon="6.64715767"><ele>1002.311523</ele><time>2009-06-13T16:41:02Z</time></trkpt>
<trkpt lat="47.07021475" lon="6.64720058"><ele>1002.792236</ele><time>2009-06-13T16:41:05Z</time></trkpt>
<trkpt lat="47.07025766" lon="6.64726496"><ele>1003.272949</ele><time>2009-06-13T16:41:08Z</time></trkpt>
<trkpt lat="47.07036495" lon="6.64737225"><ele>1004.715088</ele><time>2009-06-13T16:41:15Z</time></trkpt>
<trkpt lat="47.07038641" lon="6.64741516"><ele>1005.195801</ele><time>2009-06-13T16:41:17Z</time></trkpt>
<trkpt lat="47.07057953" lon="6.64762974"><ele>1008.079834</ele><time>2009-06-13T16:41:31Z</time></trkpt>
<trkpt lat="47.07064390" lon="6.64771557"><ele>1008.560303</ele><time>2009-06-13T16:41:36Z</time></trkpt>
<trkpt lat="47.07068682" lon="6.64775848"><ele>1009.041016</ele><time>2009-06-13T16:41:39Z</time></trkpt>
<trkpt lat="47.07072973" lon="6.64780140"><ele>1009.521729</ele><time>2009-06-13T16:41:42Z</time></trkpt>
<trkpt lat="47.07083702" lon="6.64793015"><ele>1010.963623</ele><time>2009-06-13T16:41:50Z</time></trkpt>
<trkpt lat="47.07090139" lon="6.64799452"><ele>1011.444336</ele><time>2009-06-13T16:41:54Z</time></trkpt>
<trkpt lat="47.07098722" lon="6.64808035"><ele>1012.88623</ele><time>2009-06-13T16:41:59Z</time></trkpt>
<trkpt lat="47.07111597" lon="6.64825201"><ele>1014.328125</ele><time>2009-06-13T16:42:08Z</time></trkpt>
<trkpt lat="47.07115889" lon="6.64829493"><ele>1014.328125</ele><time>2009-06-13T16:42:11Z</time></trkpt>
<trkpt lat="47.07122326" lon="6.64833784"><ele>1014.808838</ele><time>2009-06-13T16:42:14Z</time></trkpt>
<trkpt lat="47.07126617" lon="6.64838076"><ele>1015.289551</ele><time>2009-06-13T16:42:17Z</time></trkpt>
<trkpt lat="47.07128763" lon="6.64842367"><ele>1015.770264</ele><time>2009-06-13T16:42:19Z</time></trkpt>
<trkpt lat="47.07135201" lon="6.64850950"><ele>1015.770264</ele><time>2009-06-13T16:42:23Z</time></trkpt>
<trkpt lat="47.07141638" lon="6.64857388"><ele>1016.250732</ele><time>2009-06-13T16:42:27Z</time></trkpt>
<trkpt lat="47.07150221" lon="6.64868116"><ele>1017.212158</ele><time>2009-06-13T16:42:33Z</time></trkpt>
<trkpt lat="47.07165241" lon="6.64883137"><ele>1019.134766</ele><time>2009-06-13T16:42:43Z</time></trkpt>
<trkpt lat="47.07169533" lon="6.64887428"><ele>1020.096191</ele><time>2009-06-13T16:42:46Z</time></trkpt>
<trkpt lat="47.07173824" lon="6.64891720"><ele>1020.096191</ele><time>2009-06-13T16:42:48Z</time></trkpt>
<trkpt lat="47.07175970" lon="6.64896011"><ele>1021.057617</ele><time>2009-06-13T16:42:51Z</time></trkpt>
<trkpt lat="47.07184553" lon="6.64904594"><ele>1021.538086</ele><time>2009-06-13T16:42:56Z</time></trkpt>
<trkpt lat="47.07188845" lon="6.64908886"><ele>1022.018799</ele><time>2009-06-13T16:42:59Z</time></trkpt>
<trkpt lat="47.07193136" lon="6.64915323"><ele>1022.018799</ele><time>2009-06-13T16:43:02Z</time></trkpt>
<trkpt lat="47.07197428" lon="6.64921761"><ele>1022.499512</ele><time>2009-06-13T16:43:05Z</time></trkpt>
<trkpt lat="47.07199574" lon="6.64923906"><ele>1022.499512</ele><time>2009-06-13T16:43:07Z</time></trkpt>
<trkpt lat="47.07201719" lon="6.64928198"><ele>1022.980225</ele><time>2009-06-13T16:43:09Z</time></trkpt>
<trkpt lat="47.07208157" lon="6.64934635"><ele>1023.460938</ele><time>2009-06-13T16:43:12Z</time></trkpt>
<trkpt lat="47.07210302" lon="6.64938927"><ele>1023.941406</ele><time>2009-06-13T16:43:14Z</time></trkpt>
<trkpt lat="47.07214594" lon="6.64943218"><ele>1023.941406</ele><time>2009-06-13T16:43:16Z</time></trkpt>
<trkpt lat="47.07223177" lon="6.64953947"><ele>1024.902832</ele><time>2009-06-13T16:43:21Z</time></trkpt>
<trkpt lat="47.07229614" lon="6.64960384"><ele>1024.902832</ele><time>2009-06-13T16:43:25Z</time></trkpt>
<trkpt lat="47.07238197" lon="6.64973259"><ele>1026.344727</ele><time>2009-06-13T16:43:31Z</time></trkpt>
<trkpt lat="47.07268238" lon="6.65016174"><ele>1028.748047</ele><time>2009-06-13T16:43:51Z</time></trkpt>
<trkpt lat="47.07272530" lon="6.65022612"><ele>1029.709229</ele><time>2009-06-13T16:43:54Z</time></trkpt>
<trkpt lat="47.07309008" lon="6.65080547"><ele>1031.151367</ele><time>2009-06-13T16:44:16Z</time></trkpt>
<trkpt lat="47.07332611" lon="6.65117025"><ele>1032.112549</ele><time>2009-06-13T16:44:31Z</time></trkpt>
<trkpt lat="47.07339048" lon="6.65125608"><ele>1032.593262</ele><time>2009-06-13T16:44:34Z</time></trkpt>
<trkpt lat="47.07341194" lon="6.65132046"><ele>1032.593262</ele><time>2009-06-13T16:44:36Z</time></trkpt>
<trkpt lat="47.07349777" lon="6.65140629"><ele>1032.593262</ele><time>2009-06-13T16:44:40Z</time></trkpt>
<trkpt lat="47.07351923" lon="6.65147066"><ele>1033.07373</ele><time>2009-06-13T16:44:42Z</time></trkpt>
<trkpt lat="47.07366943" lon="6.65181398"><ele>1034.035156</ele><time>2009-06-13T16:44:52Z</time></trkpt>
<trkpt lat="47.07379818" lon="6.65215731"><ele>1036.438721</ele><time>2009-06-13T16:45:03Z</time></trkpt>
<trkpt lat="47.07379818" lon="6.65228605"><ele>1036.919189</ele><time>2009-06-13T16:45:08Z</time></trkpt>
<trkpt lat="47.07381964" lon="6.65230751"><ele>1039.803223</ele><time>2009-06-13T16:45:33Z</time></trkpt>
<trkpt lat="47.07379818" lon="6.65232897"><ele>1039.32251</ele><time>2009-06-13T16:45:37Z</time></trkpt>
<trkpt lat="47.07360506" lon="6.65241480"><ele>1038.361328</ele><time>2009-06-13T16:45:45Z</time></trkpt>
<trkpt lat="47.07341194" lon="6.65245771"><ele>1037.399902</ele><time>2009-06-13T16:45:49Z</time></trkpt>
<trkpt lat="47.07319736" lon="6.65265083"><ele>1035.477051</ele><time>2009-06-13T16:45:53Z</time></trkpt>
<trkpt lat="47.07259655" lon="6.65353060"><ele>1031.631836</ele><time>2009-06-13T16:46:03Z</time></trkpt>
<trkpt lat="47.07199574" lon="6.65447474"><ele>1029.709229</ele><time>2009-06-13T16:46:13Z</time></trkpt>
<trkpt lat="47.07180262" lon="6.65498972"><ele>1026.344727</ele><time>2009-06-13T16:46:18Z</time></trkpt>
<trkpt lat="47.07143784" lon="6.65513992"><ele>1022.018799</ele><time>2009-06-13T16:46:24Z</time></trkpt>
<trkpt lat="47.07120180" lon="6.65498972"><ele>1019.615479</ele><time>2009-06-13T16:46:27Z</time></trkpt>
<trkpt lat="47.07042933" lon="6.65445328"><ele>1012.405518</ele><time>2009-06-13T16:46:36Z</time></trkpt>
<trkpt lat="47.07034349" lon="6.65443182"><ele>1011.444336</ele><time>2009-06-13T16:46:38Z</time></trkpt>
<trkpt lat="47.07021475" lon="6.65479660"><ele>1010.002197</ele><time>2009-06-13T16:46:43Z</time></trkpt>
<trkpt lat="47.07025766" lon="6.65501118"><ele>1009.521729</ele><time>2009-06-13T16:46:45Z</time></trkpt>
<trkpt lat="47.07060099" lon="6.65659904"><ele>1008.560303</ele><time>2009-06-13T16:46:57Z</time></trkpt>
<trkpt lat="47.07085848" lon="6.65765047"><ele>1004.234619</ele><time>2009-06-13T16:47:06Z</time></trkpt>
<trkpt lat="47.07107306" lon="6.65838003"><ele>1001.350342</ele><time>2009-06-13T16:47:12Z</time></trkpt>
<trkpt lat="47.07113743" lon="6.65874481"><ele>1000.38916</ele><time>2009-06-13T16:47:15Z</time></trkpt>
<trkpt lat="47.07165241" lon="6.65960312"><ele>994.621094</ele><time>2009-06-13T16:47:23Z</time></trkpt>
<trkpt lat="47.07195282" lon="6.65992498"><ele>991.737305</ele><time>2009-06-13T16:47:27Z</time></trkpt>
<trkpt lat="47.07208157" lon="6.66011810"><ele>990.775879</ele><time>2009-06-13T16:47:29Z</time></trkpt>
<trkpt lat="47.07236052" lon="6.66108370"><ele>985.969238</ele><time>2009-06-13T16:47:37Z</time></trkpt>
<trkpt lat="47.07233906" lon="6.66232824"><ele>983.085205</ele><time>2009-06-13T16:47:48Z</time></trkpt>
<trkpt lat="47.07223177" lon="6.66391611"><ele>975.394775</ele><time>2009-06-13T16:48:02Z</time></trkpt>
<trkpt lat="47.07229614" lon="6.66428089"><ele>972.991699</ele><time>2009-06-13T16:48:05Z</time></trkpt>
<trkpt lat="47.07236052" lon="6.66451693"><ele>972.510986</ele><time>2009-06-13T16:48:07Z</time></trkpt>
<trkpt lat="47.07281113" lon="6.66539669"><ele>972.510986</ele><time>2009-06-13T16:48:18Z</time></trkpt>
<trkpt lat="47.07354069" lon="6.66646957"><ele>968.665527</ele><time>2009-06-13T16:48:33Z</time></trkpt>
<trkpt lat="47.07362652" lon="6.66664124"><ele>968.665527</ele><time>2009-06-13T16:48:35Z</time></trkpt>
<trkpt lat="47.07386255" lon="6.66747808"><ele>965.301025</ele><time>2009-06-13T16:48:43Z</time></trkpt>
<trkpt lat="47.07381964" lon="6.66810036"><ele>964.820313</ele><time>2009-06-13T16:48:49Z</time></trkpt>
<trkpt lat="47.07375526" lon="6.66829348"><ele>964.3396</ele><time>2009-06-13T16:48:51Z</time></trkpt>
<trkpt lat="47.07336903" lon="6.66861534"><ele>961.936523</ele><time>2009-06-13T16:48:57Z</time></trkpt>
<trkpt lat="47.07321882" lon="6.66870117"><ele>961.455811</ele><time>2009-06-13T16:48:59Z</time></trkpt>
<trkpt lat="47.07300425" lon="6.66921616"><ele>958.571777</ele><time>2009-06-13T16:49:04Z</time></trkpt>
<trkpt lat="47.07281113" lon="6.67007446"><ele>955.207031</ele><time>2009-06-13T16:49:11Z</time></trkpt>
<trkpt lat="47.07278967" lon="6.67035341"><ele>954.24585</ele><time>2009-06-13T16:49:13Z</time></trkpt>
<trkpt lat="47.07304716" lon="6.67140484"><ele>951.361816</ele><time>2009-06-13T16:49:21Z</time></trkpt>
<trkpt lat="47.07306862" lon="6.67153358"><ele>950.881104</ele><time>2009-06-13T16:49:22Z</time></trkpt>
<trkpt lat="47.07311153" lon="6.67194128"><ele>950.400635</ele><time>2009-06-13T16:49:25Z</time></trkpt>
<trkpt lat="47.07319736" lon="6.67275667"><ele>948.477783</ele><time>2009-06-13T16:49:31Z</time></trkpt>
<trkpt lat="47.07356215" lon="6.67445183"><ele>945.113281</ele><time>2009-06-13T16:49:45Z</time></trkpt>
<trkpt lat="47.07416296" lon="6.67552471"><ele>940.306885</ele><time>2009-06-13T16:49:56Z</time></trkpt>
<trkpt lat="47.07433462" lon="6.67586803"><ele>938.384033</ele><time>2009-06-13T16:49:59Z</time></trkpt>
<trkpt lat="47.07444191" lon="6.67627573"><ele>936.461426</ele><time>2009-06-13T16:50:02Z</time></trkpt>
<trkpt lat="47.07480669" lon="6.67797089"><ele>933.577393</ele><time>2009-06-13T16:50:15Z</time></trkpt>
<trkpt lat="47.07487106" lon="6.67814255"><ele>933.09668</ele><time>2009-06-13T16:50:17Z</time></trkpt>
<trkpt lat="47.07506418" lon="6.67837858"><ele>930.212891</ele><time>2009-06-13T16:50:20Z</time></trkpt>
<trkpt lat="47.07512856" lon="6.67846441"><ele>929.732178</ele><time>2009-06-13T16:50:21Z</time></trkpt>
<trkpt lat="47.07527876" lon="6.67906523"><ele>928.290283</ele><time>2009-06-13T16:50:26Z</time></trkpt>
<trkpt lat="47.07553625" lon="6.68056726"><ele>926.848389</ele><time>2009-06-13T16:50:40Z</time></trkpt>
<trkpt lat="47.07553625" lon="6.68065310"><ele>926.367676</ele><time>2009-06-13T16:50:41Z</time></trkpt>
<trkpt lat="47.07530022" lon="6.68084621"><ele>924.445068</ele><time>2009-06-13T16:50:47Z</time></trkpt>
<trkpt lat="47.07508564" lon="6.68061018"><ele>922.522217</ele><time>2009-06-13T16:50:51Z</time></trkpt>
<trkpt lat="47.07489252" lon="6.68041706"><ele>920.599609</ele><time>2009-06-13T16:50:55Z</time></trkpt>
<trkpt lat="47.07472086" lon="6.68030977"><ele>919.157715</ele><time>2009-06-13T16:50:59Z</time></trkpt>
<trkpt lat="47.07461357" lon="6.68030977"><ele>918.196289</ele><time>2009-06-13T16:51:01Z</time></trkpt>
<trkpt lat="47.07396984" lon="6.68037415"><ele>913.870361</ele><time>2009-06-13T16:51:10Z</time></trkpt>
<trkpt lat="47.07326174" lon="6.68043852"><ele>908.583252</ele><time>2009-06-13T16:51:20Z</time></trkpt>
<trkpt lat="47.07315445" lon="6.68048143"><ele>907.621826</ele><time>2009-06-13T16:51:22Z</time></trkpt>
<trkpt lat="47.07263947" lon="6.68099642"><ele>899.931396</ele><time>2009-06-13T16:51:30Z</time></trkpt>
<trkpt lat="47.07244635" lon="6.68116808"><ele>897.528076</ele><time>2009-06-13T16:51:33Z</time></trkpt>
<trkpt lat="47.07201719" lon="6.68125391"><ele>891.76001</ele><time>2009-06-13T16:51:38Z</time></trkpt>
<trkpt lat="47.07100868" lon="6.68138266"><ele>884.550293</ele><time>2009-06-13T16:51:49Z</time></trkpt>
<trkpt lat="47.07034349" lon="6.68121099"><ele>879.743652</ele><time>2009-06-13T16:51:57Z</time></trkpt>
<trkpt lat="47.07004309" lon="6.68078184"><ele>877.340576</ele><time>2009-06-13T16:52:02Z</time></trkpt>
<trkpt lat="47.06991434" lon="6.68054581"><ele>875.41748</ele><time>2009-06-13T16:52:05Z</time></trkpt>
<trkpt lat="47.06982851" lon="6.68045998"><ele>874.456299</ele><time>2009-06-13T16:52:07Z</time></trkpt>
<trkpt lat="47.06976414" lon="6.68065310"><ele>873.014404</ele><time>2009-06-13T16:52:12Z</time></trkpt>
<trkpt lat="47.06980705" lon="6.68086767"><ele>872.052979</ele><time>2009-06-13T16:52:15Z</time></trkpt>
<trkpt lat="47.06991434" lon="6.68114662"><ele>871.572266</ele><time>2009-06-13T16:52:19Z</time></trkpt>
<trkpt lat="47.06997871" lon="6.68136120"><ele>871.091797</ele><time>2009-06-13T16:52:22Z</time></trkpt>
<trkpt lat="47.07006454" lon="6.68155432"><ele>870.611084</ele><time>2009-06-13T16:52:25Z</time></trkpt>
<trkpt lat="47.07021475" lon="6.68174744"><ele>869.649902</ele><time>2009-06-13T16:52:29Z</time></trkpt>
<trkpt lat="47.07064390" lon="6.68219805"><ele>869.169189</ele><time>2009-06-13T16:52:39Z</time></trkpt>
<trkpt lat="47.07077265" lon="6.68236971"><ele>868.688477</ele><time>2009-06-13T16:52:42Z</time></trkpt>
<trkpt lat="47.07068682" lon="6.68339968"><ele>864.843262</ele><time>2009-06-13T16:52:52Z</time></trkpt>
<trkpt lat="47.07079411" lon="6.68462276"><ele>862.920654</ele><time>2009-06-13T16:53:05Z</time></trkpt>
<trkpt lat="47.07070827" lon="6.68496609"><ele>860.998047</ele><time>2009-06-13T16:53:09Z</time></trkpt>
<trkpt lat="47.07066536" lon="6.68507338"><ele>860.517334</ele><time>2009-06-13T16:53:10Z</time></trkpt>
<trkpt lat="47.07060099" lon="6.68537378"><ele>858.114014</ele><time>2009-06-13T16:53:13Z</time></trkpt>
<trkpt lat="47.07057953" lon="6.68545961"><ele>857.152588</ele><time>2009-06-13T16:53:14Z</time></trkpt>
<trkpt lat="47.07030058" lon="6.68560982"><ele>852.345947</ele><time>2009-06-13T16:53:20Z</time></trkpt>
<trkpt lat="47.07021475" lon="6.68537378"><ele>850.904053</ele><time>2009-06-13T16:53:23Z</time></trkpt>
<trkpt lat="47.07008600" lon="6.68496609"><ele>848.020264</ele><time>2009-06-13T16:53:28Z</time></trkpt>
<trkpt lat="47.06980705" lon="6.68498755"><ele>845.13623</ele><time>2009-06-13T16:53:35Z</time></trkpt>
<trkpt lat="47.06976414" lon="6.68535233"><ele>841.290771</ele><time>2009-06-13T16:53:39Z</time></trkpt>
<trkpt lat="47.06974268" lon="6.68552399"><ele>839.848877</ele><time>2009-06-13T16:53:41Z</time></trkpt>
<trkpt lat="47.06942081" lon="6.68565273"><ele>832.158447</ele><time>2009-06-13T16:53:47Z</time></trkpt>
<trkpt lat="47.06922770" lon="6.68537378"><ele>830.23584</ele><time>2009-06-13T16:53:50Z</time></trkpt>
<trkpt lat="47.06914186" lon="6.68518066"><ele>828.793945</ele><time>2009-06-13T16:53:52Z</time></trkpt>
<trkpt lat="47.06890583" lon="6.68466568"><ele>824.467773</ele><time>2009-06-13T16:53:59Z</time></trkpt>
<trkpt lat="47.06864834" lon="6.68490171"><ele>820.141846</ele><time>2009-06-13T16:54:05Z</time></trkpt>
<trkpt lat="47.06860542" lon="6.68511629"><ele>818.219238</ele><time>2009-06-13T16:54:07Z</time></trkpt>
<trkpt lat="47.06851959" lon="6.68599606"><ele>811.48999</ele><time>2009-06-13T16:54:16Z</time></trkpt>
<trkpt lat="47.06849813" lon="6.68606043"><ele>811.009277</ele><time>2009-06-13T16:54:17Z</time></trkpt>
<trkpt lat="47.06836939" lon="6.68636084"><ele>808.605957</ele><time>2009-06-13T16:54:21Z</time></trkpt>
<trkpt lat="47.06826210" lon="6.68646812"><ele>807.164063</ele><time>2009-06-13T16:54:23Z</time></trkpt>
<trkpt lat="47.06789732" lon="6.68687582"><ele>800.915527</ele><time>2009-06-13T16:54:31Z</time></trkpt>
<trkpt lat="47.06776857" lon="6.68702602"><ele>797.551025</ele><time>2009-06-13T16:54:34Z</time></trkpt>
<trkpt lat="47.06746817" lon="6.68700457"><ele>790.821533</ele><time>2009-06-13T16:54:40Z</time></trkpt>
<trkpt lat="47.06731796" lon="6.68691874"><ele>788.89917</ele><time>2009-06-13T16:54:43Z</time></trkpt>
<trkpt lat="47.06723213" lon="6.68691874"><ele>787.937744</ele><time>2009-06-13T16:54:45Z</time></trkpt>
<trkpt lat="47.06716776" lon="6.68724060"><ele>785.534424</ele><time>2009-06-13T16:54:52Z</time></trkpt>
<trkpt lat="47.06718922" lon="6.68728352"><ele>785.534424</ele><time>2009-06-13T16:54:53Z</time></trkpt>
<trkpt lat="47.06721067" lon="6.68736935"><ele>785.534424</ele><time>2009-06-13T16:54:55Z</time></trkpt>
<trkpt lat="47.06725359" lon="6.68751955"><ele>785.053955</ele><time>2009-06-13T16:54:58Z</time></trkpt>
<trkpt lat="47.06729650" lon="6.68758392"><ele>785.053955</ele><time>2009-06-13T16:55:00Z</time></trkpt>
<trkpt lat="47.06731796" lon="6.68766975"><ele>784.573242</ele><time>2009-06-13T16:55:02Z</time></trkpt>
<trkpt lat="47.06751108" lon="6.68829203"><ele>783.131104</ele><time>2009-06-13T16:55:15Z</time></trkpt>
<trkpt lat="47.06759691" lon="6.68848515"><ele>783.611816</ele><time>2009-06-13T16:55:20Z</time></trkpt>
<trkpt lat="47.06761837" lon="6.68857098"><ele>783.611816</ele><time>2009-06-13T16:55:22Z</time></trkpt>
<trkpt lat="47.06766129" lon="6.68867826"><ele>783.611816</ele><time>2009-06-13T16:55:25Z</time></trkpt>
<trkpt lat="47.06770420" lon="6.68878555"><ele>784.092529</ele><time>2009-06-13T16:55:28Z</time></trkpt>
<trkpt lat="47.06776857" lon="6.68887138"><ele>784.573242</ele><time>2009-06-13T16:55:31Z</time></trkpt>
<trkpt lat="47.06781149" lon="6.68891430"><ele>784.573242</ele><time>2009-06-13T16:55:33Z</time></trkpt>
<trkpt lat="47.06789732" lon="6.68900013"><ele>785.053955</ele><time>2009-06-13T16:55:37Z</time></trkpt>
<trkpt lat="47.06804752" lon="6.68919325"><ele>786.015137</ele><time>2009-06-13T16:55:45Z</time></trkpt>
<trkpt lat="47.06811190" lon="6.68932199"><ele>786.015137</ele><time>2009-06-13T16:55:49Z</time></trkpt>
<trkpt lat="47.06821918" lon="6.68951511"><ele>786.49585</ele><time>2009-06-13T16:55:56Z</time></trkpt>
<trkpt lat="47.06860542" lon="6.69013739"><ele>788.418457</ele><time>2009-06-13T16:56:17Z</time></trkpt>
<trkpt lat="47.06877708" lon="6.69039488"><ele>789.379639</ele><time>2009-06-13T16:56:26Z</time></trkpt>
<trkpt lat="47.06884146" lon="6.69052362"><ele>789.860352</ele><time>2009-06-13T16:56:30Z</time></trkpt>
<trkpt lat="47.06892729" lon="6.69067383"><ele>790.341064</ele><time>2009-06-13T16:56:35Z</time></trkpt>
<trkpt lat="47.06914186" lon="6.69097424"><ele>792.744385</ele><time>2009-06-13T16:56:46Z</time></trkpt>
<trkpt lat="47.06920624" lon="6.69108152"><ele>793.705566</ele><time>2009-06-13T16:56:50Z</time></trkpt>
<trkpt lat="47.06922770" lon="6.69110298"><ele>793.705566</ele><time>2009-06-13T16:56:51Z</time></trkpt>
<trkpt lat="47.06937790" lon="6.69131756"><ele>795.147461</ele><time>2009-06-13T16:56:59Z</time></trkpt>
<trkpt lat="47.06944227" lon="6.69142485"><ele>796.589844</ele><time>2009-06-13T16:57:03Z</time></trkpt>
<trkpt lat="47.06984997" lon="6.69191837"><ele>797.551025</ele><time>2009-06-13T16:57:24Z</time></trkpt>
<trkpt lat="47.06995726" lon="6.69211149"><ele>797.070313</ele><time>2009-06-13T16:57:30Z</time></trkpt>
<trkpt lat="47.07000017" lon="6.69224024"><ele>798.99292</ele><time>2009-06-13T16:57:33Z</time></trkpt>
<trkpt lat="47.07002163" lon="6.69228315"><ele>798.512207</ele><time>2009-06-13T16:57:34Z</time></trkpt>
<trkpt lat="47.07006454" lon="6.69247627"><ele>798.512207</ele><time>2009-06-13T16:57:38Z</time></trkpt>
<trkpt lat="47.07017183" lon="6.69299126"><ele>798.99292</ele><time>2009-06-13T16:57:48Z</time></trkpt>
<trkpt lat="47.07021475" lon="6.69316292"><ele>798.99292</ele><time>2009-06-13T16:57:51Z</time></trkpt>
<trkpt lat="47.07027912" lon="6.69359207"><ele>799.954346</ele><time>2009-06-13T16:57:59Z</time></trkpt>
<trkpt lat="47.07021475" lon="6.69430017"><ele>798.031738</ele><time>2009-06-13T16:58:10Z</time></trkpt>
<trkpt lat="47.07019329" lon="6.69438601"><ele>797.070313</ele><time>2009-06-13T16:58:13Z</time></trkpt>
<trkpt lat="47.07015038" lon="6.69451475"><ele>795.147461</ele><time>2009-06-13T16:58:16Z</time></trkpt>
<trkpt lat="47.07010746" lon="6.69468641"><ele>791.782959</ele><time>2009-06-13T16:58:21Z</time></trkpt>
<trkpt lat="47.07008600" lon="6.69477224"><ele>789.860352</ele><time>2009-06-13T16:58:23Z</time></trkpt>
<trkpt lat="47.07002163" lon="6.69498682"><ele>786.976318</ele><time>2009-06-13T16:58:29Z</time></trkpt>
<trkpt lat="47.07000017" lon="6.69507265"><ele>785.534424</ele><time>2009-06-13T16:58:35Z</time></trkpt>
<trkpt lat="47.07000017" lon="6.69509411"><ele>785.534424</ele><time>2009-06-13T16:58:42Z</time></trkpt>
<trkpt lat="47.06997871" lon="6.69509411"><ele>785.053955</ele><time>2009-06-13T16:58:47Z</time></trkpt>
<trkpt lat="47.06997871" lon="6.69511557"><ele>785.053955</ele><time>2009-06-13T16:59:28Z</time></trkpt>
<trkpt lat="47.06997871" lon="6.69513702"><ele>784.573242</ele><time>2009-06-13T16:59:39Z</time></trkpt>
<trkpt lat="47.07000017" lon="6.69509411"><ele>784.573242</ele><time>2009-06-13T16:59:49Z</time></trkpt>
<trkpt lat="47.07000017" lon="6.69509411"><ele>785.053955</ele><time>2009-06-13T16:59:52Z</time></trkpt>
<trkpt lat="47.07000017" lon="6.69509411"><ele>784.573242</ele><time>2009-06-13T16:59:53Z</time></trkpt>
<trkpt lat="47.06997871" lon="6.69509411"><ele>784.573242</ele><time>2009-06-13T16:59:56Z</time></trkpt>
<trkpt lat="47.06997871" lon="6.69509411"><ele>784.573242</ele><time>2009-06-13T16:59:59Z</time></trkpt>
<trkpt lat="47.06997871" lon="6.69505119"><ele>784.573242</ele><time>2009-06-13T17:00:19Z</time></trkpt>
<trkpt lat="47.06997871" lon="6.69505119"><ele>784.573242</ele><time>2009-06-13T17:00:22Z</time></trkpt>
<trkpt lat="47.07000017" lon="6.69498682"><ele>786.49585</ele><time>2009-06-13T17:01:04Z</time></trkpt>
<trkpt lat="47.06995726" lon="6.69490099"><ele>786.976318</ele><time>2009-06-13T17:02:26Z</time></trkpt>
<trkpt lat="47.06991434" lon="6.69487953"><ele>785.534424</ele><time>2009-06-13T17:04:12Z</time></trkpt>
<trkpt lat="47.06991434" lon="6.69487953"><ele>785.534424</ele><time>2009-06-13T17:04:12Z</time></trkpt>
<trkpt lat="47.06991434" lon="6.69487953"><ele>785.534424</ele><time>2009-06-13T17:04:12Z</time></trkpt>
<trkpt lat="47.06995726" lon="6.69492245"><ele>789.379639</ele><time>2009-06-13T17:05:29Z</time></trkpt>
<trkpt lat="47.06995726" lon="6.69496536"><ele>789.379639</ele><time>2009-06-13T17:07:29Z</time></trkpt>
<trkpt lat="47.06995726" lon="6.69496536"><ele>789.379639</ele><time>2009-06-13T17:07:34Z</time></trkpt>
<trkpt lat="47.06995726" lon="6.69496536"><ele>789.379639</ele><time>2009-06-13T17:07:43Z</time></trkpt>
<trkpt lat="47.04292059" lon="7.07841396"><ele>649.988525</ele><time>2009-06-14T09:42:36Z</time></trkpt>
<trkpt lat="47.04231977" lon="7.07886457"><ele>449.553711</ele><time>2009-06-14T09:43:42Z</time></trkpt>
<trkpt lat="47.04231977" lon="7.07886457"><ele>445.227661</ele><time>2009-06-14T09:46:11Z</time></trkpt>
<trkpt lat="47.04227686" lon="7.07888603"><ele>445.227661</ele><time>2009-06-14T09:46:14Z</time></trkpt>
<trkpt lat="47.04227686" lon="7.07890749"><ele>440.421265</ele><time>2009-06-14T09:47:13Z</time></trkpt>
<trkpt lat="47.04227686" lon="7.07895041"><ele>440.421265</ele><time>2009-06-14T09:47:16Z</time></trkpt>
<trkpt lat="47.04227686" lon="7.07895041"><ele>440.901855</ele><time>2009-06-14T09:47:18Z</time></trkpt>
<trkpt lat="47.04227686" lon="7.07903624"><ele>441.382446</ele><time>2009-06-14T09:47:22Z</time></trkpt>
<trkpt lat="47.04227686" lon="7.07907915"><ele>441.382446</ele><time>2009-06-14T09:47:24Z</time></trkpt>
<trkpt lat="47.04225540" lon="7.07912207"><ele>440.901855</ele><time>2009-06-14T09:47:26Z</time></trkpt>
<trkpt lat="47.04227686" lon="7.07918644"><ele>440.421265</ele><time>2009-06-14T09:47:29Z</time></trkpt>
<trkpt lat="47.04231977" lon="7.07916498"><ele>438.498535</ele><time>2009-06-14T09:47:34Z</time></trkpt>
<trkpt lat="47.04231977" lon="7.07914352"><ele>438.017822</ele><time>2009-06-14T09:47:35Z</time></trkpt>
<trkpt lat="47.04229832" lon="7.07907915"><ele>438.017822</ele><time>2009-06-14T09:47:40Z</time></trkpt>
<trkpt lat="47.04227686" lon="7.07907915"><ele>438.017822</ele><time>2009-06-14T09:47:41Z</time></trkpt>
<trkpt lat="47.04227686" lon="7.07903624"><ele>438.017822</ele><time>2009-06-14T09:47:43Z</time></trkpt>
<trkpt lat="47.04225540" lon="7.07899332"><ele>436.575928</ele><time>2009-06-14T09:47:45Z</time></trkpt>
<trkpt lat="47.04225540" lon="7.07895041"><ele>438.017822</ele><time>2009-06-14T09:47:48Z</time></trkpt>
<trkpt lat="47.04227686" lon="7.07895041"><ele>438.498535</ele><time>2009-06-14T09:47:54Z</time></trkpt>
<trkpt lat="47.04227686" lon="7.07895041"><ele>438.979126</ele><time>2009-06-14T09:48:07Z</time></trkpt>
<trkpt lat="47.04229832" lon="7.07895041"><ele>438.979126</ele><time>2009-06-14T09:48:10Z</time></trkpt>
<trkpt lat="47.04229832" lon="7.07895041"><ele>438.498535</ele><time>2009-06-14T09:48:12Z</time></trkpt>
<trkpt lat="47.04229832" lon="7.07895041"><ele>438.498535</ele><time>2009-06-14T09:48:14Z</time></trkpt>
<trkpt lat="47.04229832" lon="7.07903624"><ele>438.979126</ele><time>2009-06-14T09:48:19Z</time></trkpt>
<trkpt lat="47.04238415" lon="7.07916498"><ele>436.095215</ele><time>2009-06-14T09:48:27Z</time></trkpt>
<trkpt lat="47.04236269" lon="7.07916498"><ele>433.691895</ele><time>2009-06-14T09:48:33Z</time></trkpt>
<trkpt lat="47.04242706" lon="7.07892895"><ele>433.211304</ele><time>2009-06-14T09:48:40Z</time></trkpt>
<trkpt lat="47.04240561" lon="7.07865000"><ele>434.172607</ele><time>2009-06-14T09:48:46Z</time></trkpt>
<trkpt lat="47.04231977" lon="7.07762003"><ele>436.575928</ele><time>2009-06-14T09:49:06Z</time></trkpt>
<trkpt lat="47.04206228" lon="7.07678318"><ele>438.017822</ele><time>2009-06-14T09:49:23Z</time></trkpt>
<trkpt lat="47.04201937" lon="7.07669735"><ele>438.498535</ele><time>2009-06-14T09:49:25Z</time></trkpt>
<trkpt lat="47.04159021" lon="7.07596779"><ele>439.459717</ele><time>2009-06-14T09:49:42Z</time></trkpt>
<trkpt lat="47.04096794" lon="7.07493782"><ele>438.979126</ele><time>2009-06-14T09:50:03Z</time></trkpt>
<trkpt lat="47.04028130" lon="7.07354307"><ele>438.498535</ele><time>2009-06-14T09:50:28Z</time></trkpt>
<trkpt lat="47.04004526" lon="7.07302809"><ele>439.459717</ele><time>2009-06-14T09:50:38Z</time></trkpt>
<trkpt lat="47.04021692" lon="7.07272768"><ele>438.498535</ele><time>2009-06-14T09:50:45Z</time></trkpt>
<trkpt lat="47.04043150" lon="7.07255602"><ele>437.537109</ele><time>2009-06-14T09:50:52Z</time></trkpt>
<trkpt lat="47.04043150" lon="7.07253456"><ele>436.575928</ele><time>2009-06-14T09:51:06Z</time></trkpt>
<trkpt lat="47.04049587" lon="7.07234144"><ele>436.095215</ele><time>2009-06-14T09:51:16Z</time></trkpt>
<trkpt lat="47.04056025" lon="7.07229853"><ele>436.575928</ele><time>2009-06-14T09:51:19Z</time></trkpt>
<trkpt lat="47.04062462" lon="7.07225561"><ele>436.575928</ele><time>2009-06-14T09:51:22Z</time></trkpt>
<trkpt lat="47.04071045" lon="7.07221270"><ele>436.575928</ele><time>2009-06-14T09:51:25Z</time></trkpt>
<trkpt lat="47.04120398" lon="7.07184792"><ele>436.095215</ele><time>2009-06-14T09:51:44Z</time></trkpt>
<trkpt lat="47.04197645" lon="7.07129002"><ele>436.095215</ele><time>2009-06-14T09:52:03Z</time></trkpt>
<trkpt lat="47.04294205" lon="7.07030296"><ele>436.095215</ele><time>2009-06-14T09:52:27Z</time></trkpt>
<trkpt lat="47.04341412" lon="7.06968069"><ele>436.095215</ele><time>2009-06-14T09:52:45Z</time></trkpt>
<trkpt lat="47.04341412" lon="7.06970215"><ele>435.614502</ele><time>2009-06-14T09:53:34Z</time></trkpt>
<trkpt lat="47.04341412" lon="7.06970215"><ele>433.691895</ele><time>2009-06-14T09:53:42Z</time></trkpt>
<trkpt lat="47.04343557" lon="7.06968069"><ele>434.65332</ele><time>2009-06-14T09:53:45Z</time></trkpt>
<trkpt lat="47.04345703" lon="7.06968069"><ele>436.575928</ele><time>2009-06-14T09:53:54Z</time></trkpt>
<trkpt lat="47.04358578" lon="7.06959486"><ele>437.056519</ele><time>2009-06-14T09:54:01Z</time></trkpt>
<trkpt lat="47.04410076" lon="7.06888676"><ele>438.979126</ele><time>2009-06-14T09:54:21Z</time></trkpt>
<trkpt lat="47.04468012" lon="7.06813574"><ele>440.901855</ele><time>2009-06-14T09:54:37Z</time></trkpt>
<trkpt lat="47.04538822" lon="7.06714869"><ele>442.824463</ele><time>2009-06-14T09:54:59Z</time></trkpt>
<trkpt lat="47.04618216" lon="7.06605434"><ele>441.863159</ele><time>2009-06-14T09:55:22Z</time></trkpt>
<trkpt lat="47.04701900" lon="7.06489563"><ele>437.537109</ele><time>2009-06-14T09:55:39Z</time></trkpt>
<trkpt lat="47.04738379" lon="7.06440210"><ele>436.575928</ele><time>2009-06-14T09:55:46Z</time></trkpt>
<trkpt lat="47.04779148" lon="7.06446648"><ele>435.614502</ele><time>2009-06-14T09:55:53Z</time></trkpt>
<trkpt lat="47.04783440" lon="7.06450939"><ele>435.614502</ele><time>2009-06-14T09:55:54Z</time></trkpt>
<trkpt lat="47.04862833" lon="7.06506729"><ele>435.614502</ele><time>2009-06-14T09:56:10Z</time></trkpt>
<trkpt lat="47.04950809" lon="7.06513166"><ele>436.095215</ele><time>2009-06-14T09:56:27Z</time></trkpt>
<trkpt lat="47.05004454" lon="7.06468105"><ele>438.017822</ele><time>2009-06-14T09:56:39Z</time></trkpt>
<trkpt lat="47.05023766" lon="7.06476688"><ele>438.017822</ele><time>2009-06-14T09:56:43Z</time></trkpt>
<trkpt lat="47.05105305" lon="7.06453085"><ele>438.017822</ele><time>2009-06-14T09:57:00Z</time></trkpt>
<trkpt lat="47.05176115" lon="7.06412315"><ele>438.498535</ele><time>2009-06-14T09:57:17Z</time></trkpt>
<trkpt lat="47.05201864" lon="7.06405878"><ele>438.498535</ele><time>2009-06-14T09:57:23Z</time></trkpt>
<trkpt lat="47.05229759" lon="7.06405878"><ele>437.537109</ele><time>2009-06-14T09:57:29Z</time></trkpt>
<trkpt lat="47.05246925" lon="7.06420898"><ele>437.537109</ele><time>2009-06-14T09:57:33Z</time></trkpt>
<trkpt lat="47.05255508" lon="7.06440210"><ele>436.575928</ele><time>2009-06-14T09:57:36Z</time></trkpt>
<trkpt lat="47.05266237" lon="7.06457376"><ele>436.095215</ele><time>2009-06-14T09:57:39Z</time></trkpt>
<trkpt lat="47.05291986" lon="7.06463814"><ele>434.65332</ele><time>2009-06-14T09:57:44Z</time></trkpt>
<trkpt lat="47.05382109" lon="7.06457376"><ele>433.211304</ele><time>2009-06-14T09:58:01Z</time></trkpt>
<trkpt lat="47.05388546" lon="7.06478834"><ele>433.211304</ele><time>2009-06-14T09:58:05Z</time></trkpt>
<trkpt lat="47.05399275" lon="7.06607580"><ele>431.288574</ele><time>2009-06-14T09:58:21Z</time></trkpt>
<trkpt lat="47.05403566" lon="7.06631184"><ele>430.807983</ele><time>2009-06-14T09:58:24Z</time></trkpt>
<trkpt lat="47.05442190" lon="7.06744909"><ele>431.288574</ele><time>2009-06-14T09:58:41Z</time></trkpt>
<trkpt lat="47.05433607" lon="7.06770658"><ele>431.769165</ele><time>2009-06-14T09:58:46Z</time></trkpt>
<trkpt lat="47.05367088" lon="7.06852198"><ele>432.730713</ele><time>2009-06-14T09:59:03Z</time></trkpt>
<trkpt lat="47.05326319" lon="7.06931591"><ele>433.211304</ele><time>2009-06-14T09:59:17Z</time></trkpt>
<trkpt lat="47.05270529" lon="7.07002401"><ele>433.691895</ele><time>2009-06-14T09:59:34Z</time></trkpt>
<trkpt lat="47.05193281" lon="7.07103252"><ele>432.730713</ele><time>2009-06-14T09:59:55Z</time></trkpt>
<trkpt lat="47.05120325" lon="7.07210541"><ele>434.172607</ele><time>2009-06-14T10:00:16Z</time></trkpt>
<trkpt lat="47.05064535" lon="7.07302809"><ele>434.172607</ele><time>2009-06-14T10:00:33Z</time></trkpt>
<trkpt lat="47.05034494" lon="7.07358599"><ele>434.65332</ele><time>2009-06-14T10:00:45Z</time></trkpt>
<trkpt lat="47.05032349" lon="7.07367182"><ele>434.172607</ele><time>2009-06-14T10:00:49Z</time></trkpt>
<trkpt lat="47.05030203" lon="7.07371473"><ele>434.172607</ele><time>2009-06-14T10:00:51Z</time></trkpt>
<trkpt lat="47.05032349" lon="7.07384348"><ele>434.172607</ele><time>2009-06-14T10:00:54Z</time></trkpt>
<trkpt lat="47.05075264" lon="7.07491636"><ele>432.25</ele><time>2009-06-14T10:01:16Z</time></trkpt>
<trkpt lat="47.05105305" lon="7.07530260"><ele>431.288574</ele><time>2009-06-14T10:01:25Z</time></trkpt>
<trkpt lat="47.05131054" lon="7.07521677"><ele>432.25</ele><time>2009-06-14T10:01:32Z</time></trkpt>
<trkpt lat="47.05137491" lon="7.07513094"><ele>432.25</ele><time>2009-06-14T10:01:34Z</time></trkpt>
<trkpt lat="47.05146074" lon="7.07500219"><ele>432.25</ele><time>2009-06-14T10:01:37Z</time></trkpt>
<trkpt lat="47.05197573" lon="7.07427263"><ele>433.211304</ele><time>2009-06-14T10:01:54Z</time></trkpt>
<trkpt lat="47.05270529" lon="7.07365036"><ele>434.172607</ele><time>2009-06-14T10:02:12Z</time></trkpt>
<trkpt lat="47.05337048" lon="7.07309246"><ele>434.172607</ele><time>2009-06-14T10:02:28Z</time></trkpt>
<trkpt lat="47.05367088" lon="7.07279205"><ele>435.133911</ele><time>2009-06-14T10:02:36Z</time></trkpt>
<trkpt lat="47.05433607" lon="7.07221270"><ele>432.730713</ele><time>2009-06-14T10:02:53Z</time></trkpt>
<trkpt lat="47.05440044" lon="7.07225561"><ele>432.25</ele><time>2009-06-14T10:02:56Z</time></trkpt>
<trkpt lat="47.05442190" lon="7.07227707"><ele>431.769165</ele><time>2009-06-14T10:02:57Z</time></trkpt>
<trkpt lat="47.05455065" lon="7.07236290"><ele>430.327271</ele><time>2009-06-14T10:03:02Z</time></trkpt>
<trkpt lat="47.05459356" lon="7.07236290"><ele>430.327271</ele><time>2009-06-14T10:03:03Z</time></trkpt>
<trkpt lat="47.05472231" lon="7.07240582"><ele>430.807983</ele><time>2009-06-14T10:03:06Z</time></trkpt>
<trkpt lat="47.05482960" lon="7.07244873"><ele>430.807983</ele><time>2009-06-14T10:03:09Z</time></trkpt>
<trkpt lat="47.05493689" lon="7.07251310"><ele>430.807983</ele><time>2009-06-14T10:03:12Z</time></trkpt>
<trkpt lat="47.05530167" lon="7.07279205"><ele>430.807983</ele><time>2009-06-14T10:03:22Z</time></trkpt>
<trkpt lat="47.05581665" lon="7.07362890"><ele>429.846558</ele><time>2009-06-14T10:03:39Z</time></trkpt>
<trkpt lat="47.05611706" lon="7.07412243"><ele>430.807983</ele><time>2009-06-14T10:03:49Z</time></trkpt>
<trkpt lat="47.05624580" lon="7.07403660"><ele>431.288574</ele><time>2009-06-14T10:03:53Z</time></trkpt>
<trkpt lat="47.05676079" lon="7.07350016"><ele>432.730713</ele><time>2009-06-14T10:04:09Z</time></trkpt>
<trkpt lat="47.05680370" lon="7.07326412"><ele>432.730713</ele><time>2009-06-14T10:04:13Z</time></trkpt>
<trkpt lat="47.05680370" lon="7.07309246"><ele>432.730713</ele><time>2009-06-14T10:04:17Z</time></trkpt>
<trkpt lat="47.05678225" lon="7.07300663"><ele>432.730713</ele><time>2009-06-14T10:04:20Z</time></trkpt>
<trkpt lat="47.05673933" lon="7.07296371"><ele>432.25</ele><time>2009-06-14T10:04:23Z</time></trkpt>
<trkpt lat="47.05669641" lon="7.07294226"><ele>432.25</ele><time>2009-06-14T10:04:25Z</time></trkpt>
<trkpt lat="47.05676079" lon="7.07294226"><ele>432.25</ele><time>2009-06-14T10:04:35Z</time></trkpt>
<trkpt lat="47.05682516" lon="7.07292080"><ele>432.25</ele><time>2009-06-14T10:04:38Z</time></trkpt>
<trkpt lat="47.05684662" lon="7.07292080"><ele>432.25</ele><time>2009-06-14T10:04:39Z</time></trkpt>
<trkpt lat="47.05697536" lon="7.07283497"><ele>432.730713</ele><time>2009-06-14T10:04:43Z</time></trkpt>
<trkpt lat="47.05716848" lon="7.07262039"><ele>433.211304</ele><time>2009-06-14T10:04:50Z</time></trkpt>
<trkpt lat="47.05731869" lon="7.07279205"><ele>432.730713</ele><time>2009-06-14T10:04:57Z</time></trkpt>
<trkpt lat="47.05742598" lon="7.07309246"><ele>432.25</ele><time>2009-06-14T10:05:03Z</time></trkpt>
<trkpt lat="47.05744743" lon="7.07332850"><ele>432.730713</ele><time>2009-06-14T10:05:07Z</time></trkpt>
<trkpt lat="47.05759764" lon="7.07380056"><ele>433.211304</ele><time>2009-06-14T10:05:15Z</time></trkpt>
<trkpt lat="47.05772638" lon="7.07399368"><ele>433.691895</ele><time>2009-06-14T10:05:19Z</time></trkpt>
<trkpt lat="47.05783367" lon="7.07412243"><ele>433.691895</ele><time>2009-06-14T10:05:22Z</time></trkpt>
<trkpt lat="47.05811262" lon="7.07440138"><ele>433.211304</ele><time>2009-06-14T10:05:29Z</time></trkpt>
<trkpt lat="47.05817699" lon="7.07470179"><ele>432.730713</ele><time>2009-06-14T10:05:33Z</time></trkpt>
<trkpt lat="47.05845594" lon="7.07620382"><ele>433.211304</ele><time>2009-06-14T10:05:52Z</time></trkpt>
<trkpt lat="47.05871344" lon="7.07746983"><ele>434.65332</ele><time>2009-06-14T10:06:10Z</time></trkpt>
<trkpt lat="47.05879927" lon="7.07789898"><ele>435.133911</ele><time>2009-06-14T10:06:16Z</time></trkpt>
<trkpt lat="47.05914259" lon="7.07910061"><ele>436.095215</ele><time>2009-06-14T10:06:34Z</time></trkpt>
<trkpt lat="47.05957174" lon="7.08015203"><ele>435.133911</ele><time>2009-06-14T10:06:51Z</time></trkpt>
<trkpt lat="47.06010818" lon="7.08152533"><ele>437.056519</ele><time>2009-06-14T10:07:13Z</time></trkpt>
<trkpt lat="47.06027985" lon="7.08193302"><ele>434.65332</ele><time>2009-06-14T10:07:19Z</time></trkpt>
<trkpt lat="47.06034422" lon="7.08214760"><ele>433.211304</ele><time>2009-06-14T10:07:22Z</time></trkpt>
<trkpt lat="47.06064463" lon="7.08309174"><ele>430.807983</ele><time>2009-06-14T10:07:35Z</time></trkpt>
<trkpt lat="47.06064463" lon="7.08337069"><ele>430.807983</ele><time>2009-06-14T10:07:39Z</time></trkpt>
<trkpt lat="47.06060171" lon="7.08390713"><ele>430.327271</ele><time>2009-06-14T10:07:46Z</time></trkpt>
<trkpt lat="47.06062317" lon="7.08414316"><ele>430.327271</ele><time>2009-06-14T10:07:49Z</time></trkpt>
<trkpt lat="47.06068754" lon="7.08435774"><ele>430.327271</ele><time>2009-06-14T10:07:52Z</time></trkpt>
<trkpt lat="47.06088066" lon="7.08493710"><ele>431.769165</ele><time>2009-06-14T10:08:01Z</time></trkpt>
<trkpt lat="47.06096649" lon="7.08519459"><ele>432.25</ele><time>2009-06-14T10:08:05Z</time></trkpt>
<trkpt lat="47.06118107" lon="7.08633184"><ele>433.691895</ele><time>2009-06-14T10:08:21Z</time></trkpt>
<trkpt lat="47.06124544" lon="7.08680391"><ele>433.691895</ele><time>2009-06-14T10:08:28Z</time></trkpt>
<trkpt lat="47.06109524" lon="7.08695412"><ele>434.65332</ele><time>2009-06-14T10:08:32Z</time></trkpt>
<trkpt lat="47.06100941" lon="7.08699703"><ele>434.65332</ele><time>2009-06-14T10:08:34Z</time></trkpt>
<trkpt lat="47.06103086" lon="7.08740473"><ele>434.172607</ele><time>2009-06-14T10:08:40Z</time></trkpt>
<trkpt lat="47.06113815" lon="7.08774805"><ele>434.172607</ele><time>2009-06-14T10:08:47Z</time></trkpt>
<trkpt lat="47.06115961" lon="7.08779097"><ele>434.172607</ele><time>2009-06-14T10:08:50Z</time></trkpt>
<trkpt lat="47.06111670" lon="7.08787680"><ele>434.65332</ele><time>2009-06-14T10:08:53Z</time></trkpt>
<trkpt lat="47.06066608" lon="7.08839178"><ele>436.575928</ele><time>2009-06-14T10:09:04Z</time></trkpt>
<trkpt lat="47.06051588" lon="7.08856344"><ele>437.056519</ele><time>2009-06-14T10:09:07Z</time></trkpt>
<trkpt lat="47.06047297" lon="7.08907843"><ele>436.575928</ele><time>2009-06-14T10:09:14Z</time></trkpt>
<trkpt lat="47.06047297" lon="7.08916426"><ele>436.575928</ele><time>2009-06-14T10:09:15Z</time></trkpt>
<trkpt lat="47.06066608" lon="7.09015131"><ele>434.172607</ele><time>2009-06-14T10:09:29Z</time></trkpt>
<trkpt lat="47.06068754" lon="7.09028006"><ele>434.172607</ele><time>2009-06-14T10:09:31Z</time></trkpt>
<trkpt lat="47.06068754" lon="7.09045172"><ele>433.691895</ele><time>2009-06-14T10:09:34Z</time></trkpt>
<trkpt lat="47.06070900" lon="7.09075212"><ele>434.172607</ele><time>2009-06-14T10:09:39Z</time></trkpt>
<trkpt lat="47.06107378" lon="7.09208250"><ele>433.691895</ele><time>2009-06-14T10:09:59Z</time></trkpt>
<trkpt lat="47.06137419" lon="7.09317684"><ele>433.691895</ele><time>2009-06-14T10:10:15Z</time></trkpt>
<trkpt lat="47.06146002" lon="7.09334850"><ele>434.172607</ele><time>2009-06-14T10:10:18Z</time></trkpt>
<trkpt lat="47.06156731" lon="7.09341288"><ele>434.65332</ele><time>2009-06-14T10:10:21Z</time></trkpt>
<trkpt lat="47.06165314" lon="7.09341288"><ele>434.65332</ele><time>2009-06-14T10:10:23Z</time></trkpt>
<trkpt lat="47.06173897" lon="7.09343433"><ele>435.133911</ele><time>2009-06-14T10:10:26Z</time></trkpt>
<trkpt lat="47.06176043" lon="7.09345579"><ele>435.614502</ele><time>2009-06-14T10:10:27Z</time></trkpt>
<trkpt lat="47.06184626" lon="7.09364891"><ele>435.133911</ele><time>2009-06-14T10:10:31Z</time></trkpt>
<trkpt lat="47.06210375" lon="7.09439993"><ele>434.172607</ele><time>2009-06-14T10:10:44Z</time></trkpt>
<trkpt lat="47.06251144" lon="7.09555864"><ele>431.288574</ele><time>2009-06-14T10:11:02Z</time></trkpt>
<trkpt lat="47.06255436" lon="7.09568739"><ele>430.807983</ele><time>2009-06-14T10:11:04Z</time></trkpt>
<trkpt lat="47.06268311" lon="7.09596634"><ele>429.365967</ele><time>2009-06-14T10:11:09Z</time></trkpt>
<trkpt lat="47.06281185" lon="7.09624529"><ele>429.846558</ele><time>2009-06-14T10:11:14Z</time></trkpt>
<trkpt lat="47.06298351" lon="7.09667444"><ele>429.846558</ele><time>2009-06-14T10:11:20Z</time></trkpt>
<trkpt lat="47.06334829" lon="7.09761858"><ele>431.769165</ele><time>2009-06-14T10:11:35Z</time></trkpt>
<trkpt lat="47.06360579" lon="7.09851980"><ele>432.730713</ele><time>2009-06-14T10:11:48Z</time></trkpt>
<trkpt lat="47.06367016" lon="7.09873438"><ele>433.211304</ele><time>2009-06-14T10:11:51Z</time></trkpt>
<trkpt lat="47.06405640" lon="7.09980726"><ele>434.172607</ele><time>2009-06-14T10:12:08Z</time></trkpt>
<trkpt lat="47.06476450" lon="7.10139513"><ele>433.211304</ele><time>2009-06-14T10:12:35Z</time></trkpt>
<trkpt lat="47.06478596" lon="7.10145950"><ele>435.133911</ele><time>2009-06-14T10:12:36Z</time></trkpt>
<trkpt lat="47.06489325" lon="7.10171700"><ele>436.095215</ele><time>2009-06-14T10:12:40Z</time></trkpt>
<trkpt lat="47.06536531" lon="7.10304737"><ele>435.614502</ele><time>2009-06-14T10:12:59Z</time></trkpt>
<trkpt lat="47.06549406" lon="7.10345507"><ele>436.095215</ele><time>2009-06-14T10:13:05Z</time></trkpt>
<trkpt lat="47.06566572" lon="7.10399151"><ele>435.614502</ele><time>2009-06-14T10:13:13Z</time></trkpt>
<trkpt lat="47.06575155" lon="7.10433483"><ele>433.691895</ele><time>2009-06-14T10:13:18Z</time></trkpt>
<trkpt lat="47.06570864" lon="7.10457087"><ele>434.172607</ele><time>2009-06-14T10:13:22Z</time></trkpt>
<trkpt lat="47.06557989" lon="7.10532188"><ele>435.614502</ele><time>2009-06-14T10:13:36Z</time></trkpt>
<trkpt lat="47.06573009" lon="7.10602999"><ele>435.133911</ele><time>2009-06-14T10:13:48Z</time></trkpt>
<trkpt lat="47.06581593" lon="7.10618019"><ele>435.614502</ele><time>2009-06-14T10:13:51Z</time></trkpt>
<trkpt lat="47.06635237" lon="7.10708141"><ele>434.172607</ele><time>2009-06-14T10:14:09Z</time></trkpt>
<trkpt lat="47.06645966" lon="7.10727453"><ele>433.691895</ele><time>2009-06-14T10:14:14Z</time></trkpt>
<trkpt lat="47.06648111" lon="7.10736036"><ele>433.691895</ele><time>2009-06-14T10:14:17Z</time></trkpt>
<trkpt lat="47.06658840" lon="7.10751057"><ele>432.730713</ele><time>2009-06-14T10:14:23Z</time></trkpt>
<trkpt lat="47.06663132" lon="7.10755348"><ele>433.211304</ele><time>2009-06-14T10:14:25Z</time></trkpt>
<trkpt lat="47.06673861" lon="7.10740328"><ele>434.172607</ele><time>2009-06-14T10:14:31Z</time></trkpt>
<trkpt lat="47.06667423" lon="7.10725307"><ele>434.65332</ele><time>2009-06-14T10:14:35Z</time></trkpt>
<trkpt lat="47.06654549" lon="7.10705996"><ele>435.614502</ele><time>2009-06-14T10:14:42Z</time></trkpt>
<trkpt lat="47.06641674" lon="7.10714579"><ele>435.614502</ele><time>2009-06-14T10:14:47Z</time></trkpt>
<trkpt lat="47.06622362" lon="7.10738182"><ele>434.172607</ele><time>2009-06-14T10:14:52Z</time></trkpt>
<trkpt lat="47.06615925" lon="7.10753202"><ele>433.691895</ele><time>2009-06-14T10:14:55Z</time></trkpt>
<trkpt lat="47.06622362" lon="7.10789680"><ele>433.211304</ele><time>2009-06-14T10:15:02Z</time></trkpt>
<trkpt lat="47.06630945" lon="7.10808992"><ele>433.211304</ele><time>2009-06-14T10:15:06Z</time></trkpt>
<trkpt lat="47.06637383" lon="7.10836887"><ele>433.211304</ele><time>2009-06-14T10:15:11Z</time></trkpt>
<trkpt lat="47.06639528" lon="7.10849762"><ele>434.172607</ele><time>2009-06-14T10:15:14Z</time></trkpt>
<trkpt lat="47.06633091" lon="7.10892677"><ele>434.65332</ele><time>2009-06-14T10:15:24Z</time></trkpt>
<trkpt lat="47.06633091" lon="7.10896969"><ele>434.65332</ele><time>2009-06-14T10:15:25Z</time></trkpt>
<trkpt lat="47.06633091" lon="7.10899115"><ele>434.172607</ele><time>2009-06-14T10:15:26Z</time></trkpt>
<trkpt lat="47.06637383" lon="7.10911989"><ele>433.691895</ele><time>2009-06-14T10:15:30Z</time></trkpt>
<trkpt lat="47.06645966" lon="7.10927010"><ele>433.691895</ele><time>2009-06-14T10:15:35Z</time></trkpt>
<trkpt lat="47.06652403" lon="7.10931301"><ele>433.211304</ele><time>2009-06-14T10:15:38Z</time></trkpt>
<trkpt lat="47.06652403" lon="7.10931301"><ele>433.211304</ele><time>2009-06-14T10:15:39Z</time></trkpt>
<trkpt lat="47.06654549" lon="7.10927010"><ele>433.211304</ele><time>2009-06-14T10:15:48Z</time></trkpt>
<trkpt lat="47.06652403" lon="7.10927010"><ele>433.211304</ele><time>2009-06-14T10:15:49Z</time></trkpt>
<trkpt lat="47.06635237" lon="7.10907698"><ele>433.211304</ele><time>2009-06-14T10:15:57Z</time></trkpt>
<trkpt lat="47.06628799" lon="7.10892677"><ele>433.211304</ele><time>2009-06-14T10:16:01Z</time></trkpt>
<trkpt lat="47.06633091" lon="7.10871220"><ele>433.211304</ele><time>2009-06-14T10:16:06Z</time></trkpt>
<trkpt lat="47.06637383" lon="7.10858345"><ele>433.211304</ele><time>2009-06-14T10:16:09Z</time></trkpt>
<trkpt lat="47.06639528" lon="7.10847616"><ele>433.211304</ele><time>2009-06-14T10:16:12Z</time></trkpt>
<trkpt lat="47.06641674" lon="7.10836887"><ele>433.691895</ele><time>2009-06-14T10:16:15Z</time></trkpt>
<trkpt lat="47.06643820" lon="7.10819721"><ele>436.095215</ele><time>2009-06-14T10:16:19Z</time></trkpt>
<trkpt lat="47.06635237" lon="7.10802555"><ele>436.095215</ele><time>2009-06-14T10:16:23Z</time></trkpt>
<trkpt lat="47.06622362" lon="7.10772514"><ele>435.614502</ele><time>2009-06-14T10:16:29Z</time></trkpt>
<trkpt lat="47.06628799" lon="7.10742474"><ele>437.056519</ele><time>2009-06-14T10:16:36Z</time></trkpt>
<trkpt lat="47.06633091" lon="7.10740328"><ele>437.056519</ele><time>2009-06-14T10:16:37Z</time></trkpt>
<trkpt lat="47.06665277" lon="7.10701704"><ele>438.979126</ele><time>2009-06-14T10:16:52Z</time></trkpt>
<trkpt lat="47.06682444" lon="7.10718870"><ele>437.056519</ele><time>2009-06-14T10:16:59Z</time></trkpt>
<trkpt lat="47.06684589" lon="7.10723162"><ele>437.056519</ele><time>2009-06-14T10:17:00Z</time></trkpt>
<trkpt lat="47.06703901" lon="7.10753202"><ele>436.095215</ele><time>2009-06-14T10:17:07Z</time></trkpt>
<trkpt lat="47.06761837" lon="7.10864782"><ele>434.172607</ele><time>2009-06-14T10:17:26Z</time></trkpt>
<trkpt lat="47.06830502" lon="7.10976362"><ele>434.172607</ele><time>2009-06-14T10:17:46Z</time></trkpt>
<trkpt lat="47.06849813" lon="7.11002111"><ele>434.172607</ele><time>2009-06-14T10:17:51Z</time></trkpt>
<trkpt lat="47.06882000" lon="7.11042881"><ele>433.211304</ele><time>2009-06-14T10:17:59Z</time></trkpt>
<trkpt lat="47.06890583" lon="7.11051464"><ele>432.730713</ele><time>2009-06-14T10:18:01Z</time></trkpt>
<trkpt lat="47.06952810" lon="7.11109400"><ele>433.211304</ele><time>2009-06-14T10:18:15Z</time></trkpt>
<trkpt lat="47.07047224" lon="7.11195230"><ele>435.614502</ele><time>2009-06-14T10:18:37Z</time></trkpt>
<trkpt lat="47.07113743" lon="7.11238146"><ele>435.133911</ele><time>2009-06-14T10:18:52Z</time></trkpt>
<trkpt lat="47.07229614" lon="7.11291790"><ele>435.614502</ele><time>2009-06-14T10:19:14Z</time></trkpt>
<trkpt lat="47.07311153" lon="7.11328268"><ele>436.575928</ele><time>2009-06-14T10:19:30Z</time></trkpt>
<trkpt lat="47.07396984" lon="7.11375475"><ele>436.575928</ele><time>2009-06-14T10:19:49Z</time></trkpt>
<trkpt lat="47.07465649" lon="7.11433411"><ele>432.730713</ele><time>2009-06-14T10:20:02Z</time></trkpt>
<trkpt lat="47.07508564" lon="7.11472034"><ele>435.614502</ele><time>2009-06-14T10:20:12Z</time></trkpt>
<trkpt lat="47.07547188" lon="7.11523533"><ele>436.575928</ele><time>2009-06-14T10:20:22Z</time></trkpt>
<trkpt lat="47.07609415" lon="7.11626530"><ele>435.133911</ele><time>2009-06-14T10:20:40Z</time></trkpt>
<trkpt lat="47.07656622" lon="7.11733818"><ele>436.095215</ele><time>2009-06-14T10:20:57Z</time></trkpt>
<trkpt lat="47.07695246" lon="7.11826086"><ele>435.614502</ele><time>2009-06-14T10:21:13Z</time></trkpt>
<trkpt lat="47.07746744" lon="7.11954832"><ele>434.172607</ele><time>2009-06-14T10:21:33Z</time></trkpt>
<trkpt lat="47.07793951" lon="7.12068558"><ele>435.133911</ele><time>2009-06-14T10:21:51Z</time></trkpt>
<trkpt lat="47.07849741" lon="7.12195158"><ele>436.575928</ele><time>2009-06-14T10:22:11Z</time></trkpt>
<trkpt lat="47.07892656" lon="7.12306738"><ele>439.459717</ele><time>2009-06-14T10:22:30Z</time></trkpt>
<trkpt lat="47.07926989" lon="7.12390423"><ele>438.979126</ele><time>2009-06-14T10:22:47Z</time></trkpt>
<trkpt lat="47.07933426" lon="7.12405443"><ele>438.017822</ele><time>2009-06-14T10:22:50Z</time></trkpt>
<trkpt lat="47.07937717" lon="7.12416172"><ele>437.537109</ele><time>2009-06-14T10:22:52Z</time></trkpt>
<trkpt lat="47.07978487" lon="7.12508440"><ele>435.133911</ele><time>2009-06-14T10:23:06Z</time></trkpt>
<trkpt lat="47.08019257" lon="7.12607145"><ele>434.65332</ele><time>2009-06-14T10:23:21Z</time></trkpt>
<trkpt lat="47.08060026" lon="7.12710142"><ele>432.25</ele><time>2009-06-14T10:23:35Z</time></trkpt>
<trkpt lat="47.08115816" lon="7.12845325"><ele>435.614502</ele><time>2009-06-14T10:23:54Z</time></trkpt>
<trkpt lat="47.08137274" lon="7.12903261"><ele>433.211304</ele><time>2009-06-14T10:24:05Z</time></trkpt>
<trkpt lat="47.08145857" lon="7.12903261"><ele>432.25</ele><time>2009-06-14T10:24:08Z</time></trkpt>
<trkpt lat="47.08160877" lon="7.12894678"><ele>431.769165</ele><time>2009-06-14T10:24:14Z</time></trkpt>
<trkpt lat="47.08163023" lon="7.12905407"><ele>432.25</ele><time>2009-06-14T10:24:17Z</time></trkpt>
<trkpt lat="47.08167315" lon="7.12920427"><ele>433.691895</ele><time>2009-06-14T10:24:22Z</time></trkpt>
<trkpt lat="47.08169460" lon="7.12931156"><ele>433.691895</ele><time>2009-06-14T10:24:26Z</time></trkpt>
<trkpt lat="47.08169460" lon="7.12937593"><ele>433.691895</ele><time>2009-06-14T10:24:28Z</time></trkpt>
<trkpt lat="47.08175898" lon="7.12956905"><ele>434.172607</ele><time>2009-06-14T10:24:32Z</time></trkpt>
<trkpt lat="47.08216667" lon="7.13049173"><ele>433.691895</ele><time>2009-06-14T10:24:50Z</time></trkpt>
<trkpt lat="47.08259583" lon="7.13154316"><ele>435.133911</ele><time>2009-06-14T10:25:07Z</time></trkpt>
<trkpt lat="47.08311081" lon="7.13274479"><ele>437.537109</ele><time>2009-06-14T10:25:26Z</time></trkpt>
<trkpt lat="47.08356142" lon="7.13386059"><ele>437.537109</ele><time>2009-06-14T10:25:43Z</time></trkpt>
<trkpt lat="47.08384037" lon="7.13482618"><ele>437.056519</ele><time>2009-06-14T10:25:57Z</time></trkpt>
<trkpt lat="47.08392620" lon="7.13508368"><ele>437.056519</ele><time>2009-06-14T10:26:01Z</time></trkpt>
<trkpt lat="47.08401203" lon="7.13540554"><ele>437.056519</ele><time>2009-06-14T10:26:06Z</time></trkpt>
<trkpt lat="47.08439827" lon="7.13630676"><ele>437.537109</ele><time>2009-06-14T10:26:21Z</time></trkpt>
<trkpt lat="47.08480597" lon="7.13716507"><ele>437.537109</ele><time>2009-06-14T10:26:36Z</time></trkpt>
<trkpt lat="47.08508492" lon="7.13778734"><ele>438.017822</ele><time>2009-06-14T10:26:47Z</time></trkpt>
<trkpt lat="47.08553553" lon="7.13877439"><ele>438.498535</ele><time>2009-06-14T10:27:04Z</time></trkpt>
<trkpt lat="47.08605051" lon="7.13986874"><ele>436.095215</ele><time>2009-06-14T10:27:22Z</time></trkpt>
<trkpt lat="47.08671570" lon="7.14139223"><ele>438.017822</ele><time>2009-06-14T10:27:46Z</time></trkpt>
<trkpt lat="47.08725214" lon="7.14274406"><ele>439.94043</ele><time>2009-06-14T10:28:08Z</time></trkpt>
<trkpt lat="47.08781004" lon="7.14424610"><ele>440.901855</ele><time>2009-06-14T10:28:32Z</time></trkpt>
<trkpt lat="47.08834648" lon="7.14531898"><ele>440.901855</ele><time>2009-06-14T10:28:50Z</time></trkpt>
<trkpt lat="47.08845377" lon="7.14549065"><ele>440.901855</ele><time>2009-06-14T10:28:53Z</time></trkpt>
<trkpt lat="47.08847523" lon="7.14572668"><ele>440.421265</ele><time>2009-06-14T10:29:00Z</time></trkpt>
<trkpt lat="47.08845377" lon="7.14576960"><ele>440.421265</ele><time>2009-06-14T10:29:02Z</time></trkpt>
<trkpt lat="47.08841085" lon="7.14585543"><ele>440.421265</ele><time>2009-06-14T10:29:06Z</time></trkpt>
<trkpt lat="47.08836794" lon="7.14589834"><ele>439.94043</ele><time>2009-06-14T10:29:08Z</time></trkpt>
<trkpt lat="47.08849669" lon="7.14609146"><ele>439.459717</ele><time>2009-06-14T10:29:14Z</time></trkpt>
<trkpt lat="47.08851814" lon="7.14611292"><ele>439.459717</ele><time>2009-06-14T10:29:15Z</time></trkpt>
<trkpt lat="47.08899021" lon="7.14671373"><ele>438.498535</ele><time>2009-06-14T10:29:29Z</time></trkpt>
<trkpt lat="47.08931208" lon="7.14716434"><ele>439.459717</ele><time>2009-06-14T10:29:39Z</time></trkpt>
<trkpt lat="47.08946228" lon="7.14720726"><ele>439.94043</ele><time>2009-06-14T10:29:43Z</time></trkpt>
<trkpt lat="47.08948374" lon="7.14720726"><ele>439.94043</ele><time>2009-06-14T10:29:44Z</time></trkpt>
<trkpt lat="47.08959103" lon="7.14733601"><ele>439.94043</ele><time>2009-06-14T10:29:48Z</time></trkpt>
<trkpt lat="47.09002018" lon="7.14795828"><ele>438.979126</ele><time>2009-06-14T10:30:04Z</time></trkpt>
<trkpt lat="47.09008455" lon="7.14802265"><ele>438.979126</ele><time>2009-06-14T10:30:07Z</time></trkpt>
<trkpt lat="47.09038496" lon="7.14855909"><ele>436.095215</ele><time>2009-06-14T10:30:17Z</time></trkpt>
<trkpt lat="47.09074974" lon="7.14928865"><ele>437.537109</ele><time>2009-06-14T10:30:28Z</time></trkpt>
<trkpt lat="47.09102869" lon="7.14988947"><ele>438.498535</ele><time>2009-06-14T10:30:41Z</time></trkpt>
<trkpt lat="47.09135056" lon="7.15087652"><ele>435.133911</ele><time>2009-06-14T10:30:55Z</time></trkpt>
<trkpt lat="47.09158659" lon="7.15156317"><ele>435.133911</ele><time>2009-06-14T10:31:08Z</time></trkpt>
<trkpt lat="47.09158659" lon="7.15162754"><ele>434.65332</ele><time>2009-06-14T10:31:09Z</time></trkpt>
<trkpt lat="47.09165096" lon="7.15175629"><ele>434.65332</ele><time>2009-06-14T10:31:12Z</time></trkpt>
<trkpt lat="47.09167242" lon="7.15184212"><ele>434.65332</ele><time>2009-06-14T10:31:14Z</time></trkpt>
<trkpt lat="47.09171534" lon="7.15192795"><ele>434.172607</ele><time>2009-06-14T10:31:16Z</time></trkpt>
<trkpt lat="47.09182262" lon="7.15231419"><ele>435.133911</ele><time>2009-06-14T10:31:25Z</time></trkpt>
<trkpt lat="47.09180117" lon="7.15250731"><ele>436.095215</ele><time>2009-06-14T10:31:31Z</time></trkpt>
<trkpt lat="47.09182262" lon="7.15252876"><ele>436.095215</ele><time>2009-06-14T10:31:32Z</time></trkpt>
<trkpt lat="47.09195137" lon="7.15278625"><ele>437.056519</ele><time>2009-06-14T10:31:42Z</time></trkpt>
<trkpt lat="47.09201574" lon="7.15306520"><ele>437.537109</ele><time>2009-06-14T10:31:48Z</time></trkpt>
<trkpt lat="47.09205866" lon="7.15321541"><ele>438.017822</ele><time>2009-06-14T10:31:51Z</time></trkpt>
<trkpt lat="47.09235907" lon="7.15424538"><ele>437.056519</ele><time>2009-06-14T10:32:10Z</time></trkpt>
<trkpt lat="47.09278822" lon="7.15527534"><ele>437.056519</ele><time>2009-06-14T10:32:27Z</time></trkpt>
<trkpt lat="47.09321737" lon="7.15628386"><ele>435.614502</ele><time>2009-06-14T10:32:41Z</time></trkpt>
<trkpt lat="47.09362507" lon="7.15709925"><ele>436.095215</ele><time>2009-06-14T10:32:56Z</time></trkpt>
<trkpt lat="47.09373236" lon="7.15731382"><ele>436.095215</ele><time>2009-06-14T10:33:00Z</time></trkpt>
<trkpt lat="47.09379673" lon="7.15746403"><ele>435.133911</ele><time>2009-06-14T10:33:03Z</time></trkpt>
<trkpt lat="47.09398985" lon="7.15791464"><ele>434.172607</ele><time>2009-06-14T10:33:12Z</time></trkpt>
<trkpt lat="47.09401131" lon="7.15797901"><ele>434.65332</ele><time>2009-06-14T10:33:14Z</time></trkpt>
<trkpt lat="47.09390402" lon="7.15806484"><ele>435.614502</ele><time>2009-06-14T10:33:21Z</time></trkpt>
<trkpt lat="47.09388256" lon="7.15808630"><ele>435.614502</ele><time>2009-06-14T10:33:23Z</time></trkpt>
<trkpt lat="47.09386110" lon="7.15808630"><ele>435.133911</ele><time>2009-06-14T10:33:26Z</time></trkpt>
<trkpt lat="47.09383965" lon="7.15806484"><ele>436.575928</ele><time>2009-06-14T10:33:35Z</time></trkpt>
<trkpt lat="47.09379673" lon="7.15804338"><ele>437.537109</ele><time>2009-06-14T10:33:39Z</time></trkpt>
<trkpt lat="47.09377527" lon="7.15804338"><ele>437.537109</ele><time>2009-06-14T10:33:40Z</time></trkpt>
<trkpt lat="47.09373236" lon="7.15800047"><ele>437.537109</ele><time>2009-06-14T10:33:43Z</time></trkpt>
<trkpt lat="47.09366798" lon="7.15789318"><ele>438.017822</ele><time>2009-06-14T10:33:48Z</time></trkpt>
<trkpt lat="47.09362507" lon="7.15778589"><ele>437.056519</ele><time>2009-06-14T10:33:51Z</time></trkpt>
<trkpt lat="47.09362507" lon="7.15774298"><ele>438.017822</ele><time>2009-06-14T10:34:05Z</time></trkpt>
<trkpt lat="47.09362507" lon="7.15774298"><ele>438.979126</ele><time>2009-06-14T10:34:13Z</time></trkpt>
<trkpt lat="47.09364653" lon="7.15776443"><ele>438.979126</ele><time>2009-06-14T10:34:21Z</time></trkpt>
<trkpt lat="47.09366798" lon="7.15776443"><ele>438.017822</ele><time>2009-06-14T10:35:09Z</time></trkpt>
<trkpt lat="47.09366798" lon="7.15776443"><ele>437.537109</ele><time>2009-06-14T10:35:12Z</time></trkpt>
<trkpt lat="47.09366798" lon="7.15776443"><ele>435.614502</ele><time>2009-06-14T10:36:29Z</time></trkpt>
<trkpt lat="47.09366798" lon="7.15776443"><ele>437.537109</ele><time>2009-06-14T10:37:13Z</time></trkpt>
<trkpt lat="47.09368944" lon="7.15778589"><ele>437.537109</ele><time>2009-06-14T10:37:16Z</time></trkpt>
<trkpt lat="47.09368944" lon="7.15780735"><ele>437.537109</ele><time>2009-06-14T10:37:19Z</time></trkpt>
<trkpt lat="47.09368944" lon="7.15782881"><ele>433.211304</ele><time>2009-06-14T10:37:48Z</time></trkpt>
<trkpt lat="47.09366798" lon="7.15780735"><ele>429.846558</ele><time>2009-06-14T11:12:29Z</time></trkpt>
<trkpt lat="47.09368944" lon="7.15782881"><ele>433.691895</ele><time>2009-06-14T11:13:02Z</time></trkpt>
<trkpt lat="47.09368944" lon="7.15787172"><ele>435.133911</ele><time>2009-06-14T11:13:10Z</time></trkpt>
<trkpt lat="47.09368944" lon="7.15793610"><ele>436.095215</ele><time>2009-06-14T11:13:13Z</time></trkpt>
<trkpt lat="47.09368944" lon="7.15795755"><ele>436.095215</ele><time>2009-06-14T11:13:14Z</time></trkpt>
<trkpt lat="47.09377527" lon="7.15806484"><ele>435.614502</ele><time>2009-06-14T11:13:20Z</time></trkpt>
<trkpt lat="47.09377527" lon="7.15806484"><ele>435.614502</ele><time>2009-06-14T11:13:21Z</time></trkpt>
<trkpt lat="47.09386110" lon="7.15810776"><ele>435.614502</ele><time>2009-06-14T11:13:25Z</time></trkpt>
<trkpt lat="47.09394693" lon="7.15806484"><ele>434.65332</ele><time>2009-06-14T11:13:31Z</time></trkpt>
<trkpt lat="47.09396839" lon="7.15804338"><ele>435.133911</ele><time>2009-06-14T11:13:32Z</time></trkpt>
<trkpt lat="47.09409714" lon="7.15812922"><ele>436.095215</ele><time>2009-06-14T11:13:40Z</time></trkpt>
<trkpt lat="47.09411860" lon="7.15819359"><ele>436.095215</ele><time>2009-06-14T11:13:43Z</time></trkpt>
<trkpt lat="47.09414005" lon="7.15825796"><ele>436.575928</ele><time>2009-06-14T11:13:45Z</time></trkpt>
<trkpt lat="47.09416151" lon="7.15832233"><ele>436.575928</ele><time>2009-06-14T11:13:48Z</time></trkpt>
<trkpt lat="47.09420443" lon="7.15840816"><ele>437.056519</ele><time>2009-06-14T11:13:51Z</time></trkpt>
<trkpt lat="47.09426880" lon="7.15855837"><ele>436.575928</ele><time>2009-06-14T11:13:56Z</time></trkpt>
<trkpt lat="47.09431171" lon="7.15868711"><ele>436.575928</ele><time>2009-06-14T11:13:59Z</time></trkpt>
<trkpt lat="47.09437609" lon="7.15890169"><ele>436.575928</ele><time>2009-06-14T11:14:04Z</time></trkpt>
<trkpt lat="47.09448338" lon="7.15920210"><ele>436.095215</ele><time>2009-06-14T11:14:11Z</time></trkpt>
<trkpt lat="47.09448338" lon="7.15924501"><ele>436.575928</ele><time>2009-06-14T11:14:12Z</time></trkpt>
<trkpt lat="47.09454775" lon="7.15941668"><ele>437.056519</ele><time>2009-06-14T11:14:16Z</time></trkpt>
<trkpt lat="47.09454775" lon="7.15948105"><ele>437.056519</ele><time>2009-06-14T11:14:17Z</time></trkpt>
<trkpt lat="47.09459066" lon="7.15956688"><ele>437.537109</ele><time>2009-06-14T11:14:19Z</time></trkpt>
<trkpt lat="47.09471941" lon="7.16014624"><ele>438.017822</ele><time>2009-06-14T11:14:31Z</time></trkpt>
<trkpt lat="47.09486961" lon="7.16074705"><ele>438.017822</ele><time>2009-06-14T11:14:43Z</time></trkpt>
<trkpt lat="47.09510565" lon="7.16160536"><ele>438.979126</ele><time>2009-06-14T11:15:01Z</time></trkpt>
<trkpt lat="47.09519148" lon="7.16190577"><ele>438.979126</ele><time>2009-06-14T11:15:07Z</time></trkpt>
<trkpt lat="47.09523439" lon="7.16201305"><ele>438.979126</ele><time>2009-06-14T11:15:09Z</time></trkpt>
<trkpt lat="47.09525585" lon="7.16212034"><ele>438.979126</ele><time>2009-06-14T11:15:11Z</time></trkpt>
<trkpt lat="47.09553480" lon="7.16302156"><ele>438.017822</ele><time>2009-06-14T11:15:28Z</time></trkpt>
<trkpt lat="47.09566355" lon="7.16334343"><ele>437.537109</ele><time>2009-06-14T11:15:34Z</time></trkpt>
<trkpt lat="47.09570646" lon="7.16351509"><ele>437.056519</ele><time>2009-06-14T11:15:37Z</time></trkpt>
<trkpt lat="47.09583521" lon="7.16387987"><ele>436.575928</ele><time>2009-06-14T11:15:44Z</time></trkpt>
<trkpt lat="47.09617853" lon="7.16480255"><ele>436.095215</ele><time>2009-06-14T11:16:01Z</time></trkpt>
<trkpt lat="47.09660769" lon="7.16583252"><ele>435.133911</ele><time>2009-06-14T11:16:20Z</time></trkpt>
<trkpt lat="47.09705830" lon="7.16688395"><ele>435.614502</ele><time>2009-06-14T11:16:38Z</time></trkpt>
<trkpt lat="47.09718704" lon="7.16716290"><ele>436.095215</ele><time>2009-06-14T11:16:43Z</time></trkpt>
<trkpt lat="47.09768057" lon="7.16825724"><ele>438.498535</ele><time>2009-06-14T11:17:02Z</time></trkpt>
<trkpt lat="47.09813118" lon="7.16926575"><ele>438.979126</ele><time>2009-06-14T11:17:19Z</time></trkpt>
<trkpt lat="47.09868908" lon="7.17042446"><ele>439.94043</ele><time>2009-06-14T11:17:39Z</time></trkpt>
<trkpt lat="47.09918261" lon="7.17145443"><ele>439.94043</ele><time>2009-06-14T11:17:58Z</time></trkpt>
<trkpt lat="47.09971905" lon="7.17259169"><ele>440.421265</ele><time>2009-06-14T11:18:18Z</time></trkpt>
<trkpt lat="47.10025549" lon="7.17375040"><ele>440.421265</ele><time>2009-06-14T11:18:38Z</time></trkpt>
<trkpt lat="47.10081339" lon="7.17480183"><ele>440.901855</ele><time>2009-06-14T11:18:56Z</time></trkpt>
<trkpt lat="47.10128546" lon="7.17557430"><ele>440.901855</ele><time>2009-06-14T11:19:10Z</time></trkpt>
<trkpt lat="47.10143566" lon="7.17576742"><ele>440.421265</ele><time>2009-06-14T11:19:14Z</time></trkpt>
<trkpt lat="47.10192919" lon="7.17632532"><ele>439.94043</ele><time>2009-06-14T11:19:27Z</time></trkpt>
<trkpt lat="47.10253000" lon="7.17703342"><ele>441.382446</ele><time>2009-06-14T11:19:46Z</time></trkpt>
<trkpt lat="47.10280895" lon="7.17726946"><ele>441.382446</ele><time>2009-06-14T11:19:58Z</time></trkpt>
<trkpt lat="47.10280895" lon="7.17724800"><ele>445.227661</ele><time>2009-06-14T11:20:45Z</time></trkpt>
<trkpt lat="47.10285187" lon="7.17729092"><ele>445.227661</ele><time>2009-06-14T11:20:47Z</time></trkpt>
<trkpt lat="47.10291624" lon="7.17724800"><ele>444.74707</ele><time>2009-06-14T11:20:50Z</time></trkpt>
<trkpt lat="47.10293770" lon="7.17724800"><ele>444.74707</ele><time>2009-06-14T11:20:51Z</time></trkpt>
<trkpt lat="47.10300207" lon="7.17731237"><ele>444.266479</ele><time>2009-06-14T11:20:54Z</time></trkpt>
<trkpt lat="47.10302353" lon="7.17733383"><ele>443.785767</ele><time>2009-06-14T11:20:55Z</time></trkpt>
<trkpt lat="47.10313082" lon="7.17737675"><ele>443.305054</ele><time>2009-06-14T11:20:58Z</time></trkpt>
<trkpt lat="47.10323811" lon="7.17746258"><ele>443.305054</ele><time>2009-06-14T11:21:01Z</time></trkpt>
<trkpt lat="47.10358143" lon="7.17774153"><ele>443.785767</ele><time>2009-06-14T11:21:10Z</time></trkpt>
<trkpt lat="47.10368872" lon="7.17784882"><ele>443.785767</ele><time>2009-06-14T11:21:13Z</time></trkpt>
<trkpt lat="47.10375309" lon="7.17791319"><ele>443.305054</ele><time>2009-06-14T11:21:15Z</time></trkpt>
<trkpt lat="47.10409641" lon="7.17823505"><ele>442.824463</ele><time>2009-06-14T11:21:24Z</time></trkpt>
<trkpt lat="47.10482597" lon="7.17909336"><ele>441.863159</ele><time>2009-06-14T11:21:46Z</time></trkpt>
<trkpt lat="47.10508347" lon="7.17939377"><ele>442.343872</ele><time>2009-06-14T11:21:53Z</time></trkpt>
<trkpt lat="47.10546970" lon="7.17982292"><ele>442.343872</ele><time>2009-06-14T11:22:04Z</time></trkpt>
<trkpt lat="47.10613489" lon="7.18057394"><ele>442.343872</ele><time>2009-06-14T11:22:22Z</time></trkpt>
<trkpt lat="47.10680008" lon="7.18136787"><ele>440.421265</ele><time>2009-06-14T11:22:39Z</time></trkpt>
<trkpt lat="47.10705757" lon="7.18164682"><ele>440.901855</ele><time>2009-06-14T11:22:48Z</time></trkpt>
<trkpt lat="47.10714340" lon="7.18173265"><ele>440.901855</ele><time>2009-06-14T11:22:51Z</time></trkpt>
<trkpt lat="47.10761547" lon="7.18233347"><ele>441.863159</ele><time>2009-06-14T11:23:06Z</time></trkpt>
<trkpt lat="47.10810900" lon="7.18299866"><ele>439.94043</ele><time>2009-06-14T11:23:21Z</time></trkpt>
<trkpt lat="47.10849524" lon="7.18364239"><ele>439.94043</ele><time>2009-06-14T11:23:34Z</time></trkpt>
<trkpt lat="47.10853815" lon="7.18372822"><ele>439.94043</ele><time>2009-06-14T11:23:36Z</time></trkpt>
<trkpt lat="47.10868835" lon="7.18396425"><ele>440.421265</ele><time>2009-06-14T11:23:44Z</time></trkpt>
<trkpt lat="47.10875273" lon="7.18407154"><ele>440.421265</ele><time>2009-06-14T11:23:46Z</time></trkpt>
<trkpt lat="47.10883856" lon="7.18422174"><ele>440.421265</ele><time>2009-06-14T11:23:48Z</time></trkpt>
<trkpt lat="47.10903168" lon="7.18465090"><ele>440.421265</ele><time>2009-06-14T11:23:54Z</time></trkpt>
<trkpt lat="47.10943937" lon="7.18570232"><ele>438.979126</ele><time>2009-06-14T11:24:08Z</time></trkpt>
<trkpt lat="47.10958958" lon="7.18611002"><ele>439.459717</ele><time>2009-06-14T11:24:13Z</time></trkpt>
<trkpt lat="47.11004019" lon="7.18741894"><ele>441.382446</ele><time>2009-06-14T11:24:32Z</time></trkpt>
<trkpt lat="47.11040497" lon="7.18834162"><ele>441.382446</ele><time>2009-06-14T11:24:45Z</time></trkpt>
<trkpt lat="47.11049080" lon="7.18862057"><ele>440.421265</ele><time>2009-06-14T11:24:48Z</time></trkpt>
<trkpt lat="47.11096287" lon="7.18977928"><ele>439.94043</ele><time>2009-06-14T11:25:04Z</time></trkpt>
<trkpt lat="47.11156368" lon="7.19108820"><ele>438.979126</ele><time>2009-06-14T11:25:25Z</time></trkpt>
<trkpt lat="47.11162806" lon="7.19128132"><ele>439.459717</ele><time>2009-06-14T11:25:29Z</time></trkpt>
<trkpt lat="47.11171389" lon="7.19147444"><ele>438.017822</ele><time>2009-06-14T11:25:35Z</time></trkpt>
<trkpt lat="47.11175680" lon="7.19160318"><ele>437.537109</ele><time>2009-06-14T11:25:38Z</time></trkpt>
<trkpt lat="47.11182117" lon="7.19177485"><ele>437.537109</ele><time>2009-06-14T11:25:41Z</time></trkpt>
<trkpt lat="47.11227179" lon="7.19286919"><ele>437.056519</ele><time>2009-06-14T11:25:58Z</time></trkpt>
<trkpt lat="47.11267948" lon="7.19374895"><ele>436.095215</ele><time>2009-06-14T11:26:14Z</time></trkpt>
<trkpt lat="47.11323738" lon="7.19482183"><ele>437.537109</ele><time>2009-06-14T11:26:37Z</time></trkpt>
<trkpt lat="47.11392403" lon="7.19595909"><ele>437.537109</ele><time>2009-06-14T11:26:59Z</time></trkpt>
<trkpt lat="47.11411715" lon="7.19625950"><ele>438.017822</ele><time>2009-06-14T11:27:04Z</time></trkpt>
<trkpt lat="47.11506128" lon="7.19769716"><ele>438.979126</ele><time>2009-06-14T11:27:31Z</time></trkpt>
<trkpt lat="47.11619854" lon="7.19928503"><ele>438.498535</ele><time>2009-06-14T11:28:03Z</time></trkpt>
<trkpt lat="47.11707830" lon="7.20065832"><ele>438.498535</ele><time>2009-06-14T11:28:24Z</time></trkpt>
<trkpt lat="47.11802244" lon="7.20228910"><ele>439.459717</ele><time>2009-06-14T11:28:48Z</time></trkpt>
<trkpt lat="47.11853743" lon="7.20336199"><ele>440.421265</ele><time>2009-06-14T11:29:02Z</time></trkpt>
<trkpt lat="47.11896658" lon="7.20428467"><ele>439.459717</ele><time>2009-06-14T11:29:15Z</time></trkpt>
<trkpt lat="47.11939573" lon="7.20430613"><ele>439.459717</ele><time>2009-06-14T11:29:30Z</time></trkpt>
<trkpt lat="47.11943865" lon="7.20447779"><ele>440.901855</ele><time>2009-06-14T11:29:34Z</time></trkpt>
<trkpt lat="47.11971760" lon="7.20518589"><ele>440.421265</ele><time>2009-06-14T11:29:50Z</time></trkpt>
<trkpt lat="47.12033987" lon="7.20623732"><ele>439.94043</ele><time>2009-06-14T11:30:09Z</time></trkpt>
<trkpt lat="47.12102652" lon="7.20716000"><ele>440.421265</ele><time>2009-06-14T11:30:28Z</time></trkpt>
<trkpt lat="47.12143421" lon="7.20758915"><ele>440.901855</ele><time>2009-06-14T11:30:42Z</time></trkpt>
<trkpt lat="47.12143421" lon="7.20754623"><ele>440.901855</ele><time>2009-06-14T11:30:56Z</time></trkpt>
<trkpt lat="47.12169170" lon="7.20776081"><ele>441.382446</ele><time>2009-06-14T11:31:04Z</time></trkpt>
<trkpt lat="47.12244272" lon="7.20851183"><ele>442.343872</ele><time>2009-06-14T11:31:23Z</time></trkpt>
<trkpt lat="47.12319374" lon="7.20949888"><ele>443.305054</ele><time>2009-06-14T11:31:45Z</time></trkpt>
<trkpt lat="47.12437391" lon="7.21112967"><ele>445.708374</ele><time>2009-06-14T11:32:20Z</time></trkpt>
<trkpt lat="47.12546825" lon="7.21261024"><ele>445.708374</ele><time>2009-06-14T11:32:51Z</time></trkpt>
<trkpt lat="47.12557554" lon="7.21273899"><ele>446.669678</ele><time>2009-06-14T11:32:55Z</time></trkpt>
<trkpt lat="47.12624073" lon="7.21349001"><ele>446.189087</ele><time>2009-06-14T11:33:14Z</time></trkpt>
<trkpt lat="47.12684155" lon="7.21439123"><ele>446.189087</ele><time>2009-06-14T11:33:32Z</time></trkpt>
<trkpt lat="47.12692738" lon="7.21460581"><ele>445.708374</ele><time>2009-06-14T11:33:37Z</time></trkpt>
<trkpt lat="47.12697029" lon="7.21469164"><ele>445.708374</ele><time>2009-06-14T11:33:39Z</time></trkpt>
<trkpt lat="47.12767839" lon="7.21576452"><ele>445.708374</ele><time>2009-06-14T11:34:01Z</time></trkpt>
<trkpt lat="47.12845087" lon="7.21679449"><ele>445.708374</ele><time>2009-06-14T11:34:22Z</time></trkpt>
<trkpt lat="47.12890148" lon="7.21733093"><ele>444.74707</ele><time>2009-06-14T11:34:33Z</time></trkpt>
<trkpt lat="47.12898731" lon="7.21748114"><ele>444.266479</ele><time>2009-06-14T11:34:37Z</time></trkpt>
<trkpt lat="47.12900877" lon="7.21752405"><ele>444.74707</ele><time>2009-06-14T11:34:38Z</time></trkpt>
<trkpt lat="47.12918043" lon="7.21780300"><ele>444.74707</ele><time>2009-06-14T11:34:44Z</time></trkpt>
<trkpt lat="47.12993145" lon="7.21872568"><ele>445.708374</ele><time>2009-06-14T11:35:04Z</time></trkpt>
<trkpt lat="47.13053226" lon="7.21962690"><ele>446.669678</ele><time>2009-06-14T11:35:20Z</time></trkpt>
<trkpt lat="47.13132620" lon="7.22119331"><ele>444.74707</ele><time>2009-06-14T11:35:42Z</time></trkpt>
<trkpt lat="47.13201284" lon="7.22278118"><ele>444.266479</ele><time>2009-06-14T11:36:03Z</time></trkpt>
<trkpt lat="47.13261366" lon="7.22430468"><ele>442.343872</ele><time>2009-06-14T11:36:23Z</time></trkpt>
<trkpt lat="47.13315010" lon="7.22576380"><ele>440.421265</ele><time>2009-06-14T11:36:41Z</time></trkpt>
<trkpt lat="47.13387966" lon="7.22763062"><ele>440.901855</ele><time>2009-06-14T11:37:04Z</time></trkpt>
<trkpt lat="47.13400841" lon="7.22799540"><ele>440.901855</ele><time>2009-06-14T11:37:09Z</time></trkpt>
<trkpt lat="47.13405132" lon="7.22812414"><ele>440.901855</ele><time>2009-06-14T11:37:11Z</time></trkpt>
<trkpt lat="47.13458776" lon="7.22960472"><ele>440.421265</ele><time>2009-06-14T11:37:32Z</time></trkpt>
<trkpt lat="47.13518858" lon="7.23160028"><ele>438.017822</ele><time>2009-06-14T11:37:59Z</time></trkpt>
<trkpt lat="47.13523149" lon="7.23312378"><ele>436.575928</ele><time>2009-06-14T11:38:24Z</time></trkpt>
<trkpt lat="47.13512421" lon="7.23359585"><ele>438.498535</ele><time>2009-06-14T11:38:31Z</time></trkpt>
<trkpt lat="47.13497400" lon="7.23370314"><ele>438.979126</ele><time>2009-06-14T11:38:39Z</time></trkpt>
<trkpt lat="47.13495255" lon="7.23370314"><ele>440.421265</ele><time>2009-06-14T11:38:51Z</time></trkpt>
<trkpt lat="47.13488817" lon="7.23372459"><ele>440.901855</ele><time>2009-06-14T11:38:54Z</time></trkpt>
<trkpt lat="47.13488817" lon="7.23372459"><ele>440.421265</ele><time>2009-06-14T11:38:56Z</time></trkpt>
<trkpt lat="47.13482380" lon="7.23372459"><ele>441.382446</ele><time>2009-06-14T11:39:26Z</time></trkpt>
<trkpt lat="47.13480234" lon="7.23376751"><ele>440.421265</ele><time>2009-06-14T11:39:29Z</time></trkpt>
<trkpt lat="47.13478088" lon="7.23376751"><ele>441.382446</ele><time>2009-06-14T11:39:36Z</time></trkpt>
<trkpt lat="47.13475943" lon="7.23381042"><ele>442.343872</ele><time>2009-06-14T11:39:47Z</time></trkpt>
<trkpt lat="47.13480234" lon="7.23372459"><ele>442.824463</ele><time>2009-06-14T11:39:51Z</time></trkpt>
<trkpt lat="47.13480234" lon="7.23370314"><ele>442.343872</ele><time>2009-06-14T11:39:52Z</time></trkpt>
<trkpt lat="47.13473797" lon="7.23335981"><ele>438.979126</ele><time>2009-06-14T11:40:01Z</time></trkpt>
<trkpt lat="47.13471651" lon="7.23331690"><ele>438.979126</ele><time>2009-06-14T11:40:02Z</time></trkpt>
<trkpt lat="47.13465214" lon="7.23323107"><ele>438.498535</ele><time>2009-06-14T11:40:05Z</time></trkpt>
<trkpt lat="47.13458776" lon="7.23318815"><ele>438.017822</ele><time>2009-06-14T11:40:08Z</time></trkpt>
<trkpt lat="47.13441610" lon="7.23310232"><ele>437.056519</ele><time>2009-06-14T11:40:14Z</time></trkpt>
<trkpt lat="47.13413715" lon="7.23290920"><ele>436.575928</ele><time>2009-06-14T11:40:24Z</time></trkpt>
<trkpt lat="47.13383675" lon="7.23273754"><ele>435.133911</ele><time>2009-06-14T11:40:35Z</time></trkpt>
<trkpt lat="47.13370800" lon="7.23265171"><ele>435.133911</ele><time>2009-06-14T11:40:39Z</time></trkpt>
<trkpt lat="47.13362217" lon="7.23258734"><ele>434.65332</ele><time>2009-06-14T11:40:42Z</time></trkpt>
<trkpt lat="47.13353634" lon="7.23254442"><ele>434.65332</ele><time>2009-06-14T11:40:45Z</time></trkpt>
<trkpt lat="47.13332176" lon="7.23239422"><ele>434.172607</ele><time>2009-06-14T11:40:53Z</time></trkpt>
<trkpt lat="47.13312864" lon="7.23254442"><ele>433.691895</ele><time>2009-06-14T11:41:00Z</time></trkpt>
<trkpt lat="47.13267803" lon="7.23318815"><ele>433.691895</ele><time>2009-06-14T11:41:16Z</time></trkpt>
<trkpt lat="47.13257074" lon="7.23329544"><ele>433.691895</ele><time>2009-06-14T11:41:19Z</time></trkpt>
<trkpt lat="47.13248491" lon="7.23340273"><ele>433.691895</ele><time>2009-06-14T11:41:22Z</time></trkpt>
<trkpt lat="47.13239908" lon="7.23351002"><ele>434.172607</ele><time>2009-06-14T11:41:25Z</time></trkpt>
<trkpt lat="47.13237762" lon="7.23378897"><ele>433.691895</ele><time>2009-06-14T11:41:30Z</time></trkpt>
<trkpt lat="47.13237762" lon="7.23383188"><ele>433.691895</ele><time>2009-06-14T11:41:31Z</time></trkpt>
<trkpt lat="47.13237762" lon="7.23400354"><ele>433.691895</ele><time>2009-06-14T11:41:34Z</time></trkpt>
<trkpt lat="47.13239908" lon="7.23415375"><ele>433.211304</ele><time>2009-06-14T11:41:37Z</time></trkpt>
<trkpt lat="47.13244200" lon="7.23428249"><ele>433.691895</ele><time>2009-06-14T11:41:40Z</time></trkpt>
<trkpt lat="47.13246346" lon="7.23432541"><ele>433.211304</ele><time>2009-06-14T11:41:41Z</time></trkpt>
<trkpt lat="47.13259220" lon="7.23464727"><ele>433.691895</ele><time>2009-06-14T11:41:49Z</time></trkpt>
<trkpt lat="47.13259220" lon="7.23469019"><ele>434.172607</ele><time>2009-06-14T11:41:50Z</time></trkpt>
<trkpt lat="47.13250637" lon="7.23486185"><ele>434.172607</ele><time>2009-06-14T11:41:54Z</time></trkpt>
<trkpt lat="47.13246346" lon="7.23490477"><ele>434.172607</ele><time>2009-06-14T11:41:55Z</time></trkpt>
<trkpt lat="47.13239908" lon="7.23496914"><ele>434.172607</ele><time>2009-06-14T11:41:57Z</time></trkpt>
<trkpt lat="47.13205576" lon="7.23526955"><ele>434.172607</ele><time>2009-06-14T11:42:05Z</time></trkpt>
<trkpt lat="47.13201284" lon="7.23531246"><ele>434.172607</ele><time>2009-06-14T11:42:06Z</time></trkpt>
<trkpt lat="47.13158369" lon="7.23580599"><ele>435.614502</ele><time>2009-06-14T11:42:19Z</time></trkpt>
<trkpt lat="47.13147640" lon="7.23587036"><ele>434.172607</ele><time>2009-06-14T11:42:22Z</time></trkpt>
<trkpt lat="47.13136911" lon="7.23599911"><ele>434.172607</ele><time>2009-06-14T11:42:25Z</time></trkpt>
<trkpt lat="47.13130474" lon="7.23608494"><ele>434.172607</ele><time>2009-06-14T11:42:27Z</time></trkpt>
<trkpt lat="47.13098288" lon="7.23629951"><ele>434.172607</ele><time>2009-06-14T11:42:36Z</time></trkpt>
<trkpt lat="47.13089705" lon="7.23636389"><ele>434.172607</ele><time>2009-06-14T11:42:38Z</time></trkpt>
<trkpt lat="47.13068247" lon="7.23647118"><ele>434.172607</ele><time>2009-06-14T11:42:43Z</time></trkpt>
<trkpt lat="47.13040352" lon="7.23653555"><ele>434.65332</ele><time>2009-06-14T11:42:49Z</time></trkpt>
<trkpt lat="47.13029623" lon="7.23651409"><ele>434.172607</ele><time>2009-06-14T11:42:51Z</time></trkpt>
<trkpt lat="47.13016748" lon="7.23647118"><ele>434.65332</ele><time>2009-06-14T11:42:55Z</time></trkpt>
<trkpt lat="47.13006020" lon="7.23642826"><ele>433.691895</ele><time>2009-06-14T11:42:59Z</time></trkpt>
<trkpt lat="47.12973833" lon="7.23627806"><ele>433.211304</ele><time>2009-06-14T11:43:06Z</time></trkpt>
<trkpt lat="47.12969542" lon="7.23632097"><ele>433.211304</ele><time>2009-06-14T11:43:07Z</time></trkpt>
<trkpt lat="47.12918043" lon="7.23702908"><ele>434.65332</ele><time>2009-06-14T11:43:22Z</time></trkpt>
<trkpt lat="47.12903023" lon="7.23728657"><ele>434.65332</ele><time>2009-06-14T11:43:27Z</time></trkpt>
<trkpt lat="47.12892294" lon="7.23741531"><ele>435.133911</ele><time>2009-06-14T11:43:30Z</time></trkpt>
<trkpt lat="47.12877274" lon="7.23767281"><ele>435.133911</ele><time>2009-06-14T11:43:35Z</time></trkpt>
<trkpt lat="47.12868690" lon="7.23778009"><ele>435.614502</ele><time>2009-06-14T11:43:37Z</time></trkpt>
<trkpt lat="47.12847233" lon="7.23820925"><ele>435.133911</ele><time>2009-06-14T11:43:45Z</time></trkpt>
<trkpt lat="47.12840796" lon="7.23829508"><ele>434.65332</ele><time>2009-06-14T11:43:47Z</time></trkpt>
<trkpt lat="47.12830067" lon="7.23844528"><ele>435.133911</ele><time>2009-06-14T11:43:50Z</time></trkpt>
<trkpt lat="47.12817192" lon="7.23833799"><ele>435.133911</ele><time>2009-06-14T11:43:55Z</time></trkpt>
<trkpt lat="47.12763548" lon="7.23765135"><ele>434.65332</ele><time>2009-06-14T11:44:11Z</time></trkpt>
<trkpt lat="47.12707758" lon="7.23692179"><ele>433.211304</ele><time>2009-06-14T11:44:28Z</time></trkpt>
<trkpt lat="47.12682009" lon="7.23666430"><ele>433.691895</ele><time>2009-06-14T11:44:34Z</time></trkpt>
<trkpt lat="47.12645531" lon="7.23653555"><ele>434.172607</ele><time>2009-06-14T11:44:42Z</time></trkpt>
<trkpt lat="47.12570429" lon="7.23670721"><ele>435.614502</ele><time>2009-06-14T11:44:58Z</time></trkpt>
<trkpt lat="47.12463140" lon="7.23687887"><ele>435.614502</ele><time>2009-06-14T11:45:20Z</time></trkpt>
<trkpt lat="47.12394476" lon="7.23702908"><ele>436.575928</ele><time>2009-06-14T11:45:35Z</time></trkpt>
<trkpt lat="47.12373018" lon="7.23709345"><ele>436.575928</ele><time>2009-06-14T11:45:40Z</time></trkpt>
<trkpt lat="47.12310791" lon="7.23717928"><ele>438.017822</ele><time>2009-06-14T11:45:56Z</time></trkpt>
<trkpt lat="47.12289333" lon="7.23720074"><ele>439.459717</ele><time>2009-06-14T11:46:03Z</time></trkpt>
<trkpt lat="47.12235689" lon="7.23713636"><ele>440.421265</ele><time>2009-06-14T11:46:20Z</time></trkpt>
<trkpt lat="47.12167025" lon="7.23696470"><ele>438.979126</ele><time>2009-06-14T11:46:35Z</time></trkpt>
<trkpt lat="47.12160587" lon="7.23692179"><ele>438.498535</ele><time>2009-06-14T11:46:36Z</time></trkpt>
<trkpt lat="47.12100506" lon="7.23634243"><ele>432.25</ele><time>2009-06-14T11:46:48Z</time></trkpt>
<trkpt lat="47.12102652" lon="7.23606348"><ele>431.769165</ele><time>2009-06-14T11:46:53Z</time></trkpt>
<trkpt lat="47.12106943" lon="7.23595619"><ele>432.25</ele><time>2009-06-14T11:46:55Z</time></trkpt>
<trkpt lat="47.12160587" lon="7.23496914"><ele>431.769165</ele><time>2009-06-14T11:47:13Z</time></trkpt>
<trkpt lat="47.12207794" lon="7.23436832"><ele>431.769165</ele><time>2009-06-14T11:47:26Z</time></trkpt>
<trkpt lat="47.12222815" lon="7.23436832"><ele>432.25</ele><time>2009-06-14T11:47:29Z</time></trkpt>
<trkpt lat="47.12227106" lon="7.23438978"><ele>432.730713</ele><time>2009-06-14T11:47:30Z</time></trkpt>
<trkpt lat="47.12235689" lon="7.23441124"><ele>433.211304</ele><time>2009-06-14T11:47:32Z</time></trkpt>
<trkpt lat="47.12257147" lon="7.23451853"><ele>434.172607</ele><time>2009-06-14T11:47:38Z</time></trkpt>
<trkpt lat="47.12265730" lon="7.23451853"><ele>434.172607</ele><time>2009-06-14T11:47:41Z</time></trkpt>
<trkpt lat="47.12270021" lon="7.23432541"><ele>434.65332</ele><time>2009-06-14T11:47:45Z</time></trkpt>
<trkpt lat="47.12274313" lon="7.23417521"><ele>435.133911</ele><time>2009-06-14T11:47:48Z</time></trkpt>
<trkpt lat="47.12293625" lon="7.23310232"><ele>436.095215</ele><time>2009-06-14T11:48:06Z</time></trkpt>
<trkpt lat="47.12310791" lon="7.23205090"><ele>432.25</ele><time>2009-06-14T11:48:22Z</time></trkpt>
<trkpt lat="47.12332249" lon="7.23106384"><ele>431.288574</ele><time>2009-06-14T11:48:39Z</time></trkpt>
<trkpt lat="47.12330103" lon="7.23108530"><ele>434.65332</ele><time>2009-06-14T11:48:49Z</time></trkpt>
<trkpt lat="47.12327957" lon="7.23112822"><ele>434.65332</ele><time>2009-06-14T11:48:51Z</time></trkpt>
<trkpt lat="47.12321520" lon="7.23112822"><ele>434.65332</ele><time>2009-06-14T11:48:55Z</time></trkpt>
<trkpt lat="47.12265730" lon="7.23082781"><ele>434.65332</ele><time>2009-06-14T11:49:20Z</time></trkpt>
<trkpt lat="47.12199211" lon="7.23026991"><ele>434.65332</ele><time>2009-06-14T11:49:21Z</time></trkpt>
<trkpt lat="47.12186337" lon="7.22996950"><ele>434.65332</ele><time>2009-06-14T11:49:27Z</time></trkpt>
<trkpt lat="47.12179899" lon="7.22984076"><ele>434.65332</ele><time>2009-06-14T11:49:29Z</time></trkpt>
<trkpt lat="47.12126255" lon="7.22889662"><ele>434.172607</ele><time>2009-06-14T11:49:49Z</time></trkpt>
<trkpt lat="47.12111235" lon="7.22868204"><ele>434.172607</ele><time>2009-06-14T11:49:54Z</time></trkpt>
<trkpt lat="47.12100506" lon="7.22857475"><ele>435.133911</ele><time>2009-06-14T11:49:57Z</time></trkpt>
<trkpt lat="47.12091923" lon="7.22851038"><ele>435.133911</ele><time>2009-06-14T11:49:59Z</time></trkpt>
<trkpt lat="47.12076902" lon="7.22846746"><ele>434.172607</ele><time>2009-06-14T11:50:03Z</time></trkpt>
<trkpt lat="47.12059736" lon="7.22848892"><ele>433.691895</ele><time>2009-06-14T11:50:08Z</time></trkpt>
<trkpt lat="47.12055445" lon="7.22848892"><ele>433.691895</ele><time>2009-06-14T11:50:09Z</time></trkpt>
<trkpt lat="47.12016821" lon="7.22859621"><ele>433.691895</ele><time>2009-06-14T11:50:21Z</time></trkpt>
<trkpt lat="47.12008238" lon="7.22855330"><ele>433.691895</ele><time>2009-06-14T11:50:24Z</time></trkpt>
<trkpt lat="47.12003946" lon="7.22853184"><ele>433.691895</ele><time>2009-06-14T11:50:25Z</time></trkpt>
<trkpt lat="47.11984634" lon="7.22831726"><ele>432.730713</ele><time>2009-06-14T11:50:32Z</time></trkpt>
<trkpt lat="47.11976051" lon="7.22820997"><ele>432.730713</ele><time>2009-06-14T11:50:35Z</time></trkpt>
<trkpt lat="47.11926699" lon="7.22735167"><ele>431.288574</ele><time>2009-06-14T11:50:54Z</time></trkpt>
<trkpt lat="47.11909533" lon="7.22696543"><ele>432.25</ele><time>2009-06-14T11:51:02Z</time></trkpt>
<trkpt lat="47.11898804" lon="7.22685814"><ele>432.25</ele><time>2009-06-14T11:51:05Z</time></trkpt>
<trkpt lat="47.11894512" lon="7.22681522"><ele>431.769165</ele><time>2009-06-14T11:51:06Z</time></trkpt>
<trkpt lat="47.11815119" lon="7.22612858"><ele>434.65332</ele><time>2009-06-14T11:51:25Z</time></trkpt>
<trkpt lat="47.11722851" lon="7.22531319"><ele>434.65332</ele><time>2009-06-14T11:51:47Z</time></trkpt>
<trkpt lat="47.11714268" lon="7.22522736"><ele>434.65332</ele><time>2009-06-14T11:51:49Z</time></trkpt>
<trkpt lat="47.11701393" lon="7.22516298"><ele>435.133911</ele><time>2009-06-14T11:51:52Z</time></trkpt>
<trkpt lat="47.11669207" lon="7.22537756"><ele>435.133911</ele><time>2009-06-14T11:52:00Z</time></trkpt>
<trkpt lat="47.11637020" lon="7.22533464"><ele>435.133911</ele><time>2009-06-14T11:52:07Z</time></trkpt>
<trkpt lat="47.11606979" lon="7.22514153"><ele>435.133911</ele><time>2009-06-14T11:52:14Z</time></trkpt>
<trkpt lat="47.11591959" lon="7.22494841"><ele>434.65332</ele><time>2009-06-14T11:52:18Z</time></trkpt>
<trkpt lat="47.11549044" lon="7.22409010"><ele>435.133911</ele><time>2009-06-14T11:52:34Z</time></trkpt>
<trkpt lat="47.11516857" lon="7.22303867"><ele>433.691895</ele><time>2009-06-14T11:52:51Z</time></trkpt>
<trkpt lat="47.11484671" lon="7.22239494"><ele>433.211304</ele><time>2009-06-14T11:53:02Z</time></trkpt>
<trkpt lat="47.11465359" lon="7.22237349"><ele>434.172607</ele><time>2009-06-14T11:53:06Z</time></trkpt>
<trkpt lat="47.11448193" lon="7.22237349"><ele>433.691895</ele><time>2009-06-14T11:53:09Z</time></trkpt>
<trkpt lat="47.11433172" lon="7.22224474"><ele>433.691895</ele><time>2009-06-14T11:53:13Z</time></trkpt>
<trkpt lat="47.11424589" lon="7.22218037"><ele>433.691895</ele><time>2009-06-14T11:53:15Z</time></trkpt>
<trkpt lat="47.11418152" lon="7.22207308"><ele>433.691895</ele><time>2009-06-14T11:53:17Z</time></trkpt>
<trkpt lat="47.11370945" lon="7.22160101"><ele>434.172607</ele><time>2009-06-14T11:53:29Z</time></trkpt>
<trkpt lat="47.11287260" lon="7.22121477"><ele>434.65332</ele><time>2009-06-14T11:53:46Z</time></trkpt>
<trkpt lat="47.11276531" lon="7.22121477"><ele>434.65332</ele><time>2009-06-14T11:53:48Z</time></trkpt>
<trkpt lat="47.11259365" lon="7.22130060"><ele>435.133911</ele><time>2009-06-14T11:53:52Z</time></trkpt>
<trkpt lat="47.11255074" lon="7.22134352"><ele>435.133911</ele><time>2009-06-14T11:53:53Z</time></trkpt>
<trkpt lat="47.11231470" lon="7.22164392"><ele>436.095215</ele><time>2009-06-14T11:54:00Z</time></trkpt>
<trkpt lat="47.11210012" lon="7.22170830"><ele>436.095215</ele><time>2009-06-14T11:54:05Z</time></trkpt>
<trkpt lat="47.11201429" lon="7.22170830"><ele>436.095215</ele><time>2009-06-14T11:54:07Z</time></trkpt>
<trkpt lat="47.11137056" lon="7.22123623"><ele>437.537109</ele><time>2009-06-14T11:54:22Z</time></trkpt>
<trkpt lat="47.11079121" lon="7.22065687"><ele>437.056519</ele><time>2009-06-14T11:54:37Z</time></trkpt>
<trkpt lat="47.11010456" lon="7.22001314"><ele>436.575928</ele><time>2009-06-14T11:54:53Z</time></trkpt>
<trkpt lat="47.11006165" lon="7.21997023"><ele>436.095215</ele><time>2009-06-14T11:54:54Z</time></trkpt>
<trkpt lat="47.10986853" lon="7.21971273"><ele>436.095215</ele><time>2009-06-14T11:54:59Z</time></trkpt>
<trkpt lat="47.10973978" lon="7.21960545"><ele>435.614502</ele><time>2009-06-14T11:55:02Z</time></trkpt>
<trkpt lat="47.10886002" lon="7.21917629"><ele>434.65332</ele><time>2009-06-14T11:55:20Z</time></trkpt>
<trkpt lat="47.10832357" lon="7.21889734"><ele>436.095215</ele><time>2009-06-14T11:55:31Z</time></trkpt>
<trkpt lat="47.10802317" lon="7.21883297"><ele>436.095215</ele><time>2009-06-14T11:55:38Z</time></trkpt>
<trkpt lat="47.10722923" lon="7.21866131"><ele>435.614502</ele><time>2009-06-14T11:55:54Z</time></trkpt>
<trkpt lat="47.10712194" lon="7.21848965"><ele>436.575928</ele><time>2009-06-14T11:55:57Z</time></trkpt>
<trkpt lat="47.10701466" lon="7.21825361"><ele>436.095215</ele><time>2009-06-14T11:56:01Z</time></trkpt>
<trkpt lat="47.10688591" lon="7.21795321"><ele>436.095215</ele><time>2009-06-14T11:56:06Z</time></trkpt>
<trkpt lat="47.10632801" lon="7.21748114"><ele>437.056519</ele><time>2009-06-14T11:56:20Z</time></trkpt>
<trkpt lat="47.10611343" lon="7.21735239"><ele>437.537109</ele><time>2009-06-14T11:56:25Z</time></trkpt>
<trkpt lat="47.10564137" lon="7.21713781"><ele>436.575928</ele><time>2009-06-14T11:56:36Z</time></trkpt>
<trkpt lat="47.10499763" lon="7.21705198"><ele>438.017822</ele><time>2009-06-14T11:56:53Z</time></trkpt>
<trkpt lat="47.10471869" lon="7.21705198"><ele>441.863159</ele><time>2009-06-14T11:57:02Z</time></trkpt>
<trkpt lat="47.10461140" lon="7.21703053"><ele>441.382446</ele><time>2009-06-14T11:57:05Z</time></trkpt>
<trkpt lat="47.10458994" lon="7.21700907"><ele>441.863159</ele><time>2009-06-14T11:57:06Z</time></trkpt>
<trkpt lat="47.10420370" lon="7.21675158"><ele>445.708374</ele><time>2009-06-14T11:57:19Z</time></trkpt>
<trkpt lat="47.10401058" lon="7.21664429"><ele>445.227661</ele><time>2009-06-14T11:57:25Z</time></trkpt>
<trkpt lat="47.10383892" lon="7.21651554"><ele>444.266479</ele><time>2009-06-14T11:57:30Z</time></trkpt>
<trkpt lat="47.10375309" lon="7.21640825"><ele>442.824463</ele><time>2009-06-14T11:57:33Z</time></trkpt>
<trkpt lat="47.10358143" lon="7.21602201"><ele>440.901855</ele><time>2009-06-14T11:57:38Z</time></trkpt>
<trkpt lat="47.10300207" lon="7.21503496"><ele>435.614502</ele><time>2009-06-14T11:57:50Z</time></trkpt>
<trkpt lat="47.10225105" lon="7.21428394"><ele>437.056519</ele><time>2009-06-14T11:58:05Z</time></trkpt>
<trkpt lat="47.10141420" lon="7.21355438"><ele>439.459717</ele><time>2009-06-14T11:58:25Z</time></trkpt>
<trkpt lat="47.10064173" lon="7.21291065"><ele>443.305054</ele><time>2009-06-14T11:58:46Z</time></trkpt>
<trkpt lat="47.09986925" lon="7.21226692"><ele>446.669678</ele><time>2009-06-14T11:59:08Z</time></trkpt>
<trkpt lat="47.09905386" lon="7.21166611"><ele>449.072998</ele><time>2009-06-14T11:59:30Z</time></trkpt>
<trkpt lat="47.09843159" lon="7.21121550"><ele>452.437622</ele><time>2009-06-14T11:59:48Z</time></trkpt>
<trkpt lat="47.09778786" lon="7.21061468"><ele>454.84082</ele><time>2009-06-14T12:00:07Z</time></trkpt>
<trkpt lat="47.09733725" lon="7.21012115"><ele>455.802246</ele><time>2009-06-14T12:00:21Z</time></trkpt>
<trkpt lat="47.09699392" lon="7.20973492"><ele>454.84082</ele><time>2009-06-14T12:00:30Z</time></trkpt>
<trkpt lat="47.09684372" lon="7.20956326"><ele>455.802246</ele><time>2009-06-14T12:00:33Z</time></trkpt>
<trkpt lat="47.09667206" lon="7.20943451"><ele>453.879639</ele><time>2009-06-14T12:00:36Z</time></trkpt>
<trkpt lat="47.09572792" lon="7.20881224"><ele>447.630981</ele><time>2009-06-14T12:00:50Z</time></trkpt>
<trkpt lat="47.09529877" lon="7.20853329"><ele>450.995605</ele><time>2009-06-14T12:01:00Z</time></trkpt>
<trkpt lat="47.09508419" lon="7.20868349"><ele>451.957031</ele><time>2009-06-14T12:01:07Z</time></trkpt>
<trkpt lat="47.09501982" lon="7.20881224"><ele>452.918213</ele><time>2009-06-14T12:01:10Z</time></trkpt>
<trkpt lat="47.09467649" lon="7.20949888"><ele>455.802246</ele><time>2009-06-14T12:01:28Z</time></trkpt>
<trkpt lat="47.09461212" lon="7.20960617"><ele>456.282959</ele><time>2009-06-14T12:01:31Z</time></trkpt>
<trkpt lat="47.09452629" lon="7.20973492"><ele>457.244263</ele><time>2009-06-14T12:01:35Z</time></trkpt>
<trkpt lat="47.09439754" lon="7.20994949"><ele>458.205566</ele><time>2009-06-14T12:01:41Z</time></trkpt>
<trkpt lat="47.09420443" lon="7.21022844"><ele>458.686157</ele><time>2009-06-14T12:01:50Z</time></trkpt>
<trkpt lat="47.09411860" lon="7.21031427"><ele>459.16687</ele><time>2009-06-14T12:01:53Z</time></trkpt>
<trkpt lat="47.09403276" lon="7.21044302"><ele>460.128174</ele><time>2009-06-14T12:01:57Z</time></trkpt>
<trkpt lat="47.09371090" lon="7.21082926"><ele>461.089478</ele><time>2009-06-14T12:02:09Z</time></trkpt>
<trkpt lat="47.09319592" lon="7.21143007"><ele>459.16687</ele><time>2009-06-14T12:02:21Z</time></trkpt>
<trkpt lat="47.09291697" lon="7.21170902"><ele>458.686157</ele><time>2009-06-14T12:02:26Z</time></trkpt>
<trkpt lat="47.09192991" lon="7.21220255"><ele>457.244263</ele><time>2009-06-14T12:02:43Z</time></trkpt>
<trkpt lat="47.09115744" lon="7.21258879"><ele>458.686157</ele><time>2009-06-14T12:03:02Z</time></trkpt>
<trkpt lat="47.09042788" lon="7.21295357"><ele>460.128174</ele><time>2009-06-14T12:03:23Z</time></trkpt>
<trkpt lat="47.08967686" lon="7.21333981"><ele>461.57019</ele><time>2009-06-14T12:03:44Z</time></trkpt>
<trkpt lat="47.08926916" lon="7.21353292"><ele>462.531372</ele><time>2009-06-14T12:03:56Z</time></trkpt>
<trkpt lat="47.08871126" lon="7.21381187"><ele>464.454102</ele><time>2009-06-14T12:04:12Z</time></trkpt>
<trkpt lat="47.08853960" lon="7.21364021"><ele>463.012085</ele><time>2009-06-14T12:04:18Z</time></trkpt>
<trkpt lat="47.08804607" lon="7.21250296"><ele>459.16687</ele><time>2009-06-14T12:04:38Z</time></trkpt>
<trkpt lat="47.08753109" lon="7.21164465"><ele>456.76355</ele><time>2009-06-14T12:04:55Z</time></trkpt>
<trkpt lat="47.08695173" lon="7.21072197"><ele>455.802246</ele><time>2009-06-14T12:05:13Z</time></trkpt>
<trkpt lat="47.08628654" lon="7.20979929"><ele>455.802246</ele><time>2009-06-14T12:05:31Z</time></trkpt>
<trkpt lat="47.08587885" lon="7.20934868"><ele>453.398926</ele><time>2009-06-14T12:05:41Z</time></trkpt>
<trkpt lat="47.08575010" lon="7.20904827"><ele>451.476318</ele><time>2009-06-14T12:05:45Z</time></trkpt>
<trkpt lat="47.08559990" lon="7.20885515"><ele>451.476318</ele><time>2009-06-14T12:05:48Z</time></trkpt>
<trkpt lat="47.08504200" lon="7.20831871"><ele>451.957031</ele><time>2009-06-14T12:06:01Z</time></trkpt>
<trkpt lat="47.08478451" lon="7.20810413"><ele>454.360229</ele><time>2009-06-14T12:06:09Z</time></trkpt>
<trkpt lat="47.08474159" lon="7.20806122"><ele>454.360229</ele><time>2009-06-14T12:06:11Z</time></trkpt>
<trkpt lat="47.08463430" lon="7.20782518"><ele>452.437622</ele><time>2009-06-14T12:06:15Z</time></trkpt>
<trkpt lat="47.08444118" lon="7.20722437"><ele>448.592407</ele><time>2009-06-14T12:06:22Z</time></trkpt>
<trkpt lat="47.08416224" lon="7.20679522"><ele>449.553711</ele><time>2009-06-14T12:06:30Z</time></trkpt>
<trkpt lat="47.08379745" lon="7.20636606"><ele>451.957031</ele><time>2009-06-14T12:06:41Z</time></trkpt>
<trkpt lat="47.08319664" lon="7.20567942"><ele>452.437622</ele><time>2009-06-14T12:06:59Z</time></trkpt>
<trkpt lat="47.08308935" lon="7.20552921"><ele>452.437622</ele><time>2009-06-14T12:07:03Z</time></trkpt>
<trkpt lat="47.08321810" lon="7.20537901"><ele>451.476318</ele><time>2009-06-14T12:07:08Z</time></trkpt>
<trkpt lat="47.08358288" lon="7.20520735"><ele>447.630981</ele><time>2009-06-14T12:07:15Z</time></trkpt>
<trkpt lat="47.08379745" lon="7.20497131"><ele>444.74707</ele><time>2009-06-14T12:07:19Z</time></trkpt>
<trkpt lat="47.08409786" lon="7.20437050"><ele>438.017822</ele><time>2009-06-14T12:07:27Z</time></trkpt>
<trkpt lat="47.08414078" lon="7.20415592"><ele>434.65332</ele><time>2009-06-14T12:07:29Z</time></trkpt>
<trkpt lat="47.08409786" lon="7.20344782"><ele>428.885376</ele><time>2009-06-14T12:07:35Z</time></trkpt>
<trkpt lat="47.08392620" lon="7.20308304"><ele>428.404663</ele><time>2009-06-14T12:07:39Z</time></trkpt>
<trkpt lat="47.08341122" lon="7.20250368"><ele>429.846558</ele><time>2009-06-14T12:07:49Z</time></trkpt>
<trkpt lat="47.08248854" lon="7.20177412"><ele>433.691895</ele><time>2009-06-14T12:08:09Z</time></trkpt>
<trkpt lat="47.08190918" lon="7.20125914"><ele>433.211304</ele><time>2009-06-14T12:08:24Z</time></trkpt>
<trkpt lat="47.08143711" lon="7.20087290"><ele>431.769165</ele><time>2009-06-14T12:08:35Z</time></trkpt>
<trkpt lat="47.08126545" lon="7.20074415"><ele>431.288574</ele><time>2009-06-14T12:08:39Z</time></trkpt>
<trkpt lat="47.08100796" lon="7.20044374"><ele>430.807983</ele><time>2009-06-14T12:08:46Z</time></trkpt>
<trkpt lat="47.08090067" lon="7.20031500"><ele>430.327271</ele><time>2009-06-14T12:08:49Z</time></trkpt>
<trkpt lat="47.08038568" lon="7.19973564"><ele>430.327271</ele><time>2009-06-14T12:09:02Z</time></trkpt>
<trkpt lat="47.08027840" lon="7.19958544"><ele>430.327271</ele><time>2009-06-14T12:09:05Z</time></trkpt>
<trkpt lat="47.07954884" lon="7.19877005"><ele>431.288574</ele><time>2009-06-14T12:09:24Z</time></trkpt>
<trkpt lat="47.07909822" lon="7.19823360"><ele>430.807983</ele><time>2009-06-14T12:09:36Z</time></trkpt>
<trkpt lat="47.07873344" lon="7.19778299"><ele>430.807983</ele><time>2009-06-14T12:09:48Z</time></trkpt>
<trkpt lat="47.07828283" lon="7.19724655"><ele>432.25</ele><time>2009-06-14T12:10:01Z</time></trkpt>
<trkpt lat="47.07748890" lon="7.19632387"><ele>434.172607</ele><time>2009-06-14T12:10:21Z</time></trkpt>
<trkpt lat="47.07718849" lon="7.19602346"><ele>432.730713</ele><time>2009-06-14T12:10:28Z</time></trkpt>
<trkpt lat="47.07686663" lon="7.19576597"><ele>433.691895</ele><time>2009-06-14T12:10:36Z</time></trkpt>
<trkpt lat="47.07688808" lon="7.19559431"><ele>433.691895</ele><time>2009-06-14T12:10:40Z</time></trkpt>
<trkpt lat="47.07688808" lon="7.19555140"><ele>434.172607</ele><time>2009-06-14T12:10:41Z</time></trkpt>
<trkpt lat="47.07697392" lon="7.19540119"><ele>434.172607</ele><time>2009-06-14T12:10:44Z</time></trkpt>
<trkpt lat="47.07688808" lon="7.19522953"><ele>434.65332</ele><time>2009-06-14T12:10:48Z</time></trkpt>
<trkpt lat="47.07682371" lon="7.19514370"><ele>434.65332</ele><time>2009-06-14T12:10:50Z</time></trkpt>
<trkpt lat="47.07622290" lon="7.19437122"><ele>429.365967</ele><time>2009-06-14T12:11:10Z</time></trkpt>
<trkpt lat="47.07570791" lon="7.19385624"><ele>428.404663</ele><time>2009-06-14T12:11:24Z</time></trkpt>
<trkpt lat="47.07557917" lon="7.19370604"><ele>427.92395</ele><time>2009-06-14T12:11:28Z</time></trkpt>
<trkpt lat="47.07551479" lon="7.19362020"><ele>428.404663</ele><time>2009-06-14T12:11:30Z</time></trkpt>
<trkpt lat="47.07523584" lon="7.19379187"><ele>429.365967</ele><time>2009-06-14T12:11:37Z</time></trkpt>
<trkpt lat="47.07517147" lon="7.19389915"><ele>429.365967</ele><time>2009-06-14T12:11:39Z</time></trkpt>
<trkpt lat="47.07502127" lon="7.19422102"><ele>428.885376</ele><time>2009-06-14T12:11:45Z</time></trkpt>
<trkpt lat="47.07484961" lon="7.19428539"><ele>429.365967</ele><time>2009-06-14T12:11:49Z</time></trkpt>
<trkpt lat="47.07476377" lon="7.19426394"><ele>429.365967</ele><time>2009-06-14T12:11:51Z</time></trkpt>
<trkpt lat="47.07396984" lon="7.19372749"><ele>428.404663</ele><time>2009-06-14T12:12:09Z</time></trkpt>
<trkpt lat="47.07345486" lon="7.19334126"><ele>428.404663</ele><time>2009-06-14T12:12:20Z</time></trkpt>
<trkpt lat="47.07330465" lon="7.19327688"><ele>428.404663</ele><time>2009-06-14T12:12:23Z</time></trkpt>
<trkpt lat="47.07225323" lon="7.19286919"><ele>430.807983</ele><time>2009-06-14T12:12:45Z</time></trkpt>
<trkpt lat="47.07156658" lon="7.19259024"><ele>430.327271</ele><time>2009-06-14T12:13:00Z</time></trkpt>
<trkpt lat="47.07057953" lon="7.19198942"><ele>429.365967</ele><time>2009-06-14T12:13:22Z</time></trkpt>
<trkpt lat="47.06931353" lon="7.19110966"><ele>429.365967</ele><time>2009-06-14T12:13:51Z</time></trkpt>
<trkpt lat="47.06841230" lon="7.19025135"><ele>426.482056</ele><time>2009-06-14T12:14:13Z</time></trkpt>
<trkpt lat="47.06815481" lon="7.18995094"><ele>425.520752</ele><time>2009-06-14T12:14:20Z</time></trkpt>
<trkpt lat="47.06727505" lon="7.18945742"><ele>430.327271</ele><time>2009-06-14T12:14:38Z</time></trkpt>
<trkpt lat="47.06624508" lon="7.18881369"><ele>430.807983</ele><time>2009-06-14T12:14:59Z</time></trkpt>
<trkpt lat="47.06555843" lon="7.18797684"><ele>429.846558</ele><time>2009-06-14T12:15:17Z</time></trkpt>
<trkpt lat="47.06500053" lon="7.18741894"><ele>428.404663</ele><time>2009-06-14T12:15:32Z</time></trkpt>
<trkpt lat="47.06424952" lon="7.18651772"><ele>428.885376</ele><time>2009-06-14T12:15:52Z</time></trkpt>
<trkpt lat="47.06394911" lon="7.18615294"><ele>428.404663</ele><time>2009-06-14T12:16:00Z</time></trkpt>
<trkpt lat="47.06360579" lon="7.18548775"><ele>429.365967</ele><time>2009-06-14T12:16:13Z</time></trkpt>
<trkpt lat="47.06360579" lon="7.18544483"><ele>429.365967</ele><time>2009-06-14T12:16:16Z</time></trkpt>
<trkpt lat="47.06360579" lon="7.18540192"><ele>433.691895</ele><time>2009-06-14T12:17:02Z</time></trkpt>
<trkpt lat="47.06360579" lon="7.18540192"><ele>433.691895</ele><time>2009-06-14T12:17:42Z</time></trkpt>
<trkpt lat="47.06360579" lon="7.18538046"><ele>433.211304</ele><time>2009-06-14T12:17:45Z</time></trkpt>
<trkpt lat="47.06360579" lon="7.18538046"><ele>437.056519</ele><time>2009-06-14T12:21:15Z</time></trkpt>
<trkpt lat="47.06358433" lon="7.18538046"><ele>436.095215</ele><time>2009-06-14T12:21:42Z</time></trkpt>
<trkpt lat="47.06356287" lon="7.18535900"><ele>436.575928</ele><time>2009-06-14T12:21:48Z</time></trkpt>
<trkpt lat="47.06356287" lon="7.18535900"><ele>435.614502</ele><time>2009-06-14T12:21:52Z</time></trkpt>
<trkpt lat="47.06351995" lon="7.18531609"><ele>436.095215</ele><time>2009-06-14T12:21:56Z</time></trkpt>
<trkpt lat="47.06351995" lon="7.18529463"><ele>435.614502</ele><time>2009-06-14T12:21:58Z</time></trkpt>
<trkpt lat="47.06345558" lon="7.18523026"><ele>435.133911</ele><time>2009-06-14T12:22:01Z</time></trkpt>
<trkpt lat="47.06302643" lon="7.18473673"><ele>433.211304</ele><time>2009-06-14T12:22:14Z</time></trkpt>
<trkpt lat="47.06244707" lon="7.18402863"><ele>431.288574</ele><time>2009-06-14T12:22:31Z</time></trkpt>
<trkpt lat="47.06253290" lon="7.18362093"><ele>431.288574</ele><time>2009-06-14T12:22:38Z</time></trkpt>
<trkpt lat="47.06255436" lon="7.18357801"><ele>431.769165</ele><time>2009-06-14T12:22:39Z</time></trkpt>
<trkpt lat="47.06283331" lon="7.18319178"><ele>432.25</ele><time>2009-06-14T12:22:47Z</time></trkpt>
<trkpt lat="47.06276894" lon="7.18284845"><ele>433.211304</ele><time>2009-06-14T12:22:53Z</time></trkpt>
<trkpt lat="47.06264019" lon="7.18276262"><ele>431.769165</ele><time>2009-06-14T12:22:56Z</time></trkpt>
<trkpt lat="47.06186771" lon="7.18216181"><ele>429.846558</ele><time>2009-06-14T12:23:13Z</time></trkpt>
<trkpt lat="47.06090212" lon="7.18147516"><ele>429.846558</ele><time>2009-06-14T12:23:35Z</time></trkpt>
<trkpt lat="47.06053734" lon="7.18093872"><ele>434.172607</ele><time>2009-06-14T12:23:50Z</time></trkpt>
<trkpt lat="47.06049442" lon="7.18085289"><ele>434.172607</ele><time>2009-06-14T12:23:53Z</time></trkpt>
<trkpt lat="47.06047297" lon="7.18074560"><ele>433.211304</ele><time>2009-06-14T12:23:56Z</time></trkpt>
<trkpt lat="47.06047297" lon="7.18068123"><ele>433.211304</ele><time>2009-06-14T12:23:58Z</time></trkpt>
<trkpt lat="47.06043005" lon="7.18018770"><ele>433.211304</ele><time>2009-06-14T12:24:10Z</time></trkpt>
<trkpt lat="47.06045151" lon="7.18001604"><ele>433.691895</ele><time>2009-06-14T12:24:14Z</time></trkpt>
<trkpt lat="47.06051588" lon="7.17980146"><ele>435.614502</ele><time>2009-06-14T12:24:19Z</time></trkpt>
<trkpt lat="47.06058025" lon="7.17960835"><ele>436.095215</ele><time>2009-06-14T12:24:23Z</time></trkpt>
<trkpt lat="47.06060171" lon="7.17954397"><ele>436.575928</ele><time>2009-06-14T12:24:25Z</time></trkpt>
<trkpt lat="47.06073046" lon="7.17941523"><ele>437.537109</ele><time>2009-06-14T12:24:29Z</time></trkpt>
<trkpt lat="47.06077337" lon="7.17941523"><ele>437.537109</ele><time>2009-06-14T12:24:30Z</time></trkpt>
<trkpt lat="47.06090212" lon="7.17939377"><ele>437.537109</ele><time>2009-06-14T12:24:34Z</time></trkpt>
<trkpt lat="47.06092358" lon="7.17935085"><ele>438.498535</ele><time>2009-06-14T12:24:42Z</time></trkpt>
<trkpt lat="47.06085920" lon="7.17937231"><ele>438.979126</ele><time>2009-06-14T12:24:44Z</time></trkpt>
<trkpt lat="47.06085920" lon="7.17922211"><ele>439.459717</ele><time>2009-06-14T12:24:50Z</time></trkpt>
<trkpt lat="47.06107378" lon="7.17909336"><ele>439.459717</ele><time>2009-06-14T12:24:58Z</time></trkpt>
<trkpt lat="47.06107378" lon="7.17907190"><ele>438.979126</ele><time>2009-06-14T12:24:59Z</time></trkpt>
<trkpt lat="47.06109524" lon="7.17851400"><ele>439.459717</ele><time>2009-06-14T12:25:13Z</time></trkpt>
<trkpt lat="47.06107378" lon="7.17851400"><ele>439.459717</ele><time>2009-06-14T12:25:16Z</time></trkpt>
<trkpt lat="47.06105232" lon="7.17851400"><ele>439.459717</ele><time>2009-06-14T12:25:17Z</time></trkpt>
<trkpt lat="47.06100941" lon="7.17849255"><ele>439.459717</ele><time>2009-06-14T12:25:20Z</time></trkpt>
<trkpt lat="47.06094503" lon="7.17849255"><ele>439.94043</ele><time>2009-06-14T12:25:23Z</time></trkpt>
<trkpt lat="47.06045151" lon="7.17853546"><ele>442.343872</ele><time>2009-06-14T12:25:39Z</time></trkpt>
<trkpt lat="47.06034422" lon="7.17853546"><ele>442.343872</ele><time>2009-06-14T12:25:42Z</time></trkpt>
<trkpt lat="47.05997944" lon="7.17851400"><ele>442.824463</ele><time>2009-06-14T12:25:53Z</time></trkpt>
<trkpt lat="47.05980778" lon="7.17832088"><ele>444.74707</ele><time>2009-06-14T12:26:03Z</time></trkpt>
<trkpt lat="47.05980778" lon="7.17829943"><ele>444.266479</ele><time>2009-06-14T12:26:05Z</time></trkpt>
<trkpt lat="47.05978632" lon="7.17823505"><ele>444.266479</ele><time>2009-06-14T12:26:09Z</time></trkpt>
<trkpt lat="47.05976486" lon="7.17819214"><ele>444.266479</ele><time>2009-06-14T12:26:12Z</time></trkpt>
<trkpt lat="47.05970049" lon="7.17804193"><ele>443.785767</ele><time>2009-06-14T12:26:15Z</time></trkpt>
<trkpt lat="47.05955029" lon="7.17776299"><ele>442.824463</ele><time>2009-06-14T12:26:24Z</time></trkpt>
<trkpt lat="47.05950737" lon="7.17774153"><ele>443.305054</ele><time>2009-06-14T12:26:33Z</time></trkpt>
<trkpt lat="47.05940008" lon="7.17769861"><ele>442.343872</ele><time>2009-06-14T12:26:43Z</time></trkpt>
<trkpt lat="47.05940008" lon="7.17772007"><ele>442.824463</ele><time>2009-06-14T12:26:44Z</time></trkpt>
<trkpt lat="47.05935717" lon="7.17774153"><ele>442.824463</ele><time>2009-06-14T12:26:46Z</time></trkpt>
<trkpt lat="47.05933571" lon="7.17765570"><ele>441.863159</ele><time>2009-06-14T12:26:50Z</time></trkpt>
<trkpt lat="47.05946445" lon="7.17744112"><ele>439.94043</ele><time>2009-06-14T12:26:56Z</time></trkpt>
<trkpt lat="47.05948591" lon="7.17739820"><ele>438.498535</ele><time>2009-06-14T12:26:58Z</time></trkpt>
<trkpt lat="47.05931425" lon="7.17729092"><ele>436.575928</ele><time>2009-06-14T12:27:03Z</time></trkpt>
<trkpt lat="47.05927134" lon="7.17729092"><ele>436.575928</ele><time>2009-06-14T12:27:04Z</time></trkpt>
<trkpt lat="47.05907822" lon="7.17735529"><ele>436.575928</ele><time>2009-06-14T12:27:08Z</time></trkpt>
<trkpt lat="47.05849886" lon="7.17759132"><ele>436.095215</ele><time>2009-06-14T12:27:25Z</time></trkpt>
<trkpt lat="47.05839157" lon="7.17754841"><ele>436.095215</ele><time>2009-06-14T12:27:28Z</time></trkpt>
<trkpt lat="47.05817699" lon="7.17756987"><ele>435.614502</ele><time>2009-06-14T12:27:36Z</time></trkpt>
<trkpt lat="47.05815554" lon="7.17759132"><ele>435.614502</ele><time>2009-06-14T12:27:37Z</time></trkpt>
<trkpt lat="47.05802679" lon="7.17752695"><ele>435.614502</ele><time>2009-06-14T12:27:42Z</time></trkpt>
<trkpt lat="47.05800533" lon="7.17750549"><ele>435.133911</ele><time>2009-06-14T12:27:43Z</time></trkpt>
<trkpt lat="47.05757618" lon="7.17690468"><ele>431.288574</ele><time>2009-06-14T12:27:57Z</time></trkpt>
<trkpt lat="47.05701828" lon="7.17619658"><ele>429.846558</ele><time>2009-06-14T12:28:15Z</time></trkpt>
<trkpt lat="47.05637455" lon="7.17544556"><ele>428.404663</ele><time>2009-06-14T12:28:33Z</time></trkpt>
<trkpt lat="47.05568790" lon="7.17473745"><ele>425.520752</ele><time>2009-06-14T12:28:53Z</time></trkpt>
<trkpt lat="47.05525875" lon="7.17398643"><ele>425.520752</ele><time>2009-06-14T12:29:11Z</time></trkpt>
<trkpt lat="47.05470085" lon="7.17291355"><ele>426.001343</ele><time>2009-06-14T12:29:31Z</time></trkpt>
<trkpt lat="47.05401421" lon="7.17179775"><ele>427.92395</ele><time>2009-06-14T12:29:51Z</time></trkpt>
<trkpt lat="47.05339193" lon="7.17061758"><ele>426.001343</ele><time>2009-06-14T12:30:13Z</time></trkpt>
<trkpt lat="47.05279112" lon="7.16945887"><ele>424.559448</ele><time>2009-06-14T12:30:34Z</time></trkpt>
<trkpt lat="47.05208302" lon="7.16847181"><ele>423.598022</ele><time>2009-06-14T12:30:54Z</time></trkpt>
<trkpt lat="47.05199718" lon="7.16832161"><ele>424.078735</ele><time>2009-06-14T12:30:57Z</time></trkpt>
<trkpt lat="47.05171824" lon="7.16750622"><ele>424.559448</ele><time>2009-06-14T12:31:10Z</time></trkpt>
<trkpt lat="47.05158949" lon="7.16731310"><ele>424.559448</ele><time>2009-06-14T12:31:14Z</time></trkpt>
<trkpt lat="47.05096722" lon="7.16649771"><ele>425.040161</ele><time>2009-06-14T12:31:31Z</time></trkpt>
<trkpt lat="47.05008745" lon="7.16546774"><ele>426.482056</ele><time>2009-06-14T12:31:53Z</time></trkpt>
<trkpt lat="47.04940081" lon="7.16443777"><ele>428.885376</ele><time>2009-06-14T12:32:12Z</time></trkpt>
<trkpt lat="47.04935789" lon="7.16422319"><ele>428.885376</ele><time>2009-06-14T12:32:15Z</time></trkpt>
<trkpt lat="47.04907894" lon="7.16287136"><ele>426.482056</ele><time>2009-06-14T12:32:33Z</time></trkpt>
<trkpt lat="47.04901457" lon="7.16276407"><ele>426.482056</ele><time>2009-06-14T12:32:35Z</time></trkpt>
<trkpt lat="47.04895020" lon="7.16263533"><ele>426.482056</ele><time>2009-06-14T12:32:37Z</time></trkpt>
<trkpt lat="47.04882145" lon="7.16248512"><ele>426.482056</ele><time>2009-06-14T12:32:40Z</time></trkpt>
<trkpt lat="47.04864979" lon="7.16237783"><ele>427.92395</ele><time>2009-06-14T12:32:43Z</time></trkpt>
<trkpt lat="47.04837084" lon="7.16220617"><ele>428.404663</ele><time>2009-06-14T12:32:49Z</time></trkpt>
<trkpt lat="47.04824209" lon="7.16207743"><ele>427.92395</ele><time>2009-06-14T12:32:52Z</time></trkpt>
<trkpt lat="47.04787731" lon="7.16143370"><ele>429.846558</ele><time>2009-06-14T12:33:04Z</time></trkpt>
<trkpt lat="47.04783440" lon="7.16132641"><ele>429.846558</ele><time>2009-06-14T12:33:06Z</time></trkpt>
<trkpt lat="47.04740524" lon="7.16018915"><ele>430.327271</ele><time>2009-06-14T12:33:24Z</time></trkpt>
<trkpt lat="47.04704046" lon="7.15864420"><ele>431.288574</ele><time>2009-06-14T12:33:47Z</time></trkpt>
<trkpt lat="47.04686880" lon="7.15793610"><ele>431.288574</ele><time>2009-06-14T12:33:57Z</time></trkpt>
<trkpt lat="47.04686880" lon="7.15776443"><ele>430.327271</ele><time>2009-06-14T12:33:59Z</time></trkpt>
<trkpt lat="47.04682589" lon="7.15739965"><ele>429.846558</ele><time>2009-06-14T12:34:04Z</time></trkpt>
<trkpt lat="47.04669714" lon="7.15673447"><ele>430.327271</ele><time>2009-06-14T12:34:14Z</time></trkpt>
<trkpt lat="47.04650402" lon="7.15581179"><ele>429.846558</ele><time>2009-06-14T12:34:28Z</time></trkpt>
<trkpt lat="47.04641819" lon="7.15525389"><ele>428.404663</ele><time>2009-06-14T12:34:36Z</time></trkpt>
<trkpt lat="47.04637527" lon="7.15495348"><ele>427.92395</ele><time>2009-06-14T12:34:40Z</time></trkpt>
<trkpt lat="47.04643965" lon="7.15392351"><ele>427.443359</ele><time>2009-06-14T12:34:55Z</time></trkpt>
<trkpt lat="47.04648256" lon="7.15379477"><ele>427.92395</ele><time>2009-06-14T12:34:57Z</time></trkpt>
<trkpt lat="47.04654694" lon="7.15340853"><ele>428.885376</ele><time>2009-06-14T12:35:03Z</time></trkpt>
<trkpt lat="47.04678297" lon="7.15233564"><ele>431.769165</ele><time>2009-06-14T12:35:19Z</time></trkpt>
<trkpt lat="47.04684734" lon="7.15207815"><ele>432.25</ele><time>2009-06-14T12:35:23Z</time></trkpt>
<trkpt lat="47.04680443" lon="7.15182066"><ele>433.691895</ele><time>2009-06-14T12:35:27Z</time></trkpt>
<trkpt lat="47.04678297" lon="7.15175629"><ele>433.211304</ele><time>2009-06-14T12:35:28Z</time></trkpt>
<trkpt lat="47.04676151" lon="7.15162754"><ele>434.172607</ele><time>2009-06-14T12:35:31Z</time></trkpt>
<trkpt lat="47.04680443" lon="7.15154171"><ele>434.65332</ele><time>2009-06-14T12:35:35Z</time></trkpt>
<trkpt lat="47.04684734" lon="7.15139151"><ele>434.65332</ele><time>2009-06-14T12:35:39Z</time></trkpt>
<trkpt lat="47.04689026" lon="7.15119839"><ele>434.172607</ele><time>2009-06-14T12:35:43Z</time></trkpt>
<trkpt lat="47.04689026" lon="7.15111256"><ele>433.691895</ele><time>2009-06-14T12:35:45Z</time></trkpt>
<trkpt lat="47.04686880" lon="7.15100527"><ele>432.730713</ele><time>2009-06-14T12:35:48Z</time></trkpt>
<trkpt lat="47.04680443" lon="7.15081215"><ele>432.25</ele><time>2009-06-14T12:35:53Z</time></trkpt>
<trkpt lat="47.04669714" lon="7.15055466"><ele>432.730713</ele><time>2009-06-14T12:36:00Z</time></trkpt>
<trkpt lat="47.04658985" lon="7.15027571"><ele>432.730713</ele><time>2009-06-14T12:36:06Z</time></trkpt>
<trkpt lat="47.04652548" lon="7.15012550"><ele>432.730713</ele><time>2009-06-14T12:36:09Z</time></trkpt>
<trkpt lat="47.04650402" lon="7.15006113"><ele>432.730713</ele><time>2009-06-14T12:36:11Z</time></trkpt>
<trkpt lat="47.04646111" lon="7.14984655"><ele>432.730713</ele><time>2009-06-14T12:36:15Z</time></trkpt>
<trkpt lat="47.04620361" lon="7.14894533"><ele>431.288574</ele><time>2009-06-14T12:36:30Z</time></trkpt>
<trkpt lat="47.04568863" lon="7.14763641"><ele>430.807983</ele><time>2009-06-14T12:36:49Z</time></trkpt>
<trkpt lat="47.04506636" lon="7.14613438"><ele>428.885376</ele><time>2009-06-14T12:37:11Z</time></trkpt>
<trkpt lat="47.04472303" lon="7.14529753"><ele>428.885376</ele><time>2009-06-14T12:37:26Z</time></trkpt>
<trkpt lat="47.04468012" lon="7.14521170"><ele>428.404663</ele><time>2009-06-14T12:37:28Z</time></trkpt>
<trkpt lat="47.04455137" lon="7.14506149"><ele>428.404663</ele><time>2009-06-14T12:37:32Z</time></trkpt>
<trkpt lat="47.04450846" lon="7.14495420"><ele>428.885376</ele><time>2009-06-14T12:37:34Z</time></trkpt>
<trkpt lat="47.04440117" lon="7.14463234"><ele>427.92395</ele><time>2009-06-14T12:37:40Z</time></trkpt>
<trkpt lat="47.04420805" lon="7.14403152"><ele>426.962769</ele><time>2009-06-14T12:37:52Z</time></trkpt>
<trkpt lat="47.04410076" lon="7.14368820"><ele>426.962769</ele><time>2009-06-14T12:37:59Z</time></trkpt>
<trkpt lat="47.04377890" lon="7.14267969"><ele>428.404663</ele><time>2009-06-14T12:38:17Z</time></trkpt>
<trkpt lat="47.04347849" lon="7.14177847"><ele>428.404663</ele><time>2009-06-14T12:38:32Z</time></trkpt>
<trkpt lat="47.04311371" lon="7.14057684"><ele>428.885376</ele><time>2009-06-14T12:38:51Z</time></trkpt>
<trkpt lat="47.04268456" lon="7.13924646"><ele>430.807983</ele><time>2009-06-14T12:39:12Z</time></trkpt>
<trkpt lat="47.04214811" lon="7.13755131"><ele>432.25</ele><time>2009-06-14T12:39:38Z</time></trkpt>
<trkpt lat="47.04171896" lon="7.13628531"><ele>433.211304</ele><time>2009-06-14T12:39:56Z</time></trkpt>
<trkpt lat="47.04118252" lon="7.13474035"><ele>435.133911</ele><time>2009-06-14T12:40:20Z</time></trkpt>
<trkpt lat="47.04066753" lon="7.13313103"><ele>434.172607</ele><time>2009-06-14T12:40:43Z</time></trkpt>
<trkpt lat="47.04008818" lon="7.13135004"><ele>433.691895</ele><time>2009-06-14T12:41:08Z</time></trkpt>
<trkpt lat="47.03959465" lon="7.12978363"><ele>431.288574</ele><time>2009-06-14T12:41:28Z</time></trkpt>
<trkpt lat="47.03927279" lon="7.12890387"><ele>431.288574</ele><time>2009-06-14T12:41:40Z</time></trkpt>
<trkpt lat="47.03912258" lon="7.12740183"><ele>432.25</ele><time>2009-06-14T12:41:58Z</time></trkpt>
<trkpt lat="47.03897238" lon="7.12559938"><ele>432.25</ele><time>2009-06-14T12:42:21Z</time></trkpt>
<trkpt lat="47.03895092" lon="7.12532043"><ele>432.25</ele><time>2009-06-14T12:42:25Z</time></trkpt>
<trkpt lat="47.03871489" lon="7.12459087"><ele>430.327271</ele><time>2009-06-14T12:42:38Z</time></trkpt>
<trkpt lat="47.03837156" lon="7.12379694"><ele>430.807983</ele><time>2009-06-14T12:42:54Z</time></trkpt>
<trkpt lat="47.03798532" lon="7.12300301"><ele>430.327271</ele><time>2009-06-14T12:43:10Z</time></trkpt>
<trkpt lat="47.03742743" lon="7.12186575"><ele>431.769165</ele><time>2009-06-14T12:43:31Z</time></trkpt>
<trkpt lat="47.03723431" lon="7.12135077"><ele>431.288574</ele><time>2009-06-14T12:43:40Z</time></trkpt>
<trkpt lat="47.03719139" lon="7.12115765"><ele>431.769165</ele><time>2009-06-14T12:43:43Z</time></trkpt>
<trkpt lat="47.03712702" lon="7.12074995"><ele>431.769165</ele><time>2009-06-14T12:43:49Z</time></trkpt>
<trkpt lat="47.03691244" lon="7.11959124"><ele>431.769165</ele><time>2009-06-14T12:44:07Z</time></trkpt>
<trkpt lat="47.03669786" lon="7.11819649"><ele>431.288574</ele><time>2009-06-14T12:44:28Z</time></trkpt>
<trkpt lat="47.03648329" lon="7.11665154"><ele>431.769165</ele><time>2009-06-14T12:44:51Z</time></trkpt>
<trkpt lat="47.03633308" lon="7.11529970"><ele>429.846558</ele><time>2009-06-14T12:45:10Z</time></trkpt>
<trkpt lat="47.03626871" lon="7.11482763"><ele>429.365967</ele><time>2009-06-14T12:45:17Z</time></trkpt>
<trkpt lat="47.03620434" lon="7.11431265"><ele>428.885376</ele><time>2009-06-14T12:45:25Z</time></trkpt>
<trkpt lat="47.03618288" lon="7.11409807"><ele>427.92395</ele><time>2009-06-14T12:45:29Z</time></trkpt>
<trkpt lat="47.03618288" lon="7.11403370"><ele>427.92395</ele><time>2009-06-14T12:45:30Z</time></trkpt>
<trkpt lat="47.03607559" lon="7.11291790"><ele>428.885376</ele><time>2009-06-14T12:45:47Z</time></trkpt>
<trkpt lat="47.03618288" lon="7.11163044"><ele>428.885376</ele><time>2009-06-14T12:46:06Z</time></trkpt>
<trkpt lat="47.03624725" lon="7.11053610"><ele>428.404663</ele><time>2009-06-14T12:46:22Z</time></trkpt>
<trkpt lat="47.03618288" lon="7.11019278"><ele>429.846558</ele><time>2009-06-14T12:46:28Z</time></trkpt>
<trkpt lat="47.03609705" lon="7.11006403"><ele>430.807983</ele><time>2009-06-14T12:46:31Z</time></trkpt>
<trkpt lat="47.03590393" lon="7.10974216"><ele>432.25</ele><time>2009-06-14T12:46:39Z</time></trkpt>
<trkpt lat="47.03592539" lon="7.10954905"><ele>432.730713</ele><time>2009-06-14T12:46:45Z</time></trkpt>
<trkpt lat="47.03596830" lon="7.10948467"><ele>432.730713</ele><time>2009-06-14T12:46:47Z</time></trkpt>
<trkpt lat="47.03613997" lon="7.10922718"><ele>431.769165</ele><time>2009-06-14T12:46:53Z</time></trkpt>
<trkpt lat="47.03618288" lon="7.10909843"><ele>431.769165</ele><time>2009-06-14T12:46:55Z</time></trkpt>
<trkpt lat="47.03622580" lon="7.10894823"><ele>430.807983</ele><time>2009-06-14T12:46:58Z</time></trkpt>
<trkpt lat="47.03631163" lon="7.10877657"><ele>430.807983</ele><time>2009-06-14T12:47:01Z</time></trkpt>
<trkpt lat="47.03644037" lon="7.10849762"><ele>431.769165</ele><time>2009-06-14T12:47:07Z</time></trkpt>
<trkpt lat="47.03652620" lon="7.10834742"><ele>431.769165</ele><time>2009-06-14T12:47:11Z</time></trkpt>
<trkpt lat="47.03674078" lon="7.10791826"><ele>431.769165</ele><time>2009-06-14T12:47:20Z</time></trkpt>
<trkpt lat="47.03706264" lon="7.10723162"><ele>430.807983</ele><time>2009-06-14T12:47:35Z</time></trkpt>
<trkpt lat="47.03742743" lon="7.10643768"><ele>429.846558</ele><time>2009-06-14T12:47:50Z</time></trkpt>
<trkpt lat="47.03781366" lon="7.10553646"><ele>428.885376</ele><time>2009-06-14T12:48:06Z</time></trkpt>
<trkpt lat="47.03824282" lon="7.10472107"><ele>428.404663</ele><time>2009-06-14T12:48:23Z</time></trkpt>
<trkpt lat="47.03877926" lon="7.10390568"><ele>430.327271</ele><time>2009-06-14T12:48:39Z</time></trkpt>
<trkpt lat="47.03957319" lon="7.10294008"><ele>430.327271</ele><time>2009-06-14T12:49:00Z</time></trkpt>
<trkpt lat="47.04045296" lon="7.10203886"><ele>429.846558</ele><time>2009-06-14T12:49:21Z</time></trkpt>
<trkpt lat="47.04056025" lon="7.10193157"><ele>429.365967</ele><time>2009-06-14T12:49:24Z</time></trkpt>
<trkpt lat="47.04135418" lon="7.10130930"><ele>430.807983</ele><time>2009-06-14T12:49:44Z</time></trkpt>
<trkpt lat="47.04195499" lon="7.10088015"><ele>432.25</ele><time>2009-06-14T12:49:59Z</time></trkpt>
<trkpt lat="47.04242706" lon="7.10055828"><ele>432.25</ele><time>2009-06-14T12:50:11Z</time></trkpt>
<trkpt lat="47.04266310" lon="7.10042953"><ele>432.25</ele><time>2009-06-14T12:50:17Z</time></trkpt>
<trkpt lat="47.04311371" lon="7.10017204"><ele>432.730713</ele><time>2009-06-14T12:50:28Z</time></trkpt>
<trkpt lat="47.04343557" lon="7.09997892"><ele>433.691895</ele><time>2009-06-14T12:50:36Z</time></trkpt>
<trkpt lat="47.04412222" lon="7.09944248"><ele>432.730713</ele><time>2009-06-14T12:50:54Z</time></trkpt>
<trkpt lat="47.04422951" lon="7.09935665"><ele>432.730713</ele><time>2009-06-14T12:50:57Z</time></trkpt>
<trkpt lat="47.04431534" lon="7.09931374"><ele>432.730713</ele><time>2009-06-14T12:50:59Z</time></trkpt>
<trkpt lat="47.04459429" lon="7.09909916"><ele>433.211304</ele><time>2009-06-14T12:51:07Z</time></trkpt>
<trkpt lat="47.04476595" lon="7.09899187"><ele>433.211304</ele><time>2009-06-14T12:51:12Z</time></trkpt>
<trkpt lat="47.04491615" lon="7.09894896"><ele>433.211304</ele><time>2009-06-14T12:51:16Z</time></trkpt>
<trkpt lat="47.04519510" lon="7.09882021"><ele>435.133911</ele><time>2009-06-14T12:51:27Z</time></trkpt>
<trkpt lat="47.04543114" lon="7.09879875"><ele>435.133911</ele><time>2009-06-14T12:51:37Z</time></trkpt>
<trkpt lat="47.04551697" lon="7.09877729"><ele>435.133911</ele><time>2009-06-14T12:51:40Z</time></trkpt>
<trkpt lat="47.04558134" lon="7.09875584"><ele>435.133911</ele><time>2009-06-14T12:51:42Z</time></trkpt>
<trkpt lat="47.04592466" lon="7.09864855"><ele>435.614502</ele><time>2009-06-14T12:51:52Z</time></trkpt>
<trkpt lat="47.04598904" lon="7.09864855"><ele>435.133911</ele><time>2009-06-14T12:51:54Z</time></trkpt>
<trkpt lat="47.04633236" lon="7.09851980"><ele>435.133911</ele><time>2009-06-14T12:52:07Z</time></trkpt>
<trkpt lat="47.04643965" lon="7.09841251"><ele>434.65332</ele><time>2009-06-14T12:52:14Z</time></trkpt>
<trkpt lat="47.04646111" lon="7.09836960"><ele>434.65332</ele><time>2009-06-14T12:52:15Z</time></trkpt>
<trkpt lat="47.04648256" lon="7.09828377"><ele>434.65332</ele><time>2009-06-14T12:52:18Z</time></trkpt>
<trkpt lat="47.04656839" lon="7.09817648"><ele>434.172607</ele><time>2009-06-14T12:52:24Z</time></trkpt>
<trkpt lat="47.04661131" lon="7.09817648"><ele>433.691895</ele><time>2009-06-14T12:52:27Z</time></trkpt>
<trkpt lat="47.04663277" lon="7.09817648"><ele>433.691895</ele><time>2009-06-14T12:52:28Z</time></trkpt>
<trkpt lat="47.04665422" lon="7.09815502"><ele>433.691895</ele><time>2009-06-14T12:52:30Z</time></trkpt>
<trkpt lat="47.04667568" lon="7.09815502"><ele>433.691895</ele><time>2009-06-14T12:52:32Z</time></trkpt>
<trkpt lat="47.04667568" lon="7.09819794"><ele>431.769165</ele><time>2009-06-14T12:52:35Z</time></trkpt>
<trkpt lat="47.04669714" lon="7.09821939"><ele>432.25</ele><time>2009-06-14T12:52:39Z</time></trkpt>
<trkpt lat="47.04669714" lon="7.09824085"><ele>431.769165</ele><time>2009-06-14T12:52:42Z</time></trkpt>
<trkpt lat="47.04674006" lon="7.09828377"><ele>432.730713</ele><time>2009-06-14T12:52:46Z</time></trkpt>
<trkpt lat="47.04676151" lon="7.09828377"><ele>432.730713</ele><time>2009-06-14T12:52:48Z</time></trkpt>
<trkpt lat="47.04680443" lon="7.09828377"><ele>432.25</ele><time>2009-06-14T12:52:51Z</time></trkpt>
<trkpt lat="47.04682589" lon="7.09830523"><ele>432.730713</ele><time>2009-06-14T12:52:54Z</time></trkpt>
<trkpt lat="47.04684734" lon="7.09830523"><ele>433.211304</ele><time>2009-06-14T12:53:03Z</time></trkpt>
<trkpt lat="47.04686880" lon="7.09832668"><ele>429.846558</ele><time>2009-06-14T12:53:34Z</time></trkpt>
<trkpt lat="47.04686880" lon="7.09832668"><ele>428.885376</ele><time>2009-06-14T12:53:42Z</time></trkpt>
<trkpt lat="47.04686880" lon="7.09830523"><ele>421.675415</ele><time>2009-06-14T12:54:21Z</time></trkpt>
<trkpt lat="47.04691172" lon="7.09832668"><ele>431.769165</ele><time>2009-06-14T12:55:32Z</time></trkpt>
<trkpt lat="47.04686880" lon="7.09834814"><ele>431.769165</ele><time>2009-06-14T12:55:42Z</time></trkpt>
<trkpt lat="47.04686880" lon="7.09832668"><ele>431.769165</ele><time>2009-06-14T12:55:43Z</time></trkpt>
<trkpt lat="47.04686880" lon="7.09826231"><ele>431.288574</ele><time>2009-06-14T12:55:50Z</time></trkpt>
<trkpt lat="47.04686880" lon="7.09826231"><ele>431.288574</ele><time>2009-06-14T12:55:51Z</time></trkpt>
<trkpt lat="47.04686880" lon="7.09821939"><ele>433.211304</ele><time>2009-06-14T12:55:54Z</time></trkpt>
<trkpt lat="47.04686880" lon="7.09817648"><ele>432.730713</ele><time>2009-06-14T12:55:57Z</time></trkpt>
<trkpt lat="47.04684734" lon="7.09815502"><ele>432.730713</ele><time>2009-06-14T12:55:59Z</time></trkpt>
<trkpt lat="47.04684734" lon="7.09811211"><ele>433.211304</ele><time>2009-06-14T12:56:04Z</time></trkpt>
<trkpt lat="47.04684734" lon="7.09811211"><ele>434.172607</ele><time>2009-06-14T12:56:16Z</time></trkpt>
<trkpt lat="47.04684734" lon="7.09800482"><ele>433.691895</ele><time>2009-06-14T12:56:21Z</time></trkpt>
<trkpt lat="47.04684734" lon="7.09796190"><ele>433.691895</ele><time>2009-06-14T12:56:24Z</time></trkpt>
<trkpt lat="47.04684734" lon="7.09791899"><ele>433.211304</ele><time>2009-06-14T12:56:28Z</time></trkpt>
<trkpt lat="47.04682589" lon="7.09789753"><ele>433.211304</ele><time>2009-06-14T12:56:29Z</time></trkpt>
<trkpt lat="47.04682589" lon="7.09787607"><ele>432.730713</ele><time>2009-06-14T12:56:31Z</time></trkpt>
<trkpt lat="47.04684734" lon="7.09783316"><ele>432.25</ele><time>2009-06-14T12:56:38Z</time></trkpt>
<trkpt lat="47.04684734" lon="7.09783316"><ele>432.25</ele><time>2009-06-14T12:56:39Z</time></trkpt>
<trkpt lat="47.04686880" lon="7.09783316"><ele>431.769165</ele><time>2009-06-14T12:56:46Z</time></trkpt>
<trkpt lat="47.04686880" lon="7.09783316"><ele>432.730713</ele><time>2009-06-14T12:57:26Z</time></trkpt>
<trkpt lat="47.04686880" lon="7.09785461"><ele>430.327271</ele><time>2009-06-14T12:57:40Z</time></trkpt>
<trkpt lat="47.04684734" lon="7.09785461"><ele>426.001343</ele><time>2009-06-14T13:51:19Z</time></trkpt>
<trkpt lat="47.04684734" lon="7.09783316"><ele>425.520752</ele><time>2009-06-14T13:51:22Z</time></trkpt>
<trkpt lat="47.04680443" lon="7.09783316"><ele>429.846558</ele><time>2009-06-14T13:54:29Z</time></trkpt>
<trkpt lat="47.04682589" lon="7.09785461"><ele>429.846558</ele><time>2009-06-14T13:54:33Z</time></trkpt>
<trkpt lat="47.04682589" lon="7.09785461"><ele>430.327271</ele><time>2009-06-14T13:54:34Z</time></trkpt>
<trkpt lat="47.04682589" lon="7.09789753"><ele>430.327271</ele><time>2009-06-14T13:54:37Z</time></trkpt>
<trkpt lat="47.04682589" lon="7.09794044"><ele>430.327271</ele><time>2009-06-14T13:54:40Z</time></trkpt>
<trkpt lat="47.04682589" lon="7.09796190"><ele>430.807983</ele><time>2009-06-14T13:54:41Z</time></trkpt>
<trkpt lat="47.04682589" lon="7.09802628"><ele>430.807983</ele><time>2009-06-14T13:54:46Z</time></trkpt>
<trkpt lat="47.04684734" lon="7.09806919"><ele>431.288574</ele><time>2009-06-14T13:54:49Z</time></trkpt>
<trkpt lat="47.04684734" lon="7.09811211"><ele>431.288574</ele><time>2009-06-14T13:54:51Z</time></trkpt>
<trkpt lat="47.04684734" lon="7.09815502"><ele>431.288574</ele><time>2009-06-14T13:54:55Z</time></trkpt>
<trkpt lat="47.04684734" lon="7.09821939"><ele>430.807983</ele><time>2009-06-14T13:54:58Z</time></trkpt>
<trkpt lat="47.04684734" lon="7.09826231"><ele>430.807983</ele><time>2009-06-14T13:55:02Z</time></trkpt>
<trkpt lat="47.04684734" lon="7.09826231"><ele>431.288574</ele><time>2009-06-14T13:55:03Z</time></trkpt>
<trkpt lat="47.04684734" lon="7.09828377"><ele>430.807983</ele><time>2009-06-14T13:55:06Z</time></trkpt>
<trkpt lat="47.04676151" lon="7.09832668"><ele>433.211304</ele><time>2009-06-14T13:55:24Z</time></trkpt>
<trkpt lat="47.04674006" lon="7.09834814"><ele>432.730713</ele><time>2009-06-14T13:55:27Z</time></trkpt>
<trkpt lat="47.04667568" lon="7.09834814"><ele>431.769165</ele><time>2009-06-14T13:55:30Z</time></trkpt>
<trkpt lat="47.04658985" lon="7.09839106"><ele>431.288574</ele><time>2009-06-14T13:55:35Z</time></trkpt>
<trkpt lat="47.04643965" lon="7.09843397"><ele>432.25</ele><time>2009-06-14T13:55:43Z</time></trkpt>
<trkpt lat="47.04639673" lon="7.09847689"><ele>432.25</ele><time>2009-06-14T13:55:46Z</time></trkpt>
<trkpt lat="47.04635382" lon="7.09851980"><ele>432.25</ele><time>2009-06-14T13:55:48Z</time></trkpt>
<trkpt lat="47.04626799" lon="7.09854126"><ele>432.25</ele><time>2009-06-14T13:55:52Z</time></trkpt>
<trkpt lat="47.04622507" lon="7.09856272"><ele>432.25</ele><time>2009-06-14T13:55:54Z</time></trkpt>
<trkpt lat="47.04618216" lon="7.09856272"><ele>432.25</ele><time>2009-06-14T13:55:56Z</time></trkpt>
<trkpt lat="47.04616070" lon="7.09856272"><ele>432.25</ele><time>2009-06-14T13:55:58Z</time></trkpt>
<trkpt lat="47.04601049" lon="7.09858418"><ele>433.211304</ele><time>2009-06-14T13:56:05Z</time></trkpt>
<trkpt lat="47.04592466" lon="7.09862709"><ele>433.691895</ele><time>2009-06-14T13:56:09Z</time></trkpt>
<trkpt lat="47.04590321" lon="7.09862709"><ele>433.691895</ele><time>2009-06-14T13:56:11Z</time></trkpt>
<trkpt lat="47.04579592" lon="7.09867001"><ele>433.691895</ele><time>2009-06-14T13:56:15Z</time></trkpt>
<trkpt lat="47.04575300" lon="7.09869146"><ele>433.691895</ele><time>2009-06-14T13:56:17Z</time></trkpt>
<trkpt lat="47.04562426" lon="7.09871292"><ele>433.211304</ele><time>2009-06-14T13:56:21Z</time></trkpt>
<trkpt lat="47.04551697" lon="7.09877729"><ele>433.211304</ele><time>2009-06-14T13:56:25Z</time></trkpt>
<trkpt lat="47.04545259" lon="7.09877729"><ele>433.211304</ele><time>2009-06-14T13:56:27Z</time></trkpt>
<trkpt lat="47.04534531" lon="7.09879875"><ele>432.730713</ele><time>2009-06-14T13:56:31Z</time></trkpt>
<trkpt lat="47.04521656" lon="7.09875584"><ele>433.211304</ele><time>2009-06-14T13:56:35Z</time></trkpt>
<trkpt lat="47.04513073" lon="7.09867001"><ele>433.211304</ele><time>2009-06-14T13:56:39Z</time></trkpt>
<trkpt lat="47.04483032" lon="7.09798336"><ele>430.807983</ele><time>2009-06-14T13:56:56Z</time></trkpt>
<trkpt lat="47.04472303" lon="7.09768295"><ele>429.846558</ele><time>2009-06-14T13:57:03Z</time></trkpt>
<trkpt lat="47.04468012" lon="7.09751129"><ele>429.365967</ele><time>2009-06-14T13:57:07Z</time></trkpt>
<trkpt lat="47.04461575" lon="7.09723234"><ele>428.404663</ele><time>2009-06-14T13:57:14Z</time></trkpt>
<trkpt lat="47.04459429" lon="7.09710360"><ele>429.365967</ele><time>2009-06-14T13:57:17Z</time></trkpt>
<trkpt lat="47.04470158" lon="7.09699631"><ele>429.846558</ele><time>2009-06-14T13:57:23Z</time></trkpt>
<trkpt lat="47.04478741" lon="7.09695339"><ele>429.846558</ele><time>2009-06-14T13:57:26Z</time></trkpt>
<trkpt lat="47.04495907" lon="7.09680319"><ele>430.327271</ele><time>2009-06-14T13:57:31Z</time></trkpt>
<trkpt lat="47.04508781" lon="7.09663153"><ele>430.327271</ele><time>2009-06-14T13:57:35Z</time></trkpt>
<trkpt lat="47.04519510" lon="7.09641695"><ele>430.327271</ele><time>2009-06-14T13:57:39Z</time></trkpt>
<trkpt lat="47.04532385" lon="7.09540844"><ele>429.365967</ele><time>2009-06-14T13:57:56Z</time></trkpt>
<trkpt lat="47.04515219" lon="7.09427118"><ele>430.327271</ele><time>2009-06-14T13:58:14Z</time></trkpt>
<trkpt lat="47.04478741" lon="7.09339142"><ele>428.404663</ele><time>2009-06-14T13:58:34Z</time></trkpt>
<trkpt lat="47.04476595" lon="7.09334850"><ele>428.404663</ele><time>2009-06-14T13:58:36Z</time></trkpt>
<trkpt lat="47.04472303" lon="7.09328413"><ele>427.92395</ele><time>2009-06-14T13:58:38Z</time></trkpt>
<trkpt lat="47.04437971" lon="7.09264040"><ele>427.92395</ele><time>2009-06-14T13:58:54Z</time></trkpt>
<trkpt lat="47.04431534" lon="7.09244728"><ele>429.365967</ele><time>2009-06-14T13:58:58Z</time></trkpt>
<trkpt lat="47.04427242" lon="7.09233999"><ele>430.327271</ele><time>2009-06-14T13:59:00Z</time></trkpt>
<trkpt lat="47.04403639" lon="7.09131002"><ele>429.365967</ele><time>2009-06-14T13:59:19Z</time></trkpt>
<trkpt lat="47.04401493" lon="7.09124565"><ele>429.365967</ele><time>2009-06-14T13:59:20Z</time></trkpt>
<trkpt lat="47.04401493" lon="7.09107399"><ele>429.365967</ele><time>2009-06-14T13:59:23Z</time></trkpt>
<trkpt lat="47.04405785" lon="7.08970070"><ele>427.92395</ele><time>2009-06-14T13:59:43Z</time></trkpt>
<trkpt lat="47.04425097" lon="7.08813429"><ele>426.962769</ele><time>2009-06-14T14:00:05Z</time></trkpt>
<trkpt lat="47.04414368" lon="7.08661079"><ele>429.365967</ele><time>2009-06-14T14:00:27Z</time></trkpt>
<trkpt lat="47.04395056" lon="7.08543062"><ele>432.25</ele><time>2009-06-14T14:00:45Z</time></trkpt>
<trkpt lat="47.04362869" lon="7.08386421"><ele>430.327271</ele><time>2009-06-14T14:01:07Z</time></trkpt>
<trkpt lat="47.04328537" lon="7.08236217"><ele>426.962769</ele><time>2009-06-14T14:01:25Z</time></trkpt>
<trkpt lat="47.04287767" lon="7.08107471"><ele>424.078735</ele><time>2009-06-14T14:01:45Z</time></trkpt>
<trkpt lat="47.04251289" lon="7.07976580"><ele>425.040161</ele><time>2009-06-14T14:02:05Z</time></trkpt>
<trkpt lat="47.04242706" lon="7.07918644"><ele>424.078735</ele><time>2009-06-14T14:02:14Z</time></trkpt>
<trkpt lat="47.04227686" lon="7.07920790"><ele>426.482056</ele><time>2009-06-14T14:02:21Z</time></trkpt>
<trkpt lat="47.04223394" lon="7.07905769"><ele>426.482056</ele><time>2009-06-14T14:02:28Z</time></trkpt>
<trkpt lat="47.04223394" lon="7.07897186"><ele>426.482056</ele><time>2009-06-14T14:02:30Z</time></trkpt>
<trkpt lat="47.04223394" lon="7.07890749"><ele>426.482056</ele><time>2009-06-14T14:02:32Z</time></trkpt>
<trkpt lat="47.04223394" lon="7.07880020"><ele>426.962769</ele><time>2009-06-14T14:02:38Z</time></trkpt>
<trkpt lat="47.04231977" lon="7.07880020"><ele>440.421265</ele><time>2009-06-14T14:06:25Z</time></trkpt>
<trkpt lat="47.04231977" lon="7.07880020"><ele>440.421265</ele><time>2009-06-14T14:06:25Z</time></trkpt>
<trkpt lat="47.04231977" lon="7.07880020"><ele>440.421265</ele><time>2009-06-14T14:06:25Z</time></trkpt>
<trkpt lat="47.04231977" lon="7.07880020"><ele>438.979126</ele><time>2009-06-14T14:06:42Z</time></trkpt>
<trkpt lat="47.07055807" lon="6.69560909"><ele>390.913208</ele><time>2009-06-14T16:20:54Z</time></trkpt>
<trkpt lat="47.07057953" lon="6.69558764"><ele>390.913208</ele><time>2009-06-14T16:21:21Z</time></trkpt>
</trkseg></trk></gpx>